<?xml version="1.0" encoding="UTF-8" standalone="no" ?>
<gpx xmlns="http://www.topografix.com/GPX/1/1" xmlns:xsi="http://www.w3.org/2001/XMLSchema-instance" xsi:schemaLocation="http://www.topografix.com/GPX/1/1 http://www.topografix.com/GPX/1/1/gpx.xsd" version="1.1" creator="VisuGPX - https://www.visugpx.com">
  <metadata>
    <name>MAGY LES HAMEAUX ABBAYE DE PORT ROYAL</name>
    <desc><![CDATA[[img]https://4.bp.blogspot.com/-CBUmrUw11Uo/Wtr_c5QVTSI/AAAAAAAAPL4/18f8zkojvuQ3yH17tt2Md3CAeGiWpXpOQCLcBGAs/s1600/RONG-ConvertImage.icoo[/img]   [b]Rando Club Yerrois[/b]


[img]https://4.bp.blogspot.com/-CBUmrUw11Uo/Wtr_c5QVTSI/AAAAAAAAPL4/18f8zkojvuQ3yH17tt2Md3CAeGiWpXpOQCLcBGAs/s1600/RONG-ConvertImage.icoo[/img]   [b]Rando Club Yerrois[/b]

[b]Date[/b] :  Dimanche 21 Août 2017
[b]Animateur[/b] : Véronique
[b]Groupe[/b] : 18-22 km
[b]Effectif[/b] : 26

[b]Remarque particulière[/b] : Superbe météo - TRando très agréable sans difficultés particulières


[b]Avertissement[/b] Toutes les randonnées répertoriées dans la randothèque du [b]R[/b]ando [b]C[/b]lub [b]Y[/b]errois ont été tracées par l'un de nos animateurs, puis reconnues et enfin effectuées avec un groupe. Pour votre sécurité, regardez toujours la date à laquelle la sortie a été effectuée - Nous tachons de mentionner des conditions météos particulières ou les difficultés éventuelles. N'oubliez jamais les consignes élémentaires de sécurité.
]]></desc>
  </metadata>
  <trk>
    <name><![CDATA[MAGY LES HAMEAUX ABBAYE DE PORT ROYAL_1]]></name>
    <trkseg>
      <trkpt lat="48.7485" lon="2.01631">
        <ele>165</ele>
        <time>2017-08-20T10:01:20Z</time>
      </trkpt>
      <trkpt lat="48.74847" lon="2.01627">
        <ele>165</ele>
        <time>2017-08-20T10:01:20Z</time>
      </trkpt>
      <trkpt lat="48.74845" lon="2.01626">
        <ele>165</ele>
        <time>2017-08-20T10:01:20Z</time>
      </trkpt>
      <trkpt lat="48.74844" lon="2.01621">
        <ele>167</ele>
        <time>2017-08-20T10:01:20Z</time>
      </trkpt>
      <trkpt lat="48.74844" lon="2.0162">
        <ele>167</ele>
        <time>2017-08-20T10:01:20Z</time>
      </trkpt>
      <trkpt lat="48.74843" lon="2.01618">
        <ele>167</ele>
        <time>2017-08-20T10:01:36Z</time>
      </trkpt>
      <trkpt lat="48.74844" lon="2.01612">
        <ele>167</ele>
        <time>2017-08-20T10:01:36Z</time>
      </trkpt>
      <trkpt lat="48.74845" lon="2.01609">
        <ele>167</ele>
        <time>2017-08-20T10:01:36Z</time>
      </trkpt>
      <trkpt lat="48.74845" lon="2.01603">
        <ele>167</ele>
        <time>2017-08-20T10:01:36Z</time>
      </trkpt>
      <trkpt lat="48.74846" lon="2.01598">
        <ele>167</ele>
        <time>2017-08-20T10:01:52Z</time>
      </trkpt>
      <trkpt lat="48.74846" lon="2.01592">
        <ele>167</ele>
        <time>2017-08-20T10:01:52Z</time>
      </trkpt>
      <trkpt lat="48.74847" lon="2.01585">
        <ele>167</ele>
        <time>2017-08-20T10:01:52Z</time>
      </trkpt>
      <trkpt lat="48.74847" lon="2.01578">
        <ele>167</ele>
        <time>2017-08-20T10:01:52Z</time>
      </trkpt>
      <trkpt lat="48.74847" lon="2.01572">
        <ele>167</ele>
        <time>2017-08-20T10:02:08Z</time>
      </trkpt>
      <trkpt lat="48.74847" lon="2.01566">
        <ele>167</ele>
        <time>2017-08-20T10:02:08Z</time>
      </trkpt>
      <trkpt lat="48.74848" lon="2.01559">
        <ele>167</ele>
        <time>2017-08-20T10:02:08Z</time>
      </trkpt>
      <trkpt lat="48.74847" lon="2.01553">
        <ele>167</ele>
        <time>2017-08-20T10:02:08Z</time>
      </trkpt>
      <trkpt lat="48.74847" lon="2.01545">
        <ele>167</ele>
        <time>2017-08-20T10:02:24Z</time>
      </trkpt>
      <trkpt lat="48.74847" lon="2.01538">
        <ele>166</ele>
        <time>2017-08-20T10:02:24Z</time>
      </trkpt>
      <trkpt lat="48.74847" lon="2.01532">
        <ele>166</ele>
        <time>2017-08-20T10:02:24Z</time>
      </trkpt>
      <trkpt lat="48.74847" lon="2.0153">
        <ele>166</ele>
        <time>2017-08-20T10:02:24Z</time>
      </trkpt>
      <trkpt lat="48.74848" lon="2.0153">
        <ele>166</ele>
        <time>2017-08-20T10:02:40Z</time>
      </trkpt>
      <trkpt lat="48.74848" lon="2.01524">
        <ele>166</ele>
        <time>2017-08-20T10:02:40Z</time>
      </trkpt>
      <trkpt lat="48.74848" lon="2.01516">
        <ele>166</ele>
        <time>2017-08-20T10:02:40Z</time>
      </trkpt>
      <trkpt lat="48.74849" lon="2.0151">
        <ele>166</ele>
        <time>2017-08-20T10:02:40Z</time>
      </trkpt>
      <trkpt lat="48.74851" lon="2.01506">
        <ele>166</ele>
        <time>2017-08-20T10:02:56Z</time>
      </trkpt>
      <trkpt lat="48.74853" lon="2.01498">
        <ele>166</ele>
        <time>2017-08-20T10:02:56Z</time>
      </trkpt>
      <trkpt lat="48.74852" lon="2.0149">
        <ele>166</ele>
        <time>2017-08-20T10:02:56Z</time>
      </trkpt>
      <trkpt lat="48.74852" lon="2.01482">
        <ele>166</ele>
        <time>2017-08-20T10:02:56Z</time>
      </trkpt>
      <trkpt lat="48.74851" lon="2.01473">
        <ele>166</ele>
        <time>2017-08-20T10:03:12Z</time>
      </trkpt>
      <trkpt lat="48.74851" lon="2.01466">
        <ele>166</ele>
        <time>2017-08-20T10:03:12Z</time>
      </trkpt>
      <trkpt lat="48.74851" lon="2.01461">
        <ele>166</ele>
        <time>2017-08-20T10:03:12Z</time>
      </trkpt>
      <trkpt lat="48.74851" lon="2.01453">
        <ele>164</ele>
        <time>2017-08-20T10:03:12Z</time>
      </trkpt>
      <trkpt lat="48.74851" lon="2.01443">
        <ele>164</ele>
        <time>2017-08-20T10:03:28Z</time>
      </trkpt>
      <trkpt lat="48.74852" lon="2.01434">
        <ele>164</ele>
        <time>2017-08-20T10:03:28Z</time>
      </trkpt>
      <trkpt lat="48.74851" lon="2.01425">
        <ele>164</ele>
        <time>2017-08-20T10:03:28Z</time>
      </trkpt>
      <trkpt lat="48.74852" lon="2.01417">
        <ele>164</ele>
        <time>2017-08-20T10:03:28Z</time>
      </trkpt>
      <trkpt lat="48.74852" lon="2.01408">
        <ele>164</ele>
        <time>2017-08-20T10:03:44Z</time>
      </trkpt>
      <trkpt lat="48.74853" lon="2.01399">
        <ele>164</ele>
        <time>2017-08-20T10:03:44Z</time>
      </trkpt>
      <trkpt lat="48.74853" lon="2.01391">
        <ele>164</ele>
        <time>2017-08-20T10:03:44Z</time>
      </trkpt>
      <trkpt lat="48.74854" lon="2.01382">
        <ele>164</ele>
        <time>2017-08-20T10:03:44Z</time>
      </trkpt>
      <trkpt lat="48.74854" lon="2.01373">
        <ele>166</ele>
        <time>2017-08-20T10:04:00Z</time>
      </trkpt>
      <trkpt lat="48.74855" lon="2.01363">
        <ele>166</ele>
        <time>2017-08-20T10:04:00Z</time>
      </trkpt>
      <trkpt lat="48.74856" lon="2.01354">
        <ele>166</ele>
        <time>2017-08-20T10:04:00Z</time>
      </trkpt>
      <trkpt lat="48.74856" lon="2.01346">
        <ele>166</ele>
        <time>2017-08-20T10:04:00Z</time>
      </trkpt>
      <trkpt lat="48.74858" lon="2.01338">
        <ele>166</ele>
        <time>2017-08-20T10:04:16Z</time>
      </trkpt>
      <trkpt lat="48.74859" lon="2.01328">
        <ele>166</ele>
        <time>2017-08-20T10:04:16Z</time>
      </trkpt>
      <trkpt lat="48.7486" lon="2.01319">
        <ele>166</ele>
        <time>2017-08-20T10:04:16Z</time>
      </trkpt>
      <trkpt lat="48.74862" lon="2.01311">
        <ele>166</ele>
        <time>2017-08-20T10:04:16Z</time>
      </trkpt>
      <trkpt lat="48.74863" lon="2.01303">
        <ele>166</ele>
        <time>2017-08-20T10:04:32Z</time>
      </trkpt>
      <trkpt lat="48.74865" lon="2.01295">
        <ele>166</ele>
        <time>2017-08-20T10:04:32Z</time>
      </trkpt>
      <trkpt lat="48.74866" lon="2.01287">
        <ele>167</ele>
        <time>2017-08-20T10:04:32Z</time>
      </trkpt>
      <trkpt lat="48.74868" lon="2.01281">
        <ele>167</ele>
        <time>2017-08-20T10:04:32Z</time>
      </trkpt>
      <trkpt lat="48.7487" lon="2.01274">
        <ele>167</ele>
        <time>2017-08-20T10:04:48Z</time>
      </trkpt>
      <trkpt lat="48.74872" lon="2.01267">
        <ele>167</ele>
        <time>2017-08-20T10:04:48Z</time>
      </trkpt>
      <trkpt lat="48.74874" lon="2.0126">
        <ele>167</ele>
        <time>2017-08-20T10:04:48Z</time>
      </trkpt>
      <trkpt lat="48.74876" lon="2.01253">
        <ele>166</ele>
        <time>2017-08-20T10:04:48Z</time>
      </trkpt>
      <trkpt lat="48.74878" lon="2.01245">
        <ele>166</ele>
        <time>2017-08-20T10:05:04Z</time>
      </trkpt>
      <trkpt lat="48.7488" lon="2.01237">
        <ele>166</ele>
        <time>2017-08-20T10:05:04Z</time>
      </trkpt>
      <trkpt lat="48.74881" lon="2.01229">
        <ele>166</ele>
        <time>2017-08-20T10:05:04Z</time>
      </trkpt>
      <trkpt lat="48.74883" lon="2.01223">
        <ele>166</ele>
        <time>2017-08-20T10:05:04Z</time>
      </trkpt>
      <trkpt lat="48.74886" lon="2.01216">
        <ele>166</ele>
        <time>2017-08-20T10:05:20Z</time>
      </trkpt>
      <trkpt lat="48.74888" lon="2.01209">
        <ele>166</ele>
        <time>2017-08-20T10:05:20Z</time>
      </trkpt>
      <trkpt lat="48.7489" lon="2.01201">
        <ele>168</ele>
        <time>2017-08-20T10:05:20Z</time>
      </trkpt>
      <trkpt lat="48.74892" lon="2.01193">
        <ele>168</ele>
        <time>2017-08-20T10:05:20Z</time>
      </trkpt>
      <trkpt lat="48.74894" lon="2.01186">
        <ele>168</ele>
        <time>2017-08-20T10:05:36Z</time>
      </trkpt>
      <trkpt lat="48.74898" lon="2.01178">
        <ele>168</ele>
        <time>2017-08-20T10:05:36Z</time>
      </trkpt>
      <trkpt lat="48.74901" lon="2.01175">
        <ele>168</ele>
        <time>2017-08-20T10:05:36Z</time>
      </trkpt>
      <trkpt lat="48.74902" lon="2.01164">
        <ele>168</ele>
        <time>2017-08-20T10:05:36Z</time>
      </trkpt>
      <trkpt lat="48.74902" lon="2.01154">
        <ele>168</ele>
        <time>2017-08-20T10:05:52Z</time>
      </trkpt>
      <trkpt lat="48.74902" lon="2.01146">
        <ele>168</ele>
        <time>2017-08-20T10:05:52Z</time>
      </trkpt>
      <trkpt lat="48.74903" lon="2.01137">
        <ele>168</ele>
        <time>2017-08-20T10:05:52Z</time>
      </trkpt>
      <trkpt lat="48.74907" lon="2.01131">
        <ele>168</ele>
        <time>2017-08-20T10:05:52Z</time>
      </trkpt>
      <trkpt lat="48.74909" lon="2.01126">
        <ele>168</ele>
        <time>2017-08-20T10:06:08Z</time>
      </trkpt>
      <trkpt lat="48.74913" lon="2.01122">
        <ele>170</ele>
        <time>2017-08-20T10:06:08Z</time>
      </trkpt>
      <trkpt lat="48.74913" lon="2.01113">
        <ele>170</ele>
        <time>2017-08-20T10:06:08Z</time>
      </trkpt>
      <trkpt lat="48.74915" lon="2.01107">
        <ele>170</ele>
        <time>2017-08-20T10:06:08Z</time>
      </trkpt>
      <trkpt lat="48.74916" lon="2.01099">
        <ele>170</ele>
        <time>2017-08-20T10:06:24Z</time>
      </trkpt>
      <trkpt lat="48.74917" lon="2.0109">
        <ele>170</ele>
        <time>2017-08-20T10:06:24Z</time>
      </trkpt>
      <trkpt lat="48.74919" lon="2.01078">
        <ele>170</ele>
        <time>2017-08-20T10:06:24Z</time>
      </trkpt>
      <trkpt lat="48.74922" lon="2.01067">
        <ele>170</ele>
        <time>2017-08-20T10:06:24Z</time>
      </trkpt>
      <trkpt lat="48.74924" lon="2.01058">
        <ele>170</ele>
        <time>2017-08-20T10:06:40Z</time>
      </trkpt>
      <trkpt lat="48.74926" lon="2.0105">
        <ele>170</ele>
        <time>2017-08-20T10:06:40Z</time>
      </trkpt>
      <trkpt lat="48.74929" lon="2.01041">
        <ele>171</ele>
        <time>2017-08-20T10:06:40Z</time>
      </trkpt>
      <trkpt lat="48.7493" lon="2.01035">
        <ele>171</ele>
        <time>2017-08-20T10:06:40Z</time>
      </trkpt>
      <trkpt lat="48.74933" lon="2.01029">
        <ele>171</ele>
        <time>2017-08-20T10:06:56Z</time>
      </trkpt>
      <trkpt lat="48.74934" lon="2.01024">
        <ele>171</ele>
        <time>2017-08-20T10:06:56Z</time>
      </trkpt>
      <trkpt lat="48.74935" lon="2.01015">
        <ele>171</ele>
        <time>2017-08-20T10:06:56Z</time>
      </trkpt>
      <trkpt lat="48.74938" lon="2.01008">
        <ele>171</ele>
        <time>2017-08-20T10:06:56Z</time>
      </trkpt>
      <trkpt lat="48.74939" lon="2.00999">
        <ele>171</ele>
        <time>2017-08-20T10:07:12Z</time>
      </trkpt>
      <trkpt lat="48.7494" lon="2.00992">
        <ele>171</ele>
        <time>2017-08-20T10:07:12Z</time>
      </trkpt>
      <trkpt lat="48.74942" lon="2.00983">
        <ele>171</ele>
        <time>2017-08-20T10:07:12Z</time>
      </trkpt>
      <trkpt lat="48.74944" lon="2.00976">
        <ele>171</ele>
        <time>2017-08-20T10:07:12Z</time>
      </trkpt>
      <trkpt lat="48.74946" lon="2.00972">
        <ele>171</ele>
        <time>2017-08-20T10:07:28Z</time>
      </trkpt>
      <trkpt lat="48.74946" lon="2.00963">
        <ele>171</ele>
        <time>2017-08-20T10:07:28Z</time>
      </trkpt>
      <trkpt lat="48.74947" lon="2.00956">
        <ele>172</ele>
        <time>2017-08-20T10:07:28Z</time>
      </trkpt>
      <trkpt lat="48.74947" lon="2.00951">
        <ele>172</ele>
        <time>2017-08-20T10:07:28Z</time>
      </trkpt>
      <trkpt lat="48.7495" lon="2.00942">
        <ele>172</ele>
        <time>2017-08-20T10:07:44Z</time>
      </trkpt>
      <trkpt lat="48.74953" lon="2.00935">
        <ele>172</ele>
        <time>2017-08-20T10:07:44Z</time>
      </trkpt>
      <trkpt lat="48.74954" lon="2.00929">
        <ele>172</ele>
        <time>2017-08-20T10:07:44Z</time>
      </trkpt>
      <trkpt lat="48.74955" lon="2.00921">
        <ele>172</ele>
        <time>2017-08-20T10:07:44Z</time>
      </trkpt>
      <trkpt lat="48.74958" lon="2.00912">
        <ele>172</ele>
        <time>2017-08-20T10:08:00Z</time>
      </trkpt>
      <trkpt lat="48.74959" lon="2.00905">
        <ele>168</ele>
        <time>2017-08-20T10:08:00Z</time>
      </trkpt>
      <trkpt lat="48.74962" lon="2.009">
        <ele>168</ele>
        <time>2017-08-20T10:08:00Z</time>
      </trkpt>
      <trkpt lat="48.74964" lon="2.00892">
        <ele>168</ele>
        <time>2017-08-20T10:08:00Z</time>
      </trkpt>
      <trkpt lat="48.74966" lon="2.00883">
        <ele>168</ele>
        <time>2017-08-20T10:08:16Z</time>
      </trkpt>
      <trkpt lat="48.74966" lon="2.00875">
        <ele>168</ele>
        <time>2017-08-20T10:08:16Z</time>
      </trkpt>
      <trkpt lat="48.74967" lon="2.00871">
        <ele>169</ele>
        <time>2017-08-20T10:08:16Z</time>
      </trkpt>
      <trkpt lat="48.74968" lon="2.00869">
        <ele>169</ele>
        <time>2017-08-20T10:08:16Z</time>
      </trkpt>
      <trkpt lat="48.74969" lon="2.00865">
        <ele>169</ele>
        <time>2017-08-20T10:08:32Z</time>
      </trkpt>
      <trkpt lat="48.7497" lon="2.00859">
        <ele>169</ele>
        <time>2017-08-20T10:08:32Z</time>
      </trkpt>
      <trkpt lat="48.74971" lon="2.00852">
        <ele>169</ele>
        <time>2017-08-20T10:08:32Z</time>
      </trkpt>
      <trkpt lat="48.74973" lon="2.00847">
        <ele>169</ele>
        <time>2017-08-20T10:08:32Z</time>
      </trkpt>
      <trkpt lat="48.74976" lon="2.00841">
        <ele>169</ele>
        <time>2017-08-20T10:08:48Z</time>
      </trkpt>
      <trkpt lat="48.74979" lon="2.00836">
        <ele>169</ele>
        <time>2017-08-20T10:08:48Z</time>
      </trkpt>
      <trkpt lat="48.74983" lon="2.00828">
        <ele>169</ele>
        <time>2017-08-20T10:08:48Z</time>
      </trkpt>
      <trkpt lat="48.74987" lon="2.00819">
        <ele>169</ele>
        <time>2017-08-20T10:08:48Z</time>
      </trkpt>
      <trkpt lat="48.74989" lon="2.00813">
        <ele>169</ele>
        <time>2017-08-20T10:09:04Z</time>
      </trkpt>
      <trkpt lat="48.74992" lon="2.00807">
        <ele>169</ele>
        <time>2017-08-20T10:09:04Z</time>
      </trkpt>
      <trkpt lat="48.74994" lon="2.00803">
        <ele>169</ele>
        <time>2017-08-20T10:09:04Z</time>
      </trkpt>
      <trkpt lat="48.74997" lon="2.00793">
        <ele>169</ele>
        <time>2017-08-20T10:09:04Z</time>
      </trkpt>
      <trkpt lat="48.74999" lon="2.00788">
        <ele>174</ele>
        <time>2017-08-20T10:09:20Z</time>
      </trkpt>
      <trkpt lat="48.75" lon="2.0078">
        <ele>174</ele>
        <time>2017-08-20T10:09:20Z</time>
      </trkpt>
      <trkpt lat="48.75002" lon="2.00777">
        <ele>174</ele>
        <time>2017-08-20T10:09:20Z</time>
      </trkpt>
      <trkpt lat="48.75004" lon="2.00769">
        <ele>174</ele>
        <time>2017-08-20T10:09:20Z</time>
      </trkpt>
      <trkpt lat="48.75006" lon="2.00762">
        <ele>174</ele>
        <time>2017-08-20T10:09:36Z</time>
      </trkpt>
      <trkpt lat="48.75009" lon="2.00756">
        <ele>174</ele>
        <time>2017-08-20T10:09:36Z</time>
      </trkpt>
      <trkpt lat="48.75013" lon="2.0075">
        <ele>174</ele>
        <time>2017-08-20T10:09:36Z</time>
      </trkpt>
      <trkpt lat="48.75016" lon="2.00742">
        <ele>174</ele>
        <time>2017-08-20T10:09:36Z</time>
      </trkpt>
      <trkpt lat="48.75017" lon="2.00737">
        <ele>174</ele>
        <time>2017-08-20T10:09:52Z</time>
      </trkpt>
      <trkpt lat="48.7502" lon="2.00726">
        <ele>174</ele>
        <time>2017-08-20T10:09:52Z</time>
      </trkpt>
      <trkpt lat="48.75021" lon="2.00719">
        <ele>174</ele>
        <time>2017-08-20T10:09:52Z</time>
      </trkpt>
      <trkpt lat="48.75023" lon="2.00717">
        <ele>174</ele>
        <time>2017-08-20T10:09:52Z</time>
      </trkpt>
      <trkpt lat="48.75026" lon="2.00712">
        <ele>174</ele>
        <time>2017-08-20T10:10:08Z</time>
      </trkpt>
      <trkpt lat="48.7503" lon="2.00705">
        <ele>175</ele>
        <time>2017-08-20T10:10:08Z</time>
      </trkpt>
      <trkpt lat="48.75035" lon="2.00698">
        <ele>175</ele>
        <time>2017-08-20T10:10:08Z</time>
      </trkpt>
      <trkpt lat="48.75041" lon="2.00692">
        <ele>175</ele>
        <time>2017-08-20T10:10:08Z</time>
      </trkpt>
      <trkpt lat="48.75044" lon="2.00688">
        <ele>172</ele>
        <time>2017-08-20T10:10:24Z</time>
      </trkpt>
      <trkpt lat="48.75048" lon="2.00687">
        <ele>172</ele>
        <time>2017-08-20T10:10:24Z</time>
      </trkpt>
      <trkpt lat="48.75052" lon="2.00681">
        <ele>172</ele>
        <time>2017-08-20T10:10:24Z</time>
      </trkpt>
      <trkpt lat="48.75056" lon="2.00676">
        <ele>172</ele>
        <time>2017-08-20T10:10:24Z</time>
      </trkpt>
      <trkpt lat="48.75058" lon="2.00672">
        <ele>172</ele>
        <time>2017-08-20T10:10:40Z</time>
      </trkpt>
      <trkpt lat="48.75063" lon="2.00664">
        <ele>172</ele>
        <time>2017-08-20T10:10:40Z</time>
      </trkpt>
      <trkpt lat="48.75067" lon="2.00658">
        <ele>172</ele>
        <time>2017-08-20T10:10:40Z</time>
      </trkpt>
      <trkpt lat="48.75073" lon="2.00656">
        <ele>172</ele>
        <time>2017-08-20T10:10:40Z</time>
      </trkpt>
      <trkpt lat="48.75078" lon="2.00652">
        <ele>172</ele>
        <time>2017-08-20T10:10:56Z</time>
      </trkpt>
      <trkpt lat="48.75084" lon="2.00649">
        <ele>172</ele>
        <time>2017-08-20T10:10:56Z</time>
      </trkpt>
      <trkpt lat="48.75091" lon="2.00647">
        <ele>172</ele>
        <time>2017-08-20T10:10:56Z</time>
      </trkpt>
      <trkpt lat="48.75094" lon="2.00642">
        <ele>172</ele>
        <time>2017-08-20T10:10:56Z</time>
      </trkpt>
      <trkpt lat="48.75096" lon="2.00638">
        <ele>172</ele>
        <time>2017-08-20T10:11:12Z</time>
      </trkpt>
      <trkpt lat="48.751" lon="2.00634">
        <ele>172</ele>
        <time>2017-08-20T10:11:12Z</time>
      </trkpt>
      <trkpt lat="48.75104" lon="2.00629">
        <ele>172</ele>
        <time>2017-08-20T10:11:12Z</time>
      </trkpt>
      <trkpt lat="48.75109" lon="2.00624">
        <ele>175</ele>
        <time>2017-08-20T10:11:12Z</time>
      </trkpt>
      <trkpt lat="48.75112" lon="2.0062">
        <ele>175</ele>
        <time>2017-08-20T10:11:28Z</time>
      </trkpt>
      <trkpt lat="48.75118" lon="2.00612">
        <ele>175</ele>
        <time>2017-08-20T10:11:28Z</time>
      </trkpt>
      <trkpt lat="48.75121" lon="2.00609">
        <ele>175</ele>
        <time>2017-08-20T10:11:28Z</time>
      </trkpt>
      <trkpt lat="48.75125" lon="2.00603">
        <ele>174</ele>
        <time>2017-08-20T10:11:28Z</time>
      </trkpt>
      <trkpt lat="48.75135" lon="2.006">
        <ele>174</ele>
        <time>2017-08-20T10:11:44Z</time>
      </trkpt>
      <trkpt lat="48.75141" lon="2.00595">
        <ele>174</ele>
        <time>2017-08-20T10:11:44Z</time>
      </trkpt>
      <trkpt lat="48.75147" lon="2.00586">
        <ele>174</ele>
        <time>2017-08-20T10:11:44Z</time>
      </trkpt>
      <trkpt lat="48.75151" lon="2.00583">
        <ele>174</ele>
        <time>2017-08-20T10:11:44Z</time>
      </trkpt>
      <trkpt lat="48.75156" lon="2.00579">
        <ele>174</ele>
        <time>2017-08-20T10:12:00Z</time>
      </trkpt>
      <trkpt lat="48.75159" lon="2.00577">
        <ele>174</ele>
        <time>2017-08-20T10:12:00Z</time>
      </trkpt>
      <trkpt lat="48.75164" lon="2.00574">
        <ele>174</ele>
        <time>2017-08-20T10:12:00Z</time>
      </trkpt>
      <trkpt lat="48.75167" lon="2.00568">
        <ele>174</ele>
        <time>2017-08-20T10:12:00Z</time>
      </trkpt>
      <trkpt lat="48.75173" lon="2.00561">
        <ele>174</ele>
        <time>2017-08-20T10:12:16Z</time>
      </trkpt>
      <trkpt lat="48.75176" lon="2.00558">
        <ele>174</ele>
        <time>2017-08-20T10:12:16Z</time>
      </trkpt>
      <trkpt lat="48.7518" lon="2.00553">
        <ele>174</ele>
        <time>2017-08-20T10:12:16Z</time>
      </trkpt>
      <trkpt lat="48.75186" lon="2.00548">
        <ele>174</ele>
        <time>2017-08-20T10:12:16Z</time>
      </trkpt>
      <trkpt lat="48.75192" lon="2.00545">
        <ele>174</ele>
        <time>2017-08-20T10:12:32Z</time>
      </trkpt>
      <trkpt lat="48.75198" lon="2.0054">
        <ele>172</ele>
        <time>2017-08-20T10:12:32Z</time>
      </trkpt>
      <trkpt lat="48.75202" lon="2.00535">
        <ele>172</ele>
        <time>2017-08-20T10:12:32Z</time>
      </trkpt>
      <trkpt lat="48.75205" lon="2.0053">
        <ele>172</ele>
        <time>2017-08-20T10:12:32Z</time>
      </trkpt>
      <trkpt lat="48.75211" lon="2.00526">
        <ele>172</ele>
        <time>2017-08-20T10:12:48Z</time>
      </trkpt>
      <trkpt lat="48.75215" lon="2.0052">
        <ele>172</ele>
        <time>2017-08-20T10:12:48Z</time>
      </trkpt>
      <trkpt lat="48.75219" lon="2.00517">
        <ele>172</ele>
        <time>2017-08-20T10:12:48Z</time>
      </trkpt>
      <trkpt lat="48.75222" lon="2.00513">
        <ele>172</ele>
        <time>2017-08-20T10:12:48Z</time>
      </trkpt>
      <trkpt lat="48.75226" lon="2.00509">
        <ele>172</ele>
        <time>2017-08-20T10:13:04Z</time>
      </trkpt>
      <trkpt lat="48.7523" lon="2.00504">
        <ele>172</ele>
        <time>2017-08-20T10:13:04Z</time>
      </trkpt>
      <trkpt lat="48.75234" lon="2.00497">
        <ele>172</ele>
        <time>2017-08-20T10:13:04Z</time>
      </trkpt>
      <trkpt lat="48.75237" lon="2.00491">
        <ele>172</ele>
        <time>2017-08-20T10:13:04Z</time>
      </trkpt>
      <trkpt lat="48.75243" lon="2.00487">
        <ele>172</ele>
        <time>2017-08-20T10:13:20Z</time>
      </trkpt>
      <trkpt lat="48.75248" lon="2.00479">
        <ele>172</ele>
        <time>2017-08-20T10:13:20Z</time>
      </trkpt>
      <trkpt lat="48.75251" lon="2.00474">
        <ele>172</ele>
        <time>2017-08-20T10:13:20Z</time>
      </trkpt>
      <trkpt lat="48.75257" lon="2.0047">
        <ele>172</ele>
        <time>2017-08-20T10:13:20Z</time>
      </trkpt>
      <trkpt lat="48.75262" lon="2.00465">
        <ele>172</ele>
        <time>2017-08-20T10:13:36Z</time>
      </trkpt>
      <trkpt lat="48.75267" lon="2.00462">
        <ele>172</ele>
        <time>2017-08-20T10:13:36Z</time>
      </trkpt>
      <trkpt lat="48.7527" lon="2.00458">
        <ele>172</ele>
        <time>2017-08-20T10:13:36Z</time>
      </trkpt>
      <trkpt lat="48.75274" lon="2.00452">
        <ele>172</ele>
        <time>2017-08-20T10:13:36Z</time>
      </trkpt>
      <trkpt lat="48.75278" lon="2.00449">
        <ele>172</ele>
        <time>2017-08-20T10:13:52Z</time>
      </trkpt>
      <trkpt lat="48.75283" lon="2.00445">
        <ele>172</ele>
        <time>2017-08-20T10:13:52Z</time>
      </trkpt>
      <trkpt lat="48.75287" lon="2.0044">
        <ele>172</ele>
        <time>2017-08-20T10:13:52Z</time>
      </trkpt>
      <trkpt lat="48.7529" lon="2.00435">
        <ele>172</ele>
        <time>2017-08-20T10:13:52Z</time>
      </trkpt>
      <trkpt lat="48.75295" lon="2.0043">
        <ele>173</ele>
        <time>2017-08-20T10:14:08Z</time>
      </trkpt>
      <trkpt lat="48.75299" lon="2.00426">
        <ele>173</ele>
        <time>2017-08-20T10:14:08Z</time>
      </trkpt>
      <trkpt lat="48.75302" lon="2.00422">
        <ele>173</ele>
        <time>2017-08-20T10:14:08Z</time>
      </trkpt>
      <trkpt lat="48.75306" lon="2.00416">
        <ele>173</ele>
        <time>2017-08-20T10:14:08Z</time>
      </trkpt>
      <trkpt lat="48.75309" lon="2.00412">
        <ele>173</ele>
        <time>2017-08-20T10:14:24Z</time>
      </trkpt>
      <trkpt lat="48.75313" lon="2.00406">
        <ele>173</ele>
        <time>2017-08-20T10:14:24Z</time>
      </trkpt>
      <trkpt lat="48.75315" lon="2.00401">
        <ele>173</ele>
        <time>2017-08-20T10:14:24Z</time>
      </trkpt>
      <trkpt lat="48.75318" lon="2.00397">
        <ele>173</ele>
        <time>2017-08-20T10:14:24Z</time>
      </trkpt>
      <trkpt lat="48.75322" lon="2.00392">
        <ele>173</ele>
        <time>2017-08-20T10:14:40Z</time>
      </trkpt>
      <trkpt lat="48.75326" lon="2.00386">
        <ele>173</ele>
        <time>2017-08-20T10:14:40Z</time>
      </trkpt>
      <trkpt lat="48.7533" lon="2.00381">
        <ele>173</ele>
        <time>2017-08-20T10:14:40Z</time>
      </trkpt>
      <trkpt lat="48.75334" lon="2.00377">
        <ele>173</ele>
        <time>2017-08-20T10:14:40Z</time>
      </trkpt>
      <trkpt lat="48.75337" lon="2.00369">
        <ele>172</ele>
        <time>2017-08-20T10:14:56Z</time>
      </trkpt>
      <trkpt lat="48.7534" lon="2.00365">
        <ele>172</ele>
        <time>2017-08-20T10:14:56Z</time>
      </trkpt>
      <trkpt lat="48.75346" lon="2.00363">
        <ele>172</ele>
        <time>2017-08-20T10:14:56Z</time>
      </trkpt>
      <trkpt lat="48.7535" lon="2.00357">
        <ele>172</ele>
        <time>2017-08-20T10:14:56Z</time>
      </trkpt>
      <trkpt lat="48.75353" lon="2.00354">
        <ele>172</ele>
        <time>2017-08-20T10:15:12Z</time>
      </trkpt>
      <trkpt lat="48.75357" lon="2.00349">
        <ele>172</ele>
        <time>2017-08-20T10:15:12Z</time>
      </trkpt>
      <trkpt lat="48.75361" lon="2.00342">
        <ele>172</ele>
        <time>2017-08-20T10:15:12Z</time>
      </trkpt>
      <trkpt lat="48.75365" lon="2.00337">
        <ele>172</ele>
        <time>2017-08-20T10:15:12Z</time>
      </trkpt>
      <trkpt lat="48.75367" lon="2.00331">
        <ele>172</ele>
        <time>2017-08-20T10:15:28Z</time>
      </trkpt>
      <trkpt lat="48.75372" lon="2.00324">
        <ele>172</ele>
        <time>2017-08-20T10:15:28Z</time>
      </trkpt>
      <trkpt lat="48.75375" lon="2.00319">
        <ele>174</ele>
        <time>2017-08-20T10:15:28Z</time>
      </trkpt>
      <trkpt lat="48.75381" lon="2.00312">
        <ele>174</ele>
        <time>2017-08-20T10:15:28Z</time>
      </trkpt>
      <trkpt lat="48.75385" lon="2.0031">
        <ele>174</ele>
        <time>2017-08-20T10:15:44Z</time>
      </trkpt>
      <trkpt lat="48.7539" lon="2.00306">
        <ele>174</ele>
        <time>2017-08-20T10:15:44Z</time>
      </trkpt>
      <trkpt lat="48.75397" lon="2.003">
        <ele>174</ele>
        <time>2017-08-20T10:15:44Z</time>
      </trkpt>
      <trkpt lat="48.75402" lon="2.00295">
        <ele>174</ele>
        <time>2017-08-20T10:15:44Z</time>
      </trkpt>
      <trkpt lat="48.75405" lon="2.0029">
        <ele>174</ele>
        <time>2017-08-20T10:16:00Z</time>
      </trkpt>
      <trkpt lat="48.75408" lon="2.00286">
        <ele>174</ele>
        <time>2017-08-20T10:16:00Z</time>
      </trkpt>
      <trkpt lat="48.75411" lon="2.00281">
        <ele>174</ele>
        <time>2017-08-20T10:16:00Z</time>
      </trkpt>
      <trkpt lat="48.75414" lon="2.00278">
        <ele>174</ele>
        <time>2017-08-20T10:16:00Z</time>
      </trkpt>
      <trkpt lat="48.75417" lon="2.00272">
        <ele>174</ele>
        <time>2017-08-20T10:16:16Z</time>
      </trkpt>
      <trkpt lat="48.75421" lon="2.00268">
        <ele>174</ele>
        <time>2017-08-20T10:16:16Z</time>
      </trkpt>
      <trkpt lat="48.75425" lon="2.00263">
        <ele>174</ele>
        <time>2017-08-20T10:16:16Z</time>
      </trkpt>
      <trkpt lat="48.75431" lon="2.0026">
        <ele>174</ele>
        <time>2017-08-20T10:16:16Z</time>
      </trkpt>
      <trkpt lat="48.75436" lon="2.00255">
        <ele>174</ele>
        <time>2017-08-20T10:16:32Z</time>
      </trkpt>
      <trkpt lat="48.7544" lon="2.0025">
        <ele>174</ele>
        <time>2017-08-20T10:16:32Z</time>
      </trkpt>
      <trkpt lat="48.75445" lon="2.00243">
        <ele>174</ele>
        <time>2017-08-20T10:16:32Z</time>
      </trkpt>
      <trkpt lat="48.75449" lon="2.00238">
        <ele>174</ele>
        <time>2017-08-20T10:16:32Z</time>
      </trkpt>
      <trkpt lat="48.75455" lon="2.00233">
        <ele>174</ele>
        <time>2017-08-20T10:16:48Z</time>
      </trkpt>
      <trkpt lat="48.75459" lon="2.00229">
        <ele>173</ele>
        <time>2017-08-20T10:16:48Z</time>
      </trkpt>
      <trkpt lat="48.75463" lon="2.00224">
        <ele>173</ele>
        <time>2017-08-20T10:16:48Z</time>
      </trkpt>
      <trkpt lat="48.75467" lon="2.0022">
        <ele>173</ele>
        <time>2017-08-20T10:16:48Z</time>
      </trkpt>
      <trkpt lat="48.75472" lon="2.00217">
        <ele>173</ele>
        <time>2017-08-20T10:17:04Z</time>
      </trkpt>
      <trkpt lat="48.75476" lon="2.00213">
        <ele>173</ele>
        <time>2017-08-20T10:17:04Z</time>
      </trkpt>
      <trkpt lat="48.75482" lon="2.00209">
        <ele>173</ele>
        <time>2017-08-20T10:17:04Z</time>
      </trkpt>
      <trkpt lat="48.75486" lon="2.00206">
        <ele>173</ele>
        <time>2017-08-20T10:17:04Z</time>
      </trkpt>
      <trkpt lat="48.75491" lon="2.00202">
        <ele>173</ele>
        <time>2017-08-20T10:17:20Z</time>
      </trkpt>
      <trkpt lat="48.75496" lon="2.00199">
        <ele>173</ele>
        <time>2017-08-20T10:17:20Z</time>
      </trkpt>
      <trkpt lat="48.75501" lon="2.00194">
        <ele>173</ele>
        <time>2017-08-20T10:17:20Z</time>
      </trkpt>
      <trkpt lat="48.75506" lon="2.0019">
        <ele>173</ele>
        <time>2017-08-20T10:17:20Z</time>
      </trkpt>
      <trkpt lat="48.75511" lon="2.00186">
        <ele>173</ele>
        <time>2017-08-20T10:17:36Z</time>
      </trkpt>
      <trkpt lat="48.75514" lon="2.00181">
        <ele>173</ele>
        <time>2017-08-20T10:17:36Z</time>
      </trkpt>
      <trkpt lat="48.75518" lon="2.00177">
        <ele>173</ele>
        <time>2017-08-20T10:17:36Z</time>
      </trkpt>
      <trkpt lat="48.75522" lon="2.00171">
        <ele>173</ele>
        <time>2017-08-20T10:17:37Z</time>
      </trkpt>
      <trkpt lat="48.75527" lon="2.0017">
        <ele>173</ele>
        <time>2017-08-20T10:17:52Z</time>
      </trkpt>
      <trkpt lat="48.75531" lon="2.00167">
        <ele>173</ele>
        <time>2017-08-20T10:17:52Z</time>
      </trkpt>
      <trkpt lat="48.75538" lon="2.00166">
        <ele>173</ele>
        <time>2017-08-20T10:17:52Z</time>
      </trkpt>
      <trkpt lat="48.75543" lon="2.00162">
        <ele>174</ele>
        <time>2017-08-20T10:17:52Z</time>
      </trkpt>
      <trkpt lat="48.75547" lon="2.00158">
        <ele>174</ele>
        <time>2017-08-20T10:18:08Z</time>
      </trkpt>
      <trkpt lat="48.75553" lon="2.00156">
        <ele>174</ele>
        <time>2017-08-20T10:18:08Z</time>
      </trkpt>
      <trkpt lat="48.75557" lon="2.0015">
        <ele>174</ele>
        <time>2017-08-20T10:18:08Z</time>
      </trkpt>
      <trkpt lat="48.7556" lon="2.00144">
        <ele>174</ele>
        <time>2017-08-20T10:18:08Z</time>
      </trkpt>
      <trkpt lat="48.75564" lon="2.00139">
        <ele>174</ele>
        <time>2017-08-20T10:18:24Z</time>
      </trkpt>
      <trkpt lat="48.75568" lon="2.00135">
        <ele>174</ele>
        <time>2017-08-20T10:18:24Z</time>
      </trkpt>
      <trkpt lat="48.75572" lon="2.0013">
        <ele>174</ele>
        <time>2017-08-20T10:18:24Z</time>
      </trkpt>
      <trkpt lat="48.75577" lon="2.00127">
        <ele>174</ele>
        <time>2017-08-20T10:18:24Z</time>
      </trkpt>
      <trkpt lat="48.75581" lon="2.00122">
        <ele>171</ele>
        <time>2017-08-20T10:18:40Z</time>
      </trkpt>
      <trkpt lat="48.75586" lon="2.00118">
        <ele>171</ele>
        <time>2017-08-20T10:18:40Z</time>
      </trkpt>
      <trkpt lat="48.75592" lon="2.00114">
        <ele>171</ele>
        <time>2017-08-20T10:18:40Z</time>
      </trkpt>
      <trkpt lat="48.75597" lon="2.0011">
        <ele>171</ele>
        <time>2017-08-20T10:18:40Z</time>
      </trkpt>
      <trkpt lat="48.75601" lon="2.00105">
        <ele>171</ele>
        <time>2017-08-20T10:18:56Z</time>
      </trkpt>
      <trkpt lat="48.75605" lon="2.00101">
        <ele>171</ele>
        <time>2017-08-20T10:18:56Z</time>
      </trkpt>
      <trkpt lat="48.7561" lon="2.00097">
        <ele>171</ele>
        <time>2017-08-20T10:18:56Z</time>
      </trkpt>
      <trkpt lat="48.75617" lon="2.00093">
        <ele>171</ele>
        <time>2017-08-20T10:18:56Z</time>
      </trkpt>
      <trkpt lat="48.75622" lon="2.00087">
        <ele>171</ele>
        <time>2017-08-20T10:19:12Z</time>
      </trkpt>
      <trkpt lat="48.75626" lon="2.00083">
        <ele>175</ele>
        <time>2017-08-20T10:19:12Z</time>
      </trkpt>
      <trkpt lat="48.75629" lon="2.00078">
        <ele>175</ele>
        <time>2017-08-20T10:19:12Z</time>
      </trkpt>
      <trkpt lat="48.75632" lon="2.00071">
        <ele>175</ele>
        <time>2017-08-20T10:19:12Z</time>
      </trkpt>
      <trkpt lat="48.75634" lon="2.00065">
        <ele>175</ele>
        <time>2017-08-20T10:19:28Z</time>
      </trkpt>
      <trkpt lat="48.75638" lon="2.0006">
        <ele>175</ele>
        <time>2017-08-20T10:19:28Z</time>
      </trkpt>
      <trkpt lat="48.75642" lon="2.00054">
        <ele>175</ele>
        <time>2017-08-20T10:19:28Z</time>
      </trkpt>
      <trkpt lat="48.75645" lon="2.00048">
        <ele>175</ele>
        <time>2017-08-20T10:19:28Z</time>
      </trkpt>
      <trkpt lat="48.75649" lon="2.00044">
        <ele>175</ele>
        <time>2017-08-20T10:19:44Z</time>
      </trkpt>
      <trkpt lat="48.75654" lon="2.00041">
        <ele>173</ele>
        <time>2017-08-20T10:19:44Z</time>
      </trkpt>
      <trkpt lat="48.75658" lon="2.00039">
        <ele>173</ele>
        <time>2017-08-20T10:19:44Z</time>
      </trkpt>
      <trkpt lat="48.75663" lon="2.00033">
        <ele>173</ele>
        <time>2017-08-20T10:19:44Z</time>
      </trkpt>
      <trkpt lat="48.75667" lon="2.00029">
        <ele>173</ele>
        <time>2017-08-20T10:20:00Z</time>
      </trkpt>
      <trkpt lat="48.75671" lon="2.00023">
        <ele>173</ele>
        <time>2017-08-20T10:20:00Z</time>
      </trkpt>
      <trkpt lat="48.75675" lon="2.00017">
        <ele>173</ele>
        <time>2017-08-20T10:20:00Z</time>
      </trkpt>
      <trkpt lat="48.75681" lon="2.00016">
        <ele>173</ele>
        <time>2017-08-20T10:20:00Z</time>
      </trkpt>
      <trkpt lat="48.75685" lon="2.00012">
        <ele>173</ele>
        <time>2017-08-20T10:20:16Z</time>
      </trkpt>
      <trkpt lat="48.7569" lon="2.00009">
        <ele>173</ele>
        <time>2017-08-20T10:20:16Z</time>
      </trkpt>
      <trkpt lat="48.75696" lon="2.00004">
        <ele>173</ele>
        <time>2017-08-20T10:20:16Z</time>
      </trkpt>
      <trkpt lat="48.75701" lon="1.99999">
        <ele>173</ele>
        <time>2017-08-20T10:20:16Z</time>
      </trkpt>
      <trkpt lat="48.75705" lon="1.99995">
        <ele>173</ele>
        <time>2017-08-20T10:20:32Z</time>
      </trkpt>
      <trkpt lat="48.75708" lon="1.99992">
        <ele>173</ele>
        <time>2017-08-20T10:20:32Z</time>
      </trkpt>
      <trkpt lat="48.75715" lon="1.99987">
        <ele>175</ele>
        <time>2017-08-20T10:20:32Z</time>
      </trkpt>
      <trkpt lat="48.7572" lon="1.99983">
        <ele>175</ele>
        <time>2017-08-20T10:20:32Z</time>
      </trkpt>
      <trkpt lat="48.75725" lon="1.99978">
        <ele>175</ele>
        <time>2017-08-20T10:20:48Z</time>
      </trkpt>
      <trkpt lat="48.7573" lon="1.99973">
        <ele>175</ele>
        <time>2017-08-20T10:20:48Z</time>
      </trkpt>
      <trkpt lat="48.75733" lon="1.99965">
        <ele>175</ele>
        <time>2017-08-20T10:20:48Z</time>
      </trkpt>
      <trkpt lat="48.75734" lon="1.99964">
        <ele>175</ele>
        <time>2017-08-20T10:20:48Z</time>
      </trkpt>
      <trkpt lat="48.75729" lon="1.99955">
        <ele>176</ele>
        <time>2017-08-20T10:21:04Z</time>
      </trkpt>
      <trkpt lat="48.75719" lon="1.99923">
        <ele>176</ele>
        <time>2017-08-20T10:21:04Z</time>
      </trkpt>
      <trkpt lat="48.75708" lon="1.99904">
        <ele>174</ele>
        <time>2017-08-20T10:21:04Z</time>
      </trkpt>
      <trkpt lat="48.75703" lon="1.99897">
        <ele>174</ele>
        <time>2017-08-20T10:21:04Z</time>
      </trkpt>
      <trkpt lat="48.757" lon="1.99892">
        <ele>174</ele>
        <time>2017-08-20T10:21:20Z</time>
      </trkpt>
      <trkpt lat="48.75699" lon="1.99884">
        <ele>174</ele>
        <time>2017-08-20T10:21:20Z</time>
      </trkpt>
      <trkpt lat="48.75698" lon="1.99879">
        <ele>174</ele>
        <time>2017-08-20T10:21:20Z</time>
      </trkpt>
      <trkpt lat="48.75695" lon="1.99872">
        <ele>175</ele>
        <time>2017-08-20T10:21:20Z</time>
      </trkpt>
      <trkpt lat="48.7569" lon="1.99864">
        <ele>175</ele>
        <time>2017-08-20T10:21:36Z</time>
      </trkpt>
      <trkpt lat="48.75685" lon="1.99856">
        <ele>175</ele>
        <time>2017-08-20T10:21:36Z</time>
      </trkpt>
      <trkpt lat="48.75682" lon="1.99849">
        <ele>175</ele>
        <time>2017-08-20T10:21:36Z</time>
      </trkpt>
      <trkpt lat="48.75677" lon="1.9984">
        <ele>175</ele>
        <time>2017-08-20T10:21:36Z</time>
      </trkpt>
      <trkpt lat="48.75676" lon="1.99835">
        <ele>175</ele>
        <time>2017-08-20T10:21:52Z</time>
      </trkpt>
      <trkpt lat="48.75677" lon="1.99829">
        <ele>175</ele>
        <time>2017-08-20T10:21:52Z</time>
      </trkpt>
      <trkpt lat="48.75674" lon="1.99823">
        <ele>175</ele>
        <time>2017-08-20T10:21:52Z</time>
      </trkpt>
      <trkpt lat="48.75671" lon="1.99812">
        <ele>175</ele>
        <time>2017-08-20T10:21:52Z</time>
      </trkpt>
      <trkpt lat="48.75668" lon="1.99803">
        <ele>175</ele>
        <time>2017-08-20T10:22:08Z</time>
      </trkpt>
      <trkpt lat="48.75666" lon="1.99794">
        <ele>175</ele>
        <time>2017-08-20T10:22:08Z</time>
      </trkpt>
      <trkpt lat="48.75664" lon="1.99791">
        <ele>176</ele>
        <time>2017-08-20T10:22:08Z</time>
      </trkpt>
      <trkpt lat="48.7566" lon="1.99784">
        <ele>176</ele>
        <time>2017-08-20T10:22:08Z</time>
      </trkpt>
      <trkpt lat="48.75656" lon="1.99775">
        <ele>176</ele>
        <time>2017-08-20T10:22:24Z</time>
      </trkpt>
      <trkpt lat="48.75653" lon="1.99773">
        <ele>176</ele>
        <time>2017-08-20T10:22:24Z</time>
      </trkpt>
      <trkpt lat="48.7565" lon="1.99769">
        <ele>176</ele>
        <time>2017-08-20T10:22:24Z</time>
      </trkpt>
      <trkpt lat="48.75647" lon="1.99764">
        <ele>176</ele>
        <time>2017-08-20T10:22:24Z</time>
      </trkpt>
      <trkpt lat="48.75644" lon="1.99758">
        <ele>176</ele>
        <time>2017-08-20T10:22:40Z</time>
      </trkpt>
      <trkpt lat="48.75639" lon="1.99751">
        <ele>176</ele>
        <time>2017-08-20T10:22:40Z</time>
      </trkpt>
      <trkpt lat="48.75636" lon="1.99742">
        <ele>176</ele>
        <time>2017-08-20T10:22:40Z</time>
      </trkpt>
      <trkpt lat="48.75631" lon="1.99733">
        <ele>176</ele>
        <time>2017-08-20T10:22:40Z</time>
      </trkpt>
      <trkpt lat="48.75629" lon="1.99727">
        <ele>176</ele>
        <time>2017-08-20T10:22:56Z</time>
      </trkpt>
      <trkpt lat="48.75628" lon="1.99721">
        <ele>176</ele>
        <time>2017-08-20T10:22:56Z</time>
      </trkpt>
      <trkpt lat="48.75622" lon="1.99717">
        <ele>173</ele>
        <time>2017-08-20T10:22:56Z</time>
      </trkpt>
      <trkpt lat="48.7562" lon="1.99707">
        <ele>174</ele>
        <time>2017-08-20T10:22:56Z</time>
      </trkpt>
      <trkpt lat="48.75618" lon="1.99697">
        <ele>174</ele>
        <time>2017-08-20T10:23:12Z</time>
      </trkpt>
      <trkpt lat="48.75616" lon="1.99689">
        <ele>174</ele>
        <time>2017-08-20T10:23:12Z</time>
      </trkpt>
      <trkpt lat="48.75614" lon="1.9968">
        <ele>174</ele>
        <time>2017-08-20T10:23:12Z</time>
      </trkpt>
      <trkpt lat="48.75614" lon="1.99676">
        <ele>174</ele>
        <time>2017-08-20T10:23:12Z</time>
      </trkpt>
      <trkpt lat="48.75611" lon="1.99669">
        <ele>174</ele>
        <time>2017-08-20T10:23:28Z</time>
      </trkpt>
      <trkpt lat="48.75606" lon="1.99661">
        <ele>174</ele>
        <time>2017-08-20T10:23:28Z</time>
      </trkpt>
      <trkpt lat="48.75603" lon="1.99657">
        <ele>174</ele>
        <time>2017-08-20T10:23:28Z</time>
      </trkpt>
      <trkpt lat="48.75604" lon="1.99643">
        <ele>174</ele>
        <time>2017-08-20T10:23:28Z</time>
      </trkpt>
      <trkpt lat="48.75592" lon="1.99626">
        <ele>174</ele>
        <time>2017-08-20T10:29:55Z</time>
      </trkpt>
      <trkpt lat="48.75592" lon="1.99625">
        <ele>174</ele>
        <time>2017-08-20T10:29:55Z</time>
      </trkpt>
      <trkpt lat="48.75592" lon="1.99622">
        <ele>176</ele>
        <time>2017-08-20T10:29:55Z</time>
      </trkpt>
      <trkpt lat="48.75591" lon="1.99617">
        <ele>176</ele>
        <time>2017-08-20T10:29:55Z</time>
      </trkpt>
      <trkpt lat="48.75588" lon="1.99612">
        <ele>176</ele>
        <time>2017-08-20T10:29:55Z</time>
      </trkpt>
      <trkpt lat="48.75584" lon="1.99608">
        <ele>176</ele>
        <time>2017-08-20T10:30:11Z</time>
      </trkpt>
      <trkpt lat="48.75582" lon="1.99599">
        <ele>176</ele>
        <time>2017-08-20T10:30:11Z</time>
      </trkpt>
      <trkpt lat="48.75578" lon="1.99591">
        <ele>176</ele>
        <time>2017-08-20T10:30:11Z</time>
      </trkpt>
      <trkpt lat="48.75574" lon="1.99585">
        <ele>176</ele>
        <time>2017-08-20T10:30:11Z</time>
      </trkpt>
      <trkpt lat="48.75572" lon="1.99579">
        <ele>176</ele>
        <time>2017-08-20T10:30:27Z</time>
      </trkpt>
      <trkpt lat="48.75569" lon="1.99573">
        <ele>176</ele>
        <time>2017-08-20T10:30:27Z</time>
      </trkpt>
      <trkpt lat="48.75565" lon="1.99564">
        <ele>176</ele>
        <time>2017-08-20T10:30:27Z</time>
      </trkpt>
      <trkpt lat="48.75563" lon="1.99558">
        <ele>176</ele>
        <time>2017-08-20T10:30:27Z</time>
      </trkpt>
      <trkpt lat="48.75562" lon="1.99553">
        <ele>176</ele>
        <time>2017-08-20T10:30:43Z</time>
      </trkpt>
      <trkpt lat="48.75558" lon="1.99546">
        <ele>176</ele>
        <time>2017-08-20T10:30:43Z</time>
      </trkpt>
      <trkpt lat="48.75556" lon="1.99539">
        <ele>177</ele>
        <time>2017-08-20T10:30:43Z</time>
      </trkpt>
      <trkpt lat="48.75554" lon="1.99538">
        <ele>177</ele>
        <time>2017-08-20T10:30:43Z</time>
      </trkpt>
      <trkpt lat="48.75552" lon="1.99534">
        <ele>177</ele>
        <time>2017-08-20T10:30:59Z</time>
      </trkpt>
      <trkpt lat="48.75549" lon="1.99524">
        <ele>177</ele>
        <time>2017-08-20T10:30:59Z</time>
      </trkpt>
      <trkpt lat="48.75546" lon="1.99518">
        <ele>177</ele>
        <time>2017-08-20T10:30:59Z</time>
      </trkpt>
      <trkpt lat="48.75545" lon="1.99514">
        <ele>177</ele>
        <time>2017-08-20T10:30:59Z</time>
      </trkpt>
      <trkpt lat="48.75542" lon="1.99506">
        <ele>177</ele>
        <time>2017-08-20T10:31:19Z</time>
      </trkpt>
      <trkpt lat="48.7554" lon="1.99503">
        <ele>173</ele>
        <time>2017-08-20T10:31:19Z</time>
      </trkpt>
      <trkpt lat="48.7554" lon="1.99497">
        <ele>173</ele>
        <time>2017-08-20T10:31:19Z</time>
      </trkpt>
      <trkpt lat="48.75539" lon="1.99494">
        <ele>173</ele>
        <time>2017-08-20T10:31:19Z</time>
      </trkpt>
      <trkpt lat="48.75538" lon="1.99489">
        <ele>173</ele>
        <time>2017-08-20T10:31:19Z</time>
      </trkpt>
      <trkpt lat="48.75535" lon="1.99484">
        <ele>173</ele>
        <time>2017-08-20T10:31:35Z</time>
      </trkpt>
      <trkpt lat="48.75532" lon="1.99473">
        <ele>173</ele>
        <time>2017-08-20T10:31:35Z</time>
      </trkpt>
      <trkpt lat="48.75529" lon="1.99466">
        <ele>173</ele>
        <time>2017-08-20T10:31:35Z</time>
      </trkpt>
      <trkpt lat="48.75527" lon="1.9946">
        <ele>173</ele>
        <time>2017-08-20T10:31:35Z</time>
      </trkpt>
      <trkpt lat="48.75525" lon="1.9945">
        <ele>178</ele>
        <time>2017-08-20T10:31:51Z</time>
      </trkpt>
      <trkpt lat="48.7552" lon="1.9944">
        <ele>178</ele>
        <time>2017-08-20T10:31:51Z</time>
      </trkpt>
      <trkpt lat="48.75517" lon="1.99434">
        <ele>178</ele>
        <time>2017-08-20T10:31:51Z</time>
      </trkpt>
      <trkpt lat="48.75513" lon="1.99428">
        <ele>178</ele>
        <time>2017-08-20T10:31:51Z</time>
      </trkpt>
      <trkpt lat="48.75511" lon="1.9942">
        <ele>178</ele>
        <time>2017-08-20T10:32:07Z</time>
      </trkpt>
      <trkpt lat="48.75509" lon="1.99413">
        <ele>178</ele>
        <time>2017-08-20T10:32:07Z</time>
      </trkpt>
      <trkpt lat="48.75506" lon="1.99411">
        <ele>178</ele>
        <time>2017-08-20T10:32:07Z</time>
      </trkpt>
      <trkpt lat="48.75502" lon="1.99407">
        <ele>178</ele>
        <time>2017-08-20T10:32:07Z</time>
      </trkpt>
      <trkpt lat="48.755" lon="1.994">
        <ele>178</ele>
        <time>2017-08-20T10:32:23Z</time>
      </trkpt>
      <trkpt lat="48.75498" lon="1.9939">
        <ele>178</ele>
        <time>2017-08-20T10:32:23Z</time>
      </trkpt>
      <trkpt lat="48.75495" lon="1.99381">
        <ele>178</ele>
        <time>2017-08-20T10:32:23Z</time>
      </trkpt>
      <trkpt lat="48.75492" lon="1.99375">
        <ele>179</ele>
        <time>2017-08-20T10:32:23Z</time>
      </trkpt>
      <trkpt lat="48.7549" lon="1.99371">
        <ele>179</ele>
        <time>2017-08-20T10:32:39Z</time>
      </trkpt>
      <trkpt lat="48.75488" lon="1.99367">
        <ele>179</ele>
        <time>2017-08-20T10:32:39Z</time>
      </trkpt>
      <trkpt lat="48.75483" lon="1.99358">
        <ele>179</ele>
        <time>2017-08-20T10:32:39Z</time>
      </trkpt>
      <trkpt lat="48.75479" lon="1.99351">
        <ele>179</ele>
        <time>2017-08-20T10:32:39Z</time>
      </trkpt>
      <trkpt lat="48.75477" lon="1.99343">
        <ele>179</ele>
        <time>2017-08-20T10:32:55Z</time>
      </trkpt>
      <trkpt lat="48.75475" lon="1.99336">
        <ele>179</ele>
        <time>2017-08-20T10:32:55Z</time>
      </trkpt>
      <trkpt lat="48.75474" lon="1.9933">
        <ele>179</ele>
        <time>2017-08-20T10:32:55Z</time>
      </trkpt>
      <trkpt lat="48.75471" lon="1.99323">
        <ele>179</ele>
        <time>2017-08-20T10:32:55Z</time>
      </trkpt>
      <trkpt lat="48.75468" lon="1.99316">
        <ele>179</ele>
        <time>2017-08-20T10:33:11Z</time>
      </trkpt>
      <trkpt lat="48.75465" lon="1.99308">
        <ele>179</ele>
        <time>2017-08-20T10:33:11Z</time>
      </trkpt>
      <trkpt lat="48.7546" lon="1.99303">
        <ele>179</ele>
        <time>2017-08-20T10:33:11Z</time>
      </trkpt>
      <trkpt lat="48.75458" lon="1.99295">
        <ele>173</ele>
        <time>2017-08-20T10:33:11Z</time>
      </trkpt>
      <trkpt lat="48.75457" lon="1.99289">
        <ele>179</ele>
        <time>2017-08-20T10:33:27Z</time>
      </trkpt>
      <trkpt lat="48.75455" lon="1.99281">
        <ele>179</ele>
        <time>2017-08-20T10:33:27Z</time>
      </trkpt>
      <trkpt lat="48.75453" lon="1.99274">
        <ele>179</ele>
        <time>2017-08-20T10:33:27Z</time>
      </trkpt>
      <trkpt lat="48.7545" lon="1.9927">
        <ele>179</ele>
        <time>2017-08-20T10:33:27Z</time>
      </trkpt>
      <trkpt lat="48.75448" lon="1.99262">
        <ele>179</ele>
        <time>2017-08-20T10:33:43Z</time>
      </trkpt>
      <trkpt lat="48.75444" lon="1.99254">
        <ele>179</ele>
        <time>2017-08-20T10:33:43Z</time>
      </trkpt>
      <trkpt lat="48.75439" lon="1.99248">
        <ele>179</ele>
        <time>2017-08-20T10:33:43Z</time>
      </trkpt>
      <trkpt lat="48.75437" lon="1.99242">
        <ele>179</ele>
        <time>2017-08-20T10:33:43Z</time>
      </trkpt>
      <trkpt lat="48.75435" lon="1.99238">
        <ele>179</ele>
        <time>2017-08-20T10:33:59Z</time>
      </trkpt>
      <trkpt lat="48.75435" lon="1.99234">
        <ele>179</ele>
        <time>2017-08-20T10:33:59Z</time>
      </trkpt>
      <trkpt lat="48.7543" lon="1.99227">
        <ele>179</ele>
        <time>2017-08-20T10:33:59Z</time>
      </trkpt>
      <trkpt lat="48.75429" lon="1.99218">
        <ele>179</ele>
        <time>2017-08-20T10:33:59Z</time>
      </trkpt>
      <trkpt lat="48.75427" lon="1.99213">
        <ele>179</ele>
        <time>2017-08-20T10:34:15Z</time>
      </trkpt>
      <trkpt lat="48.75422" lon="1.99207">
        <ele>181</ele>
        <time>2017-08-20T10:34:15Z</time>
      </trkpt>
      <trkpt lat="48.75419" lon="1.99199">
        <ele>181</ele>
        <time>2017-08-20T10:34:15Z</time>
      </trkpt>
      <trkpt lat="48.75417" lon="1.99192">
        <ele>181</ele>
        <time>2017-08-20T10:34:15Z</time>
      </trkpt>
      <trkpt lat="48.75416" lon="1.99184">
        <ele>181</ele>
        <time>2017-08-20T10:34:31Z</time>
      </trkpt>
      <trkpt lat="48.75413" lon="1.99176">
        <ele>181</ele>
        <time>2017-08-20T10:34:31Z</time>
      </trkpt>
      <trkpt lat="48.7541" lon="1.99168">
        <ele>181</ele>
        <time>2017-08-20T10:34:31Z</time>
      </trkpt>
      <trkpt lat="48.75406" lon="1.99162">
        <ele>181</ele>
        <time>2017-08-20T10:34:31Z</time>
      </trkpt>
      <trkpt lat="48.75404" lon="1.99154">
        <ele>181</ele>
        <time>2017-08-20T10:34:47Z</time>
      </trkpt>
      <trkpt lat="48.75398" lon="1.99148">
        <ele>181</ele>
        <time>2017-08-20T10:34:47Z</time>
      </trkpt>
      <trkpt lat="48.75392" lon="1.9914">
        <ele>181</ele>
        <time>2017-08-20T10:34:47Z</time>
      </trkpt>
      <trkpt lat="48.75389" lon="1.99133">
        <ele>181</ele>
        <time>2017-08-20T10:34:47Z</time>
      </trkpt>
      <trkpt lat="48.75387" lon="1.99129">
        <ele>181</ele>
        <time>2017-08-20T10:35:03Z</time>
      </trkpt>
      <trkpt lat="48.75384" lon="1.99122">
        <ele>181</ele>
        <time>2017-08-20T10:35:03Z</time>
      </trkpt>
      <trkpt lat="48.7538" lon="1.99118">
        <ele>181</ele>
        <time>2017-08-20T10:35:03Z</time>
      </trkpt>
      <trkpt lat="48.75378" lon="1.9911">
        <ele>181</ele>
        <time>2017-08-20T10:35:03Z</time>
      </trkpt>
      <trkpt lat="48.75375" lon="1.99105">
        <ele>181</ele>
        <time>2017-08-20T10:35:19Z</time>
      </trkpt>
      <trkpt lat="48.75373" lon="1.99096">
        <ele>180</ele>
        <time>2017-08-20T10:35:19Z</time>
      </trkpt>
      <trkpt lat="48.7537" lon="1.99089">
        <ele>180</ele>
        <time>2017-08-20T10:35:19Z</time>
      </trkpt>
      <trkpt lat="48.75366" lon="1.99077">
        <ele>180</ele>
        <time>2017-08-20T10:35:19Z</time>
      </trkpt>
      <trkpt lat="48.75363" lon="1.9907">
        <ele>180</ele>
        <time>2017-08-20T10:35:35Z</time>
      </trkpt>
      <trkpt lat="48.75361" lon="1.99062">
        <ele>180</ele>
        <time>2017-08-20T10:35:35Z</time>
      </trkpt>
      <trkpt lat="48.75359" lon="1.99057">
        <ele>180</ele>
        <time>2017-08-20T10:35:35Z</time>
      </trkpt>
      <trkpt lat="48.75358" lon="1.99048">
        <ele>180</ele>
        <time>2017-08-20T10:35:35Z</time>
      </trkpt>
      <trkpt lat="48.75355" lon="1.99043">
        <ele>180</ele>
        <time>2017-08-20T10:35:51Z</time>
      </trkpt>
      <trkpt lat="48.75352" lon="1.99039">
        <ele>180</ele>
        <time>2017-08-20T10:35:51Z</time>
      </trkpt>
      <trkpt lat="48.75351" lon="1.99032">
        <ele>180</ele>
        <time>2017-08-20T10:35:51Z</time>
      </trkpt>
      <trkpt lat="48.75349" lon="1.99025">
        <ele>180</ele>
        <time>2017-08-20T10:35:51Z</time>
      </trkpt>
      <trkpt lat="48.75344" lon="1.99019">
        <ele>180</ele>
        <time>2017-08-20T10:36:07Z</time>
      </trkpt>
      <trkpt lat="48.75339" lon="1.99012">
        <ele>180</ele>
        <time>2017-08-20T10:36:07Z</time>
      </trkpt>
      <trkpt lat="48.75337" lon="1.99008">
        <ele>180</ele>
        <time>2017-08-20T10:36:07Z</time>
      </trkpt>
      <trkpt lat="48.75334" lon="1.99004">
        <ele>180</ele>
        <time>2017-08-20T10:36:07Z</time>
      </trkpt>
      <trkpt lat="48.75332" lon="1.98995">
        <ele>180</ele>
        <time>2017-08-20T10:36:23Z</time>
      </trkpt>
      <trkpt lat="48.75328" lon="1.98987">
        <ele>180</ele>
        <time>2017-08-20T10:36:23Z</time>
      </trkpt>
      <trkpt lat="48.75325" lon="1.9898">
        <ele>180</ele>
        <time>2017-08-20T10:36:23Z</time>
      </trkpt>
      <trkpt lat="48.75323" lon="1.98979">
        <ele>180</ele>
        <time>2017-08-20T10:36:23Z</time>
      </trkpt>
      <trkpt lat="48.75321" lon="1.98973">
        <ele>180</ele>
        <time>2017-08-20T10:36:39Z</time>
      </trkpt>
      <trkpt lat="48.7532" lon="1.98965">
        <ele>180</ele>
        <time>2017-08-20T10:36:39Z</time>
      </trkpt>
      <trkpt lat="48.75317" lon="1.98956">
        <ele>178</ele>
        <time>2017-08-20T10:36:39Z</time>
      </trkpt>
      <trkpt lat="48.75312" lon="1.98947">
        <ele>178</ele>
        <time>2017-08-20T10:36:39Z</time>
      </trkpt>
      <trkpt lat="48.75309" lon="1.98942">
        <ele>178</ele>
        <time>2017-08-20T10:36:55Z</time>
      </trkpt>
      <trkpt lat="48.75305" lon="1.98933">
        <ele>178</ele>
        <time>2017-08-20T10:36:55Z</time>
      </trkpt>
      <trkpt lat="48.75303" lon="1.9892">
        <ele>178</ele>
        <time>2017-08-20T10:36:55Z</time>
      </trkpt>
      <trkpt lat="48.75302" lon="1.98918">
        <ele>178</ele>
        <time>2017-08-20T10:36:55Z</time>
      </trkpt>
      <trkpt lat="48.753" lon="1.98916">
        <ele>178</ele>
        <time>2017-08-20T10:37:11Z</time>
      </trkpt>
      <trkpt lat="48.75296" lon="1.98907">
        <ele>178</ele>
        <time>2017-08-20T10:37:11Z</time>
      </trkpt>
      <trkpt lat="48.75293" lon="1.98899">
        <ele>178</ele>
        <time>2017-08-20T10:37:11Z</time>
      </trkpt>
      <trkpt lat="48.75289" lon="1.98893">
        <ele>175</ele>
        <time>2017-08-20T10:37:11Z</time>
      </trkpt>
      <trkpt lat="48.75288" lon="1.98889">
        <ele>175</ele>
        <time>2017-08-20T10:37:27Z</time>
      </trkpt>
      <trkpt lat="48.75287" lon="1.98887">
        <ele>175</ele>
        <time>2017-08-20T10:37:27Z</time>
      </trkpt>
      <trkpt lat="48.75284" lon="1.98879">
        <ele>175</ele>
        <time>2017-08-20T10:37:27Z</time>
      </trkpt>
      <trkpt lat="48.75282" lon="1.98872">
        <ele>176</ele>
        <time>2017-08-20T10:37:27Z</time>
      </trkpt>
      <trkpt lat="48.7528" lon="1.98867">
        <ele>176</ele>
        <time>2017-08-20T10:37:43Z</time>
      </trkpt>
      <trkpt lat="48.75278" lon="1.98862">
        <ele>176</ele>
        <time>2017-08-20T10:37:43Z</time>
      </trkpt>
      <trkpt lat="48.75276" lon="1.9886">
        <ele>176</ele>
        <time>2017-08-20T10:37:43Z</time>
      </trkpt>
      <trkpt lat="48.75271" lon="1.98845">
        <ele>176</ele>
        <time>2017-08-20T10:37:43Z</time>
      </trkpt>
      <trkpt lat="48.75267" lon="1.98833">
        <ele>176</ele>
        <time>2017-08-20T10:37:59Z</time>
      </trkpt>
      <trkpt lat="48.75264" lon="1.98825">
        <ele>176</ele>
        <time>2017-08-20T10:37:59Z</time>
      </trkpt>
      <trkpt lat="48.75263" lon="1.9882">
        <ele>176</ele>
        <time>2017-08-20T10:37:59Z</time>
      </trkpt>
      <trkpt lat="48.7526" lon="1.9881">
        <ele>176</ele>
        <time>2017-08-20T10:37:59Z</time>
      </trkpt>
      <trkpt lat="48.75256" lon="1.98798">
        <ele>176</ele>
        <time>2017-08-20T10:38:15Z</time>
      </trkpt>
      <trkpt lat="48.75254" lon="1.98792">
        <ele>176</ele>
        <time>2017-08-20T10:38:15Z</time>
      </trkpt>
      <trkpt lat="48.75253" lon="1.9879">
        <ele>175</ele>
        <time>2017-08-20T10:38:15Z</time>
      </trkpt>
      <trkpt lat="48.7525" lon="1.98787">
        <ele>175</ele>
        <time>2017-08-20T10:38:15Z</time>
      </trkpt>
      <trkpt lat="48.75245" lon="1.98781">
        <ele>175</ele>
        <time>2017-08-20T10:38:31Z</time>
      </trkpt>
      <trkpt lat="48.75242" lon="1.98778">
        <ele>175</ele>
        <time>2017-08-20T10:38:31Z</time>
      </trkpt>
      <trkpt lat="48.75239" lon="1.98775">
        <ele>175</ele>
        <time>2017-08-20T10:38:31Z</time>
      </trkpt>
      <trkpt lat="48.75237" lon="1.98766">
        <ele>175</ele>
        <time>2017-08-20T10:38:31Z</time>
      </trkpt>
      <trkpt lat="48.7523" lon="1.98755">
        <ele>175</ele>
        <time>2017-08-20T10:38:47Z</time>
      </trkpt>
      <trkpt lat="48.75225" lon="1.98748">
        <ele>175</ele>
        <time>2017-08-20T10:38:47Z</time>
      </trkpt>
      <trkpt lat="48.75226" lon="1.98739">
        <ele>175</ele>
        <time>2017-08-20T10:38:47Z</time>
      </trkpt>
      <trkpt lat="48.75224" lon="1.98738">
        <ele>175</ele>
        <time>2017-08-20T10:38:47Z</time>
      </trkpt>
      <trkpt lat="48.75221" lon="1.98728">
        <ele>175</ele>
        <time>2017-08-20T10:39:03Z</time>
      </trkpt>
      <trkpt lat="48.75217" lon="1.9872">
        <ele>175</ele>
        <time>2017-08-20T10:39:03Z</time>
      </trkpt>
      <trkpt lat="48.75214" lon="1.9871">
        <ele>175</ele>
        <time>2017-08-20T10:39:03Z</time>
      </trkpt>
      <trkpt lat="48.75211" lon="1.987">
        <ele>173</ele>
        <time>2017-08-20T10:39:03Z</time>
      </trkpt>
      <trkpt lat="48.75208" lon="1.98695">
        <ele>172</ele>
        <time>2017-08-20T10:39:19Z</time>
      </trkpt>
      <trkpt lat="48.75205" lon="1.98689">
        <ele>172</ele>
        <time>2017-08-20T10:39:19Z</time>
      </trkpt>
      <trkpt lat="48.75198" lon="1.98679">
        <ele>172</ele>
        <time>2017-08-20T10:39:19Z</time>
      </trkpt>
      <trkpt lat="48.75195" lon="1.98667">
        <ele>172</ele>
        <time>2017-08-20T10:39:19Z</time>
      </trkpt>
      <trkpt lat="48.75192" lon="1.98661">
        <ele>172</ele>
        <time>2017-08-20T10:39:35Z</time>
      </trkpt>
      <trkpt lat="48.7519" lon="1.98655">
        <ele>172</ele>
        <time>2017-08-20T10:39:35Z</time>
      </trkpt>
      <trkpt lat="48.75187" lon="1.98651">
        <ele>172</ele>
        <time>2017-08-20T10:39:35Z</time>
      </trkpt>
      <trkpt lat="48.75185" lon="1.98645">
        <ele>172</ele>
        <time>2017-08-20T10:39:35Z</time>
      </trkpt>
      <trkpt lat="48.75183" lon="1.98639">
        <ele>172</ele>
        <time>2017-08-20T10:39:51Z</time>
      </trkpt>
      <trkpt lat="48.75179" lon="1.98635">
        <ele>172</ele>
        <time>2017-08-20T10:39:51Z</time>
      </trkpt>
      <trkpt lat="48.75174" lon="1.98625">
        <ele>172</ele>
        <time>2017-08-20T10:39:51Z</time>
      </trkpt>
      <trkpt lat="48.75172" lon="1.9862">
        <ele>168</ele>
        <time>2017-08-20T10:39:51Z</time>
      </trkpt>
      <trkpt lat="48.75169" lon="1.98614">
        <ele>168</ele>
        <time>2017-08-20T10:40:07Z</time>
      </trkpt>
      <trkpt lat="48.75166" lon="1.98608">
        <ele>168</ele>
        <time>2017-08-20T10:40:07Z</time>
      </trkpt>
      <trkpt lat="48.75164" lon="1.98599">
        <ele>168</ele>
        <time>2017-08-20T10:40:07Z</time>
      </trkpt>
      <trkpt lat="48.75161" lon="1.98588">
        <ele>168</ele>
        <time>2017-08-20T10:40:07Z</time>
      </trkpt>
      <trkpt lat="48.75159" lon="1.98576">
        <ele>168</ele>
        <time>2017-08-20T10:40:23Z</time>
      </trkpt>
      <trkpt lat="48.75157" lon="1.98572">
        <ele>168</ele>
        <time>2017-08-20T10:40:23Z</time>
      </trkpt>
      <trkpt lat="48.75155" lon="1.98565">
        <ele>168</ele>
        <time>2017-08-20T10:40:23Z</time>
      </trkpt>
      <trkpt lat="48.75153" lon="1.9856">
        <ele>168</ele>
        <time>2017-08-20T10:40:23Z</time>
      </trkpt>
      <trkpt lat="48.75151" lon="1.98554">
        <ele>168</ele>
        <time>2017-08-20T10:40:39Z</time>
      </trkpt>
      <trkpt lat="48.75148" lon="1.98545">
        <ele>168</ele>
        <time>2017-08-20T10:40:39Z</time>
      </trkpt>
      <trkpt lat="48.75146" lon="1.98539">
        <ele>164</ele>
        <time>2017-08-20T10:40:39Z</time>
      </trkpt>
      <trkpt lat="48.75144" lon="1.98534">
        <ele>164</ele>
        <time>2017-08-20T10:40:39Z</time>
      </trkpt>
      <trkpt lat="48.75142" lon="1.98527">
        <ele>164</ele>
        <time>2017-08-20T10:40:55Z</time>
      </trkpt>
      <trkpt lat="48.75139" lon="1.9852">
        <ele>164</ele>
        <time>2017-08-20T10:40:55Z</time>
      </trkpt>
      <trkpt lat="48.75138" lon="1.98514">
        <ele>164</ele>
        <time>2017-08-20T10:40:55Z</time>
      </trkpt>
      <trkpt lat="48.75136" lon="1.98507">
        <ele>164</ele>
        <time>2017-08-20T10:40:55Z</time>
      </trkpt>
      <trkpt lat="48.75133" lon="1.98498">
        <ele>164</ele>
        <time>2017-08-20T10:41:11Z</time>
      </trkpt>
      <trkpt lat="48.75133" lon="1.98491">
        <ele>164</ele>
        <time>2017-08-20T10:41:11Z</time>
      </trkpt>
      <trkpt lat="48.75131" lon="1.98486">
        <ele>164</ele>
        <time>2017-08-20T10:41:11Z</time>
      </trkpt>
      <trkpt lat="48.75129" lon="1.98479">
        <ele>164</ele>
        <time>2017-08-20T10:41:11Z</time>
      </trkpt>
      <trkpt lat="48.75125" lon="1.9847">
        <ele>164</ele>
        <time>2017-08-20T10:41:35Z</time>
      </trkpt>
      <trkpt lat="48.75125" lon="1.9847">
        <ele>164</ele>
        <time>2017-08-20T10:41:35Z</time>
      </trkpt>
      <trkpt lat="48.75124" lon="1.98465">
        <ele>161</ele>
        <time>2017-08-20T10:41:35Z</time>
      </trkpt>
      <trkpt lat="48.75122" lon="1.9846">
        <ele>161</ele>
        <time>2017-08-20T10:41:35Z</time>
      </trkpt>
      <trkpt lat="48.7512" lon="1.98455">
        <ele>163</ele>
        <time>2017-08-20T10:41:35Z</time>
      </trkpt>
      <trkpt lat="48.75119" lon="1.98451">
        <ele>163</ele>
        <time>2017-08-20T10:41:51Z</time>
      </trkpt>
      <trkpt lat="48.75117" lon="1.98446">
        <ele>163</ele>
        <time>2017-08-20T10:41:51Z</time>
      </trkpt>
      <trkpt lat="48.75115" lon="1.98441">
        <ele>163</ele>
        <time>2017-08-20T10:41:51Z</time>
      </trkpt>
      <trkpt lat="48.75113" lon="1.98435">
        <ele>163</ele>
        <time>2017-08-20T10:41:51Z</time>
      </trkpt>
      <trkpt lat="48.7511" lon="1.98429">
        <ele>163</ele>
        <time>2017-08-20T10:42:07Z</time>
      </trkpt>
      <trkpt lat="48.75107" lon="1.98424">
        <ele>163</ele>
        <time>2017-08-20T10:42:07Z</time>
      </trkpt>
      <trkpt lat="48.75105" lon="1.98419">
        <ele>163</ele>
        <time>2017-08-20T10:42:07Z</time>
      </trkpt>
      <trkpt lat="48.75103" lon="1.98412">
        <ele>163</ele>
        <time>2017-08-20T10:42:07Z</time>
      </trkpt>
      <trkpt lat="48.751" lon="1.98406">
        <ele>163</ele>
        <time>2017-08-20T10:42:23Z</time>
      </trkpt>
      <trkpt lat="48.75097" lon="1.98398">
        <ele>163</ele>
        <time>2017-08-20T10:42:23Z</time>
      </trkpt>
      <trkpt lat="48.75094" lon="1.98391">
        <ele>163</ele>
        <time>2017-08-20T10:42:23Z</time>
      </trkpt>
      <trkpt lat="48.75092" lon="1.98384">
        <ele>163</ele>
        <time>2017-08-20T10:42:23Z</time>
      </trkpt>
      <trkpt lat="48.75091" lon="1.98379">
        <ele>163</ele>
        <time>2017-08-20T10:42:39Z</time>
      </trkpt>
      <trkpt lat="48.75088" lon="1.9837">
        <ele>164</ele>
        <time>2017-08-20T10:42:39Z</time>
      </trkpt>
      <trkpt lat="48.75086" lon="1.98364">
        <ele>164</ele>
        <time>2017-08-20T10:42:39Z</time>
      </trkpt>
      <trkpt lat="48.75083" lon="1.98359">
        <ele>164</ele>
        <time>2017-08-20T10:42:39Z</time>
      </trkpt>
      <trkpt lat="48.75082" lon="1.98355">
        <ele>164</ele>
        <time>2017-08-20T10:42:55Z</time>
      </trkpt>
      <trkpt lat="48.7508" lon="1.98349">
        <ele>164</ele>
        <time>2017-08-20T10:42:55Z</time>
      </trkpt>
      <trkpt lat="48.75076" lon="1.98342">
        <ele>164</ele>
        <time>2017-08-20T10:42:55Z</time>
      </trkpt>
      <trkpt lat="48.75072" lon="1.98336">
        <ele>164</ele>
        <time>2017-08-20T10:42:55Z</time>
      </trkpt>
      <trkpt lat="48.75069" lon="1.98329">
        <ele>164</ele>
        <time>2017-08-20T10:43:11Z</time>
      </trkpt>
      <trkpt lat="48.75067" lon="1.98322">
        <ele>164</ele>
        <time>2017-08-20T10:43:11Z</time>
      </trkpt>
      <trkpt lat="48.75063" lon="1.98314">
        <ele>164</ele>
        <time>2017-08-20T10:43:11Z</time>
      </trkpt>
      <trkpt lat="48.75061" lon="1.98308">
        <ele>164</ele>
        <time>2017-08-20T10:43:11Z</time>
      </trkpt>
      <trkpt lat="48.75059" lon="1.98301">
        <ele>164</ele>
        <time>2017-08-20T10:43:27Z</time>
      </trkpt>
      <trkpt lat="48.75056" lon="1.98294">
        <ele>164</ele>
        <time>2017-08-20T10:43:27Z</time>
      </trkpt>
      <trkpt lat="48.75052" lon="1.98287">
        <ele>164</ele>
        <time>2017-08-20T10:43:27Z</time>
      </trkpt>
      <trkpt lat="48.75049" lon="1.98279">
        <ele>164</ele>
        <time>2017-08-20T10:43:27Z</time>
      </trkpt>
      <trkpt lat="48.75046" lon="1.98271">
        <ele>164</ele>
        <time>2017-08-20T10:43:43Z</time>
      </trkpt>
      <trkpt lat="48.75042" lon="1.98265">
        <ele>164</ele>
        <time>2017-08-20T10:43:43Z</time>
      </trkpt>
      <trkpt lat="48.75039" lon="1.9826">
        <ele>164</ele>
        <time>2017-08-20T10:43:43Z</time>
      </trkpt>
      <trkpt lat="48.75037" lon="1.98254">
        <ele>164</ele>
        <time>2017-08-20T10:43:43Z</time>
      </trkpt>
      <trkpt lat="48.75032" lon="1.98248">
        <ele>164</ele>
        <time>2017-08-20T10:43:59Z</time>
      </trkpt>
      <trkpt lat="48.7503" lon="1.98242">
        <ele>164</ele>
        <time>2017-08-20T10:43:59Z</time>
      </trkpt>
      <trkpt lat="48.75026" lon="1.98235">
        <ele>164</ele>
        <time>2017-08-20T10:43:59Z</time>
      </trkpt>
      <trkpt lat="48.75022" lon="1.98228">
        <ele>164</ele>
        <time>2017-08-20T10:43:59Z</time>
      </trkpt>
      <trkpt lat="48.75018" lon="1.98221">
        <ele>164</ele>
        <time>2017-08-20T10:44:15Z</time>
      </trkpt>
      <trkpt lat="48.75015" lon="1.98214">
        <ele>164</ele>
        <time>2017-08-20T10:44:15Z</time>
      </trkpt>
      <trkpt lat="48.75011" lon="1.98209">
        <ele>164</ele>
        <time>2017-08-20T10:44:15Z</time>
      </trkpt>
      <trkpt lat="48.75007" lon="1.98202">
        <ele>163</ele>
        <time>2017-08-20T10:44:15Z</time>
      </trkpt>
      <trkpt lat="48.75005" lon="1.98196">
        <ele>163</ele>
        <time>2017-08-20T10:44:31Z</time>
      </trkpt>
      <trkpt lat="48.75001" lon="1.9819">
        <ele>163</ele>
        <time>2017-08-20T10:44:31Z</time>
      </trkpt>
      <trkpt lat="48.74998" lon="1.98184">
        <ele>163</ele>
        <time>2017-08-20T10:44:31Z</time>
      </trkpt>
      <trkpt lat="48.74994" lon="1.98178">
        <ele>163</ele>
        <time>2017-08-20T10:44:31Z</time>
      </trkpt>
      <trkpt lat="48.74992" lon="1.98173">
        <ele>163</ele>
        <time>2017-08-20T10:44:47Z</time>
      </trkpt>
      <trkpt lat="48.74988" lon="1.98167">
        <ele>163</ele>
        <time>2017-08-20T10:44:47Z</time>
      </trkpt>
      <trkpt lat="48.74985" lon="1.98161">
        <ele>163</ele>
        <time>2017-08-20T10:44:47Z</time>
      </trkpt>
      <trkpt lat="48.74982" lon="1.98153">
        <ele>163</ele>
        <time>2017-08-20T10:44:47Z</time>
      </trkpt>
      <trkpt lat="48.74979" lon="1.98149">
        <ele>163</ele>
        <time>2017-08-20T10:45:03Z</time>
      </trkpt>
      <trkpt lat="48.74976" lon="1.98143">
        <ele>163</ele>
        <time>2017-08-20T10:45:03Z</time>
      </trkpt>
      <trkpt lat="48.74973" lon="1.98138">
        <ele>163</ele>
        <time>2017-08-20T10:45:03Z</time>
      </trkpt>
      <trkpt lat="48.7497" lon="1.98132">
        <ele>163</ele>
        <time>2017-08-20T10:45:03Z</time>
      </trkpt>
      <trkpt lat="48.74967" lon="1.98128">
        <ele>163</ele>
        <time>2017-08-20T10:45:19Z</time>
      </trkpt>
      <trkpt lat="48.74963" lon="1.98121">
        <ele>164</ele>
        <time>2017-08-20T10:45:19Z</time>
      </trkpt>
      <trkpt lat="48.74959" lon="1.98115">
        <ele>164</ele>
        <time>2017-08-20T10:45:19Z</time>
      </trkpt>
      <trkpt lat="48.74956" lon="1.98108">
        <ele>162</ele>
        <time>2017-08-20T10:45:19Z</time>
      </trkpt>
      <trkpt lat="48.74952" lon="1.98101">
        <ele>162</ele>
        <time>2017-08-20T10:45:35Z</time>
      </trkpt>
      <trkpt lat="48.74949" lon="1.98092">
        <ele>162</ele>
        <time>2017-08-20T10:45:35Z</time>
      </trkpt>
      <trkpt lat="48.74946" lon="1.98087">
        <ele>162</ele>
        <time>2017-08-20T10:45:35Z</time>
      </trkpt>
      <trkpt lat="48.74943" lon="1.98081">
        <ele>162</ele>
        <time>2017-08-20T10:45:35Z</time>
      </trkpt>
      <trkpt lat="48.74939" lon="1.98075">
        <ele>162</ele>
        <time>2017-08-20T10:45:51Z</time>
      </trkpt>
      <trkpt lat="48.74936" lon="1.98069">
        <ele>162</ele>
        <time>2017-08-20T10:45:51Z</time>
      </trkpt>
      <trkpt lat="48.74933" lon="1.98062">
        <ele>162</ele>
        <time>2017-08-20T10:45:51Z</time>
      </trkpt>
      <trkpt lat="48.74929" lon="1.98056">
        <ele>162</ele>
        <time>2017-08-20T10:45:51Z</time>
      </trkpt>
      <trkpt lat="48.74925" lon="1.98049">
        <ele>162</ele>
        <time>2017-08-20T10:46:07Z</time>
      </trkpt>
      <trkpt lat="48.74922" lon="1.98043">
        <ele>162</ele>
        <time>2017-08-20T10:46:07Z</time>
      </trkpt>
      <trkpt lat="48.7492" lon="1.98037">
        <ele>163</ele>
        <time>2017-08-20T10:46:07Z</time>
      </trkpt>
      <trkpt lat="48.74918" lon="1.98031">
        <ele>163</ele>
        <time>2017-08-20T10:46:07Z</time>
      </trkpt>
      <trkpt lat="48.74916" lon="1.98024">
        <ele>163</ele>
        <time>2017-08-20T10:46:23Z</time>
      </trkpt>
      <trkpt lat="48.74913" lon="1.9802">
        <ele>163</ele>
        <time>2017-08-20T10:46:23Z</time>
      </trkpt>
      <trkpt lat="48.7491" lon="1.98013">
        <ele>163</ele>
        <time>2017-08-20T10:46:23Z</time>
      </trkpt>
      <trkpt lat="48.74907" lon="1.98007">
        <ele>163</ele>
        <time>2017-08-20T10:46:23Z</time>
      </trkpt>
      <trkpt lat="48.74903" lon="1.98">
        <ele>163</ele>
        <time>2017-08-20T10:46:39Z</time>
      </trkpt>
      <trkpt lat="48.749" lon="1.97993">
        <ele>163</ele>
        <time>2017-08-20T10:46:39Z</time>
      </trkpt>
      <trkpt lat="48.74897" lon="1.97985">
        <ele>163</ele>
        <time>2017-08-20T10:46:39Z</time>
      </trkpt>
      <trkpt lat="48.74895" lon="1.97978">
        <ele>163</ele>
        <time>2017-08-20T10:46:39Z</time>
      </trkpt>
      <trkpt lat="48.74892" lon="1.97972">
        <ele>163</ele>
        <time>2017-08-20T10:46:55Z</time>
      </trkpt>
      <trkpt lat="48.74889" lon="1.97966">
        <ele>163</ele>
        <time>2017-08-20T10:46:55Z</time>
      </trkpt>
      <trkpt lat="48.74886" lon="1.9796">
        <ele>163</ele>
        <time>2017-08-20T10:46:55Z</time>
      </trkpt>
      <trkpt lat="48.74883" lon="1.97955">
        <ele>164</ele>
        <time>2017-08-20T10:46:55Z</time>
      </trkpt>
      <trkpt lat="48.7488" lon="1.97949">
        <ele>164</ele>
        <time>2017-08-20T10:47:11Z</time>
      </trkpt>
      <trkpt lat="48.74877" lon="1.97943">
        <ele>164</ele>
        <time>2017-08-20T10:47:11Z</time>
      </trkpt>
      <trkpt lat="48.74874" lon="1.97937">
        <ele>163</ele>
        <time>2017-08-20T10:47:11Z</time>
      </trkpt>
      <trkpt lat="48.7487" lon="1.9793">
        <ele>163</ele>
        <time>2017-08-20T10:47:11Z</time>
      </trkpt>
      <trkpt lat="48.74866" lon="1.97924">
        <ele>163</ele>
        <time>2017-08-20T10:47:27Z</time>
      </trkpt>
      <trkpt lat="48.74864" lon="1.97919">
        <ele>163</ele>
        <time>2017-08-20T10:47:27Z</time>
      </trkpt>
      <trkpt lat="48.7486" lon="1.97914">
        <ele>163</ele>
        <time>2017-08-20T10:47:27Z</time>
      </trkpt>
      <trkpt lat="48.74857" lon="1.97909">
        <ele>163</ele>
        <time>2017-08-20T10:47:27Z</time>
      </trkpt>
      <trkpt lat="48.74852" lon="1.97903">
        <ele>163</ele>
        <time>2017-08-20T10:47:43Z</time>
      </trkpt>
      <trkpt lat="48.74849" lon="1.97899">
        <ele>163</ele>
        <time>2017-08-20T10:47:43Z</time>
      </trkpt>
      <trkpt lat="48.74846" lon="1.97896">
        <ele>163</ele>
        <time>2017-08-20T10:47:43Z</time>
      </trkpt>
      <trkpt lat="48.74842" lon="1.97893">
        <ele>163</ele>
        <time>2017-08-20T10:47:43Z</time>
      </trkpt>
      <trkpt lat="48.74839" lon="1.97888">
        <ele>163</ele>
        <time>2017-08-20T10:47:59Z</time>
      </trkpt>
      <trkpt lat="48.74835" lon="1.97883">
        <ele>163</ele>
        <time>2017-08-20T10:47:59Z</time>
      </trkpt>
      <trkpt lat="48.74831" lon="1.97878">
        <ele>163</ele>
        <time>2017-08-20T10:47:59Z</time>
      </trkpt>
      <trkpt lat="48.74826" lon="1.97872">
        <ele>164</ele>
        <time>2017-08-20T10:47:59Z</time>
      </trkpt>
      <trkpt lat="48.74822" lon="1.97868">
        <ele>164</ele>
        <time>2017-08-20T10:48:15Z</time>
      </trkpt>
      <trkpt lat="48.74818" lon="1.97863">
        <ele>164</ele>
        <time>2017-08-20T10:48:15Z</time>
      </trkpt>
      <trkpt lat="48.74814" lon="1.97859">
        <ele>164</ele>
        <time>2017-08-20T10:48:15Z</time>
      </trkpt>
      <trkpt lat="48.7481" lon="1.97854">
        <ele>164</ele>
        <time>2017-08-20T10:48:15Z</time>
      </trkpt>
      <trkpt lat="48.74805" lon="1.97849">
        <ele>164</ele>
        <time>2017-08-20T10:48:31Z</time>
      </trkpt>
      <trkpt lat="48.74801" lon="1.97847">
        <ele>164</ele>
        <time>2017-08-20T10:48:31Z</time>
      </trkpt>
      <trkpt lat="48.74797" lon="1.97842">
        <ele>164</ele>
        <time>2017-08-20T10:48:31Z</time>
      </trkpt>
      <trkpt lat="48.74792" lon="1.97834">
        <ele>164</ele>
        <time>2017-08-20T10:48:31Z</time>
      </trkpt>
      <trkpt lat="48.74789" lon="1.97831">
        <ele>164</ele>
        <time>2017-08-20T10:48:47Z</time>
      </trkpt>
      <trkpt lat="48.74784" lon="1.97827">
        <ele>164</ele>
        <time>2017-08-20T10:48:47Z</time>
      </trkpt>
      <trkpt lat="48.74781" lon="1.97823">
        <ele>164</ele>
        <time>2017-08-20T10:48:47Z</time>
      </trkpt>
      <trkpt lat="48.74778" lon="1.9782">
        <ele>164</ele>
        <time>2017-08-20T10:48:47Z</time>
      </trkpt>
      <trkpt lat="48.74776" lon="1.97817">
        <ele>164</ele>
        <time>2017-08-20T10:49:03Z</time>
      </trkpt>
      <trkpt lat="48.74772" lon="1.97814">
        <ele>164</ele>
        <time>2017-08-20T10:49:03Z</time>
      </trkpt>
      <trkpt lat="48.74769" lon="1.97811">
        <ele>164</ele>
        <time>2017-08-20T10:49:03Z</time>
      </trkpt>
      <trkpt lat="48.74765" lon="1.97806">
        <ele>164</ele>
        <time>2017-08-20T10:49:03Z</time>
      </trkpt>
      <trkpt lat="48.74762" lon="1.97803">
        <ele>164</ele>
        <time>2017-08-20T10:49:19Z</time>
      </trkpt>
      <trkpt lat="48.74758" lon="1.97798">
        <ele>164</ele>
        <time>2017-08-20T10:49:19Z</time>
      </trkpt>
      <trkpt lat="48.74754" lon="1.97795">
        <ele>164</ele>
        <time>2017-08-20T10:49:19Z</time>
      </trkpt>
      <trkpt lat="48.7475" lon="1.97791">
        <ele>164</ele>
        <time>2017-08-20T10:49:19Z</time>
      </trkpt>
      <trkpt lat="48.74746" lon="1.97788">
        <ele>164</ele>
        <time>2017-08-20T10:49:35Z</time>
      </trkpt>
      <trkpt lat="48.74743" lon="1.97783">
        <ele>164</ele>
        <time>2017-08-20T10:49:35Z</time>
      </trkpt>
      <trkpt lat="48.74738" lon="1.97779">
        <ele>164</ele>
        <time>2017-08-20T10:49:35Z</time>
      </trkpt>
      <trkpt lat="48.74734" lon="1.97775">
        <ele>164</ele>
        <time>2017-08-20T10:49:35Z</time>
      </trkpt>
      <trkpt lat="48.74729" lon="1.9777">
        <ele>164</ele>
        <time>2017-08-20T10:49:51Z</time>
      </trkpt>
      <trkpt lat="48.74726" lon="1.97767">
        <ele>164</ele>
        <time>2017-08-20T10:49:51Z</time>
      </trkpt>
      <trkpt lat="48.74721" lon="1.97762">
        <ele>164</ele>
        <time>2017-08-20T10:49:51Z</time>
      </trkpt>
      <trkpt lat="48.74718" lon="1.97757">
        <ele>164</ele>
        <time>2017-08-20T10:49:51Z</time>
      </trkpt>
      <trkpt lat="48.74714" lon="1.97755">
        <ele>164</ele>
        <time>2017-08-20T10:50:07Z</time>
      </trkpt>
      <trkpt lat="48.7471" lon="1.97754">
        <ele>164</ele>
        <time>2017-08-20T10:50:07Z</time>
      </trkpt>
      <trkpt lat="48.74706" lon="1.97749">
        <ele>163</ele>
        <time>2017-08-20T10:50:07Z</time>
      </trkpt>
      <trkpt lat="48.74701" lon="1.97745">
        <ele>163</ele>
        <time>2017-08-20T10:50:07Z</time>
      </trkpt>
      <trkpt lat="48.74696" lon="1.9774">
        <ele>163</ele>
        <time>2017-08-20T10:50:23Z</time>
      </trkpt>
      <trkpt lat="48.74692" lon="1.97735">
        <ele>163</ele>
        <time>2017-08-20T10:50:23Z</time>
      </trkpt>
      <trkpt lat="48.74687" lon="1.97731">
        <ele>163</ele>
        <time>2017-08-20T10:50:23Z</time>
      </trkpt>
      <trkpt lat="48.74683" lon="1.97727">
        <ele>163</ele>
        <time>2017-08-20T10:50:23Z</time>
      </trkpt>
      <trkpt lat="48.7468" lon="1.97723">
        <ele>163</ele>
        <time>2017-08-20T10:50:39Z</time>
      </trkpt>
      <trkpt lat="48.74675" lon="1.97719">
        <ele>163</ele>
        <time>2017-08-20T10:50:39Z</time>
      </trkpt>
      <trkpt lat="48.7467" lon="1.97714">
        <ele>163</ele>
        <time>2017-08-20T10:50:39Z</time>
      </trkpt>
      <trkpt lat="48.74666" lon="1.97709">
        <ele>163</ele>
        <time>2017-08-20T10:50:39Z</time>
      </trkpt>
      <trkpt lat="48.74663" lon="1.97705">
        <ele>163</ele>
        <time>2017-08-20T10:50:55Z</time>
      </trkpt>
      <trkpt lat="48.7466" lon="1.97698">
        <ele>163</ele>
        <time>2017-08-20T10:50:55Z</time>
      </trkpt>
      <trkpt lat="48.74656" lon="1.97691">
        <ele>163</ele>
        <time>2017-08-20T10:50:55Z</time>
      </trkpt>
      <trkpt lat="48.74652" lon="1.97684">
        <ele>163</ele>
        <time>2017-08-20T10:50:55Z</time>
      </trkpt>
      <trkpt lat="48.74649" lon="1.97679">
        <ele>163</ele>
        <time>2017-08-20T10:51:11Z</time>
      </trkpt>
      <trkpt lat="48.74647" lon="1.97674">
        <ele>163</ele>
        <time>2017-08-20T10:51:11Z</time>
      </trkpt>
      <trkpt lat="48.74645" lon="1.97664">
        <ele>163</ele>
        <time>2017-08-20T10:51:11Z</time>
      </trkpt>
      <trkpt lat="48.74644" lon="1.97655">
        <ele>163</ele>
        <time>2017-08-20T10:51:11Z</time>
      </trkpt>
      <trkpt lat="48.74643" lon="1.97649">
        <ele>163</ele>
        <time>2017-08-20T10:51:27Z</time>
      </trkpt>
      <trkpt lat="48.74641" lon="1.97644">
        <ele>163</ele>
        <time>2017-08-20T10:51:27Z</time>
      </trkpt>
      <trkpt lat="48.7464" lon="1.97637">
        <ele>163</ele>
        <time>2017-08-20T10:51:27Z</time>
      </trkpt>
      <trkpt lat="48.74639" lon="1.9763">
        <ele>163</ele>
        <time>2017-08-20T10:51:27Z</time>
      </trkpt>
      <trkpt lat="48.74638" lon="1.97624">
        <ele>164</ele>
        <time>2017-08-20T10:51:43Z</time>
      </trkpt>
      <trkpt lat="48.74638" lon="1.97617">
        <ele>164</ele>
        <time>2017-08-20T10:51:43Z</time>
      </trkpt>
      <trkpt lat="48.74635" lon="1.97608">
        <ele>164</ele>
        <time>2017-08-20T10:51:43Z</time>
      </trkpt>
      <trkpt lat="48.74633" lon="1.976">
        <ele>164</ele>
        <time>2017-08-20T10:51:43Z</time>
      </trkpt>
      <trkpt lat="48.74631" lon="1.97594">
        <ele>164</ele>
        <time>2017-08-20T10:51:59Z</time>
      </trkpt>
      <trkpt lat="48.7463" lon="1.97587">
        <ele>164</ele>
        <time>2017-08-20T10:51:59Z</time>
      </trkpt>
      <trkpt lat="48.74628" lon="1.9758">
        <ele>164</ele>
        <time>2017-08-20T10:51:59Z</time>
      </trkpt>
      <trkpt lat="48.74625" lon="1.97575">
        <ele>165</ele>
        <time>2017-08-20T10:51:59Z</time>
      </trkpt>
      <trkpt lat="48.74622" lon="1.97568">
        <ele>165</ele>
        <time>2017-08-20T10:52:15Z</time>
      </trkpt>
      <trkpt lat="48.74619" lon="1.97561">
        <ele>165</ele>
        <time>2017-08-20T10:52:15Z</time>
      </trkpt>
      <trkpt lat="48.74615" lon="1.97554">
        <ele>165</ele>
        <time>2017-08-20T10:52:15Z</time>
      </trkpt>
      <trkpt lat="48.74612" lon="1.97548">
        <ele>165</ele>
        <time>2017-08-20T10:52:15Z</time>
      </trkpt>
      <trkpt lat="48.74609" lon="1.97541">
        <ele>165</ele>
        <time>2017-08-20T10:52:31Z</time>
      </trkpt>
      <trkpt lat="48.74604" lon="1.97533">
        <ele>165</ele>
        <time>2017-08-20T10:52:31Z</time>
      </trkpt>
      <trkpt lat="48.74602" lon="1.97527">
        <ele>165</ele>
        <time>2017-08-20T10:52:31Z</time>
      </trkpt>
      <trkpt lat="48.746" lon="1.97522">
        <ele>165</ele>
        <time>2017-08-20T10:52:31Z</time>
      </trkpt>
      <trkpt lat="48.74598" lon="1.97515">
        <ele>165</ele>
        <time>2017-08-20T10:52:47Z</time>
      </trkpt>
      <trkpt lat="48.74594" lon="1.9751">
        <ele>165</ele>
        <time>2017-08-20T10:52:47Z</time>
      </trkpt>
      <trkpt lat="48.74589" lon="1.97504">
        <ele>165</ele>
        <time>2017-08-20T10:52:47Z</time>
      </trkpt>
      <trkpt lat="48.74584" lon="1.97505">
        <ele>165</ele>
        <time>2017-08-20T10:52:47Z</time>
      </trkpt>
      <trkpt lat="48.74581" lon="1.97509">
        <ele>165</ele>
        <time>2017-08-20T10:53:03Z</time>
      </trkpt>
      <trkpt lat="48.74576" lon="1.97516">
        <ele>165</ele>
        <time>2017-08-20T10:53:03Z</time>
      </trkpt>
      <trkpt lat="48.74573" lon="1.97523">
        <ele>165</ele>
        <time>2017-08-20T10:53:03Z</time>
      </trkpt>
      <trkpt lat="48.7457" lon="1.9753">
        <ele>165</ele>
        <time>2017-08-20T10:53:03Z</time>
      </trkpt>
      <trkpt lat="48.74566" lon="1.97536">
        <ele>165</ele>
        <time>2017-08-20T10:53:19Z</time>
      </trkpt>
      <trkpt lat="48.74563" lon="1.9754">
        <ele>165</ele>
        <time>2017-08-20T10:53:19Z</time>
      </trkpt>
      <trkpt lat="48.7456" lon="1.97547">
        <ele>165</ele>
        <time>2017-08-20T10:53:19Z</time>
      </trkpt>
      <trkpt lat="48.74556" lon="1.97552">
        <ele>165</ele>
        <time>2017-08-20T10:53:19Z</time>
      </trkpt>
      <trkpt lat="48.74551" lon="1.97557">
        <ele>165</ele>
        <time>2017-08-20T10:53:35Z</time>
      </trkpt>
      <trkpt lat="48.74546" lon="1.97562">
        <ele>165</ele>
        <time>2017-08-20T10:53:35Z</time>
      </trkpt>
      <trkpt lat="48.74542" lon="1.97566">
        <ele>165</ele>
        <time>2017-08-20T10:53:35Z</time>
      </trkpt>
      <trkpt lat="48.74537" lon="1.9757">
        <ele>164</ele>
        <time>2017-08-20T10:53:35Z</time>
      </trkpt>
      <trkpt lat="48.74532" lon="1.97575">
        <ele>164</ele>
        <time>2017-08-20T10:53:51Z</time>
      </trkpt>
      <trkpt lat="48.74528" lon="1.97577">
        <ele>164</ele>
        <time>2017-08-20T10:53:51Z</time>
      </trkpt>
      <trkpt lat="48.74525" lon="1.97582">
        <ele>164</ele>
        <time>2017-08-20T10:53:51Z</time>
      </trkpt>
      <trkpt lat="48.7452" lon="1.97584">
        <ele>164</ele>
        <time>2017-08-20T10:53:51Z</time>
      </trkpt>
      <trkpt lat="48.74517" lon="1.97586">
        <ele>164</ele>
        <time>2017-08-20T10:54:07Z</time>
      </trkpt>
      <trkpt lat="48.74513" lon="1.9759">
        <ele>164</ele>
        <time>2017-08-20T10:54:07Z</time>
      </trkpt>
      <trkpt lat="48.74509" lon="1.97594">
        <ele>164</ele>
        <time>2017-08-20T10:54:07Z</time>
      </trkpt>
      <trkpt lat="48.74504" lon="1.97599">
        <ele>164</ele>
        <time>2017-08-20T10:54:07Z</time>
      </trkpt>
      <trkpt lat="48.745" lon="1.97607">
        <ele>164</ele>
        <time>2017-08-20T10:55:07Z</time>
      </trkpt>
      <trkpt lat="48.745" lon="1.97608">
        <ele>164</ele>
        <time>2017-08-20T10:55:07Z</time>
      </trkpt>
      <trkpt lat="48.745" lon="1.97608">
        <ele>164</ele>
        <time>2017-08-20T10:55:07Z</time>
      </trkpt>
      <trkpt lat="48.74499" lon="1.9761">
        <ele>164</ele>
        <time>2017-08-20T10:55:07Z</time>
      </trkpt>
      <trkpt lat="48.74495" lon="1.97615">
        <ele>164</ele>
        <time>2017-08-20T10:55:07Z</time>
      </trkpt>
      <trkpt lat="48.7449" lon="1.9762">
        <ele>164</ele>
        <time>2017-08-20T10:55:23Z</time>
      </trkpt>
      <trkpt lat="48.74486" lon="1.97623">
        <ele>164</ele>
        <time>2017-08-20T10:55:23Z</time>
      </trkpt>
      <trkpt lat="48.74482" lon="1.97627">
        <ele>164</ele>
        <time>2017-08-20T10:55:23Z</time>
      </trkpt>
      <trkpt lat="48.74477" lon="1.97632">
        <ele>164</ele>
        <time>2017-08-20T10:55:23Z</time>
      </trkpt>
      <trkpt lat="48.74473" lon="1.97636">
        <ele>164</ele>
        <time>2017-08-20T10:55:39Z</time>
      </trkpt>
      <trkpt lat="48.74469" lon="1.97641">
        <ele>164</ele>
        <time>2017-08-20T10:55:39Z</time>
      </trkpt>
      <trkpt lat="48.74465" lon="1.97646">
        <ele>164</ele>
        <time>2017-08-20T10:55:39Z</time>
      </trkpt>
      <trkpt lat="48.7446" lon="1.9765">
        <ele>164</ele>
        <time>2017-08-20T10:55:39Z</time>
      </trkpt>
      <trkpt lat="48.74457" lon="1.97654">
        <ele>161</ele>
        <time>2017-08-20T10:55:55Z</time>
      </trkpt>
      <trkpt lat="48.74453" lon="1.97659">
        <ele>161</ele>
        <time>2017-08-20T10:55:55Z</time>
      </trkpt>
      <trkpt lat="48.7445" lon="1.97666">
        <ele>161</ele>
        <time>2017-08-20T10:55:55Z</time>
      </trkpt>
      <trkpt lat="48.74447" lon="1.9767">
        <ele>161</ele>
        <time>2017-08-20T10:55:55Z</time>
      </trkpt>
      <trkpt lat="48.74443" lon="1.97676">
        <ele>161</ele>
        <time>2017-08-20T10:56:11Z</time>
      </trkpt>
      <trkpt lat="48.74439" lon="1.97681">
        <ele>161</ele>
        <time>2017-08-20T10:56:11Z</time>
      </trkpt>
      <trkpt lat="48.74435" lon="1.97687">
        <ele>161</ele>
        <time>2017-08-20T10:56:11Z</time>
      </trkpt>
      <trkpt lat="48.74432" lon="1.97692">
        <ele>161</ele>
        <time>2017-08-20T10:56:11Z</time>
      </trkpt>
      <trkpt lat="48.74428" lon="1.97698">
        <ele>161</ele>
        <time>2017-08-20T10:56:27Z</time>
      </trkpt>
      <trkpt lat="48.74424" lon="1.97703">
        <ele>161</ele>
        <time>2017-08-20T10:56:27Z</time>
      </trkpt>
      <trkpt lat="48.74421" lon="1.9771">
        <ele>161</ele>
        <time>2017-08-20T10:56:27Z</time>
      </trkpt>
      <trkpt lat="48.74418" lon="1.97717">
        <ele>161</ele>
        <time>2017-08-20T10:56:27Z</time>
      </trkpt>
      <trkpt lat="48.74415" lon="1.97723">
        <ele>161</ele>
        <time>2017-08-20T10:56:43Z</time>
      </trkpt>
      <trkpt lat="48.74414" lon="1.97729">
        <ele>161</ele>
        <time>2017-08-20T10:56:43Z</time>
      </trkpt>
      <trkpt lat="48.74411" lon="1.97736">
        <ele>161</ele>
        <time>2017-08-20T10:56:43Z</time>
      </trkpt>
      <trkpt lat="48.74408" lon="1.97743">
        <ele>161</ele>
        <time>2017-08-20T10:56:43Z</time>
      </trkpt>
      <trkpt lat="48.74405" lon="1.97749">
        <ele>161</ele>
        <time>2017-08-20T10:56:59Z</time>
      </trkpt>
      <trkpt lat="48.74401" lon="1.97757">
        <ele>161</ele>
        <time>2017-08-20T10:56:59Z</time>
      </trkpt>
      <trkpt lat="48.744" lon="1.97764">
        <ele>161</ele>
        <time>2017-08-20T10:56:59Z</time>
      </trkpt>
      <trkpt lat="48.74397" lon="1.97771">
        <ele>161</ele>
        <time>2017-08-20T10:56:59Z</time>
      </trkpt>
      <trkpt lat="48.74395" lon="1.97778">
        <ele>161</ele>
        <time>2017-08-20T10:57:15Z</time>
      </trkpt>
      <trkpt lat="48.74393" lon="1.97784">
        <ele>161</ele>
        <time>2017-08-20T10:57:15Z</time>
      </trkpt>
      <trkpt lat="48.74391" lon="1.97791">
        <ele>161</ele>
        <time>2017-08-20T10:57:15Z</time>
      </trkpt>
      <trkpt lat="48.7439" lon="1.97797">
        <ele>160</ele>
        <time>2017-08-20T10:57:15Z</time>
      </trkpt>
      <trkpt lat="48.74387" lon="1.97804">
        <ele>160</ele>
        <time>2017-08-20T10:57:31Z</time>
      </trkpt>
      <trkpt lat="48.74384" lon="1.9781">
        <ele>160</ele>
        <time>2017-08-20T10:57:31Z</time>
      </trkpt>
      <trkpt lat="48.74382" lon="1.97816">
        <ele>160</ele>
        <time>2017-08-20T10:57:31Z</time>
      </trkpt>
      <trkpt lat="48.74379" lon="1.97822">
        <ele>160</ele>
        <time>2017-08-20T10:57:31Z</time>
      </trkpt>
      <trkpt lat="48.74376" lon="1.97828">
        <ele>160</ele>
        <time>2017-08-20T10:57:47Z</time>
      </trkpt>
      <trkpt lat="48.74374" lon="1.97835">
        <ele>162</ele>
        <time>2017-08-20T10:57:47Z</time>
      </trkpt>
      <trkpt lat="48.74372" lon="1.97842">
        <ele>162</ele>
        <time>2017-08-20T10:57:47Z</time>
      </trkpt>
      <trkpt lat="48.74369" lon="1.97851">
        <ele>162</ele>
        <time>2017-08-20T10:57:47Z</time>
      </trkpt>
      <trkpt lat="48.74368" lon="1.97858">
        <ele>162</ele>
        <time>2017-08-20T10:58:03Z</time>
      </trkpt>
      <trkpt lat="48.74365" lon="1.97864">
        <ele>162</ele>
        <time>2017-08-20T10:58:03Z</time>
      </trkpt>
      <trkpt lat="48.74363" lon="1.97873">
        <ele>162</ele>
        <time>2017-08-20T10:58:03Z</time>
      </trkpt>
      <trkpt lat="48.7436" lon="1.97881">
        <ele>161</ele>
        <time>2017-08-20T10:58:03Z</time>
      </trkpt>
      <trkpt lat="48.74358" lon="1.97888">
        <ele>161</ele>
        <time>2017-08-20T10:58:19Z</time>
      </trkpt>
      <trkpt lat="48.74356" lon="1.97895">
        <ele>161</ele>
        <time>2017-08-20T10:58:19Z</time>
      </trkpt>
      <trkpt lat="48.74355" lon="1.97902">
        <ele>161</ele>
        <time>2017-08-20T10:58:19Z</time>
      </trkpt>
      <trkpt lat="48.74352" lon="1.97911">
        <ele>161</ele>
        <time>2017-08-20T10:58:19Z</time>
      </trkpt>
      <trkpt lat="48.74351" lon="1.97918">
        <ele>161</ele>
        <time>2017-08-20T10:58:35Z</time>
      </trkpt>
      <trkpt lat="48.74348" lon="1.97926">
        <ele>161</ele>
        <time>2017-08-20T10:58:35Z</time>
      </trkpt>
      <trkpt lat="48.74345" lon="1.97934">
        <ele>161</ele>
        <time>2017-08-20T10:58:35Z</time>
      </trkpt>
      <trkpt lat="48.74345" lon="1.9794">
        <ele>161</ele>
        <time>2017-08-20T10:58:35Z</time>
      </trkpt>
      <trkpt lat="48.74342" lon="1.97944">
        <ele>161</ele>
        <time>2017-08-20T10:58:51Z</time>
      </trkpt>
      <trkpt lat="48.74341" lon="1.97948">
        <ele>161</ele>
        <time>2017-08-20T10:58:51Z</time>
      </trkpt>
      <trkpt lat="48.74337" lon="1.9795">
        <ele>161</ele>
        <time>2017-08-20T10:58:51Z</time>
      </trkpt>
      <trkpt lat="48.74333" lon="1.97951">
        <ele>161</ele>
        <time>2017-08-20T10:58:51Z</time>
      </trkpt>
      <trkpt lat="48.74329" lon="1.97953">
        <ele>161</ele>
        <time>2017-08-20T10:59:07Z</time>
      </trkpt>
      <trkpt lat="48.74325" lon="1.97953">
        <ele>161</ele>
        <time>2017-08-20T10:59:07Z</time>
      </trkpt>
      <trkpt lat="48.7432" lon="1.97949">
        <ele>161</ele>
        <time>2017-08-20T10:59:07Z</time>
      </trkpt>
      <trkpt lat="48.74316" lon="1.97944">
        <ele>161</ele>
        <time>2017-08-20T10:59:07Z</time>
      </trkpt>
      <trkpt lat="48.74313" lon="1.9794">
        <ele>161</ele>
        <time>2017-08-20T10:59:23Z</time>
      </trkpt>
      <trkpt lat="48.74308" lon="1.97935">
        <ele>161</ele>
        <time>2017-08-20T10:59:23Z</time>
      </trkpt>
      <trkpt lat="48.74303" lon="1.9793">
        <ele>161</ele>
        <time>2017-08-20T10:59:23Z</time>
      </trkpt>
      <trkpt lat="48.74298" lon="1.97927">
        <ele>161</ele>
        <time>2017-08-20T10:59:23Z</time>
      </trkpt>
      <trkpt lat="48.74294" lon="1.97923">
        <ele>161</ele>
        <time>2017-08-20T10:59:39Z</time>
      </trkpt>
      <trkpt lat="48.7429" lon="1.97918">
        <ele>163</ele>
        <time>2017-08-20T10:59:39Z</time>
      </trkpt>
      <trkpt lat="48.74286" lon="1.97914">
        <ele>163</ele>
        <time>2017-08-20T10:59:39Z</time>
      </trkpt>
      <trkpt lat="48.74283" lon="1.97911">
        <ele>163</ele>
        <time>2017-08-20T10:59:39Z</time>
      </trkpt>
      <trkpt lat="48.7428" lon="1.97905">
        <ele>163</ele>
        <time>2017-08-20T10:59:55Z</time>
      </trkpt>
      <trkpt lat="48.74274" lon="1.97902">
        <ele>163</ele>
        <time>2017-08-20T10:59:55Z</time>
      </trkpt>
      <trkpt lat="48.7427" lon="1.97896">
        <ele>163</ele>
        <time>2017-08-20T10:59:55Z</time>
      </trkpt>
      <trkpt lat="48.74266" lon="1.97892">
        <ele>163</ele>
        <time>2017-08-20T10:59:55Z</time>
      </trkpt>
      <trkpt lat="48.74262" lon="1.97886">
        <ele>163</ele>
        <time>2017-08-20T11:00:11Z</time>
      </trkpt>
      <trkpt lat="48.74258" lon="1.97882">
        <ele>163</ele>
        <time>2017-08-20T11:00:11Z</time>
      </trkpt>
      <trkpt lat="48.74254" lon="1.97878">
        <ele>163</ele>
        <time>2017-08-20T11:00:11Z</time>
      </trkpt>
      <trkpt lat="48.74251" lon="1.97874">
        <ele>164</ele>
        <time>2017-08-20T11:00:11Z</time>
      </trkpt>
      <trkpt lat="48.74247" lon="1.97869">
        <ele>164</ele>
        <time>2017-08-20T11:00:27Z</time>
      </trkpt>
      <trkpt lat="48.74243" lon="1.97865">
        <ele>164</ele>
        <time>2017-08-20T11:00:27Z</time>
      </trkpt>
      <trkpt lat="48.74238" lon="1.9786">
        <ele>164</ele>
        <time>2017-08-20T11:00:27Z</time>
      </trkpt>
      <trkpt lat="48.74234" lon="1.97854">
        <ele>164</ele>
        <time>2017-08-20T11:00:27Z</time>
      </trkpt>
      <trkpt lat="48.7423" lon="1.97849">
        <ele>164</ele>
        <time>2017-08-20T11:00:43Z</time>
      </trkpt>
      <trkpt lat="48.74226" lon="1.97844">
        <ele>164</ele>
        <time>2017-08-20T11:00:43Z</time>
      </trkpt>
      <trkpt lat="48.74221" lon="1.97839">
        <ele>164</ele>
        <time>2017-08-20T11:00:43Z</time>
      </trkpt>
      <trkpt lat="48.74217" lon="1.97836">
        <ele>164</ele>
        <time>2017-08-20T11:00:43Z</time>
      </trkpt>
      <trkpt lat="48.74214" lon="1.97832">
        <ele>164</ele>
        <time>2017-08-20T11:00:59Z</time>
      </trkpt>
      <trkpt lat="48.7421" lon="1.97826">
        <ele>164</ele>
        <time>2017-08-20T11:00:59Z</time>
      </trkpt>
      <trkpt lat="48.74207" lon="1.97821">
        <ele>162</ele>
        <time>2017-08-20T11:00:59Z</time>
      </trkpt>
      <trkpt lat="48.74203" lon="1.97814">
        <ele>162</ele>
        <time>2017-08-20T11:00:59Z</time>
      </trkpt>
      <trkpt lat="48.742" lon="1.97809">
        <ele>162</ele>
        <time>2017-08-20T11:01:15Z</time>
      </trkpt>
      <trkpt lat="48.74195" lon="1.97804">
        <ele>162</ele>
        <time>2017-08-20T11:01:15Z</time>
      </trkpt>
      <trkpt lat="48.74192" lon="1.97799">
        <ele>162</ele>
        <time>2017-08-20T11:01:15Z</time>
      </trkpt>
      <trkpt lat="48.74189" lon="1.97792">
        <ele>162</ele>
        <time>2017-08-20T11:01:15Z</time>
      </trkpt>
      <trkpt lat="48.74186" lon="1.97786">
        <ele>163</ele>
        <time>2017-08-20T11:01:31Z</time>
      </trkpt>
      <trkpt lat="48.74182" lon="1.97778">
        <ele>163</ele>
        <time>2017-08-20T11:01:31Z</time>
      </trkpt>
      <trkpt lat="48.74179" lon="1.97772">
        <ele>163</ele>
        <time>2017-08-20T11:01:31Z</time>
      </trkpt>
      <trkpt lat="48.74176" lon="1.97765">
        <ele>163</ele>
        <time>2017-08-20T11:01:31Z</time>
      </trkpt>
      <trkpt lat="48.74173" lon="1.9776">
        <ele>163</ele>
        <time>2017-08-20T11:01:47Z</time>
      </trkpt>
      <trkpt lat="48.7417" lon="1.97755">
        <ele>163</ele>
        <time>2017-08-20T11:01:47Z</time>
      </trkpt>
      <trkpt lat="48.74167" lon="1.97749">
        <ele>163</ele>
        <time>2017-08-20T11:01:47Z</time>
      </trkpt>
      <trkpt lat="48.74164" lon="1.97742">
        <ele>163</ele>
        <time>2017-08-20T11:01:47Z</time>
      </trkpt>
      <trkpt lat="48.7416" lon="1.97737">
        <ele>163</ele>
        <time>2017-08-20T11:02:03Z</time>
      </trkpt>
      <trkpt lat="48.74156" lon="1.97731">
        <ele>163</ele>
        <time>2017-08-20T11:02:03Z</time>
      </trkpt>
      <trkpt lat="48.74152" lon="1.97725">
        <ele>163</ele>
        <time>2017-08-20T11:02:03Z</time>
      </trkpt>
      <trkpt lat="48.74149" lon="1.97719">
        <ele>163</ele>
        <time>2017-08-20T11:02:03Z</time>
      </trkpt>
      <trkpt lat="48.74146" lon="1.97714">
        <ele>163</ele>
        <time>2017-08-20T11:02:19Z</time>
      </trkpt>
      <trkpt lat="48.74144" lon="1.97708">
        <ele>164</ele>
        <time>2017-08-20T11:02:19Z</time>
      </trkpt>
      <trkpt lat="48.74141" lon="1.97701">
        <ele>164</ele>
        <time>2017-08-20T11:02:19Z</time>
      </trkpt>
      <trkpt lat="48.74138" lon="1.97695">
        <ele>164</ele>
        <time>2017-08-20T11:02:19Z</time>
      </trkpt>
      <trkpt lat="48.74135" lon="1.97689">
        <ele>164</ele>
        <time>2017-08-20T11:02:35Z</time>
      </trkpt>
      <trkpt lat="48.74132" lon="1.97682">
        <ele>164</ele>
        <time>2017-08-20T11:02:35Z</time>
      </trkpt>
      <trkpt lat="48.74128" lon="1.97676">
        <ele>164</ele>
        <time>2017-08-20T11:02:35Z</time>
      </trkpt>
      <trkpt lat="48.74124" lon="1.97671">
        <ele>164</ele>
        <time>2017-08-20T11:02:35Z</time>
      </trkpt>
      <trkpt lat="48.74121" lon="1.97666">
        <ele>164</ele>
        <time>2017-08-20T11:02:51Z</time>
      </trkpt>
      <trkpt lat="48.74117" lon="1.97662">
        <ele>164</ele>
        <time>2017-08-20T11:02:51Z</time>
      </trkpt>
      <trkpt lat="48.74113" lon="1.97657">
        <ele>164</ele>
        <time>2017-08-20T11:02:51Z</time>
      </trkpt>
      <trkpt lat="48.74108" lon="1.97651">
        <ele>164</ele>
        <time>2017-08-20T11:02:51Z</time>
      </trkpt>
      <trkpt lat="48.74104" lon="1.97646">
        <ele>164</ele>
        <time>2017-08-20T11:03:07Z</time>
      </trkpt>
      <trkpt lat="48.741" lon="1.9764">
        <ele>164</ele>
        <time>2017-08-20T11:03:07Z</time>
      </trkpt>
      <trkpt lat="48.74096" lon="1.97634">
        <ele>164</ele>
        <time>2017-08-20T11:03:07Z</time>
      </trkpt>
      <trkpt lat="48.74092" lon="1.9763">
        <ele>164</ele>
        <time>2017-08-20T11:03:07Z</time>
      </trkpt>
      <trkpt lat="48.74088" lon="1.97626">
        <ele>164</ele>
        <time>2017-08-20T11:03:23Z</time>
      </trkpt>
      <trkpt lat="48.74083" lon="1.97622">
        <ele>166</ele>
        <time>2017-08-20T11:03:23Z</time>
      </trkpt>
      <trkpt lat="48.74079" lon="1.97616">
        <ele>166</ele>
        <time>2017-08-20T11:03:23Z</time>
      </trkpt>
      <trkpt lat="48.74075" lon="1.97609">
        <ele>166</ele>
        <time>2017-08-20T11:03:23Z</time>
      </trkpt>
      <trkpt lat="48.74071" lon="1.97605">
        <ele>166</ele>
        <time>2017-08-20T11:03:39Z</time>
      </trkpt>
      <trkpt lat="48.74068" lon="1.976">
        <ele>166</ele>
        <time>2017-08-20T11:03:39Z</time>
      </trkpt>
      <trkpt lat="48.74065" lon="1.97595">
        <ele>166</ele>
        <time>2017-08-20T11:03:39Z</time>
      </trkpt>
      <trkpt lat="48.74062" lon="1.9759">
        <ele>166</ele>
        <time>2017-08-20T11:03:39Z</time>
      </trkpt>
      <trkpt lat="48.74058" lon="1.97583">
        <ele>166</ele>
        <time>2017-08-20T11:03:55Z</time>
      </trkpt>
      <trkpt lat="48.74055" lon="1.97577">
        <ele>166</ele>
        <time>2017-08-20T11:03:55Z</time>
      </trkpt>
      <trkpt lat="48.74051" lon="1.9757">
        <ele>166</ele>
        <time>2017-08-20T11:03:55Z</time>
      </trkpt>
      <trkpt lat="48.74049" lon="1.97564">
        <ele>166</ele>
        <time>2017-08-20T11:03:55Z</time>
      </trkpt>
      <trkpt lat="48.74046" lon="1.97558">
        <ele>166</ele>
        <time>2017-08-20T11:04:11Z</time>
      </trkpt>
      <trkpt lat="48.74043" lon="1.97551">
        <ele>166</ele>
        <time>2017-08-20T11:04:11Z</time>
      </trkpt>
      <trkpt lat="48.74041" lon="1.97544">
        <ele>167</ele>
        <time>2017-08-20T11:04:11Z</time>
      </trkpt>
      <trkpt lat="48.74038" lon="1.97541">
        <ele>167</ele>
        <time>2017-08-20T11:04:11Z</time>
      </trkpt>
      <trkpt lat="48.74034" lon="1.97535">
        <ele>167</ele>
        <time>2017-08-20T11:04:27Z</time>
      </trkpt>
      <trkpt lat="48.74032" lon="1.97528">
        <ele>167</ele>
        <time>2017-08-20T11:04:27Z</time>
      </trkpt>
      <trkpt lat="48.74029" lon="1.97522">
        <ele>167</ele>
        <time>2017-08-20T11:04:27Z</time>
      </trkpt>
      <trkpt lat="48.74026" lon="1.97516">
        <ele>167</ele>
        <time>2017-08-20T11:04:27Z</time>
      </trkpt>
      <trkpt lat="48.74023" lon="1.9751">
        <ele>167</ele>
        <time>2017-08-20T11:04:43Z</time>
      </trkpt>
      <trkpt lat="48.7402" lon="1.97503">
        <ele>167</ele>
        <time>2017-08-20T11:04:43Z</time>
      </trkpt>
      <trkpt lat="48.74018" lon="1.97496">
        <ele>167</ele>
        <time>2017-08-20T11:04:43Z</time>
      </trkpt>
      <trkpt lat="48.74017" lon="1.9749">
        <ele>167</ele>
        <time>2017-08-20T11:04:43Z</time>
      </trkpt>
      <trkpt lat="48.74013" lon="1.97485">
        <ele>167</ele>
        <time>2017-08-20T11:04:59Z</time>
      </trkpt>
      <trkpt lat="48.7401" lon="1.97478">
        <ele>167</ele>
        <time>2017-08-20T11:04:59Z</time>
      </trkpt>
      <trkpt lat="48.74008" lon="1.97472">
        <ele>167</ele>
        <time>2017-08-20T11:04:59Z</time>
      </trkpt>
      <trkpt lat="48.74002" lon="1.97464">
        <ele>167</ele>
        <time>2017-08-20T11:04:59Z</time>
      </trkpt>
      <trkpt lat="48.73998" lon="1.9746">
        <ele>167</ele>
        <time>2017-08-20T11:05:15Z</time>
      </trkpt>
      <trkpt lat="48.73994" lon="1.97453">
        <ele>167</ele>
        <time>2017-08-20T11:05:15Z</time>
      </trkpt>
      <trkpt lat="48.7399" lon="1.97449">
        <ele>167</ele>
        <time>2017-08-20T11:05:15Z</time>
      </trkpt>
      <trkpt lat="48.73988" lon="1.97445">
        <ele>167</ele>
        <time>2017-08-20T11:05:15Z</time>
      </trkpt>
      <trkpt lat="48.73986" lon="1.97437">
        <ele>167</ele>
        <time>2017-08-20T11:05:31Z</time>
      </trkpt>
      <trkpt lat="48.7398" lon="1.97429">
        <ele>167</ele>
        <time>2017-08-20T11:05:31Z</time>
      </trkpt>
      <trkpt lat="48.73978" lon="1.97425">
        <ele>167</ele>
        <time>2017-08-20T11:05:31Z</time>
      </trkpt>
      <trkpt lat="48.73972" lon="1.9742">
        <ele>167</ele>
        <time>2017-08-20T11:05:31Z</time>
      </trkpt>
      <trkpt lat="48.73967" lon="1.97416">
        <ele>167</ele>
        <time>2017-08-20T11:05:47Z</time>
      </trkpt>
      <trkpt lat="48.73962" lon="1.97413">
        <ele>167</ele>
        <time>2017-08-20T11:05:47Z</time>
      </trkpt>
      <trkpt lat="48.73958" lon="1.97411">
        <ele>169</ele>
        <time>2017-08-20T11:05:47Z</time>
      </trkpt>
      <trkpt lat="48.73952" lon="1.97407">
        <ele>169</ele>
        <time>2017-08-20T11:05:47Z</time>
      </trkpt>
      <trkpt lat="48.73948" lon="1.97407">
        <ele>169</ele>
        <time>2017-08-20T11:06:03Z</time>
      </trkpt>
      <trkpt lat="48.73943" lon="1.97404">
        <ele>169</ele>
        <time>2017-08-20T11:06:03Z</time>
      </trkpt>
      <trkpt lat="48.73939" lon="1.97403">
        <ele>169</ele>
        <time>2017-08-20T11:06:03Z</time>
      </trkpt>
      <trkpt lat="48.73934" lon="1.97402">
        <ele>169</ele>
        <time>2017-08-20T11:06:03Z</time>
      </trkpt>
      <trkpt lat="48.73927" lon="1.97397">
        <ele>169</ele>
        <time>2017-08-20T11:06:19Z</time>
      </trkpt>
      <trkpt lat="48.73921" lon="1.97393">
        <ele>169</ele>
        <time>2017-08-20T11:06:19Z</time>
      </trkpt>
      <trkpt lat="48.73917" lon="1.9739">
        <ele>169</ele>
        <time>2017-08-20T11:06:19Z</time>
      </trkpt>
      <trkpt lat="48.73914" lon="1.97389">
        <ele>169</ele>
        <time>2017-08-20T11:06:19Z</time>
      </trkpt>
      <trkpt lat="48.73908" lon="1.97387">
        <ele>169</ele>
        <time>2017-08-20T11:06:35Z</time>
      </trkpt>
      <trkpt lat="48.73903" lon="1.97384">
        <ele>169</ele>
        <time>2017-08-20T11:06:35Z</time>
      </trkpt>
      <trkpt lat="48.73898" lon="1.97382">
        <ele>169</ele>
        <time>2017-08-20T11:06:35Z</time>
      </trkpt>
      <trkpt lat="48.73893" lon="1.9738">
        <ele>169</ele>
        <time>2017-08-20T11:06:35Z</time>
      </trkpt>
      <trkpt lat="48.7389" lon="1.97381">
        <ele>169</ele>
        <time>2017-08-20T11:06:51Z</time>
      </trkpt>
      <trkpt lat="48.73884" lon="1.97379">
        <ele>169</ele>
        <time>2017-08-20T11:06:51Z</time>
      </trkpt>
      <trkpt lat="48.73879" lon="1.97378">
        <ele>169</ele>
        <time>2017-08-20T11:06:51Z</time>
      </trkpt>
      <trkpt lat="48.73874" lon="1.97378">
        <ele>169</ele>
        <time>2017-08-20T11:06:51Z</time>
      </trkpt>
      <trkpt lat="48.73869" lon="1.9738">
        <ele>169</ele>
        <time>2017-08-20T11:07:07Z</time>
      </trkpt>
      <trkpt lat="48.73865" lon="1.97381">
        <ele>169</ele>
        <time>2017-08-20T11:07:07Z</time>
      </trkpt>
      <trkpt lat="48.73861" lon="1.97381">
        <ele>169</ele>
        <time>2017-08-20T11:07:07Z</time>
      </trkpt>
      <trkpt lat="48.73856" lon="1.97384">
        <ele>169</ele>
        <time>2017-08-20T11:07:07Z</time>
      </trkpt>
      <trkpt lat="48.7385" lon="1.97383">
        <ele>169</ele>
        <time>2017-08-20T11:07:23Z</time>
      </trkpt>
      <trkpt lat="48.73845" lon="1.97382">
        <ele>169</ele>
        <time>2017-08-20T11:07:23Z</time>
      </trkpt>
      <trkpt lat="48.73842" lon="1.97381">
        <ele>169</ele>
        <time>2017-08-20T11:07:23Z</time>
      </trkpt>
      <trkpt lat="48.73836" lon="1.97381">
        <ele>169</ele>
        <time>2017-08-20T11:07:23Z</time>
      </trkpt>
      <trkpt lat="48.7383" lon="1.9738">
        <ele>169</ele>
        <time>2017-08-20T11:07:39Z</time>
      </trkpt>
      <trkpt lat="48.73825" lon="1.97378">
        <ele>169</ele>
        <time>2017-08-20T11:07:39Z</time>
      </trkpt>
      <trkpt lat="48.7382" lon="1.97378">
        <ele>169</ele>
        <time>2017-08-20T11:07:39Z</time>
      </trkpt>
      <trkpt lat="48.73812" lon="1.97377">
        <ele>169</ele>
        <time>2017-08-20T11:07:39Z</time>
      </trkpt>
      <trkpt lat="48.73805" lon="1.97376">
        <ele>169</ele>
        <time>2017-08-20T11:07:55Z</time>
      </trkpt>
      <trkpt lat="48.73799" lon="1.97376">
        <ele>169</ele>
        <time>2017-08-20T11:07:55Z</time>
      </trkpt>
      <trkpt lat="48.73795" lon="1.97374">
        <ele>169</ele>
        <time>2017-08-20T11:07:55Z</time>
      </trkpt>
      <trkpt lat="48.7379" lon="1.97371">
        <ele>169</ele>
        <time>2017-08-20T11:07:55Z</time>
      </trkpt>
      <trkpt lat="48.73779" lon="1.97369">
        <ele>169</ele>
        <time>2017-08-20T11:09:07Z</time>
      </trkpt>
      <trkpt lat="48.73779" lon="1.97369">
        <ele>169</ele>
        <time>2017-08-20T11:09:07Z</time>
      </trkpt>
      <trkpt lat="48.73779" lon="1.97369">
        <ele>169</ele>
        <time>2017-08-20T11:09:07Z</time>
      </trkpt>
      <trkpt lat="48.73776" lon="1.97366">
        <ele>169</ele>
        <time>2017-08-20T11:09:07Z</time>
      </trkpt>
      <trkpt lat="48.73771" lon="1.97362">
        <ele>169</ele>
        <time>2017-08-20T11:09:07Z</time>
      </trkpt>
      <trkpt lat="48.73768" lon="1.97359">
        <ele>169</ele>
        <time>2017-08-20T11:09:23Z</time>
      </trkpt>
      <trkpt lat="48.73765" lon="1.97356">
        <ele>169</ele>
        <time>2017-08-20T11:09:23Z</time>
      </trkpt>
      <trkpt lat="48.7376" lon="1.97351">
        <ele>169</ele>
        <time>2017-08-20T11:09:23Z</time>
      </trkpt>
      <trkpt lat="48.73756" lon="1.97349">
        <ele>169</ele>
        <time>2017-08-20T11:09:23Z</time>
      </trkpt>
      <trkpt lat="48.73752" lon="1.97347">
        <ele>169</ele>
        <time>2017-08-20T11:09:39Z</time>
      </trkpt>
      <trkpt lat="48.73747" lon="1.97345">
        <ele>169</ele>
        <time>2017-08-20T11:09:39Z</time>
      </trkpt>
      <trkpt lat="48.73742" lon="1.97343">
        <ele>169</ele>
        <time>2017-08-20T11:09:39Z</time>
      </trkpt>
      <trkpt lat="48.73737" lon="1.97341">
        <ele>169</ele>
        <time>2017-08-20T11:09:39Z</time>
      </trkpt>
      <trkpt lat="48.73733" lon="1.97338">
        <ele>169</ele>
        <time>2017-08-20T11:09:55Z</time>
      </trkpt>
      <trkpt lat="48.73728" lon="1.97336">
        <ele>169</ele>
        <time>2017-08-20T11:09:55Z</time>
      </trkpt>
      <trkpt lat="48.73721" lon="1.97332">
        <ele>169</ele>
        <time>2017-08-20T11:09:55Z</time>
      </trkpt>
      <trkpt lat="48.73717" lon="1.9733">
        <ele>169</ele>
        <time>2017-08-20T11:09:55Z</time>
      </trkpt>
      <trkpt lat="48.73713" lon="1.97327">
        <ele>169</ele>
        <time>2017-08-20T11:10:11Z</time>
      </trkpt>
      <trkpt lat="48.73708" lon="1.97323">
        <ele>168</ele>
        <time>2017-08-20T11:10:11Z</time>
      </trkpt>
      <trkpt lat="48.73703" lon="1.9732">
        <ele>168</ele>
        <time>2017-08-20T11:10:11Z</time>
      </trkpt>
      <trkpt lat="48.73698" lon="1.97315">
        <ele>168</ele>
        <time>2017-08-20T11:10:11Z</time>
      </trkpt>
      <trkpt lat="48.73694" lon="1.97312">
        <ele>168</ele>
        <time>2017-08-20T11:10:27Z</time>
      </trkpt>
      <trkpt lat="48.7369" lon="1.97308">
        <ele>168</ele>
        <time>2017-08-20T11:10:27Z</time>
      </trkpt>
      <trkpt lat="48.73683" lon="1.97304">
        <ele>168</ele>
        <time>2017-08-20T11:10:27Z</time>
      </trkpt>
      <trkpt lat="48.73678" lon="1.97301">
        <ele>168</ele>
        <time>2017-08-20T11:10:27Z</time>
      </trkpt>
      <trkpt lat="48.73674" lon="1.97298">
        <ele>168</ele>
        <time>2017-08-20T11:10:43Z</time>
      </trkpt>
      <trkpt lat="48.7367" lon="1.97294">
        <ele>168</ele>
        <time>2017-08-20T11:10:43Z</time>
      </trkpt>
      <trkpt lat="48.73666" lon="1.97291">
        <ele>167</ele>
        <time>2017-08-20T11:10:43Z</time>
      </trkpt>
      <trkpt lat="48.73661" lon="1.97286">
        <ele>167</ele>
        <time>2017-08-20T11:10:43Z</time>
      </trkpt>
      <trkpt lat="48.73656" lon="1.97283">
        <ele>167</ele>
        <time>2017-08-20T11:10:59Z</time>
      </trkpt>
      <trkpt lat="48.73651" lon="1.9728">
        <ele>167</ele>
        <time>2017-08-20T11:10:59Z</time>
      </trkpt>
      <trkpt lat="48.73647" lon="1.97276">
        <ele>167</ele>
        <time>2017-08-20T11:10:59Z</time>
      </trkpt>
      <trkpt lat="48.73642" lon="1.97273">
        <ele>167</ele>
        <time>2017-08-20T11:10:59Z</time>
      </trkpt>
      <trkpt lat="48.73637" lon="1.9727">
        <ele>167</ele>
        <time>2017-08-20T11:11:15Z</time>
      </trkpt>
      <trkpt lat="48.73631" lon="1.97268">
        <ele>167</ele>
        <time>2017-08-20T11:11:15Z</time>
      </trkpt>
      <trkpt lat="48.73626" lon="1.97264">
        <ele>167</ele>
        <time>2017-08-20T11:11:15Z</time>
      </trkpt>
      <trkpt lat="48.73622" lon="1.9726">
        <ele>168</ele>
        <time>2017-08-20T11:11:15Z</time>
      </trkpt>
      <trkpt lat="48.73617" lon="1.97257">
        <ele>168</ele>
        <time>2017-08-20T11:11:31Z</time>
      </trkpt>
      <trkpt lat="48.73612" lon="1.97252">
        <ele>168</ele>
        <time>2017-08-20T11:11:31Z</time>
      </trkpt>
      <trkpt lat="48.73608" lon="1.97248">
        <ele>168</ele>
        <time>2017-08-20T11:11:31Z</time>
      </trkpt>
      <trkpt lat="48.73604" lon="1.97245">
        <ele>168</ele>
        <time>2017-08-20T11:11:31Z</time>
      </trkpt>
      <trkpt lat="48.736" lon="1.97241">
        <ele>168</ele>
        <time>2017-08-20T11:11:47Z</time>
      </trkpt>
      <trkpt lat="48.73596" lon="1.97237">
        <ele>168</ele>
        <time>2017-08-20T11:11:47Z</time>
      </trkpt>
      <trkpt lat="48.73591" lon="1.97233">
        <ele>168</ele>
        <time>2017-08-20T11:11:47Z</time>
      </trkpt>
      <trkpt lat="48.73586" lon="1.97229">
        <ele>168</ele>
        <time>2017-08-20T11:11:47Z</time>
      </trkpt>
      <trkpt lat="48.73581" lon="1.97227">
        <ele>168</ele>
        <time>2017-08-20T11:12:03Z</time>
      </trkpt>
      <trkpt lat="48.73574" lon="1.97224">
        <ele>168</ele>
        <time>2017-08-20T11:12:03Z</time>
      </trkpt>
      <trkpt lat="48.7357" lon="1.97221">
        <ele>168</ele>
        <time>2017-08-20T11:12:03Z</time>
      </trkpt>
      <trkpt lat="48.73565" lon="1.97219">
        <ele>168</ele>
        <time>2017-08-20T11:12:03Z</time>
      </trkpt>
      <trkpt lat="48.7356" lon="1.97216">
        <ele>168</ele>
        <time>2017-08-20T11:12:19Z</time>
      </trkpt>
      <trkpt lat="48.73554" lon="1.97215">
        <ele>168</ele>
        <time>2017-08-20T11:12:19Z</time>
      </trkpt>
      <trkpt lat="48.7355" lon="1.97213">
        <ele>168</ele>
        <time>2017-08-20T11:12:19Z</time>
      </trkpt>
      <trkpt lat="48.73544" lon="1.97209">
        <ele>168</ele>
        <time>2017-08-20T11:12:19Z</time>
      </trkpt>
      <trkpt lat="48.73539" lon="1.97206">
        <ele>167</ele>
        <time>2017-08-20T11:12:35Z</time>
      </trkpt>
      <trkpt lat="48.73535" lon="1.97206">
        <ele>167</ele>
        <time>2017-08-20T11:12:35Z</time>
      </trkpt>
      <trkpt lat="48.7353" lon="1.97203">
        <ele>167</ele>
        <time>2017-08-20T11:12:35Z</time>
      </trkpt>
      <trkpt lat="48.73525" lon="1.972">
        <ele>167</ele>
        <time>2017-08-20T11:12:35Z</time>
      </trkpt>
      <trkpt lat="48.7352" lon="1.97198">
        <ele>167</ele>
        <time>2017-08-20T11:12:51Z</time>
      </trkpt>
      <trkpt lat="48.73514" lon="1.97195">
        <ele>167</ele>
        <time>2017-08-20T11:12:51Z</time>
      </trkpt>
      <trkpt lat="48.73508" lon="1.97193">
        <ele>167</ele>
        <time>2017-08-20T11:12:51Z</time>
      </trkpt>
      <trkpt lat="48.73503" lon="1.97191">
        <ele>167</ele>
        <time>2017-08-20T11:12:51Z</time>
      </trkpt>
      <trkpt lat="48.73499" lon="1.97191">
        <ele>167</ele>
        <time>2017-08-20T11:13:07Z</time>
      </trkpt>
      <trkpt lat="48.73493" lon="1.97189">
        <ele>167</ele>
        <time>2017-08-20T11:13:07Z</time>
      </trkpt>
      <trkpt lat="48.73487" lon="1.97187">
        <ele>167</ele>
        <time>2017-08-20T11:13:07Z</time>
      </trkpt>
      <trkpt lat="48.73482" lon="1.97185">
        <ele>167</ele>
        <time>2017-08-20T11:13:07Z</time>
      </trkpt>
      <trkpt lat="48.73476" lon="1.97185">
        <ele>167</ele>
        <time>2017-08-20T11:13:23Z</time>
      </trkpt>
      <trkpt lat="48.73471" lon="1.97183">
        <ele>167</ele>
        <time>2017-08-20T11:13:23Z</time>
      </trkpt>
      <trkpt lat="48.73467" lon="1.97185">
        <ele>167</ele>
        <time>2017-08-20T11:13:23Z</time>
      </trkpt>
      <trkpt lat="48.73461" lon="1.97187">
        <ele>167</ele>
        <time>2017-08-20T11:13:23Z</time>
      </trkpt>
      <trkpt lat="48.73455" lon="1.97187">
        <ele>166</ele>
        <time>2017-08-20T11:13:39Z</time>
      </trkpt>
      <trkpt lat="48.7345" lon="1.97188">
        <ele>166</ele>
        <time>2017-08-20T11:13:39Z</time>
      </trkpt>
      <trkpt lat="48.73444" lon="1.97187">
        <ele>166</ele>
        <time>2017-08-20T11:13:39Z</time>
      </trkpt>
      <trkpt lat="48.73439" lon="1.97186">
        <ele>166</ele>
        <time>2017-08-20T11:13:39Z</time>
      </trkpt>
      <trkpt lat="48.73433" lon="1.97185">
        <ele>166</ele>
        <time>2017-08-20T11:13:55Z</time>
      </trkpt>
      <trkpt lat="48.73427" lon="1.97184">
        <ele>166</ele>
        <time>2017-08-20T11:13:55Z</time>
      </trkpt>
      <trkpt lat="48.73422" lon="1.97184">
        <ele>166</ele>
        <time>2017-08-20T11:13:55Z</time>
      </trkpt>
      <trkpt lat="48.73417" lon="1.97185">
        <ele>166</ele>
        <time>2017-08-20T11:13:55Z</time>
      </trkpt>
      <trkpt lat="48.73412" lon="1.97186">
        <ele>166</ele>
        <time>2017-08-20T11:14:11Z</time>
      </trkpt>
      <trkpt lat="48.73407" lon="1.97184">
        <ele>166</ele>
        <time>2017-08-20T11:14:11Z</time>
      </trkpt>
      <trkpt lat="48.73402" lon="1.97183">
        <ele>166</ele>
        <time>2017-08-20T11:14:11Z</time>
      </trkpt>
      <trkpt lat="48.73396" lon="1.97182">
        <ele>166</ele>
        <time>2017-08-20T11:14:11Z</time>
      </trkpt>
      <trkpt lat="48.73391" lon="1.97181">
        <ele>166</ele>
        <time>2017-08-20T11:14:27Z</time>
      </trkpt>
      <trkpt lat="48.73385" lon="1.9718">
        <ele>166</ele>
        <time>2017-08-20T11:14:27Z</time>
      </trkpt>
      <trkpt lat="48.73382" lon="1.97178">
        <ele>166</ele>
        <time>2017-08-20T11:14:27Z</time>
      </trkpt>
      <trkpt lat="48.73377" lon="1.97178">
        <ele>166</ele>
        <time>2017-08-20T11:14:27Z</time>
      </trkpt>
      <trkpt lat="48.7337" lon="1.97178">
        <ele>165</ele>
        <time>2017-08-20T11:14:43Z</time>
      </trkpt>
      <trkpt lat="48.73363" lon="1.97176">
        <ele>165</ele>
        <time>2017-08-20T11:14:43Z</time>
      </trkpt>
      <trkpt lat="48.73357" lon="1.97174">
        <ele>165</ele>
        <time>2017-08-20T11:14:43Z</time>
      </trkpt>
      <trkpt lat="48.73352" lon="1.97173">
        <ele>165</ele>
        <time>2017-08-20T11:14:43Z</time>
      </trkpt>
      <trkpt lat="48.73347" lon="1.97173">
        <ele>165</ele>
        <time>2017-08-20T11:14:59Z</time>
      </trkpt>
      <trkpt lat="48.73341" lon="1.97172">
        <ele>165</ele>
        <time>2017-08-20T11:14:59Z</time>
      </trkpt>
      <trkpt lat="48.73334" lon="1.97173">
        <ele>165</ele>
        <time>2017-08-20T11:14:59Z</time>
      </trkpt>
      <trkpt lat="48.73329" lon="1.97174">
        <ele>165</ele>
        <time>2017-08-20T11:14:59Z</time>
      </trkpt>
      <trkpt lat="48.73324" lon="1.97173">
        <ele>165</ele>
        <time>2017-08-20T11:15:15Z</time>
      </trkpt>
      <trkpt lat="48.73318" lon="1.97175">
        <ele>165</ele>
        <time>2017-08-20T11:15:15Z</time>
      </trkpt>
      <trkpt lat="48.73312" lon="1.97177">
        <ele>165</ele>
        <time>2017-08-20T11:15:15Z</time>
      </trkpt>
      <trkpt lat="48.73307" lon="1.97179">
        <ele>165</ele>
        <time>2017-08-20T11:15:15Z</time>
      </trkpt>
      <trkpt lat="48.73302" lon="1.97182">
        <ele>165</ele>
        <time>2017-08-20T11:15:31Z</time>
      </trkpt>
      <trkpt lat="48.73296" lon="1.97184">
        <ele>165</ele>
        <time>2017-08-20T11:15:31Z</time>
      </trkpt>
      <trkpt lat="48.7329" lon="1.97185">
        <ele>164</ele>
        <time>2017-08-20T11:15:31Z</time>
      </trkpt>
      <trkpt lat="48.73285" lon="1.97186">
        <ele>164</ele>
        <time>2017-08-20T11:15:31Z</time>
      </trkpt>
      <trkpt lat="48.7328" lon="1.97189">
        <ele>164</ele>
        <time>2017-08-20T11:15:47Z</time>
      </trkpt>
      <trkpt lat="48.73275" lon="1.9719">
        <ele>164</ele>
        <time>2017-08-20T11:15:47Z</time>
      </trkpt>
      <trkpt lat="48.7327" lon="1.97191">
        <ele>164</ele>
        <time>2017-08-20T11:15:47Z</time>
      </trkpt>
      <trkpt lat="48.73264" lon="1.97192">
        <ele>164</ele>
        <time>2017-08-20T11:15:47Z</time>
      </trkpt>
      <trkpt lat="48.73259" lon="1.97194">
        <ele>164</ele>
        <time>2017-08-20T11:16:03Z</time>
      </trkpt>
      <trkpt lat="48.73254" lon="1.97196">
        <ele>164</ele>
        <time>2017-08-20T11:16:03Z</time>
      </trkpt>
      <trkpt lat="48.7325" lon="1.97198">
        <ele>164</ele>
        <time>2017-08-20T11:16:03Z</time>
      </trkpt>
      <trkpt lat="48.73245" lon="1.972">
        <ele>164</ele>
        <time>2017-08-20T11:16:03Z</time>
      </trkpt>
      <trkpt lat="48.7324" lon="1.97202">
        <ele>164</ele>
        <time>2017-08-20T11:16:19Z</time>
      </trkpt>
      <trkpt lat="48.73235" lon="1.97203">
        <ele>164</ele>
        <time>2017-08-20T11:16:19Z</time>
      </trkpt>
      <trkpt lat="48.7323" lon="1.97206">
        <ele>164</ele>
        <time>2017-08-20T11:16:19Z</time>
      </trkpt>
      <trkpt lat="48.73224" lon="1.97207">
        <ele>164</ele>
        <time>2017-08-20T11:16:19Z</time>
      </trkpt>
      <trkpt lat="48.73218" lon="1.9721">
        <ele>164</ele>
        <time>2017-08-20T11:16:35Z</time>
      </trkpt>
      <trkpt lat="48.73213" lon="1.97211">
        <ele>164</ele>
        <time>2017-08-20T11:16:35Z</time>
      </trkpt>
      <trkpt lat="48.73208" lon="1.97212">
        <ele>161</ele>
        <time>2017-08-20T11:16:35Z</time>
      </trkpt>
      <trkpt lat="48.73203" lon="1.97213">
        <ele>161</ele>
        <time>2017-08-20T11:16:35Z</time>
      </trkpt>
      <trkpt lat="48.73196" lon="1.97215">
        <ele>161</ele>
        <time>2017-08-20T11:16:51Z</time>
      </trkpt>
      <trkpt lat="48.73191" lon="1.97217">
        <ele>161</ele>
        <time>2017-08-20T11:16:51Z</time>
      </trkpt>
      <trkpt lat="48.73185" lon="1.97219">
        <ele>161</ele>
        <time>2017-08-20T11:16:51Z</time>
      </trkpt>
      <trkpt lat="48.7318" lon="1.9722">
        <ele>161</ele>
        <time>2017-08-20T11:16:51Z</time>
      </trkpt>
      <trkpt lat="48.73175" lon="1.97221">
        <ele>161</ele>
        <time>2017-08-20T11:17:07Z</time>
      </trkpt>
      <trkpt lat="48.73171" lon="1.97221">
        <ele>161</ele>
        <time>2017-08-20T11:17:07Z</time>
      </trkpt>
      <trkpt lat="48.73165" lon="1.97221">
        <ele>161</ele>
        <time>2017-08-20T11:17:07Z</time>
      </trkpt>
      <trkpt lat="48.7316" lon="1.97222">
        <ele>161</ele>
        <time>2017-08-20T11:17:07Z</time>
      </trkpt>
      <trkpt lat="48.73154" lon="1.97223">
        <ele>161</ele>
        <time>2017-08-20T11:17:23Z</time>
      </trkpt>
      <trkpt lat="48.73149" lon="1.97224">
        <ele>161</ele>
        <time>2017-08-20T11:17:23Z</time>
      </trkpt>
      <trkpt lat="48.73145" lon="1.97225">
        <ele>161</ele>
        <time>2017-08-20T11:17:23Z</time>
      </trkpt>
      <trkpt lat="48.73141" lon="1.97225">
        <ele>161</ele>
        <time>2017-08-20T11:17:23Z</time>
      </trkpt>
      <trkpt lat="48.73135" lon="1.97226">
        <ele>161</ele>
        <time>2017-08-20T11:17:39Z</time>
      </trkpt>
      <trkpt lat="48.7313" lon="1.97227">
        <ele>161</ele>
        <time>2017-08-20T11:17:39Z</time>
      </trkpt>
      <trkpt lat="48.73125" lon="1.97228">
        <ele>161</ele>
        <time>2017-08-20T11:17:39Z</time>
      </trkpt>
      <trkpt lat="48.7312" lon="1.9723">
        <ele>163</ele>
        <time>2017-08-20T11:17:39Z</time>
      </trkpt>
      <trkpt lat="48.73114" lon="1.9723">
        <ele>163</ele>
        <time>2017-08-20T11:17:55Z</time>
      </trkpt>
      <trkpt lat="48.73109" lon="1.97232">
        <ele>163</ele>
        <time>2017-08-20T11:17:55Z</time>
      </trkpt>
      <trkpt lat="48.73104" lon="1.97233">
        <ele>163</ele>
        <time>2017-08-20T11:17:55Z</time>
      </trkpt>
      <trkpt lat="48.73098" lon="1.97235">
        <ele>163</ele>
        <time>2017-08-20T11:17:55Z</time>
      </trkpt>
      <trkpt lat="48.73093" lon="1.97241">
        <ele>163</ele>
        <time>2017-08-20T11:18:11Z</time>
      </trkpt>
      <trkpt lat="48.73087" lon="1.97246">
        <ele>163</ele>
        <time>2017-08-20T11:18:11Z</time>
      </trkpt>
      <trkpt lat="48.73081" lon="1.9725">
        <ele>163</ele>
        <time>2017-08-20T11:18:11Z</time>
      </trkpt>
      <trkpt lat="48.73076" lon="1.97253">
        <ele>163</ele>
        <time>2017-08-20T11:18:11Z</time>
      </trkpt>
      <trkpt lat="48.73071" lon="1.97254">
        <ele>163</ele>
        <time>2017-08-20T11:18:27Z</time>
      </trkpt>
      <trkpt lat="48.73066" lon="1.97255">
        <ele>163</ele>
        <time>2017-08-20T11:18:27Z</time>
      </trkpt>
      <trkpt lat="48.7306" lon="1.97259">
        <ele>163</ele>
        <time>2017-08-20T11:18:27Z</time>
      </trkpt>
      <trkpt lat="48.73054" lon="1.97263">
        <ele>163</ele>
        <time>2017-08-20T11:18:27Z</time>
      </trkpt>
      <trkpt lat="48.7305" lon="1.97265">
        <ele>163</ele>
        <time>2017-08-20T11:18:43Z</time>
      </trkpt>
      <trkpt lat="48.73043" lon="1.97266">
        <ele>163</ele>
        <time>2017-08-20T11:18:43Z</time>
      </trkpt>
      <trkpt lat="48.73038" lon="1.97267">
        <ele>163</ele>
        <time>2017-08-20T11:18:43Z</time>
      </trkpt>
      <trkpt lat="48.73032" lon="1.97268">
        <ele>163</ele>
        <time>2017-08-20T11:18:43Z</time>
      </trkpt>
      <trkpt lat="48.73026" lon="1.97271">
        <ele>163</ele>
        <time>2017-08-20T11:18:59Z</time>
      </trkpt>
      <trkpt lat="48.73022" lon="1.97272">
        <ele>163</ele>
        <time>2017-08-20T11:18:59Z</time>
      </trkpt>
      <trkpt lat="48.73017" lon="1.97273">
        <ele>163</ele>
        <time>2017-08-20T11:18:59Z</time>
      </trkpt>
      <trkpt lat="48.73012" lon="1.97275">
        <ele>163</ele>
        <time>2017-08-20T11:18:59Z</time>
      </trkpt>
      <trkpt lat="48.73007" lon="1.9728">
        <ele>163</ele>
        <time>2017-08-20T11:19:15Z</time>
      </trkpt>
      <trkpt lat="48.73003" lon="1.97284">
        <ele>163</ele>
        <time>2017-08-20T11:19:15Z</time>
      </trkpt>
      <trkpt lat="48.72999" lon="1.97291">
        <ele>163</ele>
        <time>2017-08-20T11:19:15Z</time>
      </trkpt>
      <trkpt lat="48.72995" lon="1.97297">
        <ele>162</ele>
        <time>2017-08-20T11:19:15Z</time>
      </trkpt>
      <trkpt lat="48.72992" lon="1.97304">
        <ele>162</ele>
        <time>2017-08-20T11:19:31Z</time>
      </trkpt>
      <trkpt lat="48.72989" lon="1.97309">
        <ele>162</ele>
        <time>2017-08-20T11:19:31Z</time>
      </trkpt>
      <trkpt lat="48.72986" lon="1.97315">
        <ele>162</ele>
        <time>2017-08-20T11:19:31Z</time>
      </trkpt>
      <trkpt lat="48.72983" lon="1.9732">
        <ele>162</ele>
        <time>2017-08-20T11:19:31Z</time>
      </trkpt>
      <trkpt lat="48.72979" lon="1.97326">
        <ele>162</ele>
        <time>2017-08-20T11:19:47Z</time>
      </trkpt>
      <trkpt lat="48.72976" lon="1.97333">
        <ele>162</ele>
        <time>2017-08-20T11:19:47Z</time>
      </trkpt>
      <trkpt lat="48.72974" lon="1.97341">
        <ele>162</ele>
        <time>2017-08-20T11:19:47Z</time>
      </trkpt>
      <trkpt lat="48.7297" lon="1.97347">
        <ele>162</ele>
        <time>2017-08-20T11:19:47Z</time>
      </trkpt>
      <trkpt lat="48.72967" lon="1.97353">
        <ele>162</ele>
        <time>2017-08-20T11:20:03Z</time>
      </trkpt>
      <trkpt lat="48.72966" lon="1.97359">
        <ele>162</ele>
        <time>2017-08-20T11:20:03Z</time>
      </trkpt>
      <trkpt lat="48.72962" lon="1.97366">
        <ele>162</ele>
        <time>2017-08-20T11:20:03Z</time>
      </trkpt>
      <trkpt lat="48.72958" lon="1.97372">
        <ele>164</ele>
        <time>2017-08-20T11:20:03Z</time>
      </trkpt>
      <trkpt lat="48.72955" lon="1.97378">
        <ele>165</ele>
        <time>2017-08-20T11:20:19Z</time>
      </trkpt>
      <trkpt lat="48.72953" lon="1.97384">
        <ele>165</ele>
        <time>2017-08-20T11:20:19Z</time>
      </trkpt>
      <trkpt lat="48.72951" lon="1.97393">
        <ele>165</ele>
        <time>2017-08-20T11:20:19Z</time>
      </trkpt>
      <trkpt lat="48.72947" lon="1.97398">
        <ele>165</ele>
        <time>2017-08-20T11:20:19Z</time>
      </trkpt>
      <trkpt lat="48.72944" lon="1.97401">
        <ele>165</ele>
        <time>2017-08-20T11:20:35Z</time>
      </trkpt>
      <trkpt lat="48.72941" lon="1.97404">
        <ele>165</ele>
        <time>2017-08-20T11:20:35Z</time>
      </trkpt>
      <trkpt lat="48.72938" lon="1.97408">
        <ele>165</ele>
        <time>2017-08-20T11:20:35Z</time>
      </trkpt>
      <trkpt lat="48.72934" lon="1.97411">
        <ele>165</ele>
        <time>2017-08-20T11:20:35Z</time>
      </trkpt>
      <trkpt lat="48.72929" lon="1.97415">
        <ele>165</ele>
        <time>2017-08-20T11:20:51Z</time>
      </trkpt>
      <trkpt lat="48.72926" lon="1.97419">
        <ele>165</ele>
        <time>2017-08-20T11:20:51Z</time>
      </trkpt>
      <trkpt lat="48.72924" lon="1.97424">
        <ele>165</ele>
        <time>2017-08-20T11:20:51Z</time>
      </trkpt>
      <trkpt lat="48.72919" lon="1.97427">
        <ele>165</ele>
        <time>2017-08-20T11:20:51Z</time>
      </trkpt>
      <trkpt lat="48.72914" lon="1.97429">
        <ele>165</ele>
        <time>2017-08-20T11:21:07Z</time>
      </trkpt>
      <trkpt lat="48.72908" lon="1.97432">
        <ele>165</ele>
        <time>2017-08-20T11:21:07Z</time>
      </trkpt>
      <trkpt lat="48.72905" lon="1.9744">
        <ele>165</ele>
        <time>2017-08-20T11:21:07Z</time>
      </trkpt>
      <trkpt lat="48.72902" lon="1.97443">
        <ele>165</ele>
        <time>2017-08-20T11:21:07Z</time>
      </trkpt>
      <trkpt lat="48.72898" lon="1.97447">
        <ele>165</ele>
        <time>2017-08-20T11:21:23Z</time>
      </trkpt>
      <trkpt lat="48.72893" lon="1.97449">
        <ele>165</ele>
        <time>2017-08-20T11:21:23Z</time>
      </trkpt>
      <trkpt lat="48.72889" lon="1.97449">
        <ele>165</ele>
        <time>2017-08-20T11:21:23Z</time>
      </trkpt>
      <trkpt lat="48.72885" lon="1.97449">
        <ele>165</ele>
        <time>2017-08-20T11:21:23Z</time>
      </trkpt>
      <trkpt lat="48.7288" lon="1.97447">
        <ele>165</ele>
        <time>2017-08-20T11:21:39Z</time>
      </trkpt>
      <trkpt lat="48.72876" lon="1.97449">
        <ele>165</ele>
        <time>2017-08-20T11:21:39Z</time>
      </trkpt>
      <trkpt lat="48.7287" lon="1.97444">
        <ele>165</ele>
        <time>2017-08-20T11:21:39Z</time>
      </trkpt>
      <trkpt lat="48.72864" lon="1.97443">
        <ele>165</ele>
        <time>2017-08-20T11:21:39Z</time>
      </trkpt>
      <trkpt lat="48.72859" lon="1.97447">
        <ele>165</ele>
        <time>2017-08-20T11:21:55Z</time>
      </trkpt>
      <trkpt lat="48.72852" lon="1.97439">
        <ele>165</ele>
        <time>2017-08-20T11:21:55Z</time>
      </trkpt>
      <trkpt lat="48.72845" lon="1.97438">
        <ele>165</ele>
        <time>2017-08-20T11:21:55Z</time>
      </trkpt>
      <trkpt lat="48.72839" lon="1.97435">
        <ele>165</ele>
        <time>2017-08-20T11:21:55Z</time>
      </trkpt>
      <trkpt lat="48.72833" lon="1.97435">
        <ele>165</ele>
        <time>2017-08-20T11:22:11Z</time>
      </trkpt>
      <trkpt lat="48.72829" lon="1.97437">
        <ele>165</ele>
        <time>2017-08-20T11:22:11Z</time>
      </trkpt>
      <trkpt lat="48.72824" lon="1.97436">
        <ele>165</ele>
        <time>2017-08-20T11:22:11Z</time>
      </trkpt>
      <trkpt lat="48.72821" lon="1.97437">
        <ele>165</ele>
        <time>2017-08-20T11:22:11Z</time>
      </trkpt>
      <trkpt lat="48.72815" lon="1.97437">
        <ele>165</ele>
        <time>2017-08-20T11:22:27Z</time>
      </trkpt>
      <trkpt lat="48.72808" lon="1.97434">
        <ele>165</ele>
        <time>2017-08-20T11:22:27Z</time>
      </trkpt>
      <trkpt lat="48.72802" lon="1.97431">
        <ele>165</ele>
        <time>2017-08-20T11:22:27Z</time>
      </trkpt>
      <trkpt lat="48.72797" lon="1.97428">
        <ele>165</ele>
        <time>2017-08-20T11:22:27Z</time>
      </trkpt>
      <trkpt lat="48.72792" lon="1.97425">
        <ele>165</ele>
        <time>2017-08-20T11:22:43Z</time>
      </trkpt>
      <trkpt lat="48.72787" lon="1.9742">
        <ele>169</ele>
        <time>2017-08-20T11:22:43Z</time>
      </trkpt>
      <trkpt lat="48.72781" lon="1.97416">
        <ele>169</ele>
        <time>2017-08-20T11:22:43Z</time>
      </trkpt>
      <trkpt lat="48.72776" lon="1.97414">
        <ele>169</ele>
        <time>2017-08-20T11:22:43Z</time>
      </trkpt>
      <trkpt lat="48.72771" lon="1.97415">
        <ele>169</ele>
        <time>2017-08-20T11:22:59Z</time>
      </trkpt>
      <trkpt lat="48.72766" lon="1.97412">
        <ele>169</ele>
        <time>2017-08-20T11:22:59Z</time>
      </trkpt>
      <trkpt lat="48.72763" lon="1.97408">
        <ele>169</ele>
        <time>2017-08-20T11:22:59Z</time>
      </trkpt>
      <trkpt lat="48.72759" lon="1.97405">
        <ele>169</ele>
        <time>2017-08-20T11:22:59Z</time>
      </trkpt>
      <trkpt lat="48.72753" lon="1.974">
        <ele>169</ele>
        <time>2017-08-20T11:23:15Z</time>
      </trkpt>
      <trkpt lat="48.7275" lon="1.97395">
        <ele>169</ele>
        <time>2017-08-20T11:23:15Z</time>
      </trkpt>
      <trkpt lat="48.72746" lon="1.97391">
        <ele>169</ele>
        <time>2017-08-20T11:23:15Z</time>
      </trkpt>
      <trkpt lat="48.72742" lon="1.97386">
        <ele>169</ele>
        <time>2017-08-20T11:23:15Z</time>
      </trkpt>
      <trkpt lat="48.72738" lon="1.97384">
        <ele>169</ele>
        <time>2017-08-20T11:23:31Z</time>
      </trkpt>
      <trkpt lat="48.72733" lon="1.97379">
        <ele>169</ele>
        <time>2017-08-20T11:23:31Z</time>
      </trkpt>
      <trkpt lat="48.7273" lon="1.97376">
        <ele>169</ele>
        <time>2017-08-20T11:23:31Z</time>
      </trkpt>
      <trkpt lat="48.72727" lon="1.97373">
        <ele>165</ele>
        <time>2017-08-20T11:23:31Z</time>
      </trkpt>
      <trkpt lat="48.72724" lon="1.97372">
        <ele>165</ele>
        <time>2017-08-20T11:23:47Z</time>
      </trkpt>
      <trkpt lat="48.72719" lon="1.97368">
        <ele>165</ele>
        <time>2017-08-20T11:23:47Z</time>
      </trkpt>
      <trkpt lat="48.72713" lon="1.97361">
        <ele>165</ele>
        <time>2017-08-20T11:23:47Z</time>
      </trkpt>
      <trkpt lat="48.72708" lon="1.97355">
        <ele>163</ele>
        <time>2017-08-20T11:23:47Z</time>
      </trkpt>
      <trkpt lat="48.72706" lon="1.97351">
        <ele>163</ele>
        <time>2017-08-20T11:24:03Z</time>
      </trkpt>
      <trkpt lat="48.72703" lon="1.97345">
        <ele>163</ele>
        <time>2017-08-20T11:24:03Z</time>
      </trkpt>
      <trkpt lat="48.72699" lon="1.9734">
        <ele>163</ele>
        <time>2017-08-20T11:24:03Z</time>
      </trkpt>
      <trkpt lat="48.72694" lon="1.97336">
        <ele>163</ele>
        <time>2017-08-20T11:24:03Z</time>
      </trkpt>
      <trkpt lat="48.72689" lon="1.97331">
        <ele>163</ele>
        <time>2017-08-20T11:24:19Z</time>
      </trkpt>
      <trkpt lat="48.72685" lon="1.97326">
        <ele>163</ele>
        <time>2017-08-20T11:24:19Z</time>
      </trkpt>
      <trkpt lat="48.7268" lon="1.9732">
        <ele>163</ele>
        <time>2017-08-20T11:24:19Z</time>
      </trkpt>
      <trkpt lat="48.72675" lon="1.97315">
        <ele>163</ele>
        <time>2017-08-20T11:24:19Z</time>
      </trkpt>
      <trkpt lat="48.7267" lon="1.9731">
        <ele>163</ele>
        <time>2017-08-20T11:24:35Z</time>
      </trkpt>
      <trkpt lat="48.72664" lon="1.97306">
        <ele>163</ele>
        <time>2017-08-20T11:24:35Z</time>
      </trkpt>
      <trkpt lat="48.7266" lon="1.97302">
        <ele>163</ele>
        <time>2017-08-20T11:24:35Z</time>
      </trkpt>
      <trkpt lat="48.72657" lon="1.97298">
        <ele>163</ele>
        <time>2017-08-20T11:24:35Z</time>
      </trkpt>
      <trkpt lat="48.72653" lon="1.97293">
        <ele>163</ele>
        <time>2017-08-20T11:24:51Z</time>
      </trkpt>
      <trkpt lat="48.72649" lon="1.97289">
        <ele>163</ele>
        <time>2017-08-20T11:24:51Z</time>
      </trkpt>
      <trkpt lat="48.72644" lon="1.97284">
        <ele>163</ele>
        <time>2017-08-20T11:24:51Z</time>
      </trkpt>
      <trkpt lat="48.72639" lon="1.97279">
        <ele>163</ele>
        <time>2017-08-20T11:24:51Z</time>
      </trkpt>
      <trkpt lat="48.72635" lon="1.97275">
        <ele>163</ele>
        <time>2017-08-20T11:25:07Z</time>
      </trkpt>
      <trkpt lat="48.7263" lon="1.97271">
        <ele>163</ele>
        <time>2017-08-20T11:25:07Z</time>
      </trkpt>
      <trkpt lat="48.72625" lon="1.97266">
        <ele>163</ele>
        <time>2017-08-20T11:25:07Z</time>
      </trkpt>
      <trkpt lat="48.72621" lon="1.9726">
        <ele>162</ele>
        <time>2017-08-20T11:25:07Z</time>
      </trkpt>
      <trkpt lat="48.72616" lon="1.97256">
        <ele>162</ele>
        <time>2017-08-20T11:25:23Z</time>
      </trkpt>
      <trkpt lat="48.72612" lon="1.97251">
        <ele>162</ele>
        <time>2017-08-20T11:25:23Z</time>
      </trkpt>
      <trkpt lat="48.72608" lon="1.97246">
        <ele>162</ele>
        <time>2017-08-20T11:25:23Z</time>
      </trkpt>
      <trkpt lat="48.72604" lon="1.97241">
        <ele>162</ele>
        <time>2017-08-20T11:25:23Z</time>
      </trkpt>
      <trkpt lat="48.72599" lon="1.97235">
        <ele>162</ele>
        <time>2017-08-20T11:25:39Z</time>
      </trkpt>
      <trkpt lat="48.72593" lon="1.97231">
        <ele>162</ele>
        <time>2017-08-20T11:25:39Z</time>
      </trkpt>
      <trkpt lat="48.72589" lon="1.97228">
        <ele>162</ele>
        <time>2017-08-20T11:25:39Z</time>
      </trkpt>
      <trkpt lat="48.72584" lon="1.97222">
        <ele>162</ele>
        <time>2017-08-20T11:25:39Z</time>
      </trkpt>
      <trkpt lat="48.72581" lon="1.97217">
        <ele>162</ele>
        <time>2017-08-20T11:25:55Z</time>
      </trkpt>
      <trkpt lat="48.72576" lon="1.97212">
        <ele>162</ele>
        <time>2017-08-20T11:25:55Z</time>
      </trkpt>
      <trkpt lat="48.72572" lon="1.97209">
        <ele>162</ele>
        <time>2017-08-20T11:25:55Z</time>
      </trkpt>
      <trkpt lat="48.72568" lon="1.97204">
        <ele>162</ele>
        <time>2017-08-20T11:25:55Z</time>
      </trkpt>
      <trkpt lat="48.72563" lon="1.97198">
        <ele>162</ele>
        <time>2017-08-20T11:26:11Z</time>
      </trkpt>
      <trkpt lat="48.72557" lon="1.97194">
        <ele>162</ele>
        <time>2017-08-20T11:26:11Z</time>
      </trkpt>
      <trkpt lat="48.72552" lon="1.9719">
        <ele>162</ele>
        <time>2017-08-20T11:26:11Z</time>
      </trkpt>
      <trkpt lat="48.72549" lon="1.97186">
        <ele>162</ele>
        <time>2017-08-20T11:26:11Z</time>
      </trkpt>
      <trkpt lat="48.72545" lon="1.97182">
        <ele>162</ele>
        <time>2017-08-20T11:26:27Z</time>
      </trkpt>
      <trkpt lat="48.72541" lon="1.97179">
        <ele>160</ele>
        <time>2017-08-20T11:26:27Z</time>
      </trkpt>
      <trkpt lat="48.72537" lon="1.97175">
        <ele>160</ele>
        <time>2017-08-20T11:26:27Z</time>
      </trkpt>
      <trkpt lat="48.72532" lon="1.97172">
        <ele>160</ele>
        <time>2017-08-20T11:26:27Z</time>
      </trkpt>
      <trkpt lat="48.72528" lon="1.97168">
        <ele>160</ele>
        <time>2017-08-20T11:26:43Z</time>
      </trkpt>
      <trkpt lat="48.72523" lon="1.97164">
        <ele>160</ele>
        <time>2017-08-20T11:26:43Z</time>
      </trkpt>
      <trkpt lat="48.7252" lon="1.9716">
        <ele>160</ele>
        <time>2017-08-20T11:26:43Z</time>
      </trkpt>
      <trkpt lat="48.72516" lon="1.97156">
        <ele>160</ele>
        <time>2017-08-20T11:26:43Z</time>
      </trkpt>
      <trkpt lat="48.72515" lon="1.97152">
        <ele>160</ele>
        <time>2017-08-20T11:26:59Z</time>
      </trkpt>
      <trkpt lat="48.72516" lon="1.97146">
        <ele>160</ele>
        <time>2017-08-20T11:26:59Z</time>
      </trkpt>
      <trkpt lat="48.72516" lon="1.9714">
        <ele>160</ele>
        <time>2017-08-20T11:26:59Z</time>
      </trkpt>
      <trkpt lat="48.72516" lon="1.97133">
        <ele>160</ele>
        <time>2017-08-20T11:26:59Z</time>
      </trkpt>
      <trkpt lat="48.72515" lon="1.97126">
        <ele>160</ele>
        <time>2017-08-20T11:27:15Z</time>
      </trkpt>
      <trkpt lat="48.72515" lon="1.97117">
        <ele>159</ele>
        <time>2017-08-20T11:27:15Z</time>
      </trkpt>
      <trkpt lat="48.72514" lon="1.9711">
        <ele>159</ele>
        <time>2017-08-20T11:27:15Z</time>
      </trkpt>
      <trkpt lat="48.72516" lon="1.97103">
        <ele>159</ele>
        <time>2017-08-20T11:27:15Z</time>
      </trkpt>
      <trkpt lat="48.72515" lon="1.97095">
        <ele>159</ele>
        <time>2017-08-20T11:27:31Z</time>
      </trkpt>
      <trkpt lat="48.72516" lon="1.97089">
        <ele>159</ele>
        <time>2017-08-20T11:27:31Z</time>
      </trkpt>
      <trkpt lat="48.72516" lon="1.9708">
        <ele>159</ele>
        <time>2017-08-20T11:27:31Z</time>
      </trkpt>
      <trkpt lat="48.72517" lon="1.9707">
        <ele>159</ele>
        <time>2017-08-20T11:27:31Z</time>
      </trkpt>
      <trkpt lat="48.72517" lon="1.97065">
        <ele>159</ele>
        <time>2017-08-20T11:27:47Z</time>
      </trkpt>
      <trkpt lat="48.72518" lon="1.97057">
        <ele>159</ele>
        <time>2017-08-20T11:27:47Z</time>
      </trkpt>
      <trkpt lat="48.72518" lon="1.97047">
        <ele>159</ele>
        <time>2017-08-20T11:27:47Z</time>
      </trkpt>
      <trkpt lat="48.72518" lon="1.97039">
        <ele>160</ele>
        <time>2017-08-20T11:27:47Z</time>
      </trkpt>
      <trkpt lat="48.72518" lon="1.9703">
        <ele>160</ele>
        <time>2017-08-20T11:28:03Z</time>
      </trkpt>
      <trkpt lat="48.72518" lon="1.97022">
        <ele>160</ele>
        <time>2017-08-20T11:28:03Z</time>
      </trkpt>
      <trkpt lat="48.72518" lon="1.97015">
        <ele>160</ele>
        <time>2017-08-20T11:28:03Z</time>
      </trkpt>
      <trkpt lat="48.72519" lon="1.97007">
        <ele>160</ele>
        <time>2017-08-20T11:28:03Z</time>
      </trkpt>
      <trkpt lat="48.72519" lon="1.96998">
        <ele>160</ele>
        <time>2017-08-20T11:28:19Z</time>
      </trkpt>
      <trkpt lat="48.72519" lon="1.96989">
        <ele>160</ele>
        <time>2017-08-20T11:28:19Z</time>
      </trkpt>
      <trkpt lat="48.7252" lon="1.96982">
        <ele>160</ele>
        <time>2017-08-20T11:28:19Z</time>
      </trkpt>
      <trkpt lat="48.72521" lon="1.96975">
        <ele>160</ele>
        <time>2017-08-20T11:28:19Z</time>
      </trkpt>
      <trkpt lat="48.72522" lon="1.96969">
        <ele>160</ele>
        <time>2017-08-20T11:28:35Z</time>
      </trkpt>
      <trkpt lat="48.72523" lon="1.96962">
        <ele>160</ele>
        <time>2017-08-20T11:28:35Z</time>
      </trkpt>
      <trkpt lat="48.72524" lon="1.96957">
        <ele>167</ele>
        <time>2017-08-20T11:28:35Z</time>
      </trkpt>
      <trkpt lat="48.72524" lon="1.96954">
        <ele>167</ele>
        <time>2017-08-20T11:28:35Z</time>
      </trkpt>
      <trkpt lat="48.72524" lon="1.96954">
        <ele>167</ele>
        <time>2017-08-20T11:28:59Z</time>
      </trkpt>
      <trkpt lat="48.72524" lon="1.96953">
        <ele>167</ele>
        <time>2017-08-20T11:28:59Z</time>
      </trkpt>
      <trkpt lat="48.72525" lon="1.9695">
        <ele>167</ele>
        <time>2017-08-20T11:28:59Z</time>
      </trkpt>
      <trkpt lat="48.72525" lon="1.96942">
        <ele>167</ele>
        <time>2017-08-20T11:28:59Z</time>
      </trkpt>
      <trkpt lat="48.72524" lon="1.96935">
        <ele>167</ele>
        <time>2017-08-20T11:28:59Z</time>
      </trkpt>
      <trkpt lat="48.72525" lon="1.96929">
        <ele>167</ele>
        <time>2017-08-20T11:29:15Z</time>
      </trkpt>
      <trkpt lat="48.72526" lon="1.96922">
        <ele>167</ele>
        <time>2017-08-20T11:29:15Z</time>
      </trkpt>
      <trkpt lat="48.72526" lon="1.96915">
        <ele>167</ele>
        <time>2017-08-20T11:29:15Z</time>
      </trkpt>
      <trkpt lat="48.72526" lon="1.96906">
        <ele>167</ele>
        <time>2017-08-20T11:29:15Z</time>
      </trkpt>
      <trkpt lat="48.72524" lon="1.969">
        <ele>167</ele>
        <time>2017-08-20T11:29:31Z</time>
      </trkpt>
      <trkpt lat="48.72524" lon="1.96897">
        <ele>167</ele>
        <time>2017-08-20T11:29:31Z</time>
      </trkpt>
      <trkpt lat="48.72523" lon="1.96894">
        <ele>167</ele>
        <time>2017-08-20T11:29:31Z</time>
      </trkpt>
      <trkpt lat="48.72519" lon="1.96884">
        <ele>167</ele>
        <time>2017-08-20T11:29:31Z</time>
      </trkpt>
      <trkpt lat="48.72519" lon="1.96896">
        <ele>167</ele>
        <time>2017-08-20T11:30:15Z</time>
      </trkpt>
      <trkpt lat="48.72517" lon="1.96896">
        <ele>167</ele>
        <time>2017-08-20T11:30:15Z</time>
      </trkpt>
      <trkpt lat="48.72516" lon="1.96896">
        <ele>167</ele>
        <time>2017-08-20T11:30:15Z</time>
      </trkpt>
      <trkpt lat="48.72515" lon="1.96896">
        <ele>167</ele>
        <time>2017-08-20T11:30:15Z</time>
      </trkpt>
      <trkpt lat="48.72511" lon="1.96908">
        <ele>167</ele>
        <time>2017-08-20T11:30:15Z</time>
      </trkpt>
      <trkpt lat="48.72509" lon="1.96915">
        <ele>167</ele>
        <time>2017-08-20T11:30:31Z</time>
      </trkpt>
      <trkpt lat="48.72515" lon="1.96926">
        <ele>167</ele>
        <time>2017-08-20T11:30:31Z</time>
      </trkpt>
      <trkpt lat="48.72518" lon="1.96928">
        <ele>167</ele>
        <time>2017-08-20T11:30:31Z</time>
      </trkpt>
      <trkpt lat="48.72519" lon="1.96928">
        <ele>167</ele>
        <time>2017-08-20T11:30:31Z</time>
      </trkpt>
      <trkpt lat="48.72517" lon="1.96923">
        <ele>167</ele>
        <time>2017-08-20T11:32:03Z</time>
      </trkpt>
      <trkpt lat="48.72517" lon="1.96922">
        <ele>167</ele>
        <time>2017-08-20T11:32:03Z</time>
      </trkpt>
      <trkpt lat="48.72515" lon="1.9692">
        <ele>167</ele>
        <time>2017-08-20T11:32:03Z</time>
      </trkpt>
      <trkpt lat="48.72514" lon="1.96919">
        <ele>167</ele>
        <time>2017-08-20T11:32:03Z</time>
      </trkpt>
      <trkpt lat="48.72513" lon="1.96917">
        <ele>167</ele>
        <time>2017-08-20T11:32:03Z</time>
      </trkpt>
      <trkpt lat="48.7251" lon="1.96904">
        <ele>167</ele>
        <time>2017-08-20T11:34:07Z</time>
      </trkpt>
      <trkpt lat="48.7251" lon="1.96904">
        <ele>167</ele>
        <time>2017-08-20T11:34:07Z</time>
      </trkpt>
      <trkpt lat="48.7251" lon="1.96903">
        <ele>167</ele>
        <time>2017-08-20T11:34:07Z</time>
      </trkpt>
      <trkpt lat="48.7251" lon="1.96903">
        <ele>167</ele>
        <time>2017-08-20T11:34:07Z</time>
      </trkpt>
      <trkpt lat="48.7251" lon="1.969">
        <ele>167</ele>
        <time>2017-08-20T11:34:07Z</time>
      </trkpt>
      <trkpt lat="48.72514" lon="1.96889">
        <ele>167</ele>
        <time>2017-08-20T11:42:59Z</time>
      </trkpt>
      <trkpt lat="48.72514" lon="1.96889">
        <ele>167</ele>
        <time>2017-08-20T11:42:59Z</time>
      </trkpt>
      <trkpt lat="48.72515" lon="1.96886">
        <ele>167</ele>
        <time>2017-08-20T11:42:59Z</time>
      </trkpt>
      <trkpt lat="48.72514" lon="1.96883">
        <ele>167</ele>
        <time>2017-08-20T11:42:59Z</time>
      </trkpt>
      <trkpt lat="48.72508" lon="1.96878">
        <ele>167</ele>
        <time>2017-08-20T11:42:59Z</time>
      </trkpt>
      <trkpt lat="48.72505" lon="1.96875">
        <ele>167</ele>
        <time>2017-08-20T11:43:15Z</time>
      </trkpt>
      <trkpt lat="48.725" lon="1.9687">
        <ele>167</ele>
        <time>2017-08-20T11:43:15Z</time>
      </trkpt>
      <trkpt lat="48.72497" lon="1.96866">
        <ele>167</ele>
        <time>2017-08-20T11:43:15Z</time>
      </trkpt>
      <trkpt lat="48.72497" lon="1.96862">
        <ele>167</ele>
        <time>2017-08-20T11:43:15Z</time>
      </trkpt>
      <trkpt lat="48.72494" lon="1.96854">
        <ele>167</ele>
        <time>2017-08-20T11:43:39Z</time>
      </trkpt>
      <trkpt lat="48.72494" lon="1.96855">
        <ele>167</ele>
        <time>2017-08-20T11:43:39Z</time>
      </trkpt>
      <trkpt lat="48.72494" lon="1.96853">
        <ele>167</ele>
        <time>2017-08-20T11:43:39Z</time>
      </trkpt>
      <trkpt lat="48.72492" lon="1.96848">
        <ele>167</ele>
        <time>2017-08-20T11:43:39Z</time>
      </trkpt>
      <trkpt lat="48.7249" lon="1.96845">
        <ele>167</ele>
        <time>2017-08-20T11:43:39Z</time>
      </trkpt>
      <trkpt lat="48.72486" lon="1.96841">
        <ele>167</ele>
        <time>2017-08-20T11:43:59Z</time>
      </trkpt>
      <trkpt lat="48.72485" lon="1.96841">
        <ele>167</ele>
        <time>2017-08-20T11:43:59Z</time>
      </trkpt>
      <trkpt lat="48.72486" lon="1.9684">
        <ele>167</ele>
        <time>2017-08-20T11:43:59Z</time>
      </trkpt>
      <trkpt lat="48.72484" lon="1.96837">
        <ele>167</ele>
        <time>2017-08-20T11:43:59Z</time>
      </trkpt>
      <trkpt lat="48.72481" lon="1.96828">
        <ele>167</ele>
        <time>2017-08-20T11:43:59Z</time>
      </trkpt>
      <trkpt lat="48.72476" lon="1.96822">
        <ele>167</ele>
        <time>2017-08-20T11:44:19Z</time>
      </trkpt>
      <trkpt lat="48.72476" lon="1.9682">
        <ele>167</ele>
        <time>2017-08-20T11:44:19Z</time>
      </trkpt>
      <trkpt lat="48.72475" lon="1.9682">
        <ele>167</ele>
        <time>2017-08-20T11:44:19Z</time>
      </trkpt>
      <trkpt lat="48.72472" lon="1.96817">
        <ele>167</ele>
        <time>2017-08-20T11:44:19Z</time>
      </trkpt>
      <trkpt lat="48.7247" lon="1.96809">
        <ele>167</ele>
        <time>2017-08-20T11:44:19Z</time>
      </trkpt>
      <trkpt lat="48.7247" lon="1.96806">
        <ele>167</ele>
        <time>2017-08-20T11:44:35Z</time>
      </trkpt>
      <trkpt lat="48.72468" lon="1.96801">
        <ele>167</ele>
        <time>2017-08-20T11:44:35Z</time>
      </trkpt>
      <trkpt lat="48.72466" lon="1.96793">
        <ele>167</ele>
        <time>2017-08-20T11:44:35Z</time>
      </trkpt>
      <trkpt lat="48.72466" lon="1.96773">
        <ele>167</ele>
        <time>2017-08-20T11:44:35Z</time>
      </trkpt>
      <trkpt lat="48.72466" lon="1.96766">
        <ele>167</ele>
        <time>2017-08-20T11:44:51Z</time>
      </trkpt>
      <trkpt lat="48.72464" lon="1.96751">
        <ele>167</ele>
        <time>2017-08-20T11:44:51Z</time>
      </trkpt>
      <trkpt lat="48.72465" lon="1.96736">
        <ele>167</ele>
        <time>2017-08-20T11:44:51Z</time>
      </trkpt>
      <trkpt lat="48.72469" lon="1.96731">
        <ele>167</ele>
        <time>2017-08-20T11:44:51Z</time>
      </trkpt>
      <trkpt lat="48.72472" lon="1.96726">
        <ele>167</ele>
        <time>2017-08-20T11:45:07Z</time>
      </trkpt>
      <trkpt lat="48.72476" lon="1.96717">
        <ele>167</ele>
        <time>2017-08-20T11:45:07Z</time>
      </trkpt>
      <trkpt lat="48.72479" lon="1.9671">
        <ele>167</ele>
        <time>2017-08-20T11:45:07Z</time>
      </trkpt>
      <trkpt lat="48.72481" lon="1.96703">
        <ele>171</ele>
        <time>2017-08-20T11:45:07Z</time>
      </trkpt>
      <trkpt lat="48.72485" lon="1.96696">
        <ele>171</ele>
        <time>2017-08-20T11:45:23Z</time>
      </trkpt>
      <trkpt lat="48.72488" lon="1.96689">
        <ele>171</ele>
        <time>2017-08-20T11:45:23Z</time>
      </trkpt>
      <trkpt lat="48.72492" lon="1.9668">
        <ele>171</ele>
        <time>2017-08-20T11:45:23Z</time>
      </trkpt>
      <trkpt lat="48.72496" lon="1.96674">
        <ele>171</ele>
        <time>2017-08-20T11:45:23Z</time>
      </trkpt>
      <trkpt lat="48.72498" lon="1.96667">
        <ele>171</ele>
        <time>2017-08-20T11:45:39Z</time>
      </trkpt>
      <trkpt lat="48.725" lon="1.96659">
        <ele>171</ele>
        <time>2017-08-20T11:45:39Z</time>
      </trkpt>
      <trkpt lat="48.72503" lon="1.96653">
        <ele>171</ele>
        <time>2017-08-20T11:45:39Z</time>
      </trkpt>
      <trkpt lat="48.72507" lon="1.96647">
        <ele>171</ele>
        <time>2017-08-20T11:45:39Z</time>
      </trkpt>
      <trkpt lat="48.72511" lon="1.96641">
        <ele>171</ele>
        <time>2017-08-20T11:45:55Z</time>
      </trkpt>
      <trkpt lat="48.72515" lon="1.96632">
        <ele>171</ele>
        <time>2017-08-20T11:45:55Z</time>
      </trkpt>
      <trkpt lat="48.72515" lon="1.96628">
        <ele>171</ele>
        <time>2017-08-20T11:45:55Z</time>
      </trkpt>
      <trkpt lat="48.72518" lon="1.96618">
        <ele>174</ele>
        <time>2017-08-20T11:45:55Z</time>
      </trkpt>
      <trkpt lat="48.7252" lon="1.96613">
        <ele>174</ele>
        <time>2017-08-20T11:46:11Z</time>
      </trkpt>
      <trkpt lat="48.72518" lon="1.96603">
        <ele>174</ele>
        <time>2017-08-20T11:46:11Z</time>
      </trkpt>
      <trkpt lat="48.72514" lon="1.96596">
        <ele>174</ele>
        <time>2017-08-20T11:46:11Z</time>
      </trkpt>
      <trkpt lat="48.72512" lon="1.9659">
        <ele>174</ele>
        <time>2017-08-20T11:46:11Z</time>
      </trkpt>
      <trkpt lat="48.72506" lon="1.96575">
        <ele>174</ele>
        <time>2017-08-20T11:46:27Z</time>
      </trkpt>
      <trkpt lat="48.72506" lon="1.9657">
        <ele>174</ele>
        <time>2017-08-20T11:46:27Z</time>
      </trkpt>
      <trkpt lat="48.72509" lon="1.96564">
        <ele>174</ele>
        <time>2017-08-20T11:46:27Z</time>
      </trkpt>
      <trkpt lat="48.7251" lon="1.96552">
        <ele>174</ele>
        <time>2017-08-20T11:46:27Z</time>
      </trkpt>
      <trkpt lat="48.72513" lon="1.96547">
        <ele>174</ele>
        <time>2017-08-20T11:46:43Z</time>
      </trkpt>
      <trkpt lat="48.72513" lon="1.96539">
        <ele>174</ele>
        <time>2017-08-20T11:46:43Z</time>
      </trkpt>
      <trkpt lat="48.72514" lon="1.96532">
        <ele>174</ele>
        <time>2017-08-20T11:46:43Z</time>
      </trkpt>
      <trkpt lat="48.72514" lon="1.96525">
        <ele>174</ele>
        <time>2017-08-20T11:46:43Z</time>
      </trkpt>
      <trkpt lat="48.72518" lon="1.96518">
        <ele>174</ele>
        <time>2017-08-20T11:46:59Z</time>
      </trkpt>
      <trkpt lat="48.72518" lon="1.96507">
        <ele>174</ele>
        <time>2017-08-20T11:46:59Z</time>
      </trkpt>
      <trkpt lat="48.72519" lon="1.96501">
        <ele>174</ele>
        <time>2017-08-20T11:46:59Z</time>
      </trkpt>
      <trkpt lat="48.72519" lon="1.9649">
        <ele>174</ele>
        <time>2017-08-20T11:46:59Z</time>
      </trkpt>
      <trkpt lat="48.72516" lon="1.96481">
        <ele>174</ele>
        <time>2017-08-20T11:47:15Z</time>
      </trkpt>
      <trkpt lat="48.72512" lon="1.96476">
        <ele>174</ele>
        <time>2017-08-20T11:47:15Z</time>
      </trkpt>
      <trkpt lat="48.7251" lon="1.96468">
        <ele>174</ele>
        <time>2017-08-20T11:47:15Z</time>
      </trkpt>
      <trkpt lat="48.72509" lon="1.96461">
        <ele>174</ele>
        <time>2017-08-20T11:47:15Z</time>
      </trkpt>
      <trkpt lat="48.72508" lon="1.96453">
        <ele>173</ele>
        <time>2017-08-20T11:47:31Z</time>
      </trkpt>
      <trkpt lat="48.72508" lon="1.96445">
        <ele>173</ele>
        <time>2017-08-20T11:47:31Z</time>
      </trkpt>
      <trkpt lat="48.72506" lon="1.96439">
        <ele>173</ele>
        <time>2017-08-20T11:47:31Z</time>
      </trkpt>
      <trkpt lat="48.72507" lon="1.96433">
        <ele>173</ele>
        <time>2017-08-20T11:47:31Z</time>
      </trkpt>
      <trkpt lat="48.72506" lon="1.96426">
        <ele>173</ele>
        <time>2017-08-20T11:47:47Z</time>
      </trkpt>
      <trkpt lat="48.72504" lon="1.9642">
        <ele>173</ele>
        <time>2017-08-20T11:47:47Z</time>
      </trkpt>
      <trkpt lat="48.72502" lon="1.96414">
        <ele>173</ele>
        <time>2017-08-20T11:47:47Z</time>
      </trkpt>
      <trkpt lat="48.72506" lon="1.9641">
        <ele>173</ele>
        <time>2017-08-20T11:47:47Z</time>
      </trkpt>
      <trkpt lat="48.72508" lon="1.96396">
        <ele>173</ele>
        <time>2017-08-20T11:48:23Z</time>
      </trkpt>
      <trkpt lat="48.72503" lon="1.96393">
        <ele>173</ele>
        <time>2017-08-20T11:48:23Z</time>
      </trkpt>
      <trkpt lat="48.72496" lon="1.96389">
        <ele>173</ele>
        <time>2017-08-20T11:48:23Z</time>
      </trkpt>
      <trkpt lat="48.72492" lon="1.96388">
        <ele>173</ele>
        <time>2017-08-20T11:48:23Z</time>
      </trkpt>
      <trkpt lat="48.72488" lon="1.96389">
        <ele>173</ele>
        <time>2017-08-20T11:48:23Z</time>
      </trkpt>
      <trkpt lat="48.72484" lon="1.9639">
        <ele>173</ele>
        <time>2017-08-20T11:48:43Z</time>
      </trkpt>
      <trkpt lat="48.72482" lon="1.96391">
        <ele>173</ele>
        <time>2017-08-20T11:48:43Z</time>
      </trkpt>
      <trkpt lat="48.72479" lon="1.9639">
        <ele>173</ele>
        <time>2017-08-20T11:48:43Z</time>
      </trkpt>
      <trkpt lat="48.72476" lon="1.9639">
        <ele>173</ele>
        <time>2017-08-20T11:48:43Z</time>
      </trkpt>
      <trkpt lat="48.72471" lon="1.96387">
        <ele>173</ele>
        <time>2017-08-20T11:48:43Z</time>
      </trkpt>
      <trkpt lat="48.72468" lon="1.96387">
        <ele>173</ele>
        <time>2017-08-20T11:48:59Z</time>
      </trkpt>
      <trkpt lat="48.72463" lon="1.96383">
        <ele>173</ele>
        <time>2017-08-20T11:48:59Z</time>
      </trkpt>
      <trkpt lat="48.72459" lon="1.96381">
        <ele>173</ele>
        <time>2017-08-20T11:48:59Z</time>
      </trkpt>
      <trkpt lat="48.72456" lon="1.96378">
        <ele>174</ele>
        <time>2017-08-20T11:48:59Z</time>
      </trkpt>
      <trkpt lat="48.7245" lon="1.96381">
        <ele>174</ele>
        <time>2017-08-20T11:49:15Z</time>
      </trkpt>
      <trkpt lat="48.72439" lon="1.9638">
        <ele>174</ele>
        <time>2017-08-20T11:49:15Z</time>
      </trkpt>
      <trkpt lat="48.72428" lon="1.96374">
        <ele>172</ele>
        <time>2017-08-20T11:49:15Z</time>
      </trkpt>
      <trkpt lat="48.72424" lon="1.96374">
        <ele>172</ele>
        <time>2017-08-20T11:49:15Z</time>
      </trkpt>
      <trkpt lat="48.72422" lon="1.96375">
        <ele>174</ele>
        <time>2017-08-20T11:49:31Z</time>
      </trkpt>
      <trkpt lat="48.72418" lon="1.96375">
        <ele>174</ele>
        <time>2017-08-20T11:49:31Z</time>
      </trkpt>
      <trkpt lat="48.72412" lon="1.96376">
        <ele>174</ele>
        <time>2017-08-20T11:49:31Z</time>
      </trkpt>
      <trkpt lat="48.72407" lon="1.96376">
        <ele>174</ele>
        <time>2017-08-20T11:49:31Z</time>
      </trkpt>
      <trkpt lat="48.72404" lon="1.96378">
        <ele>174</ele>
        <time>2017-08-20T11:49:47Z</time>
      </trkpt>
      <trkpt lat="48.72398" lon="1.96379">
        <ele>174</ele>
        <time>2017-08-20T11:49:47Z</time>
      </trkpt>
      <trkpt lat="48.72394" lon="1.96377">
        <ele>174</ele>
        <time>2017-08-20T11:49:47Z</time>
      </trkpt>
      <trkpt lat="48.7239" lon="1.96379">
        <ele>174</ele>
        <time>2017-08-20T11:49:47Z</time>
      </trkpt>
      <trkpt lat="48.72385" lon="1.96379">
        <ele>174</ele>
        <time>2017-08-20T11:50:03Z</time>
      </trkpt>
      <trkpt lat="48.72379" lon="1.96383">
        <ele>174</ele>
        <time>2017-08-20T11:50:03Z</time>
      </trkpt>
      <trkpt lat="48.72375" lon="1.96389">
        <ele>174</ele>
        <time>2017-08-20T11:50:03Z</time>
      </trkpt>
      <trkpt lat="48.72374" lon="1.96392">
        <ele>174</ele>
        <time>2017-08-20T11:50:03Z</time>
      </trkpt>
      <trkpt lat="48.72372" lon="1.96396">
        <ele>174</ele>
        <time>2017-08-20T11:50:19Z</time>
      </trkpt>
      <trkpt lat="48.72363" lon="1.96396">
        <ele>174</ele>
        <time>2017-08-20T11:50:19Z</time>
      </trkpt>
      <trkpt lat="48.72356" lon="1.96396">
        <ele>174</ele>
        <time>2017-08-20T11:50:19Z</time>
      </trkpt>
      <trkpt lat="48.7235" lon="1.96395">
        <ele>174</ele>
        <time>2017-08-20T11:50:19Z</time>
      </trkpt>
      <trkpt lat="48.72349" lon="1.96395">
        <ele>174</ele>
        <time>2017-08-20T11:50:39Z</time>
      </trkpt>
      <trkpt lat="48.72349" lon="1.96396">
        <ele>174</ele>
        <time>2017-08-20T11:50:39Z</time>
      </trkpt>
      <trkpt lat="48.72346" lon="1.96394">
        <ele>174</ele>
        <time>2017-08-20T11:50:39Z</time>
      </trkpt>
      <trkpt lat="48.72344" lon="1.96389">
        <ele>174</ele>
        <time>2017-08-20T11:50:39Z</time>
      </trkpt>
      <trkpt lat="48.72341" lon="1.96378">
        <ele>174</ele>
        <time>2017-08-20T11:50:39Z</time>
      </trkpt>
      <trkpt lat="48.7234" lon="1.96379">
        <ele>174</ele>
        <time>2017-08-20T11:50:59Z</time>
      </trkpt>
      <trkpt lat="48.72338" lon="1.96377">
        <ele>174</ele>
        <time>2017-08-20T11:50:59Z</time>
      </trkpt>
      <trkpt lat="48.72336" lon="1.96375">
        <ele>172</ele>
        <time>2017-08-20T11:50:59Z</time>
      </trkpt>
      <trkpt lat="48.72334" lon="1.96373">
        <ele>172</ele>
        <time>2017-08-20T11:50:59Z</time>
      </trkpt>
      <trkpt lat="48.72332" lon="1.96367">
        <ele>172</ele>
        <time>2017-08-20T11:50:59Z</time>
      </trkpt>
      <trkpt lat="48.7233" lon="1.96358">
        <ele>172</ele>
        <time>2017-08-20T11:51:19Z</time>
      </trkpt>
      <trkpt lat="48.7233" lon="1.96354">
        <ele>172</ele>
        <time>2017-08-20T11:51:19Z</time>
      </trkpt>
      <trkpt lat="48.72327" lon="1.96347">
        <ele>172</ele>
        <time>2017-08-20T11:51:19Z</time>
      </trkpt>
      <trkpt lat="48.72325" lon="1.96347">
        <ele>172</ele>
        <time>2017-08-20T11:51:19Z</time>
      </trkpt>
      <trkpt lat="48.72321" lon="1.96343">
        <ele>172</ele>
        <time>2017-08-20T11:51:19Z</time>
      </trkpt>
      <trkpt lat="48.72316" lon="1.96335">
        <ele>172</ele>
        <time>2017-08-20T11:51:35Z</time>
      </trkpt>
      <trkpt lat="48.72317" lon="1.96321">
        <ele>172</ele>
        <time>2017-08-20T11:51:35Z</time>
      </trkpt>
      <trkpt lat="48.72316" lon="1.96315">
        <ele>172</ele>
        <time>2017-08-20T11:51:35Z</time>
      </trkpt>
      <trkpt lat="48.72314" lon="1.96305">
        <ele>172</ele>
        <time>2017-08-20T11:51:35Z</time>
      </trkpt>
      <trkpt lat="48.72314" lon="1.96298">
        <ele>172</ele>
        <time>2017-08-20T11:51:51Z</time>
      </trkpt>
      <trkpt lat="48.72313" lon="1.96288">
        <ele>170</ele>
        <time>2017-08-20T11:51:51Z</time>
      </trkpt>
      <trkpt lat="48.72311" lon="1.96281">
        <ele>170</ele>
        <time>2017-08-20T11:51:51Z</time>
      </trkpt>
      <trkpt lat="48.72308" lon="1.96279">
        <ele>170</ele>
        <time>2017-08-20T11:51:51Z</time>
      </trkpt>
      <trkpt lat="48.72304" lon="1.96276">
        <ele>170</ele>
        <time>2017-08-20T11:52:07Z</time>
      </trkpt>
      <trkpt lat="48.72294" lon="1.96267">
        <ele>170</ele>
        <time>2017-08-20T11:52:07Z</time>
      </trkpt>
      <trkpt lat="48.72291" lon="1.96264">
        <ele>171</ele>
        <time>2017-08-20T11:52:07Z</time>
      </trkpt>
      <trkpt lat="48.72284" lon="1.96251">
        <ele>171</ele>
        <time>2017-08-20T11:52:07Z</time>
      </trkpt>
      <trkpt lat="48.72279" lon="1.96245">
        <ele>171</ele>
        <time>2017-08-20T11:52:23Z</time>
      </trkpt>
      <trkpt lat="48.72277" lon="1.9624">
        <ele>171</ele>
        <time>2017-08-20T11:52:23Z</time>
      </trkpt>
      <trkpt lat="48.72272" lon="1.96229">
        <ele>171</ele>
        <time>2017-08-20T11:52:23Z</time>
      </trkpt>
      <trkpt lat="48.72271" lon="1.9622">
        <ele>171</ele>
        <time>2017-08-20T11:52:23Z</time>
      </trkpt>
      <trkpt lat="48.72268" lon="1.96213">
        <ele>171</ele>
        <time>2017-08-20T11:52:39Z</time>
      </trkpt>
      <trkpt lat="48.72266" lon="1.96206">
        <ele>164</ele>
        <time>2017-08-20T11:52:39Z</time>
      </trkpt>
      <trkpt lat="48.72263" lon="1.96199">
        <ele>164</ele>
        <time>2017-08-20T11:52:39Z</time>
      </trkpt>
      <trkpt lat="48.72259" lon="1.96193">
        <ele>164</ele>
        <time>2017-08-20T11:52:39Z</time>
      </trkpt>
      <trkpt lat="48.72256" lon="1.96188">
        <ele>164</ele>
        <time>2017-08-20T11:52:55Z</time>
      </trkpt>
      <trkpt lat="48.72253" lon="1.96187">
        <ele>164</ele>
        <time>2017-08-20T11:52:55Z</time>
      </trkpt>
      <trkpt lat="48.72248" lon="1.96189">
        <ele>164</ele>
        <time>2017-08-20T11:52:55Z</time>
      </trkpt>
      <trkpt lat="48.72243" lon="1.96186">
        <ele>164</ele>
        <time>2017-08-20T11:52:55Z</time>
      </trkpt>
      <trkpt lat="48.72243" lon="1.96186">
        <ele>164</ele>
        <time>2017-08-20T11:53:11Z</time>
      </trkpt>
      <trkpt lat="48.72238" lon="1.96187">
        <ele>164</ele>
        <time>2017-08-20T11:53:11Z</time>
      </trkpt>
      <trkpt lat="48.72233" lon="1.96186">
        <ele>164</ele>
        <time>2017-08-20T11:53:11Z</time>
      </trkpt>
      <trkpt lat="48.72229" lon="1.96185">
        <ele>164</ele>
        <time>2017-08-20T11:53:11Z</time>
      </trkpt>
      <trkpt lat="48.72222" lon="1.96183">
        <ele>164</ele>
        <time>2017-08-20T11:53:27Z</time>
      </trkpt>
      <trkpt lat="48.72216" lon="1.96183">
        <ele>164</ele>
        <time>2017-08-20T11:53:27Z</time>
      </trkpt>
      <trkpt lat="48.72212" lon="1.9618">
        <ele>164</ele>
        <time>2017-08-20T11:53:27Z</time>
      </trkpt>
      <trkpt lat="48.7221" lon="1.96179">
        <ele>164</ele>
        <time>2017-08-20T11:53:27Z</time>
      </trkpt>
      <trkpt lat="48.72209" lon="1.96179">
        <ele>164</ele>
        <time>2017-08-20T11:53:43Z</time>
      </trkpt>
      <trkpt lat="48.72203" lon="1.96182">
        <ele>162</ele>
        <time>2017-08-20T11:53:43Z</time>
      </trkpt>
      <trkpt lat="48.722" lon="1.96184">
        <ele>162</ele>
        <time>2017-08-20T11:53:43Z</time>
      </trkpt>
      <trkpt lat="48.72196" lon="1.96187">
        <ele>162</ele>
        <time>2017-08-20T11:53:43Z</time>
      </trkpt>
      <trkpt lat="48.72191" lon="1.9619">
        <ele>162</ele>
        <time>2017-08-20T11:53:59Z</time>
      </trkpt>
      <trkpt lat="48.72184" lon="1.96191">
        <ele>162</ele>
        <time>2017-08-20T11:53:59Z</time>
      </trkpt>
      <trkpt lat="48.72176" lon="1.96192">
        <ele>162</ele>
        <time>2017-08-20T11:53:59Z</time>
      </trkpt>
      <trkpt lat="48.72175" lon="1.96193">
        <ele>162</ele>
        <time>2017-08-20T11:53:59Z</time>
      </trkpt>
      <trkpt lat="48.72171" lon="1.96193">
        <ele>162</ele>
        <time>2017-08-20T11:54:15Z</time>
      </trkpt>
      <trkpt lat="48.72166" lon="1.96195">
        <ele>162</ele>
        <time>2017-08-20T11:54:15Z</time>
      </trkpt>
      <trkpt lat="48.72165" lon="1.96196">
        <ele>162</ele>
        <time>2017-08-20T11:54:15Z</time>
      </trkpt>
      <trkpt lat="48.72163" lon="1.962">
        <ele>162</ele>
        <time>2017-08-20T11:54:15Z</time>
      </trkpt>
      <trkpt lat="48.72157" lon="1.96202">
        <ele>162</ele>
        <time>2017-08-20T11:54:31Z</time>
      </trkpt>
      <trkpt lat="48.72153" lon="1.96204">
        <ele>162</ele>
        <time>2017-08-20T11:54:31Z</time>
      </trkpt>
      <trkpt lat="48.72149" lon="1.96211">
        <ele>166</ele>
        <time>2017-08-20T11:54:31Z</time>
      </trkpt>
      <trkpt lat="48.72138" lon="1.96214">
        <ele>166</ele>
        <time>2017-08-20T11:54:31Z</time>
      </trkpt>
      <trkpt lat="48.72127" lon="1.96218">
        <ele>166</ele>
        <time>2017-08-20T11:54:47Z</time>
      </trkpt>
      <trkpt lat="48.72123" lon="1.96224">
        <ele>157</ele>
        <time>2017-08-20T11:54:47Z</time>
      </trkpt>
      <trkpt lat="48.7212" lon="1.96222">
        <ele>157</ele>
        <time>2017-08-20T11:54:47Z</time>
      </trkpt>
      <trkpt lat="48.72115" lon="1.96219">
        <ele>157</ele>
        <time>2017-08-20T11:54:47Z</time>
      </trkpt>
      <trkpt lat="48.72113" lon="1.96213">
        <ele>157</ele>
        <time>2017-08-20T11:55:11Z</time>
      </trkpt>
      <trkpt lat="48.72112" lon="1.96211">
        <ele>157</ele>
        <time>2017-08-20T11:55:11Z</time>
      </trkpt>
      <trkpt lat="48.7211" lon="1.96209">
        <ele>157</ele>
        <time>2017-08-20T11:55:11Z</time>
      </trkpt>
      <trkpt lat="48.72108" lon="1.96205">
        <ele>153</ele>
        <time>2017-08-20T11:55:11Z</time>
      </trkpt>
      <trkpt lat="48.72107" lon="1.96201">
        <ele>153</ele>
        <time>2017-08-20T11:55:11Z</time>
      </trkpt>
      <trkpt lat="48.72103" lon="1.96196">
        <ele>153</ele>
        <time>2017-08-20T11:55:43Z</time>
      </trkpt>
      <trkpt lat="48.72102" lon="1.96195">
        <ele>153</ele>
        <time>2017-08-20T11:55:43Z</time>
      </trkpt>
      <trkpt lat="48.72101" lon="1.96194">
        <ele>153</ele>
        <time>2017-08-20T11:55:43Z</time>
      </trkpt>
      <trkpt lat="48.72099" lon="1.96192">
        <ele>153</ele>
        <time>2017-08-20T11:55:43Z</time>
      </trkpt>
      <trkpt lat="48.72093" lon="1.96186">
        <ele>153</ele>
        <time>2017-08-20T11:55:43Z</time>
      </trkpt>
      <trkpt lat="48.72092" lon="1.96183">
        <ele>153</ele>
        <time>2017-08-20T11:55:59Z</time>
      </trkpt>
      <trkpt lat="48.7209" lon="1.96181">
        <ele>153</ele>
        <time>2017-08-20T11:55:59Z</time>
      </trkpt>
      <trkpt lat="48.72087" lon="1.96175">
        <ele>153</ele>
        <time>2017-08-20T11:55:59Z</time>
      </trkpt>
      <trkpt lat="48.72089" lon="1.9617">
        <ele>153</ele>
        <time>2017-08-20T11:55:59Z</time>
      </trkpt>
      <trkpt lat="48.72089" lon="1.96167">
        <ele>153</ele>
        <time>2017-08-20T11:56:15Z</time>
      </trkpt>
      <trkpt lat="48.72092" lon="1.96168">
        <ele>153</ele>
        <time>2017-08-20T11:56:15Z</time>
      </trkpt>
      <trkpt lat="48.72094" lon="1.96163">
        <ele>153</ele>
        <time>2017-08-20T11:56:15Z</time>
      </trkpt>
      <trkpt lat="48.72096" lon="1.96156">
        <ele>153</ele>
        <time>2017-08-20T11:56:15Z</time>
      </trkpt>
      <trkpt lat="48.72095" lon="1.96143">
        <ele>153</ele>
        <time>2017-08-20T11:56:55Z</time>
      </trkpt>
      <trkpt lat="48.72094" lon="1.96143">
        <ele>153</ele>
        <time>2017-08-20T11:56:55Z</time>
      </trkpt>
      <trkpt lat="48.72093" lon="1.96142">
        <ele>153</ele>
        <time>2017-08-20T11:56:55Z</time>
      </trkpt>
      <trkpt lat="48.72093" lon="1.9614">
        <ele>153</ele>
        <time>2017-08-20T11:56:55Z</time>
      </trkpt>
      <trkpt lat="48.72091" lon="1.96135">
        <ele>153</ele>
        <time>2017-08-20T11:56:55Z</time>
      </trkpt>
      <trkpt lat="48.72089" lon="1.96134">
        <ele>153</ele>
        <time>2017-08-20T11:57:11Z</time>
      </trkpt>
      <trkpt lat="48.72086" lon="1.96133">
        <ele>153</ele>
        <time>2017-08-20T11:57:11Z</time>
      </trkpt>
      <trkpt lat="48.72085" lon="1.96133">
        <ele>153</ele>
        <time>2017-08-20T11:57:11Z</time>
      </trkpt>
      <trkpt lat="48.7208" lon="1.96133">
        <ele>153</ele>
        <time>2017-08-20T11:57:11Z</time>
      </trkpt>
      <trkpt lat="48.72077" lon="1.96109">
        <ele>144</ele>
        <time>2017-08-20T11:57:47Z</time>
      </trkpt>
      <trkpt lat="48.72078" lon="1.96106">
        <ele>144</ele>
        <time>2017-08-20T11:57:47Z</time>
      </trkpt>
      <trkpt lat="48.7208" lon="1.96103">
        <ele>144</ele>
        <time>2017-08-20T11:57:47Z</time>
      </trkpt>
      <trkpt lat="48.72079" lon="1.96102">
        <ele>144</ele>
        <time>2017-08-20T11:57:47Z</time>
      </trkpt>
      <trkpt lat="48.72077" lon="1.96102">
        <ele>144</ele>
        <time>2017-08-20T11:57:47Z</time>
      </trkpt>
      <trkpt lat="48.72071" lon="1.961">
        <ele>144</ele>
        <time>2017-08-20T11:58:03Z</time>
      </trkpt>
      <trkpt lat="48.72068" lon="1.96099">
        <ele>144</ele>
        <time>2017-08-20T11:58:03Z</time>
      </trkpt>
      <trkpt lat="48.72063" lon="1.96096">
        <ele>144</ele>
        <time>2017-08-20T11:58:03Z</time>
      </trkpt>
      <trkpt lat="48.72059" lon="1.96093">
        <ele>144</ele>
        <time>2017-08-20T11:58:03Z</time>
      </trkpt>
      <trkpt lat="48.72058" lon="1.96094">
        <ele>144</ele>
        <time>2017-08-20T11:58:19Z</time>
      </trkpt>
      <trkpt lat="48.72055" lon="1.96096">
        <ele>144</ele>
        <time>2017-08-20T11:58:19Z</time>
      </trkpt>
      <trkpt lat="48.7205" lon="1.961">
        <ele>144</ele>
        <time>2017-08-20T11:58:19Z</time>
      </trkpt>
      <trkpt lat="48.72049" lon="1.96101">
        <ele>144</ele>
        <time>2017-08-20T11:58:19Z</time>
      </trkpt>
      <trkpt lat="48.72048" lon="1.96094">
        <ele>144</ele>
        <time>2017-08-20T11:59:03Z</time>
      </trkpt>
      <trkpt lat="48.72048" lon="1.96089">
        <ele>144</ele>
        <time>2017-08-20T11:59:03Z</time>
      </trkpt>
      <trkpt lat="48.72046" lon="1.9609">
        <ele>144</ele>
        <time>2017-08-20T11:59:03Z</time>
      </trkpt>
      <trkpt lat="48.72046" lon="1.96087">
        <ele>144</ele>
        <time>2017-08-20T11:59:03Z</time>
      </trkpt>
      <trkpt lat="48.72045" lon="1.96086">
        <ele>144</ele>
        <time>2017-08-20T11:59:03Z</time>
      </trkpt>
      <trkpt lat="48.72044" lon="1.96085">
        <ele>144</ele>
        <time>2017-08-20T11:59:19Z</time>
      </trkpt>
      <trkpt lat="48.72042" lon="1.96089">
        <ele>144</ele>
        <time>2017-08-20T11:59:19Z</time>
      </trkpt>
      <trkpt lat="48.72035" lon="1.96094">
        <ele>125</ele>
        <time>2017-08-20T11:59:19Z</time>
      </trkpt>
      <trkpt lat="48.7203" lon="1.96096">
        <ele>125</ele>
        <time>2017-08-20T11:59:19Z</time>
      </trkpt>
      <trkpt lat="48.72022" lon="1.96104">
        <ele>125</ele>
        <time>2017-08-20T11:59:43Z</time>
      </trkpt>
      <trkpt lat="48.72021" lon="1.96103">
        <ele>125</ele>
        <time>2017-08-20T11:59:43Z</time>
      </trkpt>
      <trkpt lat="48.7202" lon="1.96102">
        <ele>125</ele>
        <time>2017-08-20T11:59:43Z</time>
      </trkpt>
      <trkpt lat="48.72019" lon="1.96102">
        <ele>125</ele>
        <time>2017-08-20T11:59:43Z</time>
      </trkpt>
      <trkpt lat="48.72019" lon="1.96103">
        <ele>125</ele>
        <time>2017-08-20T11:59:43Z</time>
      </trkpt>
      <trkpt lat="48.72015" lon="1.961">
        <ele>125</ele>
        <time>2017-08-20T12:00:03Z</time>
      </trkpt>
      <trkpt lat="48.72013" lon="1.96104">
        <ele>125</ele>
        <time>2017-08-20T12:00:03Z</time>
      </trkpt>
      <trkpt lat="48.72011" lon="1.96103">
        <ele>125</ele>
        <time>2017-08-20T12:00:03Z</time>
      </trkpt>
      <trkpt lat="48.72008" lon="1.96101">
        <ele>125</ele>
        <time>2017-08-20T12:00:03Z</time>
      </trkpt>
      <trkpt lat="48.72006" lon="1.96094">
        <ele>125</ele>
        <time>2017-08-20T12:00:03Z</time>
      </trkpt>
      <trkpt lat="48.72008" lon="1.96085">
        <ele>125</ele>
        <time>2017-08-20T12:00:19Z</time>
      </trkpt>
      <trkpt lat="48.72004" lon="1.96081">
        <ele>125</ele>
        <time>2017-08-20T12:00:19Z</time>
      </trkpt>
      <trkpt lat="48.72001" lon="1.96082">
        <ele>125</ele>
        <time>2017-08-20T12:00:19Z</time>
      </trkpt>
      <trkpt lat="48.71998" lon="1.96085">
        <ele>125</ele>
        <time>2017-08-20T12:00:19Z</time>
      </trkpt>
      <trkpt lat="48.71997" lon="1.96083">
        <ele>125</ele>
        <time>2017-08-20T12:00:39Z</time>
      </trkpt>
      <trkpt lat="48.71996" lon="1.96084">
        <ele>125</ele>
        <time>2017-08-20T12:00:39Z</time>
      </trkpt>
      <trkpt lat="48.71996" lon="1.96078">
        <ele>125</ele>
        <time>2017-08-20T12:00:39Z</time>
      </trkpt>
      <trkpt lat="48.71993" lon="1.96072">
        <ele>125</ele>
        <time>2017-08-20T12:00:39Z</time>
      </trkpt>
      <trkpt lat="48.71992" lon="1.96059">
        <ele>125</ele>
        <time>2017-08-20T12:00:39Z</time>
      </trkpt>
      <trkpt lat="48.71987" lon="1.96038">
        <ele>121</ele>
        <time>2017-08-20T12:01:23Z</time>
      </trkpt>
      <trkpt lat="48.71985" lon="1.9604">
        <ele>121</ele>
        <time>2017-08-20T12:01:23Z</time>
      </trkpt>
      <trkpt lat="48.71981" lon="1.96045">
        <ele>125</ele>
        <time>2017-08-20T12:01:23Z</time>
      </trkpt>
      <trkpt lat="48.71977" lon="1.96055">
        <ele>125</ele>
        <time>2017-08-20T12:01:23Z</time>
      </trkpt>
      <trkpt lat="48.71973" lon="1.96066">
        <ele>125</ele>
        <time>2017-08-20T12:01:23Z</time>
      </trkpt>
      <trkpt lat="48.71972" lon="1.96077">
        <ele>125</ele>
        <time>2017-08-20T12:01:39Z</time>
      </trkpt>
      <trkpt lat="48.71967" lon="1.96097">
        <ele>125</ele>
        <time>2017-08-20T12:01:39Z</time>
      </trkpt>
      <trkpt lat="48.71965" lon="1.96117">
        <ele>125</ele>
        <time>2017-08-20T12:01:39Z</time>
      </trkpt>
      <trkpt lat="48.71964" lon="1.96125">
        <ele>129</ele>
        <time>2017-08-20T12:01:39Z</time>
      </trkpt>
      <trkpt lat="48.71964" lon="1.96131">
        <ele>129</ele>
        <time>2017-08-20T12:01:55Z</time>
      </trkpt>
      <trkpt lat="48.71964" lon="1.96134">
        <ele>129</ele>
        <time>2017-08-20T12:01:55Z</time>
      </trkpt>
      <trkpt lat="48.71963" lon="1.96138">
        <ele>129</ele>
        <time>2017-08-20T12:01:55Z</time>
      </trkpt>
      <trkpt lat="48.7196" lon="1.96144">
        <ele>129</ele>
        <time>2017-08-20T12:01:55Z</time>
      </trkpt>
      <trkpt lat="48.71956" lon="1.96148">
        <ele>112</ele>
        <time>2017-08-20T12:02:11Z</time>
      </trkpt>
      <trkpt lat="48.71953" lon="1.96155">
        <ele>112</ele>
        <time>2017-08-20T12:02:11Z</time>
      </trkpt>
      <trkpt lat="48.71951" lon="1.96165">
        <ele>112</ele>
        <time>2017-08-20T12:02:11Z</time>
      </trkpt>
      <trkpt lat="48.7195" lon="1.96168">
        <ele>112</ele>
        <time>2017-08-20T12:02:11Z</time>
      </trkpt>
      <trkpt lat="48.71949" lon="1.96169">
        <ele>112</ele>
        <time>2017-08-20T12:02:31Z</time>
      </trkpt>
      <trkpt lat="48.71947" lon="1.96174">
        <ele>112</ele>
        <time>2017-08-20T12:02:31Z</time>
      </trkpt>
      <trkpt lat="48.71946" lon="1.96178">
        <ele>112</ele>
        <time>2017-08-20T12:02:31Z</time>
      </trkpt>
      <trkpt lat="48.71945" lon="1.96181">
        <ele>112</ele>
        <time>2017-08-20T12:02:31Z</time>
      </trkpt>
      <trkpt lat="48.71945" lon="1.96187">
        <ele>112</ele>
        <time>2017-08-20T12:02:31Z</time>
      </trkpt>
      <trkpt lat="48.71943" lon="1.9619">
        <ele>112</ele>
        <time>2017-08-20T12:02:47Z</time>
      </trkpt>
      <trkpt lat="48.71942" lon="1.96192">
        <ele>112</ele>
        <time>2017-08-20T12:02:47Z</time>
      </trkpt>
      <trkpt lat="48.71942" lon="1.96201">
        <ele>112</ele>
        <time>2017-08-20T12:02:47Z</time>
      </trkpt>
      <trkpt lat="48.71944" lon="1.96212">
        <ele>114</ele>
        <time>2017-08-20T12:02:47Z</time>
      </trkpt>
      <trkpt lat="48.71943" lon="1.96221">
        <ele>114</ele>
        <time>2017-08-20T12:03:03Z</time>
      </trkpt>
      <trkpt lat="48.7194" lon="1.96228">
        <ele>114</ele>
        <time>2017-08-20T12:03:03Z</time>
      </trkpt>
      <trkpt lat="48.71939" lon="1.96236">
        <ele>114</ele>
        <time>2017-08-20T12:03:03Z</time>
      </trkpt>
      <trkpt lat="48.7194" lon="1.9624">
        <ele>114</ele>
        <time>2017-08-20T12:03:03Z</time>
      </trkpt>
      <trkpt lat="48.71939" lon="1.96248">
        <ele>114</ele>
        <time>2017-08-20T12:03:19Z</time>
      </trkpt>
      <trkpt lat="48.71937" lon="1.96254">
        <ele>114</ele>
        <time>2017-08-20T12:03:19Z</time>
      </trkpt>
      <trkpt lat="48.71936" lon="1.96257">
        <ele>114</ele>
        <time>2017-08-20T12:03:19Z</time>
      </trkpt>
      <trkpt lat="48.71932" lon="1.96262">
        <ele>114</ele>
        <time>2017-08-20T12:03:19Z</time>
      </trkpt>
      <trkpt lat="48.71931" lon="1.96263">
        <ele>114</ele>
        <time>2017-08-20T12:03:35Z</time>
      </trkpt>
      <trkpt lat="48.71931" lon="1.96266">
        <ele>114</ele>
        <time>2017-08-20T12:03:35Z</time>
      </trkpt>
      <trkpt lat="48.71931" lon="1.96272">
        <ele>114</ele>
        <time>2017-08-20T12:03:35Z</time>
      </trkpt>
      <trkpt lat="48.71929" lon="1.96277">
        <ele>114</ele>
        <time>2017-08-20T12:03:35Z</time>
      </trkpt>
      <trkpt lat="48.71923" lon="1.96287">
        <ele>114</ele>
        <time>2017-08-20T12:03:51Z</time>
      </trkpt>
      <trkpt lat="48.71919" lon="1.96294">
        <ele>118</ele>
        <time>2017-08-20T12:03:51Z</time>
      </trkpt>
      <trkpt lat="48.71915" lon="1.96302">
        <ele>118</ele>
        <time>2017-08-20T12:03:51Z</time>
      </trkpt>
      <trkpt lat="48.71912" lon="1.96311">
        <ele>118</ele>
        <time>2017-08-20T12:03:51Z</time>
      </trkpt>
      <trkpt lat="48.71908" lon="1.96324">
        <ele>118</ele>
        <time>2017-08-20T12:04:07Z</time>
      </trkpt>
      <trkpt lat="48.71906" lon="1.96334">
        <ele>118</ele>
        <time>2017-08-20T12:04:07Z</time>
      </trkpt>
      <trkpt lat="48.71904" lon="1.96339">
        <ele>118</ele>
        <time>2017-08-20T12:04:07Z</time>
      </trkpt>
      <trkpt lat="48.71905" lon="1.96345">
        <ele>118</ele>
        <time>2017-08-20T12:04:07Z</time>
      </trkpt>
      <trkpt lat="48.71903" lon="1.96349">
        <ele>118</ele>
        <time>2017-08-20T12:04:23Z</time>
      </trkpt>
      <trkpt lat="48.719" lon="1.96355">
        <ele>118</ele>
        <time>2017-08-20T12:04:23Z</time>
      </trkpt>
      <trkpt lat="48.71898" lon="1.96361">
        <ele>118</ele>
        <time>2017-08-20T12:04:23Z</time>
      </trkpt>
      <trkpt lat="48.71895" lon="1.96369">
        <ele>118</ele>
        <time>2017-08-20T12:04:23Z</time>
      </trkpt>
      <trkpt lat="48.71893" lon="1.96377">
        <ele>125</ele>
        <time>2017-08-20T12:04:39Z</time>
      </trkpt>
      <trkpt lat="48.71893" lon="1.96388">
        <ele>125</ele>
        <time>2017-08-20T12:04:39Z</time>
      </trkpt>
      <trkpt lat="48.71891" lon="1.96391">
        <ele>125</ele>
        <time>2017-08-20T12:04:39Z</time>
      </trkpt>
      <trkpt lat="48.7189" lon="1.96398">
        <ele>125</ele>
        <time>2017-08-20T12:04:39Z</time>
      </trkpt>
      <trkpt lat="48.71887" lon="1.96403">
        <ele>125</ele>
        <time>2017-08-20T12:05:03Z</time>
      </trkpt>
      <trkpt lat="48.71887" lon="1.96405">
        <ele>125</ele>
        <time>2017-08-20T12:05:03Z</time>
      </trkpt>
      <trkpt lat="48.71886" lon="1.96409">
        <ele>125</ele>
        <time>2017-08-20T12:05:03Z</time>
      </trkpt>
      <trkpt lat="48.71884" lon="1.96413">
        <ele>125</ele>
        <time>2017-08-20T12:05:03Z</time>
      </trkpt>
      <trkpt lat="48.71882" lon="1.96422">
        <ele>125</ele>
        <time>2017-08-20T12:05:03Z</time>
      </trkpt>
      <trkpt lat="48.71881" lon="1.96433">
        <ele>125</ele>
        <time>2017-08-20T12:05:19Z</time>
      </trkpt>
      <trkpt lat="48.7188" lon="1.96442">
        <ele>125</ele>
        <time>2017-08-20T12:05:19Z</time>
      </trkpt>
      <trkpt lat="48.71875" lon="1.96456">
        <ele>125</ele>
        <time>2017-08-20T12:05:19Z</time>
      </trkpt>
      <trkpt lat="48.71875" lon="1.96465">
        <ele>112</ele>
        <time>2017-08-20T12:05:19Z</time>
      </trkpt>
      <trkpt lat="48.71874" lon="1.96468">
        <ele>112</ele>
        <time>2017-08-20T12:05:35Z</time>
      </trkpt>
      <trkpt lat="48.71872" lon="1.9648">
        <ele>112</ele>
        <time>2017-08-20T12:05:35Z</time>
      </trkpt>
      <trkpt lat="48.7187" lon="1.96485">
        <ele>112</ele>
        <time>2017-08-20T12:05:35Z</time>
      </trkpt>
      <trkpt lat="48.7187" lon="1.9649">
        <ele>112</ele>
        <time>2017-08-20T12:05:35Z</time>
      </trkpt>
      <trkpt lat="48.71868" lon="1.96492">
        <ele>112</ele>
        <time>2017-08-20T12:05:51Z</time>
      </trkpt>
      <trkpt lat="48.71863" lon="1.96503">
        <ele>112</ele>
        <time>2017-08-20T12:05:51Z</time>
      </trkpt>
      <trkpt lat="48.7186" lon="1.96507">
        <ele>112</ele>
        <time>2017-08-20T12:05:51Z</time>
      </trkpt>
      <trkpt lat="48.71857" lon="1.96517">
        <ele>112</ele>
        <time>2017-08-20T12:05:51Z</time>
      </trkpt>
      <trkpt lat="48.71853" lon="1.96528">
        <ele>112</ele>
        <time>2017-08-20T12:06:07Z</time>
      </trkpt>
      <trkpt lat="48.71852" lon="1.96532">
        <ele>112</ele>
        <time>2017-08-20T12:06:07Z</time>
      </trkpt>
      <trkpt lat="48.71842" lon="1.96538">
        <ele>112</ele>
        <time>2017-08-20T12:06:07Z</time>
      </trkpt>
      <trkpt lat="48.71841" lon="1.96543">
        <ele>116</ele>
        <time>2017-08-20T12:06:07Z</time>
      </trkpt>
      <trkpt lat="48.71837" lon="1.96547">
        <ele>116</ele>
        <time>2017-08-20T12:06:23Z</time>
      </trkpt>
      <trkpt lat="48.71831" lon="1.96554">
        <ele>116</ele>
        <time>2017-08-20T12:06:23Z</time>
      </trkpt>
      <trkpt lat="48.71827" lon="1.96561">
        <ele>116</ele>
        <time>2017-08-20T12:06:23Z</time>
      </trkpt>
      <trkpt lat="48.71825" lon="1.96567">
        <ele>116</ele>
        <time>2017-08-20T12:06:23Z</time>
      </trkpt>
      <trkpt lat="48.71823" lon="1.96572">
        <ele>116</ele>
        <time>2017-08-20T12:06:39Z</time>
      </trkpt>
      <trkpt lat="48.71822" lon="1.96578">
        <ele>116</ele>
        <time>2017-08-20T12:06:39Z</time>
      </trkpt>
      <trkpt lat="48.7182" lon="1.96585">
        <ele>116</ele>
        <time>2017-08-20T12:06:39Z</time>
      </trkpt>
      <trkpt lat="48.71818" lon="1.96588">
        <ele>116</ele>
        <time>2017-08-20T12:06:39Z</time>
      </trkpt>
      <trkpt lat="48.71817" lon="1.96594">
        <ele>116</ele>
        <time>2017-08-20T12:06:55Z</time>
      </trkpt>
      <trkpt lat="48.71814" lon="1.96601">
        <ele>116</ele>
        <time>2017-08-20T12:06:55Z</time>
      </trkpt>
      <trkpt lat="48.71814" lon="1.96606">
        <ele>116</ele>
        <time>2017-08-20T12:06:55Z</time>
      </trkpt>
      <trkpt lat="48.71811" lon="1.96616">
        <ele>116</ele>
        <time>2017-08-20T12:06:55Z</time>
      </trkpt>
      <trkpt lat="48.71809" lon="1.96621">
        <ele>116</ele>
        <time>2017-08-20T12:07:11Z</time>
      </trkpt>
      <trkpt lat="48.71808" lon="1.96631">
        <ele>122</ele>
        <time>2017-08-20T12:07:11Z</time>
      </trkpt>
      <trkpt lat="48.71807" lon="1.96639">
        <ele>122</ele>
        <time>2017-08-20T12:07:11Z</time>
      </trkpt>
      <trkpt lat="48.71806" lon="1.96646">
        <ele>122</ele>
        <time>2017-08-20T12:07:11Z</time>
      </trkpt>
      <trkpt lat="48.71805" lon="1.96655">
        <ele>122</ele>
        <time>2017-08-20T12:07:31Z</time>
      </trkpt>
      <trkpt lat="48.71805" lon="1.96662">
        <ele>122</ele>
        <time>2017-08-20T12:07:31Z</time>
      </trkpt>
      <trkpt lat="48.71804" lon="1.96666">
        <ele>122</ele>
        <time>2017-08-20T12:07:31Z</time>
      </trkpt>
      <trkpt lat="48.71804" lon="1.96669">
        <ele>122</ele>
        <time>2017-08-20T12:07:31Z</time>
      </trkpt>
      <trkpt lat="48.71805" lon="1.96674">
        <ele>122</ele>
        <time>2017-08-20T12:07:31Z</time>
      </trkpt>
      <trkpt lat="48.71804" lon="1.96683">
        <ele>122</ele>
        <time>2017-08-20T12:07:47Z</time>
      </trkpt>
      <trkpt lat="48.71803" lon="1.96689">
        <ele>122</ele>
        <time>2017-08-20T12:07:47Z</time>
      </trkpt>
      <trkpt lat="48.71804" lon="1.96693">
        <ele>122</ele>
        <time>2017-08-20T12:07:47Z</time>
      </trkpt>
      <trkpt lat="48.71805" lon="1.967">
        <ele>122</ele>
        <time>2017-08-20T12:07:47Z</time>
      </trkpt>
      <trkpt lat="48.71808" lon="1.9671">
        <ele>125</ele>
        <time>2017-08-20T12:08:03Z</time>
      </trkpt>
      <trkpt lat="48.71809" lon="1.96716">
        <ele>125</ele>
        <time>2017-08-20T12:08:03Z</time>
      </trkpt>
      <trkpt lat="48.71803" lon="1.96724">
        <ele>125</ele>
        <time>2017-08-20T12:08:03Z</time>
      </trkpt>
      <trkpt lat="48.71798" lon="1.96738">
        <ele>125</ele>
        <time>2017-08-20T12:08:03Z</time>
      </trkpt>
      <trkpt lat="48.71791" lon="1.96751">
        <ele>106</ele>
        <time>2017-08-20T12:08:19Z</time>
      </trkpt>
      <trkpt lat="48.71788" lon="1.96759">
        <ele>106</ele>
        <time>2017-08-20T12:08:19Z</time>
      </trkpt>
      <trkpt lat="48.71787" lon="1.96761">
        <ele>106</ele>
        <time>2017-08-20T12:08:19Z</time>
      </trkpt>
      <trkpt lat="48.71786" lon="1.9677">
        <ele>106</ele>
        <time>2017-08-20T12:08:19Z</time>
      </trkpt>
      <trkpt lat="48.71785" lon="1.96778">
        <ele>106</ele>
        <time>2017-08-20T12:08:39Z</time>
      </trkpt>
      <trkpt lat="48.71783" lon="1.96783">
        <ele>106</ele>
        <time>2017-08-20T12:08:39Z</time>
      </trkpt>
      <trkpt lat="48.71785" lon="1.96789">
        <ele>106</ele>
        <time>2017-08-20T12:08:39Z</time>
      </trkpt>
      <trkpt lat="48.71788" lon="1.9679">
        <ele>106</ele>
        <time>2017-08-20T12:08:39Z</time>
      </trkpt>
      <trkpt lat="48.71791" lon="1.96798">
        <ele>108</ele>
        <time>2017-08-20T12:08:39Z</time>
      </trkpt>
      <trkpt lat="48.71794" lon="1.96806">
        <ele>128</ele>
        <time>2017-08-20T12:08:55Z</time>
      </trkpt>
      <trkpt lat="48.71798" lon="1.96819">
        <ele>128</ele>
        <time>2017-08-20T12:08:55Z</time>
      </trkpt>
      <trkpt lat="48.71798" lon="1.96824">
        <ele>128</ele>
        <time>2017-08-20T12:08:55Z</time>
      </trkpt>
      <trkpt lat="48.71799" lon="1.96831">
        <ele>128</ele>
        <time>2017-08-20T12:08:55Z</time>
      </trkpt>
      <trkpt lat="48.71798" lon="1.96838">
        <ele>128</ele>
        <time>2017-08-20T12:09:11Z</time>
      </trkpt>
      <trkpt lat="48.71801" lon="1.96847">
        <ele>128</ele>
        <time>2017-08-20T12:09:11Z</time>
      </trkpt>
      <trkpt lat="48.71802" lon="1.96856">
        <ele>128</ele>
        <time>2017-08-20T12:09:11Z</time>
      </trkpt>
      <trkpt lat="48.71802" lon="1.96863">
        <ele>128</ele>
        <time>2017-08-20T12:09:11Z</time>
      </trkpt>
      <trkpt lat="48.71802" lon="1.96867">
        <ele>128</ele>
        <time>2017-08-20T12:09:27Z</time>
      </trkpt>
      <trkpt lat="48.71802" lon="1.96872">
        <ele>128</ele>
        <time>2017-08-20T12:09:27Z</time>
      </trkpt>
      <trkpt lat="48.71802" lon="1.96876">
        <ele>128</ele>
        <time>2017-08-20T12:09:27Z</time>
      </trkpt>
      <trkpt lat="48.718" lon="1.96881">
        <ele>128</ele>
        <time>2017-08-20T12:09:27Z</time>
      </trkpt>
      <trkpt lat="48.71798" lon="1.96894">
        <ele>128</ele>
        <time>2017-08-20T12:09:43Z</time>
      </trkpt>
      <trkpt lat="48.71793" lon="1.96909">
        <ele>128</ele>
        <time>2017-08-20T12:09:43Z</time>
      </trkpt>
      <trkpt lat="48.71789" lon="1.96917">
        <ele>108</ele>
        <time>2017-08-20T12:09:43Z</time>
      </trkpt>
      <trkpt lat="48.71784" lon="1.96925">
        <ele>108</ele>
        <time>2017-08-20T12:09:43Z</time>
      </trkpt>
      <trkpt lat="48.71778" lon="1.96925">
        <ele>108</ele>
        <time>2017-08-20T12:09:59Z</time>
      </trkpt>
      <trkpt lat="48.71767" lon="1.96922">
        <ele>108</ele>
        <time>2017-08-20T12:09:59Z</time>
      </trkpt>
      <trkpt lat="48.7176" lon="1.9692">
        <ele>108</ele>
        <time>2017-08-20T12:09:59Z</time>
      </trkpt>
      <trkpt lat="48.71755" lon="1.96921">
        <ele>108</ele>
        <time>2017-08-20T12:09:59Z</time>
      </trkpt>
      <trkpt lat="48.71749" lon="1.96929">
        <ele>108</ele>
        <time>2017-08-20T12:11:27Z</time>
      </trkpt>
      <trkpt lat="48.71752" lon="1.96934">
        <ele>108</ele>
        <time>2017-08-20T12:11:27Z</time>
      </trkpt>
      <trkpt lat="48.71754" lon="1.96942">
        <ele>108</ele>
        <time>2017-08-20T12:11:27Z</time>
      </trkpt>
      <trkpt lat="48.71753" lon="1.96951">
        <ele>108</ele>
        <time>2017-08-20T12:11:27Z</time>
      </trkpt>
      <trkpt lat="48.71751" lon="1.96957">
        <ele>108</ele>
        <time>2017-08-20T12:11:27Z</time>
      </trkpt>
      <trkpt lat="48.71751" lon="1.96959">
        <ele>109</ele>
        <time>2017-08-20T12:11:43Z</time>
      </trkpt>
      <trkpt lat="48.71752" lon="1.96967">
        <ele>109</ele>
        <time>2017-08-20T12:11:43Z</time>
      </trkpt>
      <trkpt lat="48.71752" lon="1.9697">
        <ele>109</ele>
        <time>2017-08-20T12:11:43Z</time>
      </trkpt>
      <trkpt lat="48.71754" lon="1.96975">
        <ele>109</ele>
        <time>2017-08-20T12:11:43Z</time>
      </trkpt>
      <trkpt lat="48.71754" lon="1.96978">
        <ele>109</ele>
        <time>2017-08-20T12:11:59Z</time>
      </trkpt>
      <trkpt lat="48.71754" lon="1.96986">
        <ele>109</ele>
        <time>2017-08-20T12:11:59Z</time>
      </trkpt>
      <trkpt lat="48.71753" lon="1.96992">
        <ele>109</ele>
        <time>2017-08-20T12:11:59Z</time>
      </trkpt>
      <trkpt lat="48.71753" lon="1.96998">
        <ele>109</ele>
        <time>2017-08-20T12:11:59Z</time>
      </trkpt>
      <trkpt lat="48.71753" lon="1.97002">
        <ele>109</ele>
        <time>2017-08-20T12:12:15Z</time>
      </trkpt>
      <trkpt lat="48.71751" lon="1.97008">
        <ele>109</ele>
        <time>2017-08-20T12:12:15Z</time>
      </trkpt>
      <trkpt lat="48.7175" lon="1.97011">
        <ele>109</ele>
        <time>2017-08-20T12:12:15Z</time>
      </trkpt>
      <trkpt lat="48.7175" lon="1.97015">
        <ele>109</ele>
        <time>2017-08-20T12:12:15Z</time>
      </trkpt>
      <trkpt lat="48.71748" lon="1.97019">
        <ele>109</ele>
        <time>2017-08-20T12:12:47Z</time>
      </trkpt>
      <trkpt lat="48.71746" lon="1.97022">
        <ele>109</ele>
        <time>2017-08-20T12:12:47Z</time>
      </trkpt>
      <trkpt lat="48.71746" lon="1.97022">
        <ele>109</ele>
        <time>2017-08-20T12:12:47Z</time>
      </trkpt>
      <trkpt lat="48.71745" lon="1.97024">
        <ele>109</ele>
        <time>2017-08-20T12:12:47Z</time>
      </trkpt>
      <trkpt lat="48.71743" lon="1.97024">
        <ele>109</ele>
        <time>2017-08-20T12:12:47Z</time>
      </trkpt>
      <trkpt lat="48.71739" lon="1.97028">
        <ele>109</ele>
        <time>2017-08-20T12:13:39Z</time>
      </trkpt>
      <trkpt lat="48.7174" lon="1.97029">
        <ele>109</ele>
        <time>2017-08-20T12:13:39Z</time>
      </trkpt>
      <trkpt lat="48.7174" lon="1.97033">
        <ele>109</ele>
        <time>2017-08-20T12:13:39Z</time>
      </trkpt>
      <trkpt lat="48.7174" lon="1.97036">
        <ele>109</ele>
        <time>2017-08-20T12:13:39Z</time>
      </trkpt>
      <trkpt lat="48.71741" lon="1.97039">
        <ele>109</ele>
        <time>2017-08-20T12:13:39Z</time>
      </trkpt>
      <trkpt lat="48.71742" lon="1.97043">
        <ele>115</ele>
        <time>2017-08-20T12:14:07Z</time>
      </trkpt>
      <trkpt lat="48.71742" lon="1.97044">
        <ele>115</ele>
        <time>2017-08-20T12:14:07Z</time>
      </trkpt>
      <trkpt lat="48.71741" lon="1.97046">
        <ele>115</ele>
        <time>2017-08-20T12:14:07Z</time>
      </trkpt>
      <trkpt lat="48.71737" lon="1.97051">
        <ele>115</ele>
        <time>2017-08-20T12:14:07Z</time>
      </trkpt>
      <trkpt lat="48.71732" lon="1.97051">
        <ele>115</ele>
        <time>2017-08-20T12:14:07Z</time>
      </trkpt>
      <trkpt lat="48.71732" lon="1.9706">
        <ele>115</ele>
        <time>2017-08-20T12:14:47Z</time>
      </trkpt>
      <trkpt lat="48.71733" lon="1.97061">
        <ele>115</ele>
        <time>2017-08-20T12:14:47Z</time>
      </trkpt>
      <trkpt lat="48.71732" lon="1.97065">
        <ele>115</ele>
        <time>2017-08-20T12:14:47Z</time>
      </trkpt>
      <trkpt lat="48.71733" lon="1.97064">
        <ele>115</ele>
        <time>2017-08-20T12:14:47Z</time>
      </trkpt>
      <trkpt lat="48.71734" lon="1.97064">
        <ele>115</ele>
        <time>2017-08-20T12:14:47Z</time>
      </trkpt>
      <trkpt lat="48.71735" lon="1.97066">
        <ele>115</ele>
        <time>2017-08-20T12:15:11Z</time>
      </trkpt>
      <trkpt lat="48.71738" lon="1.97065">
        <ele>115</ele>
        <time>2017-08-20T12:15:11Z</time>
      </trkpt>
      <trkpt lat="48.71739" lon="1.97068">
        <ele>115</ele>
        <time>2017-08-20T12:15:11Z</time>
      </trkpt>
      <trkpt lat="48.71741" lon="1.97071">
        <ele>115</ele>
        <time>2017-08-20T12:15:11Z</time>
      </trkpt>
      <trkpt lat="48.7174" lon="1.97078">
        <ele>115</ele>
        <time>2017-08-20T12:15:11Z</time>
      </trkpt>
      <trkpt lat="48.71737" lon="1.97094">
        <ele>115</ele>
        <time>2017-08-20T12:15:39Z</time>
      </trkpt>
      <trkpt lat="48.71731" lon="1.97103">
        <ele>115</ele>
        <time>2017-08-20T12:15:39Z</time>
      </trkpt>
      <trkpt lat="48.71731" lon="1.97105">
        <ele>115</ele>
        <time>2017-08-20T12:15:39Z</time>
      </trkpt>
      <trkpt lat="48.71729" lon="1.97106">
        <ele>115</ele>
        <time>2017-08-20T12:15:39Z</time>
      </trkpt>
      <trkpt lat="48.71727" lon="1.97111">
        <ele>115</ele>
        <time>2017-08-20T12:15:39Z</time>
      </trkpt>
      <trkpt lat="48.71726" lon="1.97115">
        <ele>115</ele>
        <time>2017-08-20T12:15:55Z</time>
      </trkpt>
      <trkpt lat="48.71721" lon="1.97122">
        <ele>115</ele>
        <time>2017-08-20T12:15:55Z</time>
      </trkpt>
      <trkpt lat="48.71718" lon="1.97131">
        <ele>119</ele>
        <time>2017-08-20T12:15:55Z</time>
      </trkpt>
      <trkpt lat="48.71716" lon="1.97135">
        <ele>119</ele>
        <time>2017-08-20T12:15:55Z</time>
      </trkpt>
      <trkpt lat="48.71717" lon="1.97139">
        <ele>119</ele>
        <time>2017-08-20T12:16:11Z</time>
      </trkpt>
      <trkpt lat="48.71716" lon="1.97148">
        <ele>119</ele>
        <time>2017-08-20T12:16:11Z</time>
      </trkpt>
      <trkpt lat="48.71712" lon="1.97153">
        <ele>119</ele>
        <time>2017-08-20T12:16:11Z</time>
      </trkpt>
      <trkpt lat="48.71709" lon="1.97161">
        <ele>119</ele>
        <time>2017-08-20T12:16:11Z</time>
      </trkpt>
      <trkpt lat="48.71709" lon="1.97163">
        <ele>119</ele>
        <time>2017-08-20T12:16:27Z</time>
      </trkpt>
      <trkpt lat="48.71708" lon="1.97165">
        <ele>106</ele>
        <time>2017-08-20T12:16:27Z</time>
      </trkpt>
      <trkpt lat="48.71708" lon="1.9717">
        <ele>106</ele>
        <time>2017-08-20T12:16:27Z</time>
      </trkpt>
      <trkpt lat="48.717" lon="1.97185">
        <ele>106</ele>
        <time>2017-08-20T12:16:27Z</time>
      </trkpt>
      <trkpt lat="48.717" lon="1.97194">
        <ele>106</ele>
        <time>2017-08-20T12:16:43Z</time>
      </trkpt>
      <trkpt lat="48.71702" lon="1.97198">
        <ele>106</ele>
        <time>2017-08-20T12:16:43Z</time>
      </trkpt>
      <trkpt lat="48.71701" lon="1.97206">
        <ele>106</ele>
        <time>2017-08-20T12:16:43Z</time>
      </trkpt>
      <trkpt lat="48.71701" lon="1.97216">
        <ele>108</ele>
        <time>2017-08-20T12:16:43Z</time>
      </trkpt>
      <trkpt lat="48.71701" lon="1.97228">
        <ele>108</ele>
        <time>2017-08-20T12:16:59Z</time>
      </trkpt>
      <trkpt lat="48.71699" lon="1.97236">
        <ele>108</ele>
        <time>2017-08-20T12:16:59Z</time>
      </trkpt>
      <trkpt lat="48.717" lon="1.97238">
        <ele>108</ele>
        <time>2017-08-20T12:16:59Z</time>
      </trkpt>
      <trkpt lat="48.71699" lon="1.97243">
        <ele>108</ele>
        <time>2017-08-20T12:16:59Z</time>
      </trkpt>
      <trkpt lat="48.71696" lon="1.97249">
        <ele>108</ele>
        <time>2017-08-20T12:17:15Z</time>
      </trkpt>
      <trkpt lat="48.71693" lon="1.97252">
        <ele>108</ele>
        <time>2017-08-20T12:17:15Z</time>
      </trkpt>
      <trkpt lat="48.71688" lon="1.97259">
        <ele>108</ele>
        <time>2017-08-20T12:17:15Z</time>
      </trkpt>
      <trkpt lat="48.71688" lon="1.9726">
        <ele>108</ele>
        <time>2017-08-20T12:17:15Z</time>
      </trkpt>
      <trkpt lat="48.71687" lon="1.97266">
        <ele>108</ele>
        <time>2017-08-20T12:17:31Z</time>
      </trkpt>
      <trkpt lat="48.71686" lon="1.97276">
        <ele>108</ele>
        <time>2017-08-20T12:17:31Z</time>
      </trkpt>
      <trkpt lat="48.71686" lon="1.97284">
        <ele>108</ele>
        <time>2017-08-20T12:17:31Z</time>
      </trkpt>
      <trkpt lat="48.71685" lon="1.97291">
        <ele>108</ele>
        <time>2017-08-20T12:17:31Z</time>
      </trkpt>
      <trkpt lat="48.71685" lon="1.97298">
        <ele>113</ele>
        <time>2017-08-20T12:17:47Z</time>
      </trkpt>
      <trkpt lat="48.71685" lon="1.97301">
        <ele>113</ele>
        <time>2017-08-20T12:17:47Z</time>
      </trkpt>
      <trkpt lat="48.71692" lon="1.97305">
        <ele>113</ele>
        <time>2017-08-20T12:17:47Z</time>
      </trkpt>
      <trkpt lat="48.71692" lon="1.9731">
        <ele>113</ele>
        <time>2017-08-20T12:17:47Z</time>
      </trkpt>
      <trkpt lat="48.71692" lon="1.97322">
        <ele>113</ele>
        <time>2017-08-20T12:18:03Z</time>
      </trkpt>
      <trkpt lat="48.71694" lon="1.97336">
        <ele>113</ele>
        <time>2017-08-20T12:18:03Z</time>
      </trkpt>
      <trkpt lat="48.71695" lon="1.97342">
        <ele>113</ele>
        <time>2017-08-20T12:18:03Z</time>
      </trkpt>
      <trkpt lat="48.71694" lon="1.97344">
        <ele>113</ele>
        <time>2017-08-20T12:18:03Z</time>
      </trkpt>
      <trkpt lat="48.71693" lon="1.97352">
        <ele>113</ele>
        <time>2017-08-20T12:18:19Z</time>
      </trkpt>
      <trkpt lat="48.71689" lon="1.97362">
        <ele>113</ele>
        <time>2017-08-20T12:18:19Z</time>
      </trkpt>
      <trkpt lat="48.71683" lon="1.97371">
        <ele>113</ele>
        <time>2017-08-20T12:18:19Z</time>
      </trkpt>
      <trkpt lat="48.71678" lon="1.97376">
        <ele>119</ele>
        <time>2017-08-20T12:18:19Z</time>
      </trkpt>
      <trkpt lat="48.71674" lon="1.97379">
        <ele>119</ele>
        <time>2017-08-20T12:18:35Z</time>
      </trkpt>
      <trkpt lat="48.7167" lon="1.97383">
        <ele>119</ele>
        <time>2017-08-20T12:18:35Z</time>
      </trkpt>
      <trkpt lat="48.71666" lon="1.97389">
        <ele>119</ele>
        <time>2017-08-20T12:18:35Z</time>
      </trkpt>
      <trkpt lat="48.71664" lon="1.97394">
        <ele>119</ele>
        <time>2017-08-20T12:18:35Z</time>
      </trkpt>
      <trkpt lat="48.71664" lon="1.97402">
        <ele>119</ele>
        <time>2017-08-20T12:18:55Z</time>
      </trkpt>
      <trkpt lat="48.71666" lon="1.97402">
        <ele>119</ele>
        <time>2017-08-20T12:18:55Z</time>
      </trkpt>
      <trkpt lat="48.71666" lon="1.97407">
        <ele>119</ele>
        <time>2017-08-20T12:18:55Z</time>
      </trkpt>
      <trkpt lat="48.71666" lon="1.97412">
        <ele>119</ele>
        <time>2017-08-20T12:18:55Z</time>
      </trkpt>
      <trkpt lat="48.71668" lon="1.97418">
        <ele>119</ele>
        <time>2017-08-20T12:18:55Z</time>
      </trkpt>
      <trkpt lat="48.71669" lon="1.97421">
        <ele>119</ele>
        <time>2017-08-20T12:19:11Z</time>
      </trkpt>
      <trkpt lat="48.7167" lon="1.97427">
        <ele>119</ele>
        <time>2017-08-20T12:19:11Z</time>
      </trkpt>
      <trkpt lat="48.71669" lon="1.97433">
        <ele>119</ele>
        <time>2017-08-20T12:19:11Z</time>
      </trkpt>
      <trkpt lat="48.71669" lon="1.97436">
        <ele>119</ele>
        <time>2017-08-20T12:19:11Z</time>
      </trkpt>
      <trkpt lat="48.71671" lon="1.97434">
        <ele>119</ele>
        <time>2017-08-20T12:19:39Z</time>
      </trkpt>
      <trkpt lat="48.71672" lon="1.97439">
        <ele>119</ele>
        <time>2017-08-20T12:19:39Z</time>
      </trkpt>
      <trkpt lat="48.71671" lon="1.97443">
        <ele>119</ele>
        <time>2017-08-20T12:19:39Z</time>
      </trkpt>
      <trkpt lat="48.7167" lon="1.97448">
        <ele>119</ele>
        <time>2017-08-20T12:19:39Z</time>
      </trkpt>
      <trkpt lat="48.71667" lon="1.97452">
        <ele>119</ele>
        <time>2017-08-20T12:19:39Z</time>
      </trkpt>
      <trkpt lat="48.71665" lon="1.97457">
        <ele>119</ele>
        <time>2017-08-20T12:19:55Z</time>
      </trkpt>
      <trkpt lat="48.7166" lon="1.97464">
        <ele>129</ele>
        <time>2017-08-20T12:19:55Z</time>
      </trkpt>
      <trkpt lat="48.71659" lon="1.97465">
        <ele>129</ele>
        <time>2017-08-20T12:19:55Z</time>
      </trkpt>
      <trkpt lat="48.71654" lon="1.9747">
        <ele>129</ele>
        <time>2017-08-20T12:19:55Z</time>
      </trkpt>
      <trkpt lat="48.71646" lon="1.97478">
        <ele>129</ele>
        <time>2017-08-20T12:20:11Z</time>
      </trkpt>
      <trkpt lat="48.71642" lon="1.97484">
        <ele>129</ele>
        <time>2017-08-20T12:20:11Z</time>
      </trkpt>
      <trkpt lat="48.71638" lon="1.97485">
        <ele>129</ele>
        <time>2017-08-20T12:20:11Z</time>
      </trkpt>
      <trkpt lat="48.71635" lon="1.97488">
        <ele>129</ele>
        <time>2017-08-20T12:20:11Z</time>
      </trkpt>
      <trkpt lat="48.71633" lon="1.9749">
        <ele>129</ele>
        <time>2017-08-20T12:20:27Z</time>
      </trkpt>
      <trkpt lat="48.71632" lon="1.97491">
        <ele>129</ele>
        <time>2017-08-20T12:20:27Z</time>
      </trkpt>
      <trkpt lat="48.71625" lon="1.97495">
        <ele>129</ele>
        <time>2017-08-20T12:20:27Z</time>
      </trkpt>
      <trkpt lat="48.71618" lon="1.97498">
        <ele>110</ele>
        <time>2017-08-20T12:20:27Z</time>
      </trkpt>
      <trkpt lat="48.71614" lon="1.97499">
        <ele>110</ele>
        <time>2017-08-20T12:20:43Z</time>
      </trkpt>
      <trkpt lat="48.71608" lon="1.97501">
        <ele>110</ele>
        <time>2017-08-20T12:20:43Z</time>
      </trkpt>
      <trkpt lat="48.71605" lon="1.97506">
        <ele>110</ele>
        <time>2017-08-20T12:20:43Z</time>
      </trkpt>
      <trkpt lat="48.71598" lon="1.97517">
        <ele>110</ele>
        <time>2017-08-20T12:20:43Z</time>
      </trkpt>
      <trkpt lat="48.71592" lon="1.97528">
        <ele>110</ele>
        <time>2017-08-20T12:21:15Z</time>
      </trkpt>
      <trkpt lat="48.71591" lon="1.9753">
        <ele>110</ele>
        <time>2017-08-20T12:21:15Z</time>
      </trkpt>
      <trkpt lat="48.71589" lon="1.97536">
        <ele>110</ele>
        <time>2017-08-20T12:21:15Z</time>
      </trkpt>
      <trkpt lat="48.71587" lon="1.97543">
        <ele>120</ele>
        <time>2017-08-20T12:21:15Z</time>
      </trkpt>
      <trkpt lat="48.71585" lon="1.97546">
        <ele>120</ele>
        <time>2017-08-20T12:21:15Z</time>
      </trkpt>
      <trkpt lat="48.7158" lon="1.97553">
        <ele>120</ele>
        <time>2017-08-20T12:21:39Z</time>
      </trkpt>
      <trkpt lat="48.71578" lon="1.97553">
        <ele>120</ele>
        <time>2017-08-20T12:21:39Z</time>
      </trkpt>
      <trkpt lat="48.71577" lon="1.97556">
        <ele>120</ele>
        <time>2017-08-20T12:21:39Z</time>
      </trkpt>
      <trkpt lat="48.71576" lon="1.9756">
        <ele>120</ele>
        <time>2017-08-20T12:21:39Z</time>
      </trkpt>
      <trkpt lat="48.71571" lon="1.97571">
        <ele>120</ele>
        <time>2017-08-20T12:21:39Z</time>
      </trkpt>
      <trkpt lat="48.71567" lon="1.9758">
        <ele>120</ele>
        <time>2017-08-20T12:21:55Z</time>
      </trkpt>
      <trkpt lat="48.71566" lon="1.97584">
        <ele>120</ele>
        <time>2017-08-20T12:21:55Z</time>
      </trkpt>
      <trkpt lat="48.71563" lon="1.97587">
        <ele>120</ele>
        <time>2017-08-20T12:21:55Z</time>
      </trkpt>
      <trkpt lat="48.7156" lon="1.97594">
        <ele>120</ele>
        <time>2017-08-20T12:21:55Z</time>
      </trkpt>
      <trkpt lat="48.71551" lon="1.97604">
        <ele>120</ele>
        <time>2017-08-20T12:22:11Z</time>
      </trkpt>
      <trkpt lat="48.71545" lon="1.97611">
        <ele>120</ele>
        <time>2017-08-20T12:22:11Z</time>
      </trkpt>
      <trkpt lat="48.71544" lon="1.9761">
        <ele>120</ele>
        <time>2017-08-20T12:22:11Z</time>
      </trkpt>
      <trkpt lat="48.71543" lon="1.97613">
        <ele>120</ele>
        <time>2017-08-20T12:22:11Z</time>
      </trkpt>
      <trkpt lat="48.71542" lon="1.97615">
        <ele>120</ele>
        <time>2017-08-20T12:22:31Z</time>
      </trkpt>
      <trkpt lat="48.71539" lon="1.97619">
        <ele>107</ele>
        <time>2017-08-20T12:22:31Z</time>
      </trkpt>
      <trkpt lat="48.71537" lon="1.9762">
        <ele>107</ele>
        <time>2017-08-20T12:22:31Z</time>
      </trkpt>
      <trkpt lat="48.71536" lon="1.97622">
        <ele>107</ele>
        <time>2017-08-20T12:22:31Z</time>
      </trkpt>
      <trkpt lat="48.71533" lon="1.97627">
        <ele>107</ele>
        <time>2017-08-20T12:22:31Z</time>
      </trkpt>
      <trkpt lat="48.71533" lon="1.97632">
        <ele>107</ele>
        <time>2017-08-20T12:22:47Z</time>
      </trkpt>
      <trkpt lat="48.71534" lon="1.97639">
        <ele>107</ele>
        <time>2017-08-20T12:22:47Z</time>
      </trkpt>
      <trkpt lat="48.71532" lon="1.97646">
        <ele>107</ele>
        <time>2017-08-20T12:22:47Z</time>
      </trkpt>
      <trkpt lat="48.71531" lon="1.97652">
        <ele>107</ele>
        <time>2017-08-20T12:22:47Z</time>
      </trkpt>
      <trkpt lat="48.71529" lon="1.97656">
        <ele>107</ele>
        <time>2017-08-20T12:23:07Z</time>
      </trkpt>
      <trkpt lat="48.71527" lon="1.9766">
        <ele>107</ele>
        <time>2017-08-20T12:23:07Z</time>
      </trkpt>
      <trkpt lat="48.71526" lon="1.97664">
        <ele>107</ele>
        <time>2017-08-20T12:23:07Z</time>
      </trkpt>
      <trkpt lat="48.71527" lon="1.97668">
        <ele>107</ele>
        <time>2017-08-20T12:23:07Z</time>
      </trkpt>
      <trkpt lat="48.71527" lon="1.97673">
        <ele>107</ele>
        <time>2017-08-20T12:23:07Z</time>
      </trkpt>
      <trkpt lat="48.71526" lon="1.97679">
        <ele>107</ele>
        <time>2017-08-20T12:23:23Z</time>
      </trkpt>
      <trkpt lat="48.71524" lon="1.97684">
        <ele>107</ele>
        <time>2017-08-20T12:23:23Z</time>
      </trkpt>
      <trkpt lat="48.71523" lon="1.97689">
        <ele>107</ele>
        <time>2017-08-20T12:23:23Z</time>
      </trkpt>
      <trkpt lat="48.71521" lon="1.97697">
        <ele>107</ele>
        <time>2017-08-20T12:23:23Z</time>
      </trkpt>
      <trkpt lat="48.71519" lon="1.97702">
        <ele>107</ele>
        <time>2017-08-20T12:23:39Z</time>
      </trkpt>
      <trkpt lat="48.71516" lon="1.97711">
        <ele>110</ele>
        <time>2017-08-20T12:23:39Z</time>
      </trkpt>
      <trkpt lat="48.71515" lon="1.97717">
        <ele>110</ele>
        <time>2017-08-20T12:23:39Z</time>
      </trkpt>
      <trkpt lat="48.71516" lon="1.97721">
        <ele>110</ele>
        <time>2017-08-20T12:23:39Z</time>
      </trkpt>
      <trkpt lat="48.71516" lon="1.97726">
        <ele>110</ele>
        <time>2017-08-20T12:23:55Z</time>
      </trkpt>
      <trkpt lat="48.71515" lon="1.97738">
        <ele>110</ele>
        <time>2017-08-20T12:23:55Z</time>
      </trkpt>
      <trkpt lat="48.71517" lon="1.97743">
        <ele>110</ele>
        <time>2017-08-20T12:23:55Z</time>
      </trkpt>
      <trkpt lat="48.71515" lon="1.97752">
        <ele>110</ele>
        <time>2017-08-20T12:23:55Z</time>
      </trkpt>
      <trkpt lat="48.71514" lon="1.97755">
        <ele>110</ele>
        <time>2017-08-20T12:24:15Z</time>
      </trkpt>
      <trkpt lat="48.71513" lon="1.97765">
        <ele>110</ele>
        <time>2017-08-20T12:24:15Z</time>
      </trkpt>
      <trkpt lat="48.71512" lon="1.97765">
        <ele>110</ele>
        <time>2017-08-20T12:24:15Z</time>
      </trkpt>
      <trkpt lat="48.71511" lon="1.97767">
        <ele>110</ele>
        <time>2017-08-20T12:24:15Z</time>
      </trkpt>
      <trkpt lat="48.7151" lon="1.97769">
        <ele>110</ele>
        <time>2017-08-20T12:24:15Z</time>
      </trkpt>
      <trkpt lat="48.71505" lon="1.97776">
        <ele>110</ele>
        <time>2017-08-20T12:24:31Z</time>
      </trkpt>
      <trkpt lat="48.71499" lon="1.97787">
        <ele>110</ele>
        <time>2017-08-20T12:24:31Z</time>
      </trkpt>
      <trkpt lat="48.71497" lon="1.97792">
        <ele>118</ele>
        <time>2017-08-20T12:24:31Z</time>
      </trkpt>
      <trkpt lat="48.71494" lon="1.9779">
        <ele>110</ele>
        <time>2017-08-20T12:24:31Z</time>
      </trkpt>
      <trkpt lat="48.71491" lon="1.97791">
        <ele>110</ele>
        <time>2017-08-20T12:25:11Z</time>
      </trkpt>
      <trkpt lat="48.71489" lon="1.97795">
        <ele>118</ele>
        <time>2017-08-20T12:25:11Z</time>
      </trkpt>
      <trkpt lat="48.71488" lon="1.97796">
        <ele>118</ele>
        <time>2017-08-20T12:25:11Z</time>
      </trkpt>
      <trkpt lat="48.71487" lon="1.97798">
        <ele>118</ele>
        <time>2017-08-20T12:25:11Z</time>
      </trkpt>
      <trkpt lat="48.71484" lon="1.97803">
        <ele>118</ele>
        <time>2017-08-20T12:25:11Z</time>
      </trkpt>
      <trkpt lat="48.71481" lon="1.97806">
        <ele>118</ele>
        <time>2017-08-20T12:25:27Z</time>
      </trkpt>
      <trkpt lat="48.71479" lon="1.97808">
        <ele>118</ele>
        <time>2017-08-20T12:25:27Z</time>
      </trkpt>
      <trkpt lat="48.71476" lon="1.97812">
        <ele>118</ele>
        <time>2017-08-20T12:25:27Z</time>
      </trkpt>
      <trkpt lat="48.71474" lon="1.97818">
        <ele>118</ele>
        <time>2017-08-20T12:25:27Z</time>
      </trkpt>
      <trkpt lat="48.71475" lon="1.97826">
        <ele>118</ele>
        <time>2017-08-20T12:25:43Z</time>
      </trkpt>
      <trkpt lat="48.71476" lon="1.97829">
        <ele>118</ele>
        <time>2017-08-20T12:25:43Z</time>
      </trkpt>
      <trkpt lat="48.71475" lon="1.97833">
        <ele>118</ele>
        <time>2017-08-20T12:25:43Z</time>
      </trkpt>
      <trkpt lat="48.71472" lon="1.97842">
        <ele>118</ele>
        <time>2017-08-20T12:25:43Z</time>
      </trkpt>
      <trkpt lat="48.71472" lon="1.97845">
        <ele>118</ele>
        <time>2017-08-20T12:25:59Z</time>
      </trkpt>
      <trkpt lat="48.71472" lon="1.97852">
        <ele>118</ele>
        <time>2017-08-20T12:25:59Z</time>
      </trkpt>
      <trkpt lat="48.71469" lon="1.97858">
        <ele>118</ele>
        <time>2017-08-20T12:25:59Z</time>
      </trkpt>
      <trkpt lat="48.71467" lon="1.97865">
        <ele>118</ele>
        <time>2017-08-20T12:25:59Z</time>
      </trkpt>
      <trkpt lat="48.71469" lon="1.97868">
        <ele>118</ele>
        <time>2017-08-20T12:26:19Z</time>
      </trkpt>
      <trkpt lat="48.71471" lon="1.97868">
        <ele>118</ele>
        <time>2017-08-20T12:26:19Z</time>
      </trkpt>
      <trkpt lat="48.71473" lon="1.97872">
        <ele>118</ele>
        <time>2017-08-20T12:26:19Z</time>
      </trkpt>
      <trkpt lat="48.71473" lon="1.97874">
        <ele>118</ele>
        <time>2017-08-20T12:26:19Z</time>
      </trkpt>
      <trkpt lat="48.71472" lon="1.97886">
        <ele>126</ele>
        <time>2017-08-20T12:26:19Z</time>
      </trkpt>
      <trkpt lat="48.71468" lon="1.979">
        <ele>126</ele>
        <time>2017-08-20T12:26:35Z</time>
      </trkpt>
      <trkpt lat="48.71464" lon="1.97909">
        <ele>126</ele>
        <time>2017-08-20T12:26:35Z</time>
      </trkpt>
      <trkpt lat="48.71461" lon="1.97914">
        <ele>126</ele>
        <time>2017-08-20T12:26:35Z</time>
      </trkpt>
      <trkpt lat="48.71458" lon="1.97919">
        <ele>103</ele>
        <time>2017-08-20T12:26:35Z</time>
      </trkpt>
      <trkpt lat="48.7146" lon="1.97923">
        <ele>126</ele>
        <time>2017-08-20T12:26:51Z</time>
      </trkpt>
      <trkpt lat="48.71462" lon="1.97928">
        <ele>126</ele>
        <time>2017-08-20T12:26:51Z</time>
      </trkpt>
      <trkpt lat="48.71462" lon="1.97929">
        <ele>126</ele>
        <time>2017-08-20T12:26:51Z</time>
      </trkpt>
      <trkpt lat="48.71459" lon="1.97937">
        <ele>126</ele>
        <time>2017-08-20T12:26:51Z</time>
      </trkpt>
      <trkpt lat="48.71459" lon="1.97943">
        <ele>126</ele>
        <time>2017-08-20T12:27:07Z</time>
      </trkpt>
      <trkpt lat="48.71458" lon="1.9795">
        <ele>103</ele>
        <time>2017-08-20T12:27:07Z</time>
      </trkpt>
      <trkpt lat="48.71454" lon="1.97956">
        <ele>103</ele>
        <time>2017-08-20T12:27:07Z</time>
      </trkpt>
      <trkpt lat="48.71453" lon="1.97961">
        <ele>109</ele>
        <time>2017-08-20T12:27:07Z</time>
      </trkpt>
      <trkpt lat="48.7145" lon="1.97966">
        <ele>109</ele>
        <time>2017-08-20T12:27:23Z</time>
      </trkpt>
      <trkpt lat="48.71451" lon="1.97969">
        <ele>109</ele>
        <time>2017-08-20T12:27:23Z</time>
      </trkpt>
      <trkpt lat="48.71451" lon="1.97973">
        <ele>109</ele>
        <time>2017-08-20T12:27:23Z</time>
      </trkpt>
      <trkpt lat="48.7145" lon="1.97983">
        <ele>109</ele>
        <time>2017-08-20T12:27:23Z</time>
      </trkpt>
      <trkpt lat="48.71449" lon="1.97996">
        <ele>109</ele>
        <time>2017-08-20T12:27:39Z</time>
      </trkpt>
      <trkpt lat="48.71447" lon="1.98006">
        <ele>109</ele>
        <time>2017-08-20T12:27:39Z</time>
      </trkpt>
      <trkpt lat="48.71446" lon="1.98016">
        <ele>109</ele>
        <time>2017-08-20T12:27:39Z</time>
      </trkpt>
      <trkpt lat="48.71446" lon="1.98024">
        <ele>109</ele>
        <time>2017-08-20T12:27:39Z</time>
      </trkpt>
      <trkpt lat="48.71446" lon="1.98029">
        <ele>109</ele>
        <time>2017-08-20T12:27:55Z</time>
      </trkpt>
      <trkpt lat="48.71445" lon="1.98035">
        <ele>109</ele>
        <time>2017-08-20T12:27:55Z</time>
      </trkpt>
      <trkpt lat="48.71445" lon="1.98043">
        <ele>110</ele>
        <time>2017-08-20T12:27:55Z</time>
      </trkpt>
      <trkpt lat="48.71446" lon="1.98046">
        <ele>110</ele>
        <time>2017-08-20T12:27:55Z</time>
      </trkpt>
      <trkpt lat="48.71446" lon="1.98049">
        <ele>110</ele>
        <time>2017-08-20T12:28:11Z</time>
      </trkpt>
      <trkpt lat="48.71448" lon="1.98056">
        <ele>110</ele>
        <time>2017-08-20T12:28:11Z</time>
      </trkpt>
      <trkpt lat="48.71447" lon="1.98064">
        <ele>110</ele>
        <time>2017-08-20T12:28:11Z</time>
      </trkpt>
      <trkpt lat="48.71445" lon="1.98075">
        <ele>110</ele>
        <time>2017-08-20T12:28:11Z</time>
      </trkpt>
      <trkpt lat="48.71443" lon="1.98084">
        <ele>110</ele>
        <time>2017-08-20T12:28:31Z</time>
      </trkpt>
      <trkpt lat="48.71444" lon="1.98086">
        <ele>110</ele>
        <time>2017-08-20T12:28:31Z</time>
      </trkpt>
      <trkpt lat="48.71444" lon="1.98094">
        <ele>110</ele>
        <time>2017-08-20T12:28:31Z</time>
      </trkpt>
      <trkpt lat="48.71444" lon="1.98096">
        <ele>110</ele>
        <time>2017-08-20T12:28:31Z</time>
      </trkpt>
      <trkpt lat="48.71443" lon="1.98103">
        <ele>110</ele>
        <time>2017-08-20T12:28:31Z</time>
      </trkpt>
      <trkpt lat="48.71443" lon="1.98107">
        <ele>110</ele>
        <time>2017-08-20T12:28:47Z</time>
      </trkpt>
      <trkpt lat="48.71441" lon="1.98112">
        <ele>110</ele>
        <time>2017-08-20T12:28:47Z</time>
      </trkpt>
      <trkpt lat="48.71442" lon="1.98117">
        <ele>110</ele>
        <time>2017-08-20T12:28:47Z</time>
      </trkpt>
      <trkpt lat="48.71441" lon="1.98122">
        <ele>110</ele>
        <time>2017-08-20T12:28:47Z</time>
      </trkpt>
      <trkpt lat="48.7144" lon="1.98134">
        <ele>111</ele>
        <time>2017-08-20T12:29:03Z</time>
      </trkpt>
      <trkpt lat="48.71439" lon="1.98137">
        <ele>111</ele>
        <time>2017-08-20T12:29:03Z</time>
      </trkpt>
      <trkpt lat="48.71439" lon="1.98144">
        <ele>111</ele>
        <time>2017-08-20T12:29:03Z</time>
      </trkpt>
      <trkpt lat="48.71439" lon="1.98158">
        <ele>111</ele>
        <time>2017-08-20T12:29:03Z</time>
      </trkpt>
      <trkpt lat="48.71434" lon="1.98173">
        <ele>111</ele>
        <time>2017-08-20T12:29:19Z</time>
      </trkpt>
      <trkpt lat="48.71431" lon="1.98181">
        <ele>111</ele>
        <time>2017-08-20T12:29:19Z</time>
      </trkpt>
      <trkpt lat="48.71427" lon="1.98186">
        <ele>111</ele>
        <time>2017-08-20T12:29:19Z</time>
      </trkpt>
      <trkpt lat="48.71423" lon="1.98192">
        <ele>111</ele>
        <time>2017-08-20T12:29:19Z</time>
      </trkpt>
      <trkpt lat="48.71419" lon="1.98197">
        <ele>111</ele>
        <time>2017-08-20T12:29:35Z</time>
      </trkpt>
      <trkpt lat="48.71414" lon="1.98206">
        <ele>111</ele>
        <time>2017-08-20T12:29:35Z</time>
      </trkpt>
      <trkpt lat="48.71412" lon="1.98212">
        <ele>112</ele>
        <time>2017-08-20T12:29:35Z</time>
      </trkpt>
      <trkpt lat="48.71413" lon="1.98218">
        <ele>112</ele>
        <time>2017-08-20T12:29:35Z</time>
      </trkpt>
      <trkpt lat="48.71409" lon="1.98222">
        <ele>112</ele>
        <time>2017-08-20T12:29:51Z</time>
      </trkpt>
      <trkpt lat="48.71404" lon="1.98229">
        <ele>112</ele>
        <time>2017-08-20T12:29:51Z</time>
      </trkpt>
      <trkpt lat="48.71401" lon="1.98234">
        <ele>112</ele>
        <time>2017-08-20T12:29:51Z</time>
      </trkpt>
      <trkpt lat="48.71399" lon="1.98236">
        <ele>112</ele>
        <time>2017-08-20T12:29:51Z</time>
      </trkpt>
      <trkpt lat="48.71392" lon="1.98242">
        <ele>112</ele>
        <time>2017-08-20T12:30:07Z</time>
      </trkpt>
      <trkpt lat="48.71386" lon="1.98248">
        <ele>112</ele>
        <time>2017-08-20T12:30:07Z</time>
      </trkpt>
      <trkpt lat="48.71382" lon="1.98257">
        <ele>112</ele>
        <time>2017-08-20T12:30:07Z</time>
      </trkpt>
      <trkpt lat="48.71379" lon="1.98265">
        <ele>112</ele>
        <time>2017-08-20T12:30:07Z</time>
      </trkpt>
      <trkpt lat="48.71377" lon="1.98269">
        <ele>112</ele>
        <time>2017-08-20T12:30:27Z</time>
      </trkpt>
      <trkpt lat="48.71376" lon="1.98272">
        <ele>112</ele>
        <time>2017-08-20T12:30:27Z</time>
      </trkpt>
      <trkpt lat="48.71374" lon="1.98277">
        <ele>101</ele>
        <time>2017-08-20T12:30:27Z</time>
      </trkpt>
      <trkpt lat="48.71372" lon="1.98279">
        <ele>101</ele>
        <time>2017-08-20T12:30:27Z</time>
      </trkpt>
      <trkpt lat="48.71367" lon="1.98284">
        <ele>101</ele>
        <time>2017-08-20T12:30:27Z</time>
      </trkpt>
      <trkpt lat="48.71364" lon="1.9829">
        <ele>101</ele>
        <time>2017-08-20T12:30:43Z</time>
      </trkpt>
      <trkpt lat="48.71358" lon="1.983">
        <ele>109</ele>
        <time>2017-08-20T12:30:43Z</time>
      </trkpt>
      <trkpt lat="48.71356" lon="1.98303">
        <ele>109</ele>
        <time>2017-08-20T12:30:43Z</time>
      </trkpt>
      <trkpt lat="48.71348" lon="1.9831">
        <ele>109</ele>
        <time>2017-08-20T12:30:43Z</time>
      </trkpt>
      <trkpt lat="48.71346" lon="1.98313">
        <ele>109</ele>
        <time>2017-08-20T12:31:03Z</time>
      </trkpt>
      <trkpt lat="48.71344" lon="1.98319">
        <ele>109</ele>
        <time>2017-08-20T12:31:03Z</time>
      </trkpt>
      <trkpt lat="48.71342" lon="1.98321">
        <ele>109</ele>
        <time>2017-08-20T12:31:03Z</time>
      </trkpt>
      <trkpt lat="48.71343" lon="1.98323">
        <ele>109</ele>
        <time>2017-08-20T12:31:03Z</time>
      </trkpt>
      <trkpt lat="48.71341" lon="1.98328">
        <ele>109</ele>
        <time>2017-08-20T12:31:03Z</time>
      </trkpt>
      <trkpt lat="48.7134" lon="1.98334">
        <ele>109</ele>
        <time>2017-08-20T12:31:19Z</time>
      </trkpt>
      <trkpt lat="48.71334" lon="1.98347">
        <ele>109</ele>
        <time>2017-08-20T12:31:19Z</time>
      </trkpt>
      <trkpt lat="48.71332" lon="1.98351">
        <ele>109</ele>
        <time>2017-08-20T12:31:19Z</time>
      </trkpt>
      <trkpt lat="48.71323" lon="1.98356">
        <ele>109</ele>
        <time>2017-08-20T12:31:19Z</time>
      </trkpt>
      <trkpt lat="48.71319" lon="1.98362">
        <ele>109</ele>
        <time>2017-08-20T12:31:35Z</time>
      </trkpt>
      <trkpt lat="48.71315" lon="1.98371">
        <ele>109</ele>
        <time>2017-08-20T12:31:35Z</time>
      </trkpt>
      <trkpt lat="48.71311" lon="1.9838">
        <ele>116</ele>
        <time>2017-08-20T12:31:35Z</time>
      </trkpt>
      <trkpt lat="48.71309" lon="1.98385">
        <ele>116</ele>
        <time>2017-08-20T12:31:35Z</time>
      </trkpt>
      <trkpt lat="48.71305" lon="1.98392">
        <ele>116</ele>
        <time>2017-08-20T12:31:51Z</time>
      </trkpt>
      <trkpt lat="48.71299" lon="1.984">
        <ele>116</ele>
        <time>2017-08-20T12:31:51Z</time>
      </trkpt>
      <trkpt lat="48.71296" lon="1.98408">
        <ele>116</ele>
        <time>2017-08-20T12:31:51Z</time>
      </trkpt>
      <trkpt lat="48.71295" lon="1.98419">
        <ele>116</ele>
        <time>2017-08-20T12:31:51Z</time>
      </trkpt>
      <trkpt lat="48.71294" lon="1.98428">
        <ele>116</ele>
        <time>2017-08-20T12:32:07Z</time>
      </trkpt>
      <trkpt lat="48.71294" lon="1.98437">
        <ele>116</ele>
        <time>2017-08-20T12:32:07Z</time>
      </trkpt>
      <trkpt lat="48.71294" lon="1.98448">
        <ele>116</ele>
        <time>2017-08-20T12:32:07Z</time>
      </trkpt>
      <trkpt lat="48.71295" lon="1.98455">
        <ele>116</ele>
        <time>2017-08-20T12:32:07Z</time>
      </trkpt>
      <trkpt lat="48.71295" lon="1.98467">
        <ele>115</ele>
        <time>2017-08-20T12:32:23Z</time>
      </trkpt>
      <trkpt lat="48.71295" lon="1.98471">
        <ele>115</ele>
        <time>2017-08-20T12:32:23Z</time>
      </trkpt>
      <trkpt lat="48.71297" lon="1.98481">
        <ele>115</ele>
        <time>2017-08-20T12:32:23Z</time>
      </trkpt>
      <trkpt lat="48.71298" lon="1.98496">
        <ele>115</ele>
        <time>2017-08-20T12:32:23Z</time>
      </trkpt>
      <trkpt lat="48.713" lon="1.98502">
        <ele>115</ele>
        <time>2017-08-20T12:32:39Z</time>
      </trkpt>
      <trkpt lat="48.71303" lon="1.98506">
        <ele>115</ele>
        <time>2017-08-20T12:32:39Z</time>
      </trkpt>
      <trkpt lat="48.71308" lon="1.98506">
        <ele>115</ele>
        <time>2017-08-20T12:32:39Z</time>
      </trkpt>
      <trkpt lat="48.71313" lon="1.98508">
        <ele>115</ele>
        <time>2017-08-20T12:32:39Z</time>
      </trkpt>
      <trkpt lat="48.71316" lon="1.98508">
        <ele>115</ele>
        <time>2017-08-20T12:32:55Z</time>
      </trkpt>
      <trkpt lat="48.7132" lon="1.98508">
        <ele>115</ele>
        <time>2017-08-20T12:32:55Z</time>
      </trkpt>
      <trkpt lat="48.71325" lon="1.98508">
        <ele>115</ele>
        <time>2017-08-20T12:32:55Z</time>
      </trkpt>
      <trkpt lat="48.7133" lon="1.98508">
        <ele>115</ele>
        <time>2017-08-20T12:32:55Z</time>
      </trkpt>
      <trkpt lat="48.71336" lon="1.98513">
        <ele>115</ele>
        <time>2017-08-20T12:33:11Z</time>
      </trkpt>
      <trkpt lat="48.7134" lon="1.98519">
        <ele>115</ele>
        <time>2017-08-20T12:33:11Z</time>
      </trkpt>
      <trkpt lat="48.71342" lon="1.98527">
        <ele>115</ele>
        <time>2017-08-20T12:33:11Z</time>
      </trkpt>
      <trkpt lat="48.71341" lon="1.98531">
        <ele>115</ele>
        <time>2017-08-20T12:33:11Z</time>
      </trkpt>
      <trkpt lat="48.7134" lon="1.98538">
        <ele>115</ele>
        <time>2017-08-20T12:33:27Z</time>
      </trkpt>
      <trkpt lat="48.71339" lon="1.98547">
        <ele>116</ele>
        <time>2017-08-20T12:33:27Z</time>
      </trkpt>
      <trkpt lat="48.71336" lon="1.98556">
        <ele>116</ele>
        <time>2017-08-20T12:33:27Z</time>
      </trkpt>
      <trkpt lat="48.71334" lon="1.98565">
        <ele>116</ele>
        <time>2017-08-20T12:33:27Z</time>
      </trkpt>
      <trkpt lat="48.71334" lon="1.9857">
        <ele>116</ele>
        <time>2017-08-20T12:33:43Z</time>
      </trkpt>
      <trkpt lat="48.71332" lon="1.98576">
        <ele>116</ele>
        <time>2017-08-20T12:33:43Z</time>
      </trkpt>
      <trkpt lat="48.71329" lon="1.98578">
        <ele>116</ele>
        <time>2017-08-20T12:33:43Z</time>
      </trkpt>
      <trkpt lat="48.71326" lon="1.98585">
        <ele>116</ele>
        <time>2017-08-20T12:33:43Z</time>
      </trkpt>
      <trkpt lat="48.71325" lon="1.98593">
        <ele>116</ele>
        <time>2017-08-20T12:33:59Z</time>
      </trkpt>
      <trkpt lat="48.71323" lon="1.98601">
        <ele>116</ele>
        <time>2017-08-20T12:33:59Z</time>
      </trkpt>
      <trkpt lat="48.71321" lon="1.98605">
        <ele>116</ele>
        <time>2017-08-20T12:33:59Z</time>
      </trkpt>
      <trkpt lat="48.7132" lon="1.98609">
        <ele>116</ele>
        <time>2017-08-20T12:33:59Z</time>
      </trkpt>
      <trkpt lat="48.71319" lon="1.98618">
        <ele>116</ele>
        <time>2017-08-20T12:34:15Z</time>
      </trkpt>
      <trkpt lat="48.71319" lon="1.98625">
        <ele>125</ele>
        <time>2017-08-20T12:34:15Z</time>
      </trkpt>
      <trkpt lat="48.71316" lon="1.98631">
        <ele>125</ele>
        <time>2017-08-20T12:34:15Z</time>
      </trkpt>
      <trkpt lat="48.71312" lon="1.98638">
        <ele>125</ele>
        <time>2017-08-20T12:34:15Z</time>
      </trkpt>
      <trkpt lat="48.71309" lon="1.98645">
        <ele>125</ele>
        <time>2017-08-20T12:34:31Z</time>
      </trkpt>
      <trkpt lat="48.71307" lon="1.9865">
        <ele>125</ele>
        <time>2017-08-20T12:34:31Z</time>
      </trkpt>
      <trkpt lat="48.71303" lon="1.98656">
        <ele>125</ele>
        <time>2017-08-20T12:34:31Z</time>
      </trkpt>
      <trkpt lat="48.71298" lon="1.98661">
        <ele>125</ele>
        <time>2017-08-20T12:34:31Z</time>
      </trkpt>
      <trkpt lat="48.71295" lon="1.98665">
        <ele>125</ele>
        <time>2017-08-20T12:34:47Z</time>
      </trkpt>
      <trkpt lat="48.71292" lon="1.98671">
        <ele>125</ele>
        <time>2017-08-20T12:34:47Z</time>
      </trkpt>
      <trkpt lat="48.71285" lon="1.98677">
        <ele>106</ele>
        <time>2017-08-20T12:34:47Z</time>
      </trkpt>
      <trkpt lat="48.7128" lon="1.98685">
        <ele>106</ele>
        <time>2017-08-20T12:34:47Z</time>
      </trkpt>
      <trkpt lat="48.71277" lon="1.9869">
        <ele>106</ele>
        <time>2017-08-20T12:35:07Z</time>
      </trkpt>
      <trkpt lat="48.71275" lon="1.98696">
        <ele>106</ele>
        <time>2017-08-20T12:35:07Z</time>
      </trkpt>
      <trkpt lat="48.71274" lon="1.98697">
        <ele>106</ele>
        <time>2017-08-20T12:35:07Z</time>
      </trkpt>
      <trkpt lat="48.71273" lon="1.98701">
        <ele>106</ele>
        <time>2017-08-20T12:35:07Z</time>
      </trkpt>
      <trkpt lat="48.71272" lon="1.98705">
        <ele>106</ele>
        <time>2017-08-20T12:35:07Z</time>
      </trkpt>
      <trkpt lat="48.71266" lon="1.98713">
        <ele>115</ele>
        <time>2017-08-20T12:35:23Z</time>
      </trkpt>
      <trkpt lat="48.71262" lon="1.98721">
        <ele>115</ele>
        <time>2017-08-20T12:35:23Z</time>
      </trkpt>
      <trkpt lat="48.71259" lon="1.98729">
        <ele>115</ele>
        <time>2017-08-20T12:35:23Z</time>
      </trkpt>
      <trkpt lat="48.71257" lon="1.9874">
        <ele>115</ele>
        <time>2017-08-20T12:35:23Z</time>
      </trkpt>
      <trkpt lat="48.71252" lon="1.98746">
        <ele>115</ele>
        <time>2017-08-20T12:35:39Z</time>
      </trkpt>
      <trkpt lat="48.71248" lon="1.98753">
        <ele>115</ele>
        <time>2017-08-20T12:35:39Z</time>
      </trkpt>
      <trkpt lat="48.71247" lon="1.98761">
        <ele>115</ele>
        <time>2017-08-20T12:35:39Z</time>
      </trkpt>
      <trkpt lat="48.71245" lon="1.98765">
        <ele>115</ele>
        <time>2017-08-20T12:35:39Z</time>
      </trkpt>
      <trkpt lat="48.71244" lon="1.98773">
        <ele>115</ele>
        <time>2017-08-20T12:35:55Z</time>
      </trkpt>
      <trkpt lat="48.71242" lon="1.98777">
        <ele>115</ele>
        <time>2017-08-20T12:35:55Z</time>
      </trkpt>
      <trkpt lat="48.71236" lon="1.98785">
        <ele>115</ele>
        <time>2017-08-20T12:35:55Z</time>
      </trkpt>
      <trkpt lat="48.71233" lon="1.9879">
        <ele>115</ele>
        <time>2017-08-20T12:35:55Z</time>
      </trkpt>
      <trkpt lat="48.71228" lon="1.98798">
        <ele>124</ele>
        <time>2017-08-20T12:36:11Z</time>
      </trkpt>
      <trkpt lat="48.71227" lon="1.988">
        <ele>124</ele>
        <time>2017-08-20T12:36:11Z</time>
      </trkpt>
      <trkpt lat="48.71222" lon="1.98807">
        <ele>124</ele>
        <time>2017-08-20T12:36:11Z</time>
      </trkpt>
      <trkpt lat="48.71219" lon="1.98815">
        <ele>124</ele>
        <time>2017-08-20T12:36:11Z</time>
      </trkpt>
      <trkpt lat="48.71222" lon="1.98817">
        <ele>124</ele>
        <time>2017-08-20T12:36:27Z</time>
      </trkpt>
      <trkpt lat="48.71219" lon="1.98826">
        <ele>124</ele>
        <time>2017-08-20T12:36:27Z</time>
      </trkpt>
      <trkpt lat="48.71214" lon="1.98832">
        <ele>124</ele>
        <time>2017-08-20T12:36:27Z</time>
      </trkpt>
      <trkpt lat="48.71213" lon="1.98835">
        <ele>124</ele>
        <time>2017-08-20T12:36:27Z</time>
      </trkpt>
      <trkpt lat="48.71211" lon="1.9884">
        <ele>124</ele>
        <time>2017-08-20T12:36:43Z</time>
      </trkpt>
      <trkpt lat="48.71212" lon="1.98846">
        <ele>124</ele>
        <time>2017-08-20T12:36:43Z</time>
      </trkpt>
      <trkpt lat="48.71207" lon="1.98852">
        <ele>106</ele>
        <time>2017-08-20T12:36:43Z</time>
      </trkpt>
      <trkpt lat="48.71202" lon="1.98863">
        <ele>106</ele>
        <time>2017-08-20T12:36:43Z</time>
      </trkpt>
      <trkpt lat="48.71194" lon="1.98881">
        <ele>111</ele>
        <time>2017-08-20T12:36:59Z</time>
      </trkpt>
      <trkpt lat="48.71189" lon="1.98888">
        <ele>111</ele>
        <time>2017-08-20T12:36:59Z</time>
      </trkpt>
      <trkpt lat="48.71183" lon="1.98893">
        <ele>111</ele>
        <time>2017-08-20T12:36:59Z</time>
      </trkpt>
      <trkpt lat="48.71182" lon="1.98898">
        <ele>111</ele>
        <time>2017-08-20T12:36:59Z</time>
      </trkpt>
      <trkpt lat="48.71181" lon="1.98903">
        <ele>111</ele>
        <time>2017-08-20T12:37:15Z</time>
      </trkpt>
      <trkpt lat="48.71178" lon="1.98911">
        <ele>111</ele>
        <time>2017-08-20T12:37:15Z</time>
      </trkpt>
      <trkpt lat="48.71172" lon="1.98917">
        <ele>111</ele>
        <time>2017-08-20T12:37:15Z</time>
      </trkpt>
      <trkpt lat="48.71169" lon="1.98925">
        <ele>111</ele>
        <time>2017-08-20T12:37:15Z</time>
      </trkpt>
      <trkpt lat="48.71166" lon="1.9893">
        <ele>111</ele>
        <time>2017-08-20T12:37:31Z</time>
      </trkpt>
      <trkpt lat="48.71162" lon="1.98935">
        <ele>111</ele>
        <time>2017-08-20T12:37:31Z</time>
      </trkpt>
      <trkpt lat="48.71158" lon="1.98939">
        <ele>111</ele>
        <time>2017-08-20T12:37:31Z</time>
      </trkpt>
      <trkpt lat="48.71156" lon="1.98946">
        <ele>111</ele>
        <time>2017-08-20T12:37:31Z</time>
      </trkpt>
      <trkpt lat="48.71153" lon="1.98951">
        <ele>111</ele>
        <time>2017-08-20T12:37:47Z</time>
      </trkpt>
      <trkpt lat="48.71152" lon="1.98959">
        <ele>118</ele>
        <time>2017-08-20T12:37:47Z</time>
      </trkpt>
      <trkpt lat="48.71148" lon="1.98967">
        <ele>118</ele>
        <time>2017-08-20T12:37:47Z</time>
      </trkpt>
      <trkpt lat="48.71147" lon="1.98977">
        <ele>118</ele>
        <time>2017-08-20T12:37:47Z</time>
      </trkpt>
      <trkpt lat="48.71143" lon="1.98985">
        <ele>118</ele>
        <time>2017-08-20T12:38:03Z</time>
      </trkpt>
      <trkpt lat="48.71141" lon="1.98992">
        <ele>118</ele>
        <time>2017-08-20T12:38:03Z</time>
      </trkpt>
      <trkpt lat="48.71138" lon="1.98995">
        <ele>118</ele>
        <time>2017-08-20T12:38:03Z</time>
      </trkpt>
      <trkpt lat="48.71134" lon="1.99001">
        <ele>118</ele>
        <time>2017-08-20T12:38:03Z</time>
      </trkpt>
      <trkpt lat="48.71132" lon="1.99006">
        <ele>118</ele>
        <time>2017-08-20T12:38:19Z</time>
      </trkpt>
      <trkpt lat="48.7113" lon="1.99012">
        <ele>118</ele>
        <time>2017-08-20T12:38:19Z</time>
      </trkpt>
      <trkpt lat="48.71127" lon="1.99018">
        <ele>118</ele>
        <time>2017-08-20T12:38:19Z</time>
      </trkpt>
      <trkpt lat="48.71126" lon="1.9902">
        <ele>118</ele>
        <time>2017-08-20T12:38:19Z</time>
      </trkpt>
      <trkpt lat="48.7112" lon="1.99034">
        <ele>100</ele>
        <time>2017-08-20T12:39:43Z</time>
      </trkpt>
      <trkpt lat="48.71118" lon="1.99037">
        <ele>100</ele>
        <time>2017-08-20T12:39:43Z</time>
      </trkpt>
      <trkpt lat="48.71114" lon="1.99043">
        <ele>101</ele>
        <time>2017-08-20T12:39:43Z</time>
      </trkpt>
      <trkpt lat="48.71109" lon="1.99048">
        <ele>101</ele>
        <time>2017-08-20T12:39:43Z</time>
      </trkpt>
      <trkpt lat="48.71108" lon="1.99051">
        <ele>101</ele>
        <time>2017-08-20T12:39:43Z</time>
      </trkpt>
      <trkpt lat="48.71107" lon="1.99052">
        <ele>101</ele>
        <time>2017-08-20T12:39:59Z</time>
      </trkpt>
      <trkpt lat="48.71104" lon="1.99059">
        <ele>101</ele>
        <time>2017-08-20T12:39:59Z</time>
      </trkpt>
      <trkpt lat="48.71102" lon="1.99066">
        <ele>101</ele>
        <time>2017-08-20T12:39:59Z</time>
      </trkpt>
      <trkpt lat="48.711" lon="1.9907">
        <ele>101</ele>
        <time>2017-08-20T12:39:59Z</time>
      </trkpt>
      <trkpt lat="48.711" lon="1.99077">
        <ele>101</ele>
        <time>2017-08-20T12:40:15Z</time>
      </trkpt>
      <trkpt lat="48.711" lon="1.99083">
        <ele>101</ele>
        <time>2017-08-20T12:40:15Z</time>
      </trkpt>
      <trkpt lat="48.71098" lon="1.99089">
        <ele>101</ele>
        <time>2017-08-20T12:40:15Z</time>
      </trkpt>
      <trkpt lat="48.71096" lon="1.99093">
        <ele>101</ele>
        <time>2017-08-20T12:40:15Z</time>
      </trkpt>
      <trkpt lat="48.71094" lon="1.991">
        <ele>101</ele>
        <time>2017-08-20T12:40:31Z</time>
      </trkpt>
      <trkpt lat="48.71093" lon="1.99107">
        <ele>101</ele>
        <time>2017-08-20T12:40:31Z</time>
      </trkpt>
      <trkpt lat="48.71091" lon="1.99115">
        <ele>101</ele>
        <time>2017-08-20T12:40:31Z</time>
      </trkpt>
      <trkpt lat="48.7109" lon="1.9912">
        <ele>101</ele>
        <time>2017-08-20T12:40:31Z</time>
      </trkpt>
      <trkpt lat="48.71087" lon="1.99127">
        <ele>107</ele>
        <time>2017-08-20T12:40:47Z</time>
      </trkpt>
      <trkpt lat="48.71087" lon="1.99133">
        <ele>107</ele>
        <time>2017-08-20T12:40:47Z</time>
      </trkpt>
      <trkpt lat="48.71084" lon="1.99141">
        <ele>107</ele>
        <time>2017-08-20T12:40:47Z</time>
      </trkpt>
      <trkpt lat="48.71082" lon="1.99147">
        <ele>107</ele>
        <time>2017-08-20T12:40:47Z</time>
      </trkpt>
      <trkpt lat="48.71081" lon="1.99153">
        <ele>107</ele>
        <time>2017-08-20T12:41:03Z</time>
      </trkpt>
      <trkpt lat="48.71078" lon="1.99159">
        <ele>107</ele>
        <time>2017-08-20T12:41:03Z</time>
      </trkpt>
      <trkpt lat="48.71076" lon="1.99167">
        <ele>107</ele>
        <time>2017-08-20T12:41:03Z</time>
      </trkpt>
      <trkpt lat="48.71073" lon="1.99176">
        <ele>107</ele>
        <time>2017-08-20T12:41:03Z</time>
      </trkpt>
      <trkpt lat="48.71072" lon="1.99181">
        <ele>107</ele>
        <time>2017-08-20T12:41:19Z</time>
      </trkpt>
      <trkpt lat="48.71069" lon="1.99188">
        <ele>107</ele>
        <time>2017-08-20T12:41:19Z</time>
      </trkpt>
      <trkpt lat="48.71068" lon="1.99198">
        <ele>107</ele>
        <time>2017-08-20T12:41:19Z</time>
      </trkpt>
      <trkpt lat="48.71065" lon="1.99203">
        <ele>107</ele>
        <time>2017-08-20T12:41:19Z</time>
      </trkpt>
      <trkpt lat="48.71061" lon="1.99209">
        <ele>113</ele>
        <time>2017-08-20T12:41:35Z</time>
      </trkpt>
      <trkpt lat="48.71058" lon="1.99213">
        <ele>113</ele>
        <time>2017-08-20T12:41:35Z</time>
      </trkpt>
      <trkpt lat="48.71055" lon="1.99218">
        <ele>113</ele>
        <time>2017-08-20T12:41:35Z</time>
      </trkpt>
      <trkpt lat="48.71051" lon="1.99223">
        <ele>113</ele>
        <time>2017-08-20T12:41:35Z</time>
      </trkpt>
      <trkpt lat="48.71048" lon="1.99233">
        <ele>113</ele>
        <time>2017-08-20T12:41:51Z</time>
      </trkpt>
      <trkpt lat="48.71046" lon="1.99236">
        <ele>113</ele>
        <time>2017-08-20T12:41:51Z</time>
      </trkpt>
      <trkpt lat="48.71043" lon="1.99243">
        <ele>113</ele>
        <time>2017-08-20T12:41:51Z</time>
      </trkpt>
      <trkpt lat="48.71039" lon="1.9925">
        <ele>96</ele>
        <time>2017-08-20T12:41:51Z</time>
      </trkpt>
      <trkpt lat="48.71034" lon="1.99255">
        <ele>96</ele>
        <time>2017-08-20T12:42:07Z</time>
      </trkpt>
      <trkpt lat="48.71029" lon="1.99261">
        <ele>96</ele>
        <time>2017-08-20T12:42:07Z</time>
      </trkpt>
      <trkpt lat="48.71026" lon="1.99269">
        <ele>96</ele>
        <time>2017-08-20T12:42:07Z</time>
      </trkpt>
      <trkpt lat="48.71021" lon="1.99277">
        <ele>96</ele>
        <time>2017-08-20T12:42:07Z</time>
      </trkpt>
      <trkpt lat="48.71019" lon="1.99282">
        <ele>96</ele>
        <time>2017-08-20T12:42:23Z</time>
      </trkpt>
      <trkpt lat="48.71018" lon="1.99289">
        <ele>96</ele>
        <time>2017-08-20T12:42:23Z</time>
      </trkpt>
      <trkpt lat="48.71017" lon="1.99296">
        <ele>103</ele>
        <time>2017-08-20T12:42:23Z</time>
      </trkpt>
      <trkpt lat="48.71016" lon="1.99301">
        <ele>103</ele>
        <time>2017-08-20T12:42:23Z</time>
      </trkpt>
      <trkpt lat="48.71014" lon="1.9931">
        <ele>103</ele>
        <time>2017-08-20T12:42:39Z</time>
      </trkpt>
      <trkpt lat="48.71013" lon="1.99313">
        <ele>103</ele>
        <time>2017-08-20T12:42:39Z</time>
      </trkpt>
      <trkpt lat="48.71012" lon="1.99324">
        <ele>103</ele>
        <time>2017-08-20T12:42:39Z</time>
      </trkpt>
      <trkpt lat="48.7101" lon="1.9933">
        <ele>103</ele>
        <time>2017-08-20T12:42:39Z</time>
      </trkpt>
      <trkpt lat="48.71008" lon="1.99336">
        <ele>103</ele>
        <time>2017-08-20T12:42:55Z</time>
      </trkpt>
      <trkpt lat="48.71008" lon="1.99344">
        <ele>103</ele>
        <time>2017-08-20T12:42:55Z</time>
      </trkpt>
      <trkpt lat="48.71005" lon="1.99348">
        <ele>103</ele>
        <time>2017-08-20T12:42:55Z</time>
      </trkpt>
      <trkpt lat="48.71006" lon="1.99355">
        <ele>103</ele>
        <time>2017-08-20T12:42:55Z</time>
      </trkpt>
      <trkpt lat="48.71008" lon="1.99357">
        <ele>103</ele>
        <time>2017-08-20T12:43:15Z</time>
      </trkpt>
      <trkpt lat="48.7101" lon="1.99358">
        <ele>103</ele>
        <time>2017-08-20T12:43:15Z</time>
      </trkpt>
      <trkpt lat="48.71013" lon="1.99358">
        <ele>103</ele>
        <time>2017-08-20T12:43:15Z</time>
      </trkpt>
      <trkpt lat="48.71016" lon="1.99359">
        <ele>103</ele>
        <time>2017-08-20T12:43:15Z</time>
      </trkpt>
      <trkpt lat="48.71023" lon="1.9936">
        <ele>103</ele>
        <time>2017-08-20T12:43:15Z</time>
      </trkpt>
      <trkpt lat="48.71029" lon="1.99362">
        <ele>103</ele>
        <time>2017-08-20T12:43:31Z</time>
      </trkpt>
      <trkpt lat="48.71035" lon="1.99362">
        <ele>103</ele>
        <time>2017-08-20T12:43:31Z</time>
      </trkpt>
      <trkpt lat="48.71039" lon="1.9936">
        <ele>103</ele>
        <time>2017-08-20T12:43:31Z</time>
      </trkpt>
      <trkpt lat="48.7104" lon="1.99361">
        <ele>103</ele>
        <time>2017-08-20T12:43:31Z</time>
      </trkpt>
      <trkpt lat="48.71041" lon="1.99362">
        <ele>103</ele>
        <time>2017-08-20T12:43:51Z</time>
      </trkpt>
      <trkpt lat="48.71044" lon="1.99366">
        <ele>123</ele>
        <time>2017-08-20T12:43:51Z</time>
      </trkpt>
      <trkpt lat="48.71045" lon="1.99365">
        <ele>123</ele>
        <time>2017-08-20T12:43:51Z</time>
      </trkpt>
      <trkpt lat="48.71047" lon="1.99366">
        <ele>123</ele>
        <time>2017-08-20T12:43:51Z</time>
      </trkpt>
      <trkpt lat="48.7105" lon="1.99365">
        <ele>123</ele>
        <time>2017-08-20T12:43:51Z</time>
      </trkpt>
      <trkpt lat="48.7106" lon="1.99366">
        <ele>123</ele>
        <time>2017-08-20T12:44:27Z</time>
      </trkpt>
      <trkpt lat="48.71065" lon="1.99363">
        <ele>123</ele>
        <time>2017-08-20T12:44:27Z</time>
      </trkpt>
      <trkpt lat="48.71068" lon="1.9936">
        <ele>123</ele>
        <time>2017-08-20T12:44:27Z</time>
      </trkpt>
      <trkpt lat="48.71069" lon="1.9936">
        <ele>123</ele>
        <time>2017-08-20T12:44:27Z</time>
      </trkpt>
      <trkpt lat="48.71071" lon="1.99361">
        <ele>123</ele>
        <time>2017-08-20T12:44:27Z</time>
      </trkpt>
      <trkpt lat="48.71076" lon="1.99365">
        <ele>123</ele>
        <time>2017-08-20T12:44:43Z</time>
      </trkpt>
      <trkpt lat="48.71079" lon="1.99364">
        <ele>123</ele>
        <time>2017-08-20T12:44:43Z</time>
      </trkpt>
      <trkpt lat="48.71084" lon="1.99355">
        <ele>123</ele>
        <time>2017-08-20T12:44:43Z</time>
      </trkpt>
      <trkpt lat="48.71088" lon="1.99349">
        <ele>123</ele>
        <time>2017-08-20T12:44:43Z</time>
      </trkpt>
      <trkpt lat="48.71095" lon="1.99347">
        <ele>123</ele>
        <time>2017-08-20T12:44:59Z</time>
      </trkpt>
      <trkpt lat="48.71097" lon="1.99348">
        <ele>123</ele>
        <time>2017-08-20T12:44:59Z</time>
      </trkpt>
      <trkpt lat="48.71101" lon="1.99348">
        <ele>123</ele>
        <time>2017-08-20T12:44:59Z</time>
      </trkpt>
      <trkpt lat="48.71106" lon="1.99346">
        <ele>123</ele>
        <time>2017-08-20T12:44:59Z</time>
      </trkpt>
      <trkpt lat="48.71109" lon="1.99349">
        <ele>123</ele>
        <time>2017-08-20T12:45:15Z</time>
      </trkpt>
      <trkpt lat="48.71115" lon="1.99348">
        <ele>123</ele>
        <time>2017-08-20T12:45:15Z</time>
      </trkpt>
      <trkpt lat="48.71122" lon="1.99345">
        <ele>123</ele>
        <time>2017-08-20T12:45:15Z</time>
      </trkpt>
      <trkpt lat="48.71126" lon="1.99345">
        <ele>145</ele>
        <time>2017-08-20T12:45:15Z</time>
      </trkpt>
      <trkpt lat="48.71129" lon="1.99342">
        <ele>145</ele>
        <time>2017-08-20T12:45:31Z</time>
      </trkpt>
      <trkpt lat="48.71132" lon="1.9934">
        <ele>145</ele>
        <time>2017-08-20T12:45:31Z</time>
      </trkpt>
      <trkpt lat="48.71132" lon="1.99335">
        <ele>145</ele>
        <time>2017-08-20T12:45:31Z</time>
      </trkpt>
      <trkpt lat="48.71135" lon="1.99328">
        <ele>145</ele>
        <time>2017-08-20T12:45:31Z</time>
      </trkpt>
      <trkpt lat="48.71136" lon="1.99324">
        <ele>145</ele>
        <time>2017-08-20T12:45:47Z</time>
      </trkpt>
      <trkpt lat="48.71135" lon="1.99316">
        <ele>145</ele>
        <time>2017-08-20T12:45:47Z</time>
      </trkpt>
      <trkpt lat="48.71134" lon="1.99311">
        <ele>145</ele>
        <time>2017-08-20T12:45:47Z</time>
      </trkpt>
      <trkpt lat="48.71134" lon="1.99305">
        <ele>145</ele>
        <time>2017-08-20T12:45:47Z</time>
      </trkpt>
      <trkpt lat="48.71138" lon="1.993">
        <ele>145</ele>
        <time>2017-08-20T12:46:15Z</time>
      </trkpt>
      <trkpt lat="48.71139" lon="1.99301">
        <ele>145</ele>
        <time>2017-08-20T12:46:15Z</time>
      </trkpt>
      <trkpt lat="48.71141" lon="1.99301">
        <ele>145</ele>
        <time>2017-08-20T12:46:15Z</time>
      </trkpt>
      <trkpt lat="48.71147" lon="1.99304">
        <ele>145</ele>
        <time>2017-08-20T12:46:15Z</time>
      </trkpt>
      <trkpt lat="48.71149" lon="1.99306">
        <ele>145</ele>
        <time>2017-08-20T12:46:15Z</time>
      </trkpt>
      <trkpt lat="48.7115" lon="1.99306">
        <ele>145</ele>
        <time>2017-08-20T12:46:35Z</time>
      </trkpt>
      <trkpt lat="48.71152" lon="1.99305">
        <ele>145</ele>
        <time>2017-08-20T12:46:35Z</time>
      </trkpt>
      <trkpt lat="48.71154" lon="1.99305">
        <ele>145</ele>
        <time>2017-08-20T12:46:35Z</time>
      </trkpt>
      <trkpt lat="48.71158" lon="1.99305">
        <ele>145</ele>
        <time>2017-08-20T12:46:35Z</time>
      </trkpt>
      <trkpt lat="48.7116" lon="1.99304">
        <ele>145</ele>
        <time>2017-08-20T12:46:35Z</time>
      </trkpt>
      <trkpt lat="48.71162" lon="1.99302">
        <ele>145</ele>
        <time>2017-08-20T12:46:51Z</time>
      </trkpt>
      <trkpt lat="48.71167" lon="1.99296">
        <ele>145</ele>
        <time>2017-08-20T12:46:51Z</time>
      </trkpt>
      <trkpt lat="48.71168" lon="1.99292">
        <ele>145</ele>
        <time>2017-08-20T12:46:51Z</time>
      </trkpt>
      <trkpt lat="48.7117" lon="1.99288">
        <ele>136</ele>
        <time>2017-08-20T12:46:51Z</time>
      </trkpt>
      <trkpt lat="48.71173" lon="1.99286">
        <ele>136</ele>
        <time>2017-08-20T12:47:11Z</time>
      </trkpt>
      <trkpt lat="48.71175" lon="1.99282">
        <ele>136</ele>
        <time>2017-08-20T12:47:11Z</time>
      </trkpt>
      <trkpt lat="48.71176" lon="1.99282">
        <ele>136</ele>
        <time>2017-08-20T12:47:11Z</time>
      </trkpt>
      <trkpt lat="48.71181" lon="1.99282">
        <ele>136</ele>
        <time>2017-08-20T12:47:11Z</time>
      </trkpt>
      <trkpt lat="48.71184" lon="1.9928">
        <ele>136</ele>
        <time>2017-08-20T12:47:11Z</time>
      </trkpt>
      <trkpt lat="48.71187" lon="1.99281">
        <ele>136</ele>
        <time>2017-08-20T12:47:27Z</time>
      </trkpt>
      <trkpt lat="48.71192" lon="1.99281">
        <ele>136</ele>
        <time>2017-08-20T12:47:27Z</time>
      </trkpt>
      <trkpt lat="48.71194" lon="1.99277">
        <ele>136</ele>
        <time>2017-08-20T12:47:27Z</time>
      </trkpt>
      <trkpt lat="48.71197" lon="1.99273">
        <ele>136</ele>
        <time>2017-08-20T12:47:27Z</time>
      </trkpt>
      <trkpt lat="48.71197" lon="1.99274">
        <ele>136</ele>
        <time>2017-08-20T12:47:43Z</time>
      </trkpt>
      <trkpt lat="48.712" lon="1.99271">
        <ele>136</ele>
        <time>2017-08-20T12:47:43Z</time>
      </trkpt>
      <trkpt lat="48.71206" lon="1.99272">
        <ele>136</ele>
        <time>2017-08-20T12:47:43Z</time>
      </trkpt>
      <trkpt lat="48.71212" lon="1.99266">
        <ele>161</ele>
        <time>2017-08-20T12:47:43Z</time>
      </trkpt>
      <trkpt lat="48.71217" lon="1.99261">
        <ele>161</ele>
        <time>2017-08-20T12:47:59Z</time>
      </trkpt>
      <trkpt lat="48.71221" lon="1.99259">
        <ele>161</ele>
        <time>2017-08-20T12:47:59Z</time>
      </trkpt>
      <trkpt lat="48.71225" lon="1.99255">
        <ele>161</ele>
        <time>2017-08-20T12:47:59Z</time>
      </trkpt>
      <trkpt lat="48.71228" lon="1.99251">
        <ele>161</ele>
        <time>2017-08-20T12:47:59Z</time>
      </trkpt>
      <trkpt lat="48.71234" lon="1.99244">
        <ele>161</ele>
        <time>2017-08-20T12:48:23Z</time>
      </trkpt>
      <trkpt lat="48.71235" lon="1.99244">
        <ele>161</ele>
        <time>2017-08-20T12:48:23Z</time>
      </trkpt>
      <trkpt lat="48.71237" lon="1.99238">
        <ele>161</ele>
        <time>2017-08-20T12:48:23Z</time>
      </trkpt>
      <trkpt lat="48.71238" lon="1.99237">
        <ele>161</ele>
        <time>2017-08-20T12:48:23Z</time>
      </trkpt>
      <trkpt lat="48.71239" lon="1.99234">
        <ele>161</ele>
        <time>2017-08-20T12:48:23Z</time>
      </trkpt>
      <trkpt lat="48.7124" lon="1.99231">
        <ele>161</ele>
        <time>2017-08-20T12:48:43Z</time>
      </trkpt>
      <trkpt lat="48.71243" lon="1.99236">
        <ele>161</ele>
        <time>2017-08-20T12:48:43Z</time>
      </trkpt>
      <trkpt lat="48.71243" lon="1.99239">
        <ele>161</ele>
        <time>2017-08-20T12:48:43Z</time>
      </trkpt>
      <trkpt lat="48.71244" lon="1.99243">
        <ele>161</ele>
        <time>2017-08-20T12:48:43Z</time>
      </trkpt>
      <trkpt lat="48.71245" lon="1.99243">
        <ele>161</ele>
        <time>2017-08-20T12:48:43Z</time>
      </trkpt>
      <trkpt lat="48.71247" lon="1.99246">
        <ele>161</ele>
        <time>2017-08-20T12:48:59Z</time>
      </trkpt>
      <trkpt lat="48.71248" lon="1.99251">
        <ele>161</ele>
        <time>2017-08-20T12:48:59Z</time>
      </trkpt>
      <trkpt lat="48.71249" lon="1.99256">
        <ele>161</ele>
        <time>2017-08-20T12:48:59Z</time>
      </trkpt>
      <trkpt lat="48.71247" lon="1.99262">
        <ele>161</ele>
        <time>2017-08-20T12:48:59Z</time>
      </trkpt>
      <trkpt lat="48.71247" lon="1.99264">
        <ele>161</ele>
        <time>2017-08-20T12:49:23Z</time>
      </trkpt>
      <trkpt lat="48.7125" lon="1.99266">
        <ele>161</ele>
        <time>2017-08-20T12:49:23Z</time>
      </trkpt>
      <trkpt lat="48.71252" lon="1.99268">
        <ele>161</ele>
        <time>2017-08-20T12:49:23Z</time>
      </trkpt>
      <trkpt lat="48.71254" lon="1.99269">
        <ele>161</ele>
        <time>2017-08-20T12:49:23Z</time>
      </trkpt>
      <trkpt lat="48.71258" lon="1.99275">
        <ele>161</ele>
        <time>2017-08-20T12:49:23Z</time>
      </trkpt>
      <trkpt lat="48.71262" lon="1.9928">
        <ele>161</ele>
        <time>2017-08-20T12:49:39Z</time>
      </trkpt>
      <trkpt lat="48.71266" lon="1.99283">
        <ele>161</ele>
        <time>2017-08-20T12:49:39Z</time>
      </trkpt>
      <trkpt lat="48.71272" lon="1.99287">
        <ele>161</ele>
        <time>2017-08-20T12:49:39Z</time>
      </trkpt>
      <trkpt lat="48.71276" lon="1.99291">
        <ele>161</ele>
        <time>2017-08-20T12:49:39Z</time>
      </trkpt>
      <trkpt lat="48.71284" lon="1.99299">
        <ele>169</ele>
        <time>2017-08-20T12:50:07Z</time>
      </trkpt>
      <trkpt lat="48.71285" lon="1.99301">
        <ele>169</ele>
        <time>2017-08-20T12:50:07Z</time>
      </trkpt>
      <trkpt lat="48.71289" lon="1.99302">
        <ele>169</ele>
        <time>2017-08-20T12:50:07Z</time>
      </trkpt>
      <trkpt lat="48.7129" lon="1.99305">
        <ele>169</ele>
        <time>2017-08-20T12:50:07Z</time>
      </trkpt>
      <trkpt lat="48.71294" lon="1.99312">
        <ele>172</ele>
        <time>2017-08-20T12:50:07Z</time>
      </trkpt>
      <trkpt lat="48.71298" lon="1.99313">
        <ele>172</ele>
        <time>2017-08-20T12:50:31Z</time>
      </trkpt>
      <trkpt lat="48.71298" lon="1.99316">
        <ele>172</ele>
        <time>2017-08-20T12:50:31Z</time>
      </trkpt>
      <trkpt lat="48.71298" lon="1.99321">
        <ele>172</ele>
        <time>2017-08-20T12:50:31Z</time>
      </trkpt>
      <trkpt lat="48.71299" lon="1.99326">
        <ele>172</ele>
        <time>2017-08-20T12:50:31Z</time>
      </trkpt>
      <trkpt lat="48.71301" lon="1.99331">
        <ele>172</ele>
        <time>2017-08-20T12:50:31Z</time>
      </trkpt>
      <trkpt lat="48.71303" lon="1.99333">
        <ele>172</ele>
        <time>2017-08-20T12:50:47Z</time>
      </trkpt>
      <trkpt lat="48.71307" lon="1.99333">
        <ele>172</ele>
        <time>2017-08-20T12:50:47Z</time>
      </trkpt>
      <trkpt lat="48.71312" lon="1.99332">
        <ele>172</ele>
        <time>2017-08-20T12:50:47Z</time>
      </trkpt>
      <trkpt lat="48.71315" lon="1.99338">
        <ele>172</ele>
        <time>2017-08-20T12:50:47Z</time>
      </trkpt>
      <trkpt lat="48.7132" lon="1.9934">
        <ele>172</ele>
        <time>2017-08-20T12:51:03Z</time>
      </trkpt>
      <trkpt lat="48.71323" lon="1.9934">
        <ele>172</ele>
        <time>2017-08-20T12:51:03Z</time>
      </trkpt>
      <trkpt lat="48.71325" lon="1.9934">
        <ele>172</ele>
        <time>2017-08-20T12:51:03Z</time>
      </trkpt>
      <trkpt lat="48.71329" lon="1.9934">
        <ele>172</ele>
        <time>2017-08-20T12:51:03Z</time>
      </trkpt>
      <trkpt lat="48.71332" lon="1.99341">
        <ele>172</ele>
        <time>2017-08-20T12:51:19Z</time>
      </trkpt>
      <trkpt lat="48.71336" lon="1.99345">
        <ele>172</ele>
        <time>2017-08-20T12:51:19Z</time>
      </trkpt>
      <trkpt lat="48.7134" lon="1.99347">
        <ele>172</ele>
        <time>2017-08-20T12:51:19Z</time>
      </trkpt>
      <trkpt lat="48.71342" lon="1.99347">
        <ele>172</ele>
        <time>2017-08-20T12:51:19Z</time>
      </trkpt>
      <trkpt lat="48.71344" lon="1.99348">
        <ele>172</ele>
        <time>2017-08-20T12:51:35Z</time>
      </trkpt>
      <trkpt lat="48.71347" lon="1.9935">
        <ele>172</ele>
        <time>2017-08-20T12:51:35Z</time>
      </trkpt>
      <trkpt lat="48.71352" lon="1.99356">
        <ele>172</ele>
        <time>2017-08-20T12:51:35Z</time>
      </trkpt>
      <trkpt lat="48.71358" lon="1.9936">
        <ele>172</ele>
        <time>2017-08-20T12:51:35Z</time>
      </trkpt>
      <trkpt lat="48.71361" lon="1.99363">
        <ele>172</ele>
        <time>2017-08-20T12:51:51Z</time>
      </trkpt>
      <trkpt lat="48.71363" lon="1.99363">
        <ele>172</ele>
        <time>2017-08-20T12:51:51Z</time>
      </trkpt>
      <trkpt lat="48.71369" lon="1.99365">
        <ele>172</ele>
        <time>2017-08-20T12:51:51Z</time>
      </trkpt>
      <trkpt lat="48.71374" lon="1.99366">
        <ele>172</ele>
        <time>2017-08-20T12:51:51Z</time>
      </trkpt>
      <trkpt lat="48.71377" lon="1.99368">
        <ele>165</ele>
        <time>2017-08-20T12:52:07Z</time>
      </trkpt>
      <trkpt lat="48.71383" lon="1.99366">
        <ele>165</ele>
        <time>2017-08-20T12:52:07Z</time>
      </trkpt>
      <trkpt lat="48.71387" lon="1.99367">
        <ele>165</ele>
        <time>2017-08-20T12:52:07Z</time>
      </trkpt>
      <trkpt lat="48.71391" lon="1.9937">
        <ele>165</ele>
        <time>2017-08-20T12:52:07Z</time>
      </trkpt>
      <trkpt lat="48.71397" lon="1.99376">
        <ele>167</ele>
        <time>2017-08-20T12:52:23Z</time>
      </trkpt>
      <trkpt lat="48.71401" lon="1.99381">
        <ele>167</ele>
        <time>2017-08-20T12:52:23Z</time>
      </trkpt>
      <trkpt lat="48.71405" lon="1.99384">
        <ele>167</ele>
        <time>2017-08-20T12:52:23Z</time>
      </trkpt>
      <trkpt lat="48.71406" lon="1.99388">
        <ele>167</ele>
        <time>2017-08-20T12:52:23Z</time>
      </trkpt>
      <trkpt lat="48.71408" lon="1.9939">
        <ele>167</ele>
        <time>2017-08-20T12:53:03Z</time>
      </trkpt>
      <trkpt lat="48.71408" lon="1.99389">
        <ele>167</ele>
        <time>2017-08-20T12:53:03Z</time>
      </trkpt>
      <trkpt lat="48.71411" lon="1.99389">
        <ele>167</ele>
        <time>2017-08-20T12:53:03Z</time>
      </trkpt>
      <trkpt lat="48.71413" lon="1.9939">
        <ele>167</ele>
        <time>2017-08-20T12:53:03Z</time>
      </trkpt>
      <trkpt lat="48.71416" lon="1.99393">
        <ele>167</ele>
        <time>2017-08-20T12:53:03Z</time>
      </trkpt>
      <trkpt lat="48.71422" lon="1.99397">
        <ele>167</ele>
        <time>2017-08-20T12:53:43Z</time>
      </trkpt>
      <trkpt lat="48.71422" lon="1.99397">
        <ele>167</ele>
        <time>2017-08-20T12:53:43Z</time>
      </trkpt>
      <trkpt lat="48.71422" lon="1.99398">
        <ele>167</ele>
        <time>2017-08-20T12:53:43Z</time>
      </trkpt>
      <trkpt lat="48.71425" lon="1.994">
        <ele>167</ele>
        <time>2017-08-20T12:53:43Z</time>
      </trkpt>
      <trkpt lat="48.71429" lon="1.99404">
        <ele>167</ele>
        <time>2017-08-20T12:53:43Z</time>
      </trkpt>
      <trkpt lat="48.71432" lon="1.99406">
        <ele>167</ele>
        <time>2017-08-20T12:53:59Z</time>
      </trkpt>
      <trkpt lat="48.71435" lon="1.99408">
        <ele>167</ele>
        <time>2017-08-20T12:53:59Z</time>
      </trkpt>
      <trkpt lat="48.71439" lon="1.99411">
        <ele>167</ele>
        <time>2017-08-20T12:53:59Z</time>
      </trkpt>
      <trkpt lat="48.71441" lon="1.99419">
        <ele>167</ele>
        <time>2017-08-20T12:53:59Z</time>
      </trkpt>
      <trkpt lat="48.71442" lon="1.9942">
        <ele>167</ele>
        <time>2017-08-20T12:54:59Z</time>
      </trkpt>
      <trkpt lat="48.71445" lon="1.99418">
        <ele>167</ele>
        <time>2017-08-20T12:54:59Z</time>
      </trkpt>
      <trkpt lat="48.71449" lon="1.99418">
        <ele>167</ele>
        <time>2017-08-20T12:54:59Z</time>
      </trkpt>
      <trkpt lat="48.71453" lon="1.99415">
        <ele>167</ele>
        <time>2017-08-20T12:54:59Z</time>
      </trkpt>
      <trkpt lat="48.71458" lon="1.99412">
        <ele>167</ele>
        <time>2017-08-20T12:54:59Z</time>
      </trkpt>
      <trkpt lat="48.71463" lon="1.99407">
        <ele>165</ele>
        <time>2017-08-20T12:55:15Z</time>
      </trkpt>
      <trkpt lat="48.7147" lon="1.99405">
        <ele>165</ele>
        <time>2017-08-20T12:55:15Z</time>
      </trkpt>
      <trkpt lat="48.71474" lon="1.99403">
        <ele>165</ele>
        <time>2017-08-20T12:55:15Z</time>
      </trkpt>
      <trkpt lat="48.71478" lon="1.99403">
        <ele>165</ele>
        <time>2017-08-20T12:55:15Z</time>
      </trkpt>
      <trkpt lat="48.71475" lon="1.99395">
        <ele>165</ele>
        <time>2017-08-20T12:59:59Z</time>
      </trkpt>
      <trkpt lat="48.71476" lon="1.99394">
        <ele>165</ele>
        <time>2017-08-20T12:59:59Z</time>
      </trkpt>
      <trkpt lat="48.71475" lon="1.99392">
        <ele>165</ele>
        <time>2017-08-20T12:59:59Z</time>
      </trkpt>
      <trkpt lat="48.71474" lon="1.99389">
        <ele>165</ele>
        <time>2017-08-20T12:59:59Z</time>
      </trkpt>
      <trkpt lat="48.71473" lon="1.99388">
        <ele>165</ele>
        <time>2017-08-20T12:59:59Z</time>
      </trkpt>
      <trkpt lat="48.7148" lon="1.99394">
        <ele>165</ele>
        <time>2017-08-20T13:03:43Z</time>
      </trkpt>
      <trkpt lat="48.7148" lon="1.99395">
        <ele>165</ele>
        <time>2017-08-20T13:03:43Z</time>
      </trkpt>
      <trkpt lat="48.7148" lon="1.99394">
        <ele>165</ele>
        <time>2017-08-20T13:03:43Z</time>
      </trkpt>
      <trkpt lat="48.7148" lon="1.99393">
        <ele>165</ele>
        <time>2017-08-20T13:03:43Z</time>
      </trkpt>
      <trkpt lat="48.71481" lon="1.99392">
        <ele>165</ele>
        <time>2017-08-20T13:03:43Z</time>
      </trkpt>
      <trkpt lat="48.71483" lon="1.99388">
        <ele>165</ele>
        <time>2017-08-20T13:05:31Z</time>
      </trkpt>
      <trkpt lat="48.71482" lon="1.99388">
        <ele>165</ele>
        <time>2017-08-20T13:05:31Z</time>
      </trkpt>
      <trkpt lat="48.71478" lon="1.9939">
        <ele>165</ele>
        <time>2017-08-20T13:05:31Z</time>
      </trkpt>
      <trkpt lat="48.71477" lon="1.99391">
        <ele>165</ele>
        <time>2017-08-20T13:05:31Z</time>
      </trkpt>
      <trkpt lat="48.71474" lon="1.99389">
        <ele>165</ele>
        <time>2017-08-20T13:05:31Z</time>
      </trkpt>
      <trkpt lat="48.71473" lon="1.994">
        <ele>165</ele>
        <time>2017-08-20T13:16:19Z</time>
      </trkpt>
      <trkpt lat="48.71471" lon="1.99401">
        <ele>165</ele>
        <time>2017-08-20T13:16:19Z</time>
      </trkpt>
      <trkpt lat="48.71471" lon="1.99401">
        <ele>165</ele>
        <time>2017-08-20T13:16:19Z</time>
      </trkpt>
      <trkpt lat="48.71471" lon="1.99401">
        <ele>165</ele>
        <time>2017-08-20T13:16:19Z</time>
      </trkpt>
      <trkpt lat="48.7147" lon="1.99403">
        <ele>165</ele>
        <time>2017-08-20T13:16:19Z</time>
      </trkpt>
      <trkpt lat="48.71479" lon="1.99401">
        <ele>165</ele>
        <time>2017-08-20T13:17:15Z</time>
      </trkpt>
      <trkpt lat="48.71479" lon="1.99402">
        <ele>165</ele>
        <time>2017-08-20T13:17:15Z</time>
      </trkpt>
      <trkpt lat="48.7148" lon="1.99402">
        <ele>165</ele>
        <time>2017-08-20T13:17:15Z</time>
      </trkpt>
      <trkpt lat="48.7148" lon="1.99403">
        <ele>165</ele>
        <time>2017-08-20T13:17:15Z</time>
      </trkpt>
      <trkpt lat="48.71481" lon="1.99402">
        <ele>165</ele>
        <time>2017-08-20T13:17:15Z</time>
      </trkpt>
      <trkpt lat="48.71473" lon="1.99401">
        <ele>165</ele>
        <time>2017-08-20T13:17:55Z</time>
      </trkpt>
      <trkpt lat="48.71473" lon="1.99402">
        <ele>165</ele>
        <time>2017-08-20T13:17:55Z</time>
      </trkpt>
      <trkpt lat="48.71473" lon="1.99403">
        <ele>165</ele>
        <time>2017-08-20T13:17:55Z</time>
      </trkpt>
      <trkpt lat="48.71471" lon="1.99405">
        <ele>165</ele>
        <time>2017-08-20T13:17:55Z</time>
      </trkpt>
      <trkpt lat="48.71471" lon="1.99405">
        <ele>165</ele>
        <time>2017-08-20T13:17:55Z</time>
      </trkpt>
      <trkpt lat="48.71475" lon="1.99395">
        <ele>165</ele>
        <time>2017-08-20T13:20:19Z</time>
      </trkpt>
      <trkpt lat="48.71476" lon="1.99394">
        <ele>165</ele>
        <time>2017-08-20T13:20:19Z</time>
      </trkpt>
      <trkpt lat="48.71476" lon="1.99394">
        <ele>165</ele>
        <time>2017-08-20T13:20:19Z</time>
      </trkpt>
      <trkpt lat="48.71476" lon="1.99394">
        <ele>165</ele>
        <time>2017-08-20T13:20:19Z</time>
      </trkpt>
      <trkpt lat="48.71477" lon="1.99393">
        <ele>165</ele>
        <time>2017-08-20T13:20:19Z</time>
      </trkpt>
      <trkpt lat="48.71475" lon="1.99399">
        <ele>165</ele>
        <time>2017-08-20T13:25:47Z</time>
      </trkpt>
      <trkpt lat="48.71475" lon="1.99402">
        <ele>165</ele>
        <time>2017-08-20T13:25:47Z</time>
      </trkpt>
      <trkpt lat="48.71475" lon="1.99403">
        <ele>165</ele>
        <time>2017-08-20T13:25:47Z</time>
      </trkpt>
      <trkpt lat="48.71478" lon="1.99403">
        <ele>165</ele>
        <time>2017-08-20T13:25:47Z</time>
      </trkpt>
      <trkpt lat="48.71482" lon="1.99404">
        <ele>165</ele>
        <time>2017-08-20T13:25:47Z</time>
      </trkpt>
      <trkpt lat="48.71475" lon="1.99399">
        <ele>165</ele>
        <time>2017-08-20T13:31:51Z</time>
      </trkpt>
      <trkpt lat="48.71474" lon="1.99399">
        <ele>165</ele>
        <time>2017-08-20T13:31:51Z</time>
      </trkpt>
      <trkpt lat="48.71474" lon="1.99399">
        <ele>165</ele>
        <time>2017-08-20T13:31:51Z</time>
      </trkpt>
      <trkpt lat="48.71474" lon="1.99399">
        <ele>165</ele>
        <time>2017-08-20T13:31:51Z</time>
      </trkpt>
      <trkpt lat="48.71473" lon="1.99399">
        <ele>165</ele>
        <time>2017-08-20T13:31:51Z</time>
      </trkpt>
      <trkpt lat="48.71472" lon="1.99399">
        <ele>165</ele>
        <time>2017-08-20T13:47:47Z</time>
      </trkpt>
      <trkpt lat="48.71469" lon="1.99402">
        <ele>165</ele>
        <time>2017-08-20T13:47:47Z</time>
      </trkpt>
      <trkpt lat="48.71466" lon="1.99403">
        <ele>165</ele>
        <time>2017-08-20T13:47:47Z</time>
      </trkpt>
      <trkpt lat="48.71464" lon="1.99404">
        <ele>165</ele>
        <time>2017-08-20T13:47:47Z</time>
      </trkpt>
      <trkpt lat="48.71462" lon="1.99405">
        <ele>165</ele>
        <time>2017-08-20T13:47:47Z</time>
      </trkpt>
      <trkpt lat="48.71458" lon="1.99406">
        <ele>167</ele>
        <time>2017-08-20T13:48:11Z</time>
      </trkpt>
      <trkpt lat="48.71456" lon="1.99407">
        <ele>167</ele>
        <time>2017-08-20T13:48:11Z</time>
      </trkpt>
      <trkpt lat="48.71454" lon="1.99407">
        <ele>167</ele>
        <time>2017-08-20T13:48:11Z</time>
      </trkpt>
      <trkpt lat="48.71453" lon="1.99407">
        <ele>167</ele>
        <time>2017-08-20T13:48:11Z</time>
      </trkpt>
      <trkpt lat="48.7145" lon="1.99409">
        <ele>167</ele>
        <time>2017-08-20T13:48:11Z</time>
      </trkpt>
      <trkpt lat="48.71448" lon="1.99413">
        <ele>167</ele>
        <time>2017-08-20T13:48:31Z</time>
      </trkpt>
      <trkpt lat="48.71446" lon="1.99414">
        <ele>167</ele>
        <time>2017-08-20T13:48:31Z</time>
      </trkpt>
      <trkpt lat="48.71443" lon="1.99416">
        <ele>167</ele>
        <time>2017-08-20T13:48:31Z</time>
      </trkpt>
      <trkpt lat="48.71441" lon="1.99419">
        <ele>167</ele>
        <time>2017-08-20T13:48:31Z</time>
      </trkpt>
      <trkpt lat="48.7144" lon="1.99422">
        <ele>167</ele>
        <time>2017-08-20T13:48:31Z</time>
      </trkpt>
      <trkpt lat="48.7144" lon="1.99423">
        <ele>167</ele>
        <time>2017-08-20T13:48:51Z</time>
      </trkpt>
      <trkpt lat="48.71437" lon="1.99422">
        <ele>167</ele>
        <time>2017-08-20T13:48:51Z</time>
      </trkpt>
      <trkpt lat="48.71434" lon="1.99421">
        <ele>167</ele>
        <time>2017-08-20T13:48:51Z</time>
      </trkpt>
      <trkpt lat="48.71431" lon="1.99419">
        <ele>167</ele>
        <time>2017-08-20T13:48:51Z</time>
      </trkpt>
      <trkpt lat="48.71429" lon="1.99418">
        <ele>167</ele>
        <time>2017-08-20T13:48:51Z</time>
      </trkpt>
      <trkpt lat="48.71426" lon="1.99418">
        <ele>167</ele>
        <time>2017-08-20T13:49:15Z</time>
      </trkpt>
      <trkpt lat="48.71425" lon="1.99417">
        <ele>167</ele>
        <time>2017-08-20T13:49:15Z</time>
      </trkpt>
      <trkpt lat="48.71423" lon="1.99419">
        <ele>167</ele>
        <time>2017-08-20T13:49:15Z</time>
      </trkpt>
      <trkpt lat="48.71421" lon="1.99419">
        <ele>167</ele>
        <time>2017-08-20T13:49:15Z</time>
      </trkpt>
      <trkpt lat="48.71419" lon="1.99419">
        <ele>167</ele>
        <time>2017-08-20T13:49:15Z</time>
      </trkpt>
      <trkpt lat="48.71413" lon="1.99416">
        <ele>167</ele>
        <time>2017-08-20T13:49:35Z</time>
      </trkpt>
      <trkpt lat="48.7141" lon="1.99416">
        <ele>167</ele>
        <time>2017-08-20T13:49:35Z</time>
      </trkpt>
      <trkpt lat="48.71406" lon="1.99415">
        <ele>167</ele>
        <time>2017-08-20T13:49:35Z</time>
      </trkpt>
      <trkpt lat="48.71405" lon="1.99416">
        <ele>167</ele>
        <time>2017-08-20T13:49:35Z</time>
      </trkpt>
      <trkpt lat="48.71397" lon="1.99419">
        <ele>167</ele>
        <time>2017-08-20T13:49:35Z</time>
      </trkpt>
      <trkpt lat="48.71394" lon="1.99421">
        <ele>167</ele>
        <time>2017-08-20T13:49:51Z</time>
      </trkpt>
      <trkpt lat="48.7139" lon="1.99423">
        <ele>167</ele>
        <time>2017-08-20T13:49:51Z</time>
      </trkpt>
      <trkpt lat="48.71386" lon="1.99426">
        <ele>167</ele>
        <time>2017-08-20T13:49:51Z</time>
      </trkpt>
      <trkpt lat="48.71385" lon="1.99425">
        <ele>167</ele>
        <time>2017-08-20T13:49:51Z</time>
      </trkpt>
      <trkpt lat="48.71383" lon="1.99427">
        <ele>167</ele>
        <time>2017-08-20T13:50:07Z</time>
      </trkpt>
      <trkpt lat="48.71378" lon="1.9943">
        <ele>167</ele>
        <time>2017-08-20T13:50:07Z</time>
      </trkpt>
      <trkpt lat="48.71375" lon="1.9943">
        <ele>175</ele>
        <time>2017-08-20T13:50:07Z</time>
      </trkpt>
      <trkpt lat="48.71373" lon="1.99429">
        <ele>175</ele>
        <time>2017-08-20T13:50:07Z</time>
      </trkpt>
      <trkpt lat="48.71371" lon="1.9943">
        <ele>175</ele>
        <time>2017-08-20T13:50:23Z</time>
      </trkpt>
      <trkpt lat="48.71367" lon="1.9943">
        <ele>175</ele>
        <time>2017-08-20T13:50:23Z</time>
      </trkpt>
      <trkpt lat="48.71362" lon="1.99429">
        <ele>175</ele>
        <time>2017-08-20T13:50:23Z</time>
      </trkpt>
      <trkpt lat="48.71357" lon="1.99431">
        <ele>175</ele>
        <time>2017-08-20T13:50:23Z</time>
      </trkpt>
      <trkpt lat="48.71353" lon="1.99433">
        <ele>175</ele>
        <time>2017-08-20T13:50:39Z</time>
      </trkpt>
      <trkpt lat="48.7134" lon="1.99442">
        <ele>175</ele>
        <time>2017-08-20T13:50:39Z</time>
      </trkpt>
      <trkpt lat="48.71338" lon="1.99448">
        <ele>175</ele>
        <time>2017-08-20T13:50:39Z</time>
      </trkpt>
      <trkpt lat="48.71331" lon="1.99456">
        <ele>175</ele>
        <time>2017-08-20T13:50:39Z</time>
      </trkpt>
      <trkpt lat="48.71325" lon="1.99462">
        <ele>175</ele>
        <time>2017-08-20T13:50:55Z</time>
      </trkpt>
      <trkpt lat="48.71321" lon="1.99464">
        <ele>175</ele>
        <time>2017-08-20T13:50:55Z</time>
      </trkpt>
      <trkpt lat="48.71318" lon="1.99468">
        <ele>175</ele>
        <time>2017-08-20T13:50:55Z</time>
      </trkpt>
      <trkpt lat="48.71312" lon="1.99475">
        <ele>175</ele>
        <time>2017-08-20T13:50:55Z</time>
      </trkpt>
      <trkpt lat="48.71304" lon="1.99481">
        <ele>175</ele>
        <time>2017-08-20T13:51:11Z</time>
      </trkpt>
      <trkpt lat="48.71299" lon="1.99487">
        <ele>175</ele>
        <time>2017-08-20T13:51:11Z</time>
      </trkpt>
      <trkpt lat="48.71295" lon="1.9949">
        <ele>175</ele>
        <time>2017-08-20T13:51:11Z</time>
      </trkpt>
      <trkpt lat="48.71292" lon="1.9949">
        <ele>175</ele>
        <time>2017-08-20T13:51:11Z</time>
      </trkpt>
      <trkpt lat="48.71288" lon="1.9949">
        <ele>176</ele>
        <time>2017-08-20T13:51:27Z</time>
      </trkpt>
      <trkpt lat="48.71284" lon="1.99496">
        <ele>176</ele>
        <time>2017-08-20T13:51:27Z</time>
      </trkpt>
      <trkpt lat="48.71281" lon="1.99498">
        <ele>176</ele>
        <time>2017-08-20T13:51:27Z</time>
      </trkpt>
      <trkpt lat="48.71278" lon="1.99501">
        <ele>176</ele>
        <time>2017-08-20T13:51:27Z</time>
      </trkpt>
      <trkpt lat="48.71274" lon="1.99509">
        <ele>176</ele>
        <time>2017-08-20T13:51:43Z</time>
      </trkpt>
      <trkpt lat="48.71267" lon="1.99517">
        <ele>176</ele>
        <time>2017-08-20T13:51:43Z</time>
      </trkpt>
      <trkpt lat="48.71264" lon="1.9952">
        <ele>176</ele>
        <time>2017-08-20T13:51:43Z</time>
      </trkpt>
      <trkpt lat="48.71256" lon="1.99534">
        <ele>176</ele>
        <time>2017-08-20T13:51:43Z</time>
      </trkpt>
      <trkpt lat="48.71251" lon="1.99539">
        <ele>176</ele>
        <time>2017-08-20T13:51:59Z</time>
      </trkpt>
      <trkpt lat="48.71248" lon="1.99544">
        <ele>175</ele>
        <time>2017-08-20T13:51:59Z</time>
      </trkpt>
      <trkpt lat="48.71244" lon="1.99552">
        <ele>175</ele>
        <time>2017-08-20T13:51:59Z</time>
      </trkpt>
      <trkpt lat="48.7124" lon="1.99555">
        <ele>175</ele>
        <time>2017-08-20T13:51:59Z</time>
      </trkpt>
      <trkpt lat="48.71234" lon="1.99564">
        <ele>175</ele>
        <time>2017-08-20T13:52:15Z</time>
      </trkpt>
      <trkpt lat="48.71228" lon="1.99569">
        <ele>175</ele>
        <time>2017-08-20T13:52:15Z</time>
      </trkpt>
      <trkpt lat="48.71221" lon="1.99576">
        <ele>175</ele>
        <time>2017-08-20T13:52:15Z</time>
      </trkpt>
      <trkpt lat="48.71218" lon="1.99581">
        <ele>175</ele>
        <time>2017-08-20T13:52:15Z</time>
      </trkpt>
      <trkpt lat="48.71213" lon="1.99583">
        <ele>175</ele>
        <time>2017-08-20T13:52:31Z</time>
      </trkpt>
      <trkpt lat="48.71211" lon="1.99585">
        <ele>175</ele>
        <time>2017-08-20T13:52:31Z</time>
      </trkpt>
      <trkpt lat="48.71207" lon="1.99589">
        <ele>171</ele>
        <time>2017-08-20T13:52:31Z</time>
      </trkpt>
      <trkpt lat="48.71202" lon="1.99596">
        <ele>171</ele>
        <time>2017-08-20T13:52:31Z</time>
      </trkpt>
      <trkpt lat="48.71197" lon="1.99599">
        <ele>171</ele>
        <time>2017-08-20T13:52:47Z</time>
      </trkpt>
      <trkpt lat="48.71193" lon="1.99603">
        <ele>171</ele>
        <time>2017-08-20T13:52:47Z</time>
      </trkpt>
      <trkpt lat="48.7119" lon="1.99607">
        <ele>171</ele>
        <time>2017-08-20T13:52:47Z</time>
      </trkpt>
      <trkpt lat="48.71185" lon="1.99609">
        <ele>171</ele>
        <time>2017-08-20T13:52:47Z</time>
      </trkpt>
      <trkpt lat="48.71182" lon="1.99612">
        <ele>171</ele>
        <time>2017-08-20T13:53:03Z</time>
      </trkpt>
      <trkpt lat="48.71178" lon="1.9962">
        <ele>171</ele>
        <time>2017-08-20T13:53:03Z</time>
      </trkpt>
      <trkpt lat="48.71174" lon="1.99625">
        <ele>174</ele>
        <time>2017-08-20T13:53:03Z</time>
      </trkpt>
      <trkpt lat="48.71169" lon="1.99631">
        <ele>174</ele>
        <time>2017-08-20T13:53:03Z</time>
      </trkpt>
      <trkpt lat="48.71165" lon="1.99633">
        <ele>174</ele>
        <time>2017-08-20T13:53:19Z</time>
      </trkpt>
      <trkpt lat="48.71161" lon="1.99639">
        <ele>174</ele>
        <time>2017-08-20T13:53:19Z</time>
      </trkpt>
      <trkpt lat="48.71158" lon="1.99642">
        <ele>174</ele>
        <time>2017-08-20T13:53:19Z</time>
      </trkpt>
      <trkpt lat="48.71154" lon="1.99648">
        <ele>174</ele>
        <time>2017-08-20T13:53:19Z</time>
      </trkpt>
      <trkpt lat="48.71149" lon="1.99652">
        <ele>174</ele>
        <time>2017-08-20T13:53:35Z</time>
      </trkpt>
      <trkpt lat="48.71143" lon="1.99656">
        <ele>174</ele>
        <time>2017-08-20T13:53:35Z</time>
      </trkpt>
      <trkpt lat="48.71139" lon="1.99663">
        <ele>174</ele>
        <time>2017-08-20T13:53:35Z</time>
      </trkpt>
      <trkpt lat="48.71134" lon="1.99666">
        <ele>174</ele>
        <time>2017-08-20T13:53:35Z</time>
      </trkpt>
      <trkpt lat="48.7113" lon="1.99671">
        <ele>174</ele>
        <time>2017-08-20T13:53:51Z</time>
      </trkpt>
      <trkpt lat="48.71127" lon="1.99678">
        <ele>174</ele>
        <time>2017-08-20T13:53:51Z</time>
      </trkpt>
      <trkpt lat="48.71124" lon="1.99685">
        <ele>170</ele>
        <time>2017-08-20T13:53:51Z</time>
      </trkpt>
      <trkpt lat="48.71121" lon="1.99688">
        <ele>170</ele>
        <time>2017-08-20T13:53:51Z</time>
      </trkpt>
      <trkpt lat="48.71121" lon="1.99689">
        <ele>170</ele>
        <time>2017-08-20T13:54:07Z</time>
      </trkpt>
      <trkpt lat="48.71117" lon="1.99692">
        <ele>170</ele>
        <time>2017-08-20T13:54:07Z</time>
      </trkpt>
      <trkpt lat="48.71116" lon="1.99697">
        <ele>170</ele>
        <time>2017-08-20T13:54:07Z</time>
      </trkpt>
      <trkpt lat="48.71111" lon="1.99707">
        <ele>170</ele>
        <time>2017-08-20T13:54:07Z</time>
      </trkpt>
      <trkpt lat="48.71105" lon="1.9972">
        <ele>174</ele>
        <time>2017-08-20T13:54:23Z</time>
      </trkpt>
      <trkpt lat="48.711" lon="1.99732">
        <ele>174</ele>
        <time>2017-08-20T13:54:23Z</time>
      </trkpt>
      <trkpt lat="48.71098" lon="1.99736">
        <ele>174</ele>
        <time>2017-08-20T13:54:23Z</time>
      </trkpt>
      <trkpt lat="48.71095" lon="1.99744">
        <ele>174</ele>
        <time>2017-08-20T13:54:23Z</time>
      </trkpt>
      <trkpt lat="48.71092" lon="1.99752">
        <ele>174</ele>
        <time>2017-08-20T13:54:39Z</time>
      </trkpt>
      <trkpt lat="48.71088" lon="1.99755">
        <ele>174</ele>
        <time>2017-08-20T13:54:39Z</time>
      </trkpt>
      <trkpt lat="48.71085" lon="1.99764">
        <ele>174</ele>
        <time>2017-08-20T13:54:39Z</time>
      </trkpt>
      <trkpt lat="48.7108" lon="1.99768">
        <ele>174</ele>
        <time>2017-08-20T13:54:39Z</time>
      </trkpt>
      <trkpt lat="48.71077" lon="1.99772">
        <ele>174</ele>
        <time>2017-08-20T13:54:55Z</time>
      </trkpt>
      <trkpt lat="48.71069" lon="1.99781">
        <ele>174</ele>
        <time>2017-08-20T13:54:55Z</time>
      </trkpt>
      <trkpt lat="48.71066" lon="1.99784">
        <ele>174</ele>
        <time>2017-08-20T13:54:55Z</time>
      </trkpt>
      <trkpt lat="48.71062" lon="1.99788">
        <ele>174</ele>
        <time>2017-08-20T13:54:55Z</time>
      </trkpt>
      <trkpt lat="48.71058" lon="1.99792">
        <ele>177</ele>
        <time>2017-08-20T13:55:11Z</time>
      </trkpt>
      <trkpt lat="48.71056" lon="1.998">
        <ele>177</ele>
        <time>2017-08-20T13:55:11Z</time>
      </trkpt>
      <trkpt lat="48.71052" lon="1.99803">
        <ele>177</ele>
        <time>2017-08-20T13:55:11Z</time>
      </trkpt>
      <trkpt lat="48.71048" lon="1.99806">
        <ele>177</ele>
        <time>2017-08-20T13:55:11Z</time>
      </trkpt>
      <trkpt lat="48.71044" lon="1.99813">
        <ele>177</ele>
        <time>2017-08-20T13:55:31Z</time>
      </trkpt>
      <trkpt lat="48.71041" lon="1.99818">
        <ele>172</ele>
        <time>2017-08-20T13:55:31Z</time>
      </trkpt>
      <trkpt lat="48.7104" lon="1.99819">
        <ele>172</ele>
        <time>2017-08-20T13:55:31Z</time>
      </trkpt>
      <trkpt lat="48.7104" lon="1.99821">
        <ele>172</ele>
        <time>2017-08-20T13:55:31Z</time>
      </trkpt>
      <trkpt lat="48.71035" lon="1.99823">
        <ele>172</ele>
        <time>2017-08-20T13:55:31Z</time>
      </trkpt>
      <trkpt lat="48.71029" lon="1.9983">
        <ele>172</ele>
        <time>2017-08-20T13:55:47Z</time>
      </trkpt>
      <trkpt lat="48.71024" lon="1.99842">
        <ele>172</ele>
        <time>2017-08-20T13:55:47Z</time>
      </trkpt>
      <trkpt lat="48.71022" lon="1.99847">
        <ele>172</ele>
        <time>2017-08-20T13:55:47Z</time>
      </trkpt>
      <trkpt lat="48.71019" lon="1.99854">
        <ele>172</ele>
        <time>2017-08-20T13:55:47Z</time>
      </trkpt>
      <trkpt lat="48.71018" lon="1.9986">
        <ele>172</ele>
        <time>2017-08-20T13:56:03Z</time>
      </trkpt>
      <trkpt lat="48.71014" lon="1.99865">
        <ele>172</ele>
        <time>2017-08-20T13:56:03Z</time>
      </trkpt>
      <trkpt lat="48.71009" lon="1.99871">
        <ele>172</ele>
        <time>2017-08-20T13:56:03Z</time>
      </trkpt>
      <trkpt lat="48.71007" lon="1.99878">
        <ele>175</ele>
        <time>2017-08-20T13:56:03Z</time>
      </trkpt>
      <trkpt lat="48.71004" lon="1.99884">
        <ele>175</ele>
        <time>2017-08-20T13:56:19Z</time>
      </trkpt>
      <trkpt lat="48.71001" lon="1.99888">
        <ele>175</ele>
        <time>2017-08-20T13:56:19Z</time>
      </trkpt>
      <trkpt lat="48.70998" lon="1.99892">
        <ele>175</ele>
        <time>2017-08-20T13:56:19Z</time>
      </trkpt>
      <trkpt lat="48.70995" lon="1.99897">
        <ele>175</ele>
        <time>2017-08-20T13:56:19Z</time>
      </trkpt>
      <trkpt lat="48.70991" lon="1.99905">
        <ele>175</ele>
        <time>2017-08-20T13:56:35Z</time>
      </trkpt>
      <trkpt lat="48.70986" lon="1.99914">
        <ele>175</ele>
        <time>2017-08-20T13:56:35Z</time>
      </trkpt>
      <trkpt lat="48.70982" lon="1.99924">
        <ele>175</ele>
        <time>2017-08-20T13:56:35Z</time>
      </trkpt>
      <trkpt lat="48.70975" lon="1.99931">
        <ele>175</ele>
        <time>2017-08-20T13:56:35Z</time>
      </trkpt>
      <trkpt lat="48.70973" lon="1.99938">
        <ele>175</ele>
        <time>2017-08-20T13:56:51Z</time>
      </trkpt>
      <trkpt lat="48.7097" lon="1.99943">
        <ele>175</ele>
        <time>2017-08-20T13:56:51Z</time>
      </trkpt>
      <trkpt lat="48.70968" lon="1.99952">
        <ele>175</ele>
        <time>2017-08-20T13:56:51Z</time>
      </trkpt>
      <trkpt lat="48.70969" lon="1.99962">
        <ele>176</ele>
        <time>2017-08-20T13:56:51Z</time>
      </trkpt>
      <trkpt lat="48.70966" lon="1.99965">
        <ele>176</ele>
        <time>2017-08-20T13:57:07Z</time>
      </trkpt>
      <trkpt lat="48.70963" lon="1.99971">
        <ele>176</ele>
        <time>2017-08-20T13:57:07Z</time>
      </trkpt>
      <trkpt lat="48.70958" lon="1.99974">
        <ele>176</ele>
        <time>2017-08-20T13:57:07Z</time>
      </trkpt>
      <trkpt lat="48.70955" lon="1.99979">
        <ele>175</ele>
        <time>2017-08-20T13:57:07Z</time>
      </trkpt>
      <trkpt lat="48.70951" lon="1.99983">
        <ele>175</ele>
        <time>2017-08-20T13:57:23Z</time>
      </trkpt>
      <trkpt lat="48.70948" lon="1.99987">
        <ele>175</ele>
        <time>2017-08-20T13:57:23Z</time>
      </trkpt>
      <trkpt lat="48.70942" lon="1.99995">
        <ele>175</ele>
        <time>2017-08-20T13:57:23Z</time>
      </trkpt>
      <trkpt lat="48.70938" lon="2.00002">
        <ele>175</ele>
        <time>2017-08-20T13:57:23Z</time>
      </trkpt>
      <trkpt lat="48.70935" lon="2.00006">
        <ele>175</ele>
        <time>2017-08-20T13:57:39Z</time>
      </trkpt>
      <trkpt lat="48.70933" lon="2.00011">
        <ele>175</ele>
        <time>2017-08-20T13:57:39Z</time>
      </trkpt>
      <trkpt lat="48.7093" lon="2.00012">
        <ele>175</ele>
        <time>2017-08-20T13:57:39Z</time>
      </trkpt>
      <trkpt lat="48.70925" lon="2.00019">
        <ele>175</ele>
        <time>2017-08-20T13:57:39Z</time>
      </trkpt>
      <trkpt lat="48.70924" lon="2.00023">
        <ele>175</ele>
        <time>2017-08-20T13:57:55Z</time>
      </trkpt>
      <trkpt lat="48.70922" lon="2.0003">
        <ele>175</ele>
        <time>2017-08-20T13:57:55Z</time>
      </trkpt>
      <trkpt lat="48.70916" lon="2.0004">
        <ele>175</ele>
        <time>2017-08-20T13:57:55Z</time>
      </trkpt>
      <trkpt lat="48.70911" lon="2.00048">
        <ele>175</ele>
        <time>2017-08-20T13:57:55Z</time>
      </trkpt>
      <trkpt lat="48.70907" lon="2.00057">
        <ele>175</ele>
        <time>2017-08-20T13:58:11Z</time>
      </trkpt>
      <trkpt lat="48.70905" lon="2.00062">
        <ele>175</ele>
        <time>2017-08-20T13:58:11Z</time>
      </trkpt>
      <trkpt lat="48.70902" lon="2.00069">
        <ele>175</ele>
        <time>2017-08-20T13:58:11Z</time>
      </trkpt>
      <trkpt lat="48.70899" lon="2.00072">
        <ele>175</ele>
        <time>2017-08-20T13:58:11Z</time>
      </trkpt>
      <trkpt lat="48.70898" lon="2.00078">
        <ele>175</ele>
        <time>2017-08-20T13:58:27Z</time>
      </trkpt>
      <trkpt lat="48.70895" lon="2.00082">
        <ele>175</ele>
        <time>2017-08-20T13:58:27Z</time>
      </trkpt>
      <trkpt lat="48.70891" lon="2.00086">
        <ele>175</ele>
        <time>2017-08-20T13:58:27Z</time>
      </trkpt>
      <trkpt lat="48.70887" lon="2.0009">
        <ele>175</ele>
        <time>2017-08-20T13:58:27Z</time>
      </trkpt>
      <trkpt lat="48.70884" lon="2.00096">
        <ele>175</ele>
        <time>2017-08-20T13:58:43Z</time>
      </trkpt>
      <trkpt lat="48.70882" lon="2.00098">
        <ele>175</ele>
        <time>2017-08-20T13:58:43Z</time>
      </trkpt>
      <trkpt lat="48.70879" lon="2.00103">
        <ele>175</ele>
        <time>2017-08-20T13:58:43Z</time>
      </trkpt>
      <trkpt lat="48.70879" lon="2.00115">
        <ele>175</ele>
        <time>2017-08-20T13:58:43Z</time>
      </trkpt>
      <trkpt lat="48.70879" lon="2.00123">
        <ele>175</ele>
        <time>2017-08-20T13:58:59Z</time>
      </trkpt>
      <trkpt lat="48.7088" lon="2.0013">
        <ele>172</ele>
        <time>2017-08-20T13:58:59Z</time>
      </trkpt>
      <trkpt lat="48.70883" lon="2.00134">
        <ele>172</ele>
        <time>2017-08-20T13:58:59Z</time>
      </trkpt>
      <trkpt lat="48.70884" lon="2.00136">
        <ele>172</ele>
        <time>2017-08-20T13:58:59Z</time>
      </trkpt>
      <trkpt lat="48.70887" lon="2.0014">
        <ele>172</ele>
        <time>2017-08-20T13:59:19Z</time>
      </trkpt>
      <trkpt lat="48.7089" lon="2.00142">
        <ele>172</ele>
        <time>2017-08-20T13:59:19Z</time>
      </trkpt>
      <trkpt lat="48.70891" lon="2.00142">
        <ele>172</ele>
        <time>2017-08-20T13:59:19Z</time>
      </trkpt>
      <trkpt lat="48.70893" lon="2.00147">
        <ele>172</ele>
        <time>2017-08-20T13:59:19Z</time>
      </trkpt>
      <trkpt lat="48.70894" lon="2.00148">
        <ele>172</ele>
        <time>2017-08-20T13:59:19Z</time>
      </trkpt>
      <trkpt lat="48.70898" lon="2.0015">
        <ele>172</ele>
        <time>2017-08-20T13:59:35Z</time>
      </trkpt>
      <trkpt lat="48.70904" lon="2.00153">
        <ele>172</ele>
        <time>2017-08-20T13:59:35Z</time>
      </trkpt>
      <trkpt lat="48.70908" lon="2.00153">
        <ele>172</ele>
        <time>2017-08-20T13:59:35Z</time>
      </trkpt>
      <trkpt lat="48.70911" lon="2.00152">
        <ele>172</ele>
        <time>2017-08-20T13:59:35Z</time>
      </trkpt>
      <trkpt lat="48.70914" lon="2.00153">
        <ele>172</ele>
        <time>2017-08-20T13:59:51Z</time>
      </trkpt>
      <trkpt lat="48.70919" lon="2.00152">
        <ele>172</ele>
        <time>2017-08-20T13:59:51Z</time>
      </trkpt>
      <trkpt lat="48.70924" lon="2.00156">
        <ele>172</ele>
        <time>2017-08-20T13:59:51Z</time>
      </trkpt>
      <trkpt lat="48.70928" lon="2.00159">
        <ele>172</ele>
        <time>2017-08-20T13:59:51Z</time>
      </trkpt>
      <trkpt lat="48.70931" lon="2.00161">
        <ele>172</ele>
        <time>2017-08-20T14:00:07Z</time>
      </trkpt>
      <trkpt lat="48.70937" lon="2.00166">
        <ele>172</ele>
        <time>2017-08-20T14:00:07Z</time>
      </trkpt>
      <trkpt lat="48.70939" lon="2.00167">
        <ele>172</ele>
        <time>2017-08-20T14:00:07Z</time>
      </trkpt>
      <trkpt lat="48.70943" lon="2.0017">
        <ele>172</ele>
        <time>2017-08-20T14:00:07Z</time>
      </trkpt>
      <trkpt lat="48.70947" lon="2.0018">
        <ele>172</ele>
        <time>2017-08-20T14:00:35Z</time>
      </trkpt>
      <trkpt lat="48.70946" lon="2.0018">
        <ele>172</ele>
        <time>2017-08-20T14:00:35Z</time>
      </trkpt>
      <trkpt lat="48.70945" lon="2.00182">
        <ele>172</ele>
        <time>2017-08-20T14:00:35Z</time>
      </trkpt>
      <trkpt lat="48.70944" lon="2.00186">
        <ele>172</ele>
        <time>2017-08-20T14:00:35Z</time>
      </trkpt>
      <trkpt lat="48.70943" lon="2.00191">
        <ele>172</ele>
        <time>2017-08-20T14:00:35Z</time>
      </trkpt>
      <trkpt lat="48.70943" lon="2.00195">
        <ele>172</ele>
        <time>2017-08-20T14:00:51Z</time>
      </trkpt>
      <trkpt lat="48.70938" lon="2.00199">
        <ele>172</ele>
        <time>2017-08-20T14:00:51Z</time>
      </trkpt>
      <trkpt lat="48.70936" lon="2.00204">
        <ele>172</ele>
        <time>2017-08-20T14:00:51Z</time>
      </trkpt>
      <trkpt lat="48.70935" lon="2.00205">
        <ele>172</ele>
        <time>2017-08-20T14:00:51Z</time>
      </trkpt>
      <trkpt lat="48.70934" lon="2.00209">
        <ele>172</ele>
        <time>2017-08-20T14:01:07Z</time>
      </trkpt>
      <trkpt lat="48.70933" lon="2.00219">
        <ele>172</ele>
        <time>2017-08-20T14:01:07Z</time>
      </trkpt>
      <trkpt lat="48.70933" lon="2.00223">
        <ele>172</ele>
        <time>2017-08-20T14:01:07Z</time>
      </trkpt>
      <trkpt lat="48.70932" lon="2.00231">
        <ele>172</ele>
        <time>2017-08-20T14:01:07Z</time>
      </trkpt>
      <trkpt lat="48.7093" lon="2.00244">
        <ele>172</ele>
        <time>2017-08-20T14:01:23Z</time>
      </trkpt>
      <trkpt lat="48.7093" lon="2.00245">
        <ele>172</ele>
        <time>2017-08-20T14:01:23Z</time>
      </trkpt>
      <trkpt lat="48.70927" lon="2.00252">
        <ele>172</ele>
        <time>2017-08-20T14:01:23Z</time>
      </trkpt>
      <trkpt lat="48.70925" lon="2.00264">
        <ele>172</ele>
        <time>2017-08-20T14:01:23Z</time>
      </trkpt>
      <trkpt lat="48.70924" lon="2.00272">
        <ele>172</ele>
        <time>2017-08-20T14:01:39Z</time>
      </trkpt>
      <trkpt lat="48.70922" lon="2.00279">
        <ele>172</ele>
        <time>2017-08-20T14:01:39Z</time>
      </trkpt>
      <trkpt lat="48.70918" lon="2.00293">
        <ele>171</ele>
        <time>2017-08-20T14:01:39Z</time>
      </trkpt>
      <trkpt lat="48.70914" lon="2.00304">
        <ele>171</ele>
        <time>2017-08-20T14:01:39Z</time>
      </trkpt>
      <trkpt lat="48.70911" lon="2.00311">
        <ele>171</ele>
        <time>2017-08-20T14:01:55Z</time>
      </trkpt>
      <trkpt lat="48.7091" lon="2.00313">
        <ele>171</ele>
        <time>2017-08-20T14:01:55Z</time>
      </trkpt>
      <trkpt lat="48.70909" lon="2.00322">
        <ele>171</ele>
        <time>2017-08-20T14:01:55Z</time>
      </trkpt>
      <trkpt lat="48.70907" lon="2.00326">
        <ele>171</ele>
        <time>2017-08-20T14:01:55Z</time>
      </trkpt>
      <trkpt lat="48.70905" lon="2.0033">
        <ele>171</ele>
        <time>2017-08-20T14:02:11Z</time>
      </trkpt>
      <trkpt lat="48.70902" lon="2.00338">
        <ele>171</ele>
        <time>2017-08-20T14:02:11Z</time>
      </trkpt>
      <trkpt lat="48.709" lon="2.00342">
        <ele>171</ele>
        <time>2017-08-20T14:02:11Z</time>
      </trkpt>
      <trkpt lat="48.70899" lon="2.00348">
        <ele>171</ele>
        <time>2017-08-20T14:02:11Z</time>
      </trkpt>
      <trkpt lat="48.70897" lon="2.00354">
        <ele>171</ele>
        <time>2017-08-20T14:02:27Z</time>
      </trkpt>
      <trkpt lat="48.70897" lon="2.00359">
        <ele>171</ele>
        <time>2017-08-20T14:02:27Z</time>
      </trkpt>
      <trkpt lat="48.70895" lon="2.0037">
        <ele>171</ele>
        <time>2017-08-20T14:02:27Z</time>
      </trkpt>
      <trkpt lat="48.70894" lon="2.00374">
        <ele>171</ele>
        <time>2017-08-20T14:02:27Z</time>
      </trkpt>
      <trkpt lat="48.70893" lon="2.00377">
        <ele>172</ele>
        <time>2017-08-20T14:02:43Z</time>
      </trkpt>
      <trkpt lat="48.70895" lon="2.00383">
        <ele>172</ele>
        <time>2017-08-20T14:02:43Z</time>
      </trkpt>
      <trkpt lat="48.70893" lon="2.00397">
        <ele>172</ele>
        <time>2017-08-20T14:02:43Z</time>
      </trkpt>
      <trkpt lat="48.7089" lon="2.00411">
        <ele>172</ele>
        <time>2017-08-20T14:02:43Z</time>
      </trkpt>
      <trkpt lat="48.70888" lon="2.00418">
        <ele>172</ele>
        <time>2017-08-20T14:02:59Z</time>
      </trkpt>
      <trkpt lat="48.70888" lon="2.00425">
        <ele>172</ele>
        <time>2017-08-20T14:02:59Z</time>
      </trkpt>
      <trkpt lat="48.70886" lon="2.00435">
        <ele>172</ele>
        <time>2017-08-20T14:02:59Z</time>
      </trkpt>
      <trkpt lat="48.70885" lon="2.00441">
        <ele>172</ele>
        <time>2017-08-20T14:02:59Z</time>
      </trkpt>
      <trkpt lat="48.70886" lon="2.00445">
        <ele>172</ele>
        <time>2017-08-20T14:03:15Z</time>
      </trkpt>
      <trkpt lat="48.70889" lon="2.00452">
        <ele>172</ele>
        <time>2017-08-20T14:03:15Z</time>
      </trkpt>
      <trkpt lat="48.70893" lon="2.0046">
        <ele>174</ele>
        <time>2017-08-20T14:03:15Z</time>
      </trkpt>
      <trkpt lat="48.70896" lon="2.00464">
        <ele>174</ele>
        <time>2017-08-20T14:03:15Z</time>
      </trkpt>
      <trkpt lat="48.70899" lon="2.00469">
        <ele>174</ele>
        <time>2017-08-20T14:03:31Z</time>
      </trkpt>
      <trkpt lat="48.70902" lon="2.00479">
        <ele>174</ele>
        <time>2017-08-20T14:03:31Z</time>
      </trkpt>
      <trkpt lat="48.70905" lon="2.00487">
        <ele>174</ele>
        <time>2017-08-20T14:03:31Z</time>
      </trkpt>
      <trkpt lat="48.70906" lon="2.00496">
        <ele>174</ele>
        <time>2017-08-20T14:03:31Z</time>
      </trkpt>
      <trkpt lat="48.70907" lon="2.005">
        <ele>174</ele>
        <time>2017-08-20T14:03:47Z</time>
      </trkpt>
      <trkpt lat="48.70908" lon="2.00506">
        <ele>174</ele>
        <time>2017-08-20T14:03:47Z</time>
      </trkpt>
      <trkpt lat="48.70909" lon="2.00515">
        <ele>174</ele>
        <time>2017-08-20T14:03:47Z</time>
      </trkpt>
      <trkpt lat="48.7091" lon="2.00523">
        <ele>174</ele>
        <time>2017-08-20T14:03:47Z</time>
      </trkpt>
      <trkpt lat="48.70912" lon="2.00526">
        <ele>174</ele>
        <time>2017-08-20T14:04:03Z</time>
      </trkpt>
      <trkpt lat="48.70913" lon="2.0053">
        <ele>174</ele>
        <time>2017-08-20T14:04:03Z</time>
      </trkpt>
      <trkpt lat="48.70916" lon="2.00535">
        <ele>174</ele>
        <time>2017-08-20T14:04:03Z</time>
      </trkpt>
      <trkpt lat="48.70918" lon="2.00543">
        <ele>175</ele>
        <time>2017-08-20T14:04:03Z</time>
      </trkpt>
      <trkpt lat="48.70922" lon="2.00551">
        <ele>175</ele>
        <time>2017-08-20T14:04:19Z</time>
      </trkpt>
      <trkpt lat="48.70924" lon="2.00559">
        <ele>175</ele>
        <time>2017-08-20T14:04:19Z</time>
      </trkpt>
      <trkpt lat="48.70924" lon="2.00564">
        <ele>175</ele>
        <time>2017-08-20T14:04:19Z</time>
      </trkpt>
      <trkpt lat="48.70927" lon="2.00575">
        <ele>175</ele>
        <time>2017-08-20T14:04:19Z</time>
      </trkpt>
      <trkpt lat="48.70928" lon="2.0058">
        <ele>175</ele>
        <time>2017-08-20T14:04:35Z</time>
      </trkpt>
      <trkpt lat="48.7093" lon="2.00591">
        <ele>175</ele>
        <time>2017-08-20T14:04:35Z</time>
      </trkpt>
      <trkpt lat="48.70931" lon="2.006">
        <ele>175</ele>
        <time>2017-08-20T14:04:35Z</time>
      </trkpt>
      <trkpt lat="48.70937" lon="2.00607">
        <ele>175</ele>
        <time>2017-08-20T14:04:35Z</time>
      </trkpt>
      <trkpt lat="48.7094" lon="2.00614">
        <ele>175</ele>
        <time>2017-08-20T14:04:51Z</time>
      </trkpt>
      <trkpt lat="48.70944" lon="2.00625">
        <ele>175</ele>
        <time>2017-08-20T14:04:51Z</time>
      </trkpt>
      <trkpt lat="48.70946" lon="2.00631">
        <ele>175</ele>
        <time>2017-08-20T14:04:51Z</time>
      </trkpt>
      <trkpt lat="48.70948" lon="2.00636">
        <ele>175</ele>
        <time>2017-08-20T14:04:51Z</time>
      </trkpt>
      <trkpt lat="48.70952" lon="2.00641">
        <ele>175</ele>
        <time>2017-08-20T14:05:07Z</time>
      </trkpt>
      <trkpt lat="48.70957" lon="2.00648">
        <ele>175</ele>
        <time>2017-08-20T14:05:07Z</time>
      </trkpt>
      <trkpt lat="48.7096" lon="2.00651">
        <ele>168</ele>
        <time>2017-08-20T14:05:07Z</time>
      </trkpt>
      <trkpt lat="48.70964" lon="2.00658">
        <ele>168</ele>
        <time>2017-08-20T14:05:07Z</time>
      </trkpt>
      <trkpt lat="48.70966" lon="2.00662">
        <ele>168</ele>
        <time>2017-08-20T14:05:23Z</time>
      </trkpt>
      <trkpt lat="48.70972" lon="2.00669">
        <ele>168</ele>
        <time>2017-08-20T14:05:23Z</time>
      </trkpt>
      <trkpt lat="48.70977" lon="2.00679">
        <ele>168</ele>
        <time>2017-08-20T14:05:23Z</time>
      </trkpt>
      <trkpt lat="48.70979" lon="2.00686">
        <ele>168</ele>
        <time>2017-08-20T14:05:23Z</time>
      </trkpt>
      <trkpt lat="48.70981" lon="2.00691">
        <ele>168</ele>
        <time>2017-08-20T14:05:39Z</time>
      </trkpt>
      <trkpt lat="48.70983" lon="2.00697">
        <ele>168</ele>
        <time>2017-08-20T14:05:39Z</time>
      </trkpt>
      <trkpt lat="48.70986" lon="2.00702">
        <ele>168</ele>
        <time>2017-08-20T14:05:39Z</time>
      </trkpt>
      <trkpt lat="48.70987" lon="2.00709">
        <ele>170</ele>
        <time>2017-08-20T14:05:39Z</time>
      </trkpt>
      <trkpt lat="48.70989" lon="2.00711">
        <ele>170</ele>
        <time>2017-08-20T14:05:55Z</time>
      </trkpt>
      <trkpt lat="48.70993" lon="2.00718">
        <ele>170</ele>
        <time>2017-08-20T14:05:55Z</time>
      </trkpt>
      <trkpt lat="48.70996" lon="2.00721">
        <ele>170</ele>
        <time>2017-08-20T14:05:55Z</time>
      </trkpt>
      <trkpt lat="48.71" lon="2.00725">
        <ele>170</ele>
        <time>2017-08-20T14:05:55Z</time>
      </trkpt>
      <trkpt lat="48.71006" lon="2.00733">
        <ele>170</ele>
        <time>2017-08-20T14:06:11Z</time>
      </trkpt>
      <trkpt lat="48.71009" lon="2.00738">
        <ele>170</ele>
        <time>2017-08-20T14:06:11Z</time>
      </trkpt>
      <trkpt lat="48.7101" lon="2.00748">
        <ele>170</ele>
        <time>2017-08-20T14:06:11Z</time>
      </trkpt>
      <trkpt lat="48.71009" lon="2.00753">
        <ele>170</ele>
        <time>2017-08-20T14:06:11Z</time>
      </trkpt>
      <trkpt lat="48.71006" lon="2.00754">
        <ele>170</ele>
        <time>2017-08-20T14:06:27Z</time>
      </trkpt>
      <trkpt lat="48.71003" lon="2.00762">
        <ele>170</ele>
        <time>2017-08-20T14:06:27Z</time>
      </trkpt>
      <trkpt lat="48.70999" lon="2.0077">
        <ele>170</ele>
        <time>2017-08-20T14:06:27Z</time>
      </trkpt>
      <trkpt lat="48.70995" lon="2.00777">
        <ele>170</ele>
        <time>2017-08-20T14:06:27Z</time>
      </trkpt>
      <trkpt lat="48.70993" lon="2.00782">
        <ele>170</ele>
        <time>2017-08-20T14:06:43Z</time>
      </trkpt>
      <trkpt lat="48.70987" lon="2.00789">
        <ele>170</ele>
        <time>2017-08-20T14:06:43Z</time>
      </trkpt>
      <trkpt lat="48.70986" lon="2.00794">
        <ele>171</ele>
        <time>2017-08-20T14:06:43Z</time>
      </trkpt>
      <trkpt lat="48.70982" lon="2.00802">
        <ele>171</ele>
        <time>2017-08-20T14:06:43Z</time>
      </trkpt>
      <trkpt lat="48.70981" lon="2.00809">
        <ele>171</ele>
        <time>2017-08-20T14:06:59Z</time>
      </trkpt>
      <trkpt lat="48.70981" lon="2.00815">
        <ele>171</ele>
        <time>2017-08-20T14:06:59Z</time>
      </trkpt>
      <trkpt lat="48.70979" lon="2.00822">
        <ele>171</ele>
        <time>2017-08-20T14:06:59Z</time>
      </trkpt>
      <trkpt lat="48.70975" lon="2.0083">
        <ele>171</ele>
        <time>2017-08-20T14:06:59Z</time>
      </trkpt>
      <trkpt lat="48.70974" lon="2.00837">
        <ele>171</ele>
        <time>2017-08-20T14:07:15Z</time>
      </trkpt>
      <trkpt lat="48.7097" lon="2.00847">
        <ele>171</ele>
        <time>2017-08-20T14:07:15Z</time>
      </trkpt>
      <trkpt lat="48.70966" lon="2.0086">
        <ele>171</ele>
        <time>2017-08-20T14:07:15Z</time>
      </trkpt>
      <trkpt lat="48.70964" lon="2.00865">
        <ele>171</ele>
        <time>2017-08-20T14:07:15Z</time>
      </trkpt>
      <trkpt lat="48.70961" lon="2.00873">
        <ele>171</ele>
        <time>2017-08-20T14:07:31Z</time>
      </trkpt>
      <trkpt lat="48.70959" lon="2.0088">
        <ele>174</ele>
        <time>2017-08-20T14:07:31Z</time>
      </trkpt>
      <trkpt lat="48.70956" lon="2.00889">
        <ele>177</ele>
        <time>2017-08-20T14:07:31Z</time>
      </trkpt>
      <trkpt lat="48.70955" lon="2.00895">
        <ele>177</ele>
        <time>2017-08-20T14:07:31Z</time>
      </trkpt>
      <trkpt lat="48.70951" lon="2.00902">
        <ele>177</ele>
        <time>2017-08-20T14:07:47Z</time>
      </trkpt>
      <trkpt lat="48.70948" lon="2.00907">
        <ele>177</ele>
        <time>2017-08-20T14:07:47Z</time>
      </trkpt>
      <trkpt lat="48.70948" lon="2.00917">
        <ele>177</ele>
        <time>2017-08-20T14:07:47Z</time>
      </trkpt>
      <trkpt lat="48.70948" lon="2.00924">
        <ele>177</ele>
        <time>2017-08-20T14:07:47Z</time>
      </trkpt>
      <trkpt lat="48.70947" lon="2.00931">
        <ele>177</ele>
        <time>2017-08-20T14:08:03Z</time>
      </trkpt>
      <trkpt lat="48.70945" lon="2.00936">
        <ele>177</ele>
        <time>2017-08-20T14:08:03Z</time>
      </trkpt>
      <trkpt lat="48.70942" lon="2.00946">
        <ele>177</ele>
        <time>2017-08-20T14:08:03Z</time>
      </trkpt>
      <trkpt lat="48.7094" lon="2.00954">
        <ele>177</ele>
        <time>2017-08-20T14:08:03Z</time>
      </trkpt>
      <trkpt lat="48.70938" lon="2.00961">
        <ele>176</ele>
        <time>2017-08-20T14:08:19Z</time>
      </trkpt>
      <trkpt lat="48.70936" lon="2.00966">
        <ele>176</ele>
        <time>2017-08-20T14:08:19Z</time>
      </trkpt>
      <trkpt lat="48.70933" lon="2.00972">
        <ele>176</ele>
        <time>2017-08-20T14:08:19Z</time>
      </trkpt>
      <trkpt lat="48.70932" lon="2.00977">
        <ele>176</ele>
        <time>2017-08-20T14:08:19Z</time>
      </trkpt>
      <trkpt lat="48.70932" lon="2.00983">
        <ele>176</ele>
        <time>2017-08-20T14:08:35Z</time>
      </trkpt>
      <trkpt lat="48.70929" lon="2.00994">
        <ele>176</ele>
        <time>2017-08-20T14:08:35Z</time>
      </trkpt>
      <trkpt lat="48.70926" lon="2.01006">
        <ele>176</ele>
        <time>2017-08-20T14:08:35Z</time>
      </trkpt>
      <trkpt lat="48.70924" lon="2.01015">
        <ele>176</ele>
        <time>2017-08-20T14:08:35Z</time>
      </trkpt>
      <trkpt lat="48.70922" lon="2.01029">
        <ele>176</ele>
        <time>2017-08-20T14:08:51Z</time>
      </trkpt>
      <trkpt lat="48.70922" lon="2.01037">
        <ele>176</ele>
        <time>2017-08-20T14:08:51Z</time>
      </trkpt>
      <trkpt lat="48.70923" lon="2.01045">
        <ele>176</ele>
        <time>2017-08-20T14:08:51Z</time>
      </trkpt>
      <trkpt lat="48.70922" lon="2.01051">
        <ele>176</ele>
        <time>2017-08-20T14:08:51Z</time>
      </trkpt>
      <trkpt lat="48.7092" lon="2.0106">
        <ele>176</ele>
        <time>2017-08-20T14:09:07Z</time>
      </trkpt>
      <trkpt lat="48.70917" lon="2.01067">
        <ele>176</ele>
        <time>2017-08-20T14:09:07Z</time>
      </trkpt>
      <trkpt lat="48.70916" lon="2.01071">
        <ele>176</ele>
        <time>2017-08-20T14:09:07Z</time>
      </trkpt>
      <trkpt lat="48.70914" lon="2.01078">
        <ele>176</ele>
        <time>2017-08-20T14:09:07Z</time>
      </trkpt>
      <trkpt lat="48.70911" lon="2.01086">
        <ele>176</ele>
        <time>2017-08-20T14:09:23Z</time>
      </trkpt>
      <trkpt lat="48.7091" lon="2.01093">
        <ele>176</ele>
        <time>2017-08-20T14:09:23Z</time>
      </trkpt>
      <trkpt lat="48.70908" lon="2.01101">
        <ele>176</ele>
        <time>2017-08-20T14:09:23Z</time>
      </trkpt>
      <trkpt lat="48.70904" lon="2.01109">
        <ele>176</ele>
        <time>2017-08-20T14:09:23Z</time>
      </trkpt>
      <trkpt lat="48.70902" lon="2.01114">
        <ele>176</ele>
        <time>2017-08-20T14:09:39Z</time>
      </trkpt>
      <trkpt lat="48.709" lon="2.01119">
        <ele>176</ele>
        <time>2017-08-20T14:09:39Z</time>
      </trkpt>
      <trkpt lat="48.70897" lon="2.01125">
        <ele>175</ele>
        <time>2017-08-20T14:09:39Z</time>
      </trkpt>
      <trkpt lat="48.70894" lon="2.01133">
        <ele>175</ele>
        <time>2017-08-20T14:09:39Z</time>
      </trkpt>
      <trkpt lat="48.70891" lon="2.01141">
        <ele>175</ele>
        <time>2017-08-20T14:09:55Z</time>
      </trkpt>
      <trkpt lat="48.70891" lon="2.01143">
        <ele>175</ele>
        <time>2017-08-20T14:09:55Z</time>
      </trkpt>
      <trkpt lat="48.7089" lon="2.01149">
        <ele>175</ele>
        <time>2017-08-20T14:09:55Z</time>
      </trkpt>
      <trkpt lat="48.70888" lon="2.01157">
        <ele>175</ele>
        <time>2017-08-20T14:09:55Z</time>
      </trkpt>
      <trkpt lat="48.70885" lon="2.01166">
        <ele>175</ele>
        <time>2017-08-20T14:10:11Z</time>
      </trkpt>
      <trkpt lat="48.70884" lon="2.01174">
        <ele>175</ele>
        <time>2017-08-20T14:10:11Z</time>
      </trkpt>
      <trkpt lat="48.70883" lon="2.01179">
        <ele>175</ele>
        <time>2017-08-20T14:10:11Z</time>
      </trkpt>
      <trkpt lat="48.70882" lon="2.01187">
        <ele>175</ele>
        <time>2017-08-20T14:10:11Z</time>
      </trkpt>
      <trkpt lat="48.70879" lon="2.01194">
        <ele>175</ele>
        <time>2017-08-20T14:10:27Z</time>
      </trkpt>
      <trkpt lat="48.70876" lon="2.01204">
        <ele>175</ele>
        <time>2017-08-20T14:10:27Z</time>
      </trkpt>
      <trkpt lat="48.70873" lon="2.0121">
        <ele>172</ele>
        <time>2017-08-20T14:10:27Z</time>
      </trkpt>
      <trkpt lat="48.70869" lon="2.01219">
        <ele>172</ele>
        <time>2017-08-20T14:10:27Z</time>
      </trkpt>
      <trkpt lat="48.70867" lon="2.01225">
        <ele>172</ele>
        <time>2017-08-20T14:10:43Z</time>
      </trkpt>
      <trkpt lat="48.70867" lon="2.01232">
        <ele>172</ele>
        <time>2017-08-20T14:10:43Z</time>
      </trkpt>
      <trkpt lat="48.70866" lon="2.0124">
        <ele>172</ele>
        <time>2017-08-20T14:10:43Z</time>
      </trkpt>
      <trkpt lat="48.70863" lon="2.01249">
        <ele>172</ele>
        <time>2017-08-20T14:10:43Z</time>
      </trkpt>
      <trkpt lat="48.70859" lon="2.01256">
        <ele>172</ele>
        <time>2017-08-20T14:10:59Z</time>
      </trkpt>
      <trkpt lat="48.70854" lon="2.01264">
        <ele>172</ele>
        <time>2017-08-20T14:10:59Z</time>
      </trkpt>
      <trkpt lat="48.7085" lon="2.01269">
        <ele>172</ele>
        <time>2017-08-20T14:10:59Z</time>
      </trkpt>
      <trkpt lat="48.70847" lon="2.01274">
        <ele>172</ele>
        <time>2017-08-20T14:10:59Z</time>
      </trkpt>
      <trkpt lat="48.70844" lon="2.01284">
        <ele>172</ele>
        <time>2017-08-20T14:11:15Z</time>
      </trkpt>
      <trkpt lat="48.7084" lon="2.01297">
        <ele>170</ele>
        <time>2017-08-20T14:11:15Z</time>
      </trkpt>
      <trkpt lat="48.70838" lon="2.01304">
        <ele>170</ele>
        <time>2017-08-20T14:11:15Z</time>
      </trkpt>
      <trkpt lat="48.70836" lon="2.01309">
        <ele>170</ele>
        <time>2017-08-20T14:11:15Z</time>
      </trkpt>
      <trkpt lat="48.70835" lon="2.01314">
        <ele>170</ele>
        <time>2017-08-20T14:11:31Z</time>
      </trkpt>
      <trkpt lat="48.70832" lon="2.01323">
        <ele>170</ele>
        <time>2017-08-20T14:11:31Z</time>
      </trkpt>
      <trkpt lat="48.70829" lon="2.0133">
        <ele>170</ele>
        <time>2017-08-20T14:11:31Z</time>
      </trkpt>
      <trkpt lat="48.70826" lon="2.01335">
        <ele>170</ele>
        <time>2017-08-20T14:11:31Z</time>
      </trkpt>
      <trkpt lat="48.70826" lon="2.01342">
        <ele>170</ele>
        <time>2017-08-20T14:11:47Z</time>
      </trkpt>
      <trkpt lat="48.70824" lon="2.01351">
        <ele>170</ele>
        <time>2017-08-20T14:11:47Z</time>
      </trkpt>
      <trkpt lat="48.7082" lon="2.01359">
        <ele>170</ele>
        <time>2017-08-20T14:11:47Z</time>
      </trkpt>
      <trkpt lat="48.70819" lon="2.01367">
        <ele>170</ele>
        <time>2017-08-20T14:11:47Z</time>
      </trkpt>
      <trkpt lat="48.70817" lon="2.01374">
        <ele>170</ele>
        <time>2017-08-20T14:12:03Z</time>
      </trkpt>
      <trkpt lat="48.70814" lon="2.01386">
        <ele>170</ele>
        <time>2017-08-20T14:12:03Z</time>
      </trkpt>
      <trkpt lat="48.70812" lon="2.01394">
        <ele>170</ele>
        <time>2017-08-20T14:12:03Z</time>
      </trkpt>
      <trkpt lat="48.70812" lon="2.01404">
        <ele>170</ele>
        <time>2017-08-20T14:12:03Z</time>
      </trkpt>
      <trkpt lat="48.70811" lon="2.01416">
        <ele>170</ele>
        <time>2017-08-20T14:12:19Z</time>
      </trkpt>
      <trkpt lat="48.7081" lon="2.01421">
        <ele>170</ele>
        <time>2017-08-20T14:12:19Z</time>
      </trkpt>
      <trkpt lat="48.70811" lon="2.01428">
        <ele>170</ele>
        <time>2017-08-20T14:12:19Z</time>
      </trkpt>
      <trkpt lat="48.70811" lon="2.01436">
        <ele>170</ele>
        <time>2017-08-20T14:12:19Z</time>
      </trkpt>
      <trkpt lat="48.70811" lon="2.01445">
        <ele>170</ele>
        <time>2017-08-20T14:12:35Z</time>
      </trkpt>
      <trkpt lat="48.70807" lon="2.01454">
        <ele>170</ele>
        <time>2017-08-20T14:12:35Z</time>
      </trkpt>
      <trkpt lat="48.70806" lon="2.01461">
        <ele>173</ele>
        <time>2017-08-20T14:12:35Z</time>
      </trkpt>
      <trkpt lat="48.70806" lon="2.01468">
        <ele>173</ele>
        <time>2017-08-20T14:12:35Z</time>
      </trkpt>
      <trkpt lat="48.70807" lon="2.01474">
        <ele>173</ele>
        <time>2017-08-20T14:12:51Z</time>
      </trkpt>
      <trkpt lat="48.70807" lon="2.01479">
        <ele>173</ele>
        <time>2017-08-20T14:12:51Z</time>
      </trkpt>
      <trkpt lat="48.70807" lon="2.01485">
        <ele>173</ele>
        <time>2017-08-20T14:12:51Z</time>
      </trkpt>
      <trkpt lat="48.70803" lon="2.01496">
        <ele>173</ele>
        <time>2017-08-20T14:12:51Z</time>
      </trkpt>
      <trkpt lat="48.70803" lon="2.01502">
        <ele>173</ele>
        <time>2017-08-20T14:13:07Z</time>
      </trkpt>
      <trkpt lat="48.70802" lon="2.01509">
        <ele>173</ele>
        <time>2017-08-20T14:13:07Z</time>
      </trkpt>
      <trkpt lat="48.708" lon="2.01513">
        <ele>173</ele>
        <time>2017-08-20T14:13:07Z</time>
      </trkpt>
      <trkpt lat="48.70801" lon="2.01525">
        <ele>173</ele>
        <time>2017-08-20T14:13:07Z</time>
      </trkpt>
      <trkpt lat="48.70799" lon="2.01536">
        <ele>173</ele>
        <time>2017-08-20T14:13:23Z</time>
      </trkpt>
      <trkpt lat="48.70792" lon="2.01547">
        <ele>172</ele>
        <time>2017-08-20T14:13:23Z</time>
      </trkpt>
      <trkpt lat="48.70789" lon="2.01554">
        <ele>175</ele>
        <time>2017-08-20T14:13:23Z</time>
      </trkpt>
      <trkpt lat="48.70785" lon="2.01564">
        <ele>175</ele>
        <time>2017-08-20T14:13:23Z</time>
      </trkpt>
      <trkpt lat="48.7078" lon="2.01573">
        <ele>175</ele>
        <time>2017-08-20T14:13:39Z</time>
      </trkpt>
      <trkpt lat="48.70778" lon="2.01578">
        <ele>175</ele>
        <time>2017-08-20T14:13:39Z</time>
      </trkpt>
      <trkpt lat="48.7078" lon="2.0158">
        <ele>175</ele>
        <time>2017-08-20T14:13:39Z</time>
      </trkpt>
      <trkpt lat="48.70777" lon="2.01588">
        <ele>175</ele>
        <time>2017-08-20T14:13:39Z</time>
      </trkpt>
      <trkpt lat="48.70776" lon="2.01595">
        <ele>175</ele>
        <time>2017-08-20T14:13:55Z</time>
      </trkpt>
      <trkpt lat="48.70772" lon="2.01607">
        <ele>175</ele>
        <time>2017-08-20T14:13:55Z</time>
      </trkpt>
      <trkpt lat="48.70771" lon="2.01613">
        <ele>175</ele>
        <time>2017-08-20T14:13:55Z</time>
      </trkpt>
      <trkpt lat="48.70768" lon="2.01621">
        <ele>175</ele>
        <time>2017-08-20T14:13:55Z</time>
      </trkpt>
      <trkpt lat="48.70764" lon="2.0163">
        <ele>173</ele>
        <time>2017-08-20T14:14:11Z</time>
      </trkpt>
      <trkpt lat="48.70763" lon="2.01639">
        <ele>173</ele>
        <time>2017-08-20T14:14:11Z</time>
      </trkpt>
      <trkpt lat="48.70762" lon="2.01645">
        <ele>173</ele>
        <time>2017-08-20T14:14:11Z</time>
      </trkpt>
      <trkpt lat="48.70761" lon="2.01653">
        <ele>173</ele>
        <time>2017-08-20T14:14:11Z</time>
      </trkpt>
      <trkpt lat="48.70761" lon="2.01657">
        <ele>173</ele>
        <time>2017-08-20T14:14:27Z</time>
      </trkpt>
      <trkpt lat="48.70757" lon="2.01665">
        <ele>173</ele>
        <time>2017-08-20T14:14:27Z</time>
      </trkpt>
      <trkpt lat="48.70755" lon="2.01675">
        <ele>173</ele>
        <time>2017-08-20T14:14:27Z</time>
      </trkpt>
      <trkpt lat="48.70754" lon="2.01682">
        <ele>173</ele>
        <time>2017-08-20T14:14:27Z</time>
      </trkpt>
      <trkpt lat="48.70752" lon="2.01692">
        <ele>173</ele>
        <time>2017-08-20T14:14:43Z</time>
      </trkpt>
      <trkpt lat="48.70749" lon="2.01701">
        <ele>173</ele>
        <time>2017-08-20T14:14:43Z</time>
      </trkpt>
      <trkpt lat="48.70747" lon="2.01707">
        <ele>173</ele>
        <time>2017-08-20T14:14:43Z</time>
      </trkpt>
      <trkpt lat="48.70747" lon="2.01716">
        <ele>168</ele>
        <time>2017-08-20T14:14:43Z</time>
      </trkpt>
      <trkpt lat="48.70745" lon="2.01725">
        <ele>168</ele>
        <time>2017-08-20T14:14:59Z</time>
      </trkpt>
      <trkpt lat="48.70745" lon="2.01733">
        <ele>168</ele>
        <time>2017-08-20T14:14:59Z</time>
      </trkpt>
      <trkpt lat="48.70743" lon="2.01741">
        <ele>168</ele>
        <time>2017-08-20T14:14:59Z</time>
      </trkpt>
      <trkpt lat="48.70741" lon="2.01748">
        <ele>168</ele>
        <time>2017-08-20T14:14:59Z</time>
      </trkpt>
      <trkpt lat="48.70741" lon="2.01753">
        <ele>168</ele>
        <time>2017-08-20T14:15:15Z</time>
      </trkpt>
      <trkpt lat="48.70739" lon="2.01759">
        <ele>168</ele>
        <time>2017-08-20T14:15:15Z</time>
      </trkpt>
      <trkpt lat="48.70738" lon="2.01763">
        <ele>168</ele>
        <time>2017-08-20T14:15:15Z</time>
      </trkpt>
      <trkpt lat="48.70737" lon="2.01772">
        <ele>168</ele>
        <time>2017-08-20T14:15:15Z</time>
      </trkpt>
      <trkpt lat="48.70736" lon="2.01782">
        <ele>168</ele>
        <time>2017-08-20T14:15:31Z</time>
      </trkpt>
      <trkpt lat="48.70734" lon="2.01785">
        <ele>168</ele>
        <time>2017-08-20T14:15:31Z</time>
      </trkpt>
      <trkpt lat="48.70733" lon="2.01794">
        <ele>165</ele>
        <time>2017-08-20T14:15:31Z</time>
      </trkpt>
      <trkpt lat="48.70732" lon="2.01803">
        <ele>165</ele>
        <time>2017-08-20T14:15:31Z</time>
      </trkpt>
      <trkpt lat="48.7073" lon="2.01812">
        <ele>165</ele>
        <time>2017-08-20T14:15:47Z</time>
      </trkpt>
      <trkpt lat="48.70729" lon="2.01823">
        <ele>165</ele>
        <time>2017-08-20T14:15:47Z</time>
      </trkpt>
      <trkpt lat="48.70728" lon="2.01828">
        <ele>165</ele>
        <time>2017-08-20T14:15:47Z</time>
      </trkpt>
      <trkpt lat="48.70726" lon="2.01836">
        <ele>165</ele>
        <time>2017-08-20T14:15:47Z</time>
      </trkpt>
      <trkpt lat="48.70724" lon="2.01845">
        <ele>165</ele>
        <time>2017-08-20T14:16:03Z</time>
      </trkpt>
      <trkpt lat="48.70722" lon="2.01854">
        <ele>165</ele>
        <time>2017-08-20T14:16:03Z</time>
      </trkpt>
      <trkpt lat="48.70721" lon="2.01862">
        <ele>165</ele>
        <time>2017-08-20T14:16:03Z</time>
      </trkpt>
      <trkpt lat="48.70716" lon="2.01873">
        <ele>165</ele>
        <time>2017-08-20T14:16:03Z</time>
      </trkpt>
      <trkpt lat="48.70713" lon="2.01881">
        <ele>162</ele>
        <time>2017-08-20T14:16:19Z</time>
      </trkpt>
      <trkpt lat="48.7071" lon="2.01889">
        <ele>162</ele>
        <time>2017-08-20T14:16:19Z</time>
      </trkpt>
      <trkpt lat="48.70708" lon="2.01895">
        <ele>163</ele>
        <time>2017-08-20T14:16:19Z</time>
      </trkpt>
      <trkpt lat="48.70706" lon="2.01904">
        <ele>163</ele>
        <time>2017-08-20T14:16:19Z</time>
      </trkpt>
      <trkpt lat="48.70705" lon="2.01912">
        <ele>163</ele>
        <time>2017-08-20T14:16:35Z</time>
      </trkpt>
      <trkpt lat="48.70704" lon="2.01922">
        <ele>163</ele>
        <time>2017-08-20T14:16:35Z</time>
      </trkpt>
      <trkpt lat="48.70704" lon="2.0193">
        <ele>163</ele>
        <time>2017-08-20T14:16:35Z</time>
      </trkpt>
      <trkpt lat="48.70702" lon="2.01939">
        <ele>163</ele>
        <time>2017-08-20T14:16:35Z</time>
      </trkpt>
      <trkpt lat="48.707" lon="2.01945">
        <ele>163</ele>
        <time>2017-08-20T14:16:51Z</time>
      </trkpt>
      <trkpt lat="48.707" lon="2.01952">
        <ele>163</ele>
        <time>2017-08-20T14:16:51Z</time>
      </trkpt>
      <trkpt lat="48.70698" lon="2.01959">
        <ele>164</ele>
        <time>2017-08-20T14:16:51Z</time>
      </trkpt>
      <trkpt lat="48.70697" lon="2.01966">
        <ele>164</ele>
        <time>2017-08-20T14:16:51Z</time>
      </trkpt>
      <trkpt lat="48.70697" lon="2.01972">
        <ele>164</ele>
        <time>2017-08-20T14:17:07Z</time>
      </trkpt>
      <trkpt lat="48.70698" lon="2.0198">
        <ele>164</ele>
        <time>2017-08-20T14:17:07Z</time>
      </trkpt>
      <trkpt lat="48.70699" lon="2.01988">
        <ele>164</ele>
        <time>2017-08-20T14:17:07Z</time>
      </trkpt>
      <trkpt lat="48.707" lon="2.01992">
        <ele>164</ele>
        <time>2017-08-20T14:17:07Z</time>
      </trkpt>
      <trkpt lat="48.70701" lon="2.02">
        <ele>164</ele>
        <time>2017-08-20T14:17:23Z</time>
      </trkpt>
      <trkpt lat="48.70701" lon="2.02006">
        <ele>164</ele>
        <time>2017-08-20T14:17:23Z</time>
      </trkpt>
      <trkpt lat="48.707" lon="2.02017">
        <ele>164</ele>
        <time>2017-08-20T14:17:23Z</time>
      </trkpt>
      <trkpt lat="48.70699" lon="2.02021">
        <ele>164</ele>
        <time>2017-08-20T14:17:23Z</time>
      </trkpt>
      <trkpt lat="48.707" lon="2.02027">
        <ele>164</ele>
        <time>2017-08-20T14:17:39Z</time>
      </trkpt>
      <trkpt lat="48.70699" lon="2.02033">
        <ele>164</ele>
        <time>2017-08-20T14:17:39Z</time>
      </trkpt>
      <trkpt lat="48.70698" lon="2.02041">
        <ele>164</ele>
        <time>2017-08-20T14:17:39Z</time>
      </trkpt>
      <trkpt lat="48.707" lon="2.02047">
        <ele>171</ele>
        <time>2017-08-20T14:17:39Z</time>
      </trkpt>
      <trkpt lat="48.70701" lon="2.02056">
        <ele>171</ele>
        <time>2017-08-20T14:17:55Z</time>
      </trkpt>
      <trkpt lat="48.70704" lon="2.02062">
        <ele>171</ele>
        <time>2017-08-20T14:17:55Z</time>
      </trkpt>
      <trkpt lat="48.70704" lon="2.02069">
        <ele>171</ele>
        <time>2017-08-20T14:17:55Z</time>
      </trkpt>
      <trkpt lat="48.70703" lon="2.02075">
        <ele>171</ele>
        <time>2017-08-20T14:17:55Z</time>
      </trkpt>
      <trkpt lat="48.70704" lon="2.02083">
        <ele>171</ele>
        <time>2017-08-20T14:18:11Z</time>
      </trkpt>
      <trkpt lat="48.70706" lon="2.0209">
        <ele>171</ele>
        <time>2017-08-20T14:18:11Z</time>
      </trkpt>
      <trkpt lat="48.7071" lon="2.02099">
        <ele>169</ele>
        <time>2017-08-20T14:18:11Z</time>
      </trkpt>
      <trkpt lat="48.70717" lon="2.02112">
        <ele>169</ele>
        <time>2017-08-20T14:18:11Z</time>
      </trkpt>
      <trkpt lat="48.70719" lon="2.02116">
        <ele>169</ele>
        <time>2017-08-20T14:18:27Z</time>
      </trkpt>
      <trkpt lat="48.70719" lon="2.02123">
        <ele>169</ele>
        <time>2017-08-20T14:18:27Z</time>
      </trkpt>
      <trkpt lat="48.70719" lon="2.02127">
        <ele>170</ele>
        <time>2017-08-20T14:18:27Z</time>
      </trkpt>
      <trkpt lat="48.70721" lon="2.02137">
        <ele>170</ele>
        <time>2017-08-20T14:18:27Z</time>
      </trkpt>
      <trkpt lat="48.70724" lon="2.02142">
        <ele>170</ele>
        <time>2017-08-20T14:18:43Z</time>
      </trkpt>
      <trkpt lat="48.70724" lon="2.0215">
        <ele>170</ele>
        <time>2017-08-20T14:18:43Z</time>
      </trkpt>
      <trkpt lat="48.70727" lon="2.02157">
        <ele>170</ele>
        <time>2017-08-20T14:18:43Z</time>
      </trkpt>
      <trkpt lat="48.7073" lon="2.02165">
        <ele>170</ele>
        <time>2017-08-20T14:18:43Z</time>
      </trkpt>
      <trkpt lat="48.7073" lon="2.02171">
        <ele>170</ele>
        <time>2017-08-20T14:18:59Z</time>
      </trkpt>
      <trkpt lat="48.70731" lon="2.0218">
        <ele>170</ele>
        <time>2017-08-20T14:18:59Z</time>
      </trkpt>
      <trkpt lat="48.70729" lon="2.02187">
        <ele>170</ele>
        <time>2017-08-20T14:18:59Z</time>
      </trkpt>
      <trkpt lat="48.70727" lon="2.02196">
        <ele>170</ele>
        <time>2017-08-20T14:18:59Z</time>
      </trkpt>
      <trkpt lat="48.70727" lon="2.02205">
        <ele>170</ele>
        <time>2017-08-20T14:19:15Z</time>
      </trkpt>
      <trkpt lat="48.70725" lon="2.02216">
        <ele>167</ele>
        <time>2017-08-20T14:19:15Z</time>
      </trkpt>
      <trkpt lat="48.7072" lon="2.02226">
        <ele>167</ele>
        <time>2017-08-20T14:19:15Z</time>
      </trkpt>
      <trkpt lat="48.70714" lon="2.02236">
        <ele>167</ele>
        <time>2017-08-20T14:19:15Z</time>
      </trkpt>
      <trkpt lat="48.7071" lon="2.02247">
        <ele>167</ele>
        <time>2017-08-20T14:19:31Z</time>
      </trkpt>
      <trkpt lat="48.70709" lon="2.02252">
        <ele>167</ele>
        <time>2017-08-20T14:19:31Z</time>
      </trkpt>
      <trkpt lat="48.70709" lon="2.02264">
        <ele>167</ele>
        <time>2017-08-20T14:19:31Z</time>
      </trkpt>
      <trkpt lat="48.70709" lon="2.02273">
        <ele>167</ele>
        <time>2017-08-20T14:19:31Z</time>
      </trkpt>
      <trkpt lat="48.70708" lon="2.02282">
        <ele>168</ele>
        <time>2017-08-20T14:19:47Z</time>
      </trkpt>
      <trkpt lat="48.70708" lon="2.0229">
        <ele>168</ele>
        <time>2017-08-20T14:19:47Z</time>
      </trkpt>
      <trkpt lat="48.70707" lon="2.02303">
        <ele>165</ele>
        <time>2017-08-20T14:19:47Z</time>
      </trkpt>
      <trkpt lat="48.70705" lon="2.02312">
        <ele>165</ele>
        <time>2017-08-20T14:19:47Z</time>
      </trkpt>
      <trkpt lat="48.70703" lon="2.02319">
        <ele>165</ele>
        <time>2017-08-20T14:20:03Z</time>
      </trkpt>
      <trkpt lat="48.70701" lon="2.02332">
        <ele>165</ele>
        <time>2017-08-20T14:20:03Z</time>
      </trkpt>
      <trkpt lat="48.707" lon="2.02341">
        <ele>165</ele>
        <time>2017-08-20T14:20:03Z</time>
      </trkpt>
      <trkpt lat="48.70696" lon="2.02348">
        <ele>165</ele>
        <time>2017-08-20T14:20:03Z</time>
      </trkpt>
      <trkpt lat="48.70695" lon="2.02356">
        <ele>165</ele>
        <time>2017-08-20T14:20:19Z</time>
      </trkpt>
      <trkpt lat="48.70694" lon="2.0236">
        <ele>165</ele>
        <time>2017-08-20T14:20:19Z</time>
      </trkpt>
      <trkpt lat="48.70693" lon="2.0237">
        <ele>165</ele>
        <time>2017-08-20T14:20:19Z</time>
      </trkpt>
      <trkpt lat="48.70691" lon="2.02375">
        <ele>166</ele>
        <time>2017-08-20T14:20:19Z</time>
      </trkpt>
      <trkpt lat="48.7069" lon="2.02383">
        <ele>166</ele>
        <time>2017-08-20T14:20:35Z</time>
      </trkpt>
      <trkpt lat="48.70692" lon="2.02388">
        <ele>166</ele>
        <time>2017-08-20T14:20:35Z</time>
      </trkpt>
      <trkpt lat="48.70695" lon="2.02393">
        <ele>166</ele>
        <time>2017-08-20T14:20:35Z</time>
      </trkpt>
      <trkpt lat="48.70696" lon="2.02401">
        <ele>166</ele>
        <time>2017-08-20T14:20:35Z</time>
      </trkpt>
      <trkpt lat="48.70696" lon="2.02406">
        <ele>166</ele>
        <time>2017-08-20T14:20:51Z</time>
      </trkpt>
      <trkpt lat="48.70696" lon="2.02412">
        <ele>166</ele>
        <time>2017-08-20T14:20:51Z</time>
      </trkpt>
      <trkpt lat="48.70695" lon="2.02423">
        <ele>166</ele>
        <time>2017-08-20T14:20:51Z</time>
      </trkpt>
      <trkpt lat="48.70694" lon="2.02426">
        <ele>166</ele>
        <time>2017-08-20T14:20:51Z</time>
      </trkpt>
      <trkpt lat="48.70697" lon="2.02431">
        <ele>166</ele>
        <time>2017-08-20T14:21:07Z</time>
      </trkpt>
      <trkpt lat="48.70699" lon="2.02435">
        <ele>166</ele>
        <time>2017-08-20T14:21:07Z</time>
      </trkpt>
      <trkpt lat="48.70701" lon="2.02439">
        <ele>166</ele>
        <time>2017-08-20T14:21:07Z</time>
      </trkpt>
      <trkpt lat="48.70706" lon="2.02443">
        <ele>166</ele>
        <time>2017-08-20T14:21:07Z</time>
      </trkpt>
      <trkpt lat="48.70708" lon="2.0245">
        <ele>166</ele>
        <time>2017-08-20T14:21:23Z</time>
      </trkpt>
      <trkpt lat="48.70709" lon="2.02457">
        <ele>166</ele>
        <time>2017-08-20T14:21:23Z</time>
      </trkpt>
      <trkpt lat="48.70708" lon="2.02466">
        <ele>168</ele>
        <time>2017-08-20T14:21:23Z</time>
      </trkpt>
      <trkpt lat="48.70706" lon="2.02485">
        <ele>168</ele>
        <time>2017-08-20T14:21:23Z</time>
      </trkpt>
      <trkpt lat="48.70708" lon="2.02501">
        <ele>168</ele>
        <time>2017-08-20T14:21:39Z</time>
      </trkpt>
      <trkpt lat="48.70705" lon="2.02514">
        <ele>168</ele>
        <time>2017-08-20T14:21:39Z</time>
      </trkpt>
      <trkpt lat="48.70705" lon="2.02523">
        <ele>168</ele>
        <time>2017-08-20T14:21:39Z</time>
      </trkpt>
      <trkpt lat="48.70705" lon="2.0253">
        <ele>168</ele>
        <time>2017-08-20T14:21:39Z</time>
      </trkpt>
      <trkpt lat="48.70705" lon="2.02539">
        <ele>168</ele>
        <time>2017-08-20T14:21:55Z</time>
      </trkpt>
      <trkpt lat="48.70708" lon="2.02544">
        <ele>167</ele>
        <time>2017-08-20T14:21:55Z</time>
      </trkpt>
      <trkpt lat="48.70709" lon="2.0255">
        <ele>161</ele>
        <time>2017-08-20T14:21:55Z</time>
      </trkpt>
      <trkpt lat="48.7071" lon="2.02561">
        <ele>161</ele>
        <time>2017-08-20T14:21:55Z</time>
      </trkpt>
      <trkpt lat="48.70712" lon="2.02568">
        <ele>161</ele>
        <time>2017-08-20T14:22:11Z</time>
      </trkpt>
      <trkpt lat="48.70714" lon="2.02576">
        <ele>161</ele>
        <time>2017-08-20T14:22:11Z</time>
      </trkpt>
      <trkpt lat="48.70717" lon="2.02583">
        <ele>161</ele>
        <time>2017-08-20T14:22:11Z</time>
      </trkpt>
      <trkpt lat="48.70718" lon="2.02592">
        <ele>161</ele>
        <time>2017-08-20T14:22:11Z</time>
      </trkpt>
      <trkpt lat="48.7072" lon="2.02599">
        <ele>161</ele>
        <time>2017-08-20T14:22:27Z</time>
      </trkpt>
      <trkpt lat="48.70721" lon="2.02603">
        <ele>161</ele>
        <time>2017-08-20T14:22:27Z</time>
      </trkpt>
      <trkpt lat="48.70721" lon="2.02613">
        <ele>161</ele>
        <time>2017-08-20T14:22:27Z</time>
      </trkpt>
      <trkpt lat="48.70723" lon="2.02623">
        <ele>161</ele>
        <time>2017-08-20T14:22:27Z</time>
      </trkpt>
      <trkpt lat="48.70724" lon="2.02632">
        <ele>158</ele>
        <time>2017-08-20T14:22:43Z</time>
      </trkpt>
      <trkpt lat="48.70723" lon="2.02639">
        <ele>158</ele>
        <time>2017-08-20T14:22:43Z</time>
      </trkpt>
      <trkpt lat="48.70725" lon="2.02644">
        <ele>158</ele>
        <time>2017-08-20T14:22:43Z</time>
      </trkpt>
      <trkpt lat="48.70727" lon="2.02651">
        <ele>158</ele>
        <time>2017-08-20T14:22:43Z</time>
      </trkpt>
      <trkpt lat="48.70728" lon="2.02659">
        <ele>158</ele>
        <time>2017-08-20T14:22:59Z</time>
      </trkpt>
      <trkpt lat="48.70727" lon="2.02665">
        <ele>158</ele>
        <time>2017-08-20T14:22:59Z</time>
      </trkpt>
      <trkpt lat="48.70727" lon="2.02674">
        <ele>158</ele>
        <time>2017-08-20T14:22:59Z</time>
      </trkpt>
      <trkpt lat="48.70728" lon="2.02681">
        <ele>158</ele>
        <time>2017-08-20T14:22:59Z</time>
      </trkpt>
      <trkpt lat="48.70727" lon="2.0269">
        <ele>158</ele>
        <time>2017-08-20T14:23:15Z</time>
      </trkpt>
      <trkpt lat="48.7073" lon="2.02698">
        <ele>158</ele>
        <time>2017-08-20T14:23:15Z</time>
      </trkpt>
      <trkpt lat="48.70731" lon="2.02706">
        <ele>158</ele>
        <time>2017-08-20T14:23:15Z</time>
      </trkpt>
      <trkpt lat="48.70733" lon="2.02712">
        <ele>154</ele>
        <time>2017-08-20T14:23:15Z</time>
      </trkpt>
      <trkpt lat="48.70735" lon="2.02719">
        <ele>154</ele>
        <time>2017-08-20T14:23:31Z</time>
      </trkpt>
      <trkpt lat="48.70736" lon="2.02726">
        <ele>154</ele>
        <time>2017-08-20T14:23:31Z</time>
      </trkpt>
      <trkpt lat="48.7074" lon="2.02733">
        <ele>154</ele>
        <time>2017-08-20T14:23:31Z</time>
      </trkpt>
      <trkpt lat="48.70742" lon="2.02738">
        <ele>154</ele>
        <time>2017-08-20T14:23:31Z</time>
      </trkpt>
      <trkpt lat="48.70745" lon="2.02746">
        <ele>154</ele>
        <time>2017-08-20T14:23:47Z</time>
      </trkpt>
      <trkpt lat="48.70748" lon="2.02753">
        <ele>154</ele>
        <time>2017-08-20T14:23:47Z</time>
      </trkpt>
      <trkpt lat="48.7075" lon="2.02759">
        <ele>154</ele>
        <time>2017-08-20T14:23:47Z</time>
      </trkpt>
      <trkpt lat="48.70752" lon="2.02769">
        <ele>154</ele>
        <time>2017-08-20T14:23:47Z</time>
      </trkpt>
      <trkpt lat="48.70752" lon="2.02777">
        <ele>154</ele>
        <time>2017-08-20T14:24:03Z</time>
      </trkpt>
      <trkpt lat="48.70754" lon="2.02783">
        <ele>154</ele>
        <time>2017-08-20T14:24:03Z</time>
      </trkpt>
      <trkpt lat="48.70758" lon="2.02793">
        <ele>143</ele>
        <time>2017-08-20T14:24:03Z</time>
      </trkpt>
      <trkpt lat="48.7076" lon="2.02798">
        <ele>143</ele>
        <time>2017-08-20T14:24:03Z</time>
      </trkpt>
      <trkpt lat="48.70762" lon="2.02805">
        <ele>143</ele>
        <time>2017-08-20T14:24:19Z</time>
      </trkpt>
      <trkpt lat="48.70763" lon="2.02811">
        <ele>143</ele>
        <time>2017-08-20T14:24:19Z</time>
      </trkpt>
      <trkpt lat="48.70765" lon="2.02819">
        <ele>143</ele>
        <time>2017-08-20T14:24:19Z</time>
      </trkpt>
      <trkpt lat="48.70766" lon="2.02832">
        <ele>143</ele>
        <time>2017-08-20T14:24:19Z</time>
      </trkpt>
      <trkpt lat="48.70768" lon="2.0284">
        <ele>143</ele>
        <time>2017-08-20T14:24:35Z</time>
      </trkpt>
      <trkpt lat="48.7077" lon="2.02845">
        <ele>143</ele>
        <time>2017-08-20T14:24:35Z</time>
      </trkpt>
      <trkpt lat="48.70772" lon="2.02849">
        <ele>143</ele>
        <time>2017-08-20T14:24:35Z</time>
      </trkpt>
      <trkpt lat="48.70775" lon="2.02852">
        <ele>143</ele>
        <time>2017-08-20T14:24:35Z</time>
      </trkpt>
      <trkpt lat="48.70777" lon="2.02856">
        <ele>143</ele>
        <time>2017-08-20T14:24:51Z</time>
      </trkpt>
      <trkpt lat="48.70781" lon="2.02864">
        <ele>143</ele>
        <time>2017-08-20T14:24:51Z</time>
      </trkpt>
      <trkpt lat="48.70785" lon="2.02873">
        <ele>143</ele>
        <time>2017-08-20T14:24:51Z</time>
      </trkpt>
      <trkpt lat="48.70788" lon="2.02879">
        <ele>134</ele>
        <time>2017-08-20T14:24:51Z</time>
      </trkpt>
      <trkpt lat="48.70791" lon="2.02887">
        <ele>134</ele>
        <time>2017-08-20T14:25:07Z</time>
      </trkpt>
      <trkpt lat="48.70794" lon="2.02894">
        <ele>132</ele>
        <time>2017-08-20T14:25:07Z</time>
      </trkpt>
      <trkpt lat="48.70796" lon="2.02898">
        <ele>132</ele>
        <time>2017-08-20T14:25:07Z</time>
      </trkpt>
      <trkpt lat="48.70799" lon="2.02902">
        <ele>132</ele>
        <time>2017-08-20T14:25:07Z</time>
      </trkpt>
      <trkpt lat="48.70803" lon="2.02914">
        <ele>132</ele>
        <time>2017-08-20T14:25:23Z</time>
      </trkpt>
      <trkpt lat="48.70804" lon="2.02922">
        <ele>132</ele>
        <time>2017-08-20T14:25:23Z</time>
      </trkpt>
      <trkpt lat="48.70808" lon="2.02932">
        <ele>132</ele>
        <time>2017-08-20T14:25:23Z</time>
      </trkpt>
      <trkpt lat="48.7081" lon="2.02939">
        <ele>132</ele>
        <time>2017-08-20T14:25:23Z</time>
      </trkpt>
      <trkpt lat="48.70811" lon="2.02943">
        <ele>132</ele>
        <time>2017-08-20T14:25:47Z</time>
      </trkpt>
      <trkpt lat="48.70809" lon="2.02944">
        <ele>132</ele>
        <time>2017-08-20T14:25:47Z</time>
      </trkpt>
      <trkpt lat="48.7081" lon="2.02951">
        <ele>132</ele>
        <time>2017-08-20T14:25:47Z</time>
      </trkpt>
      <trkpt lat="48.70811" lon="2.02956">
        <ele>132</ele>
        <time>2017-08-20T14:25:47Z</time>
      </trkpt>
      <trkpt lat="48.70813" lon="2.02962">
        <ele>117</ele>
        <time>2017-08-20T14:25:47Z</time>
      </trkpt>
      <trkpt lat="48.70814" lon="2.02972">
        <ele>117</ele>
        <time>2017-08-20T14:26:03Z</time>
      </trkpt>
      <trkpt lat="48.70814" lon="2.02978">
        <ele>117</ele>
        <time>2017-08-20T14:26:03Z</time>
      </trkpt>
      <trkpt lat="48.70814" lon="2.02984">
        <ele>117</ele>
        <time>2017-08-20T14:26:03Z</time>
      </trkpt>
      <trkpt lat="48.70812" lon="2.02991">
        <ele>117</ele>
        <time>2017-08-20T14:26:03Z</time>
      </trkpt>
      <trkpt lat="48.7081" lon="2.02995">
        <ele>117</ele>
        <time>2017-08-20T14:26:19Z</time>
      </trkpt>
      <trkpt lat="48.70805" lon="2.03002">
        <ele>117</ele>
        <time>2017-08-20T14:26:19Z</time>
      </trkpt>
      <trkpt lat="48.70803" lon="2.03007">
        <ele>117</ele>
        <time>2017-08-20T14:26:19Z</time>
      </trkpt>
      <trkpt lat="48.70801" lon="2.03012">
        <ele>117</ele>
        <time>2017-08-20T14:26:19Z</time>
      </trkpt>
      <trkpt lat="48.708" lon="2.0302">
        <ele>117</ele>
        <time>2017-08-20T14:26:35Z</time>
      </trkpt>
      <trkpt lat="48.708" lon="2.03025">
        <ele>117</ele>
        <time>2017-08-20T14:26:35Z</time>
      </trkpt>
      <trkpt lat="48.70799" lon="2.03029">
        <ele>117</ele>
        <time>2017-08-20T14:26:35Z</time>
      </trkpt>
      <trkpt lat="48.70793" lon="2.03035">
        <ele>117</ele>
        <time>2017-08-20T14:26:35Z</time>
      </trkpt>
      <trkpt lat="48.7079" lon="2.03043">
        <ele>109</ele>
        <time>2017-08-20T14:26:51Z</time>
      </trkpt>
      <trkpt lat="48.70788" lon="2.03049">
        <ele>109</ele>
        <time>2017-08-20T14:26:51Z</time>
      </trkpt>
      <trkpt lat="48.70785" lon="2.03055">
        <ele>109</ele>
        <time>2017-08-20T14:26:51Z</time>
      </trkpt>
      <trkpt lat="48.70782" lon="2.0306">
        <ele>109</ele>
        <time>2017-08-20T14:26:51Z</time>
      </trkpt>
      <trkpt lat="48.70782" lon="2.03067">
        <ele>109</ele>
        <time>2017-08-20T14:28:03Z</time>
      </trkpt>
      <trkpt lat="48.70782" lon="2.0307">
        <ele>109</ele>
        <time>2017-08-20T14:28:03Z</time>
      </trkpt>
      <trkpt lat="48.70781" lon="2.03072">
        <ele>109</ele>
        <time>2017-08-20T14:28:03Z</time>
      </trkpt>
      <trkpt lat="48.70782" lon="2.03073">
        <ele>109</ele>
        <time>2017-08-20T14:28:03Z</time>
      </trkpt>
      <trkpt lat="48.70782" lon="2.03075">
        <ele>109</ele>
        <time>2017-08-20T14:28:03Z</time>
      </trkpt>
      <trkpt lat="48.70775" lon="2.03071">
        <ele>109</ele>
        <time>2017-08-20T14:28:35Z</time>
      </trkpt>
      <trkpt lat="48.70772" lon="2.03078">
        <ele>109</ele>
        <time>2017-08-20T14:28:35Z</time>
      </trkpt>
      <trkpt lat="48.70772" lon="2.03078">
        <ele>109</ele>
        <time>2017-08-20T14:28:35Z</time>
      </trkpt>
      <trkpt lat="48.70771" lon="2.03077">
        <ele>109</ele>
        <time>2017-08-20T14:28:35Z</time>
      </trkpt>
      <trkpt lat="48.70767" lon="2.03084">
        <ele>109</ele>
        <time>2017-08-20T14:28:35Z</time>
      </trkpt>
      <trkpt lat="48.70761" lon="2.03096">
        <ele>109</ele>
        <time>2017-08-20T14:29:35Z</time>
      </trkpt>
      <trkpt lat="48.70761" lon="2.03097">
        <ele>109</ele>
        <time>2017-08-20T14:29:35Z</time>
      </trkpt>
      <trkpt lat="48.70762" lon="2.03098">
        <ele>109</ele>
        <time>2017-08-20T14:29:35Z</time>
      </trkpt>
      <trkpt lat="48.70762" lon="2.03098">
        <ele>109</ele>
        <time>2017-08-20T14:29:35Z</time>
      </trkpt>
      <trkpt lat="48.7076" lon="2.03099">
        <ele>109</ele>
        <time>2017-08-20T14:29:35Z</time>
      </trkpt>
      <trkpt lat="48.7076" lon="2.03101">
        <ele>109</ele>
        <time>2017-08-20T14:30:03Z</time>
      </trkpt>
      <trkpt lat="48.70761" lon="2.03106">
        <ele>109</ele>
        <time>2017-08-20T14:30:03Z</time>
      </trkpt>
      <trkpt lat="48.7076" lon="2.03108">
        <ele>109</ele>
        <time>2017-08-20T14:30:03Z</time>
      </trkpt>
      <trkpt lat="48.70761" lon="2.03112">
        <ele>109</ele>
        <time>2017-08-20T14:30:03Z</time>
      </trkpt>
      <trkpt lat="48.70761" lon="2.03116">
        <ele>109</ele>
        <time>2017-08-20T14:30:03Z</time>
      </trkpt>
      <trkpt lat="48.70758" lon="2.03116">
        <ele>109</ele>
        <time>2017-08-20T14:31:35Z</time>
      </trkpt>
      <trkpt lat="48.70758" lon="2.03117">
        <ele>109</ele>
        <time>2017-08-20T14:31:35Z</time>
      </trkpt>
      <trkpt lat="48.70752" lon="2.03122">
        <ele>109</ele>
        <time>2017-08-20T14:31:35Z</time>
      </trkpt>
      <trkpt lat="48.70751" lon="2.03123">
        <ele>109</ele>
        <time>2017-08-20T14:31:35Z</time>
      </trkpt>
      <trkpt lat="48.70746" lon="2.03125">
        <ele>109</ele>
        <time>2017-08-20T14:31:35Z</time>
      </trkpt>
      <trkpt lat="48.70746" lon="2.03127">
        <ele>102</ele>
        <time>2017-08-20T14:32:15Z</time>
      </trkpt>
      <trkpt lat="48.70747" lon="2.03128">
        <ele>102</ele>
        <time>2017-08-20T14:32:15Z</time>
      </trkpt>
      <trkpt lat="48.70747" lon="2.0313">
        <ele>102</ele>
        <time>2017-08-20T14:32:15Z</time>
      </trkpt>
      <trkpt lat="48.70747" lon="2.03132">
        <ele>102</ele>
        <time>2017-08-20T14:32:15Z</time>
      </trkpt>
      <trkpt lat="48.70749" lon="2.03137">
        <ele>102</ele>
        <time>2017-08-20T14:32:15Z</time>
      </trkpt>
      <trkpt lat="48.70752" lon="2.03143">
        <ele>102</ele>
        <time>2017-08-20T14:32:31Z</time>
      </trkpt>
      <trkpt lat="48.70755" lon="2.03148">
        <ele>102</ele>
        <time>2017-08-20T14:32:31Z</time>
      </trkpt>
      <trkpt lat="48.70758" lon="2.03152">
        <ele>102</ele>
        <time>2017-08-20T14:32:31Z</time>
      </trkpt>
      <trkpt lat="48.70759" lon="2.03156">
        <ele>102</ele>
        <time>2017-08-20T14:32:31Z</time>
      </trkpt>
      <trkpt lat="48.70761" lon="2.03159">
        <ele>102</ele>
        <time>2017-08-20T14:32:47Z</time>
      </trkpt>
      <trkpt lat="48.70762" lon="2.03163">
        <ele>102</ele>
        <time>2017-08-20T14:32:47Z</time>
      </trkpt>
      <trkpt lat="48.70765" lon="2.03168">
        <ele>102</ele>
        <time>2017-08-20T14:32:47Z</time>
      </trkpt>
      <trkpt lat="48.70767" lon="2.0317">
        <ele>102</ele>
        <time>2017-08-20T14:32:47Z</time>
      </trkpt>
      <trkpt lat="48.70769" lon="2.03175">
        <ele>102</ele>
        <time>2017-08-20T14:33:03Z</time>
      </trkpt>
      <trkpt lat="48.70771" lon="2.03178">
        <ele>102</ele>
        <time>2017-08-20T14:33:03Z</time>
      </trkpt>
      <trkpt lat="48.70774" lon="2.03181">
        <ele>102</ele>
        <time>2017-08-20T14:33:03Z</time>
      </trkpt>
      <trkpt lat="48.70777" lon="2.03188">
        <ele>102</ele>
        <time>2017-08-20T14:33:03Z</time>
      </trkpt>
      <trkpt lat="48.70778" lon="2.03193">
        <ele>102</ele>
        <time>2017-08-20T14:33:19Z</time>
      </trkpt>
      <trkpt lat="48.70783" lon="2.03196">
        <ele>102</ele>
        <time>2017-08-20T14:33:19Z</time>
      </trkpt>
      <trkpt lat="48.70786" lon="2.03201">
        <ele>102</ele>
        <time>2017-08-20T14:33:19Z</time>
      </trkpt>
      <trkpt lat="48.70789" lon="2.03207">
        <ele>102</ele>
        <time>2017-08-20T14:33:19Z</time>
      </trkpt>
      <trkpt lat="48.70793" lon="2.03214">
        <ele>97</ele>
        <time>2017-08-20T14:33:35Z</time>
      </trkpt>
      <trkpt lat="48.70794" lon="2.03221">
        <ele>97</ele>
        <time>2017-08-20T14:33:35Z</time>
      </trkpt>
      <trkpt lat="48.70795" lon="2.03232">
        <ele>97</ele>
        <time>2017-08-20T14:33:35Z</time>
      </trkpt>
      <trkpt lat="48.70799" lon="2.03235">
        <ele>97</ele>
        <time>2017-08-20T14:33:35Z</time>
      </trkpt>
      <trkpt lat="48.70801" lon="2.03238">
        <ele>97</ele>
        <time>2017-08-20T14:33:51Z</time>
      </trkpt>
      <trkpt lat="48.70804" lon="2.03243">
        <ele>97</ele>
        <time>2017-08-20T14:33:51Z</time>
      </trkpt>
      <trkpt lat="48.70809" lon="2.03248">
        <ele>97</ele>
        <time>2017-08-20T14:33:51Z</time>
      </trkpt>
      <trkpt lat="48.70814" lon="2.03258">
        <ele>97</ele>
        <time>2017-08-20T14:33:51Z</time>
      </trkpt>
      <trkpt lat="48.70817" lon="2.03265">
        <ele>97</ele>
        <time>2017-08-20T14:34:07Z</time>
      </trkpt>
      <trkpt lat="48.7082" lon="2.03273">
        <ele>97</ele>
        <time>2017-08-20T14:34:07Z</time>
      </trkpt>
      <trkpt lat="48.70818" lon="2.03278">
        <ele>97</ele>
        <time>2017-08-20T14:34:07Z</time>
      </trkpt>
      <trkpt lat="48.70815" lon="2.03281">
        <ele>97</ele>
        <time>2017-08-20T14:34:07Z</time>
      </trkpt>
      <trkpt lat="48.70807" lon="2.03287">
        <ele>97</ele>
        <time>2017-08-20T14:34:23Z</time>
      </trkpt>
      <trkpt lat="48.70802" lon="2.0329">
        <ele>97</ele>
        <time>2017-08-20T14:34:23Z</time>
      </trkpt>
      <trkpt lat="48.70797" lon="2.0329">
        <ele>97</ele>
        <time>2017-08-20T14:34:23Z</time>
      </trkpt>
      <trkpt lat="48.70792" lon="2.03293">
        <ele>93</ele>
        <time>2017-08-20T14:34:23Z</time>
      </trkpt>
      <trkpt lat="48.70786" lon="2.03295">
        <ele>95</ele>
        <time>2017-08-20T14:34:39Z</time>
      </trkpt>
      <trkpt lat="48.70782" lon="2.03301">
        <ele>95</ele>
        <time>2017-08-20T14:34:39Z</time>
      </trkpt>
      <trkpt lat="48.70777" lon="2.03306">
        <ele>95</ele>
        <time>2017-08-20T14:34:39Z</time>
      </trkpt>
      <trkpt lat="48.70775" lon="2.03306">
        <ele>95</ele>
        <time>2017-08-20T14:34:39Z</time>
      </trkpt>
      <trkpt lat="48.7077" lon="2.03308">
        <ele>95</ele>
        <time>2017-08-20T14:34:55Z</time>
      </trkpt>
      <trkpt lat="48.70766" lon="2.03311">
        <ele>95</ele>
        <time>2017-08-20T14:34:55Z</time>
      </trkpt>
      <trkpt lat="48.70761" lon="2.03314">
        <ele>95</ele>
        <time>2017-08-20T14:34:55Z</time>
      </trkpt>
      <trkpt lat="48.70756" lon="2.03316">
        <ele>95</ele>
        <time>2017-08-20T14:34:55Z</time>
      </trkpt>
      <trkpt lat="48.7075" lon="2.03318">
        <ele>95</ele>
        <time>2017-08-20T14:35:15Z</time>
      </trkpt>
      <trkpt lat="48.70747" lon="2.0332">
        <ele>95</ele>
        <time>2017-08-20T14:35:15Z</time>
      </trkpt>
      <trkpt lat="48.70744" lon="2.03321">
        <ele>95</ele>
        <time>2017-08-20T14:35:15Z</time>
      </trkpt>
      <trkpt lat="48.70742" lon="2.03321">
        <ele>95</ele>
        <time>2017-08-20T14:35:15Z</time>
      </trkpt>
      <trkpt lat="48.70736" lon="2.0332">
        <ele>95</ele>
        <time>2017-08-20T14:35:15Z</time>
      </trkpt>
      <trkpt lat="48.7073" lon="2.03321">
        <ele>95</ele>
        <time>2017-08-20T14:35:31Z</time>
      </trkpt>
      <trkpt lat="48.70725" lon="2.03324">
        <ele>95</ele>
        <time>2017-08-20T14:35:31Z</time>
      </trkpt>
      <trkpt lat="48.70722" lon="2.03329">
        <ele>95</ele>
        <time>2017-08-20T14:35:31Z</time>
      </trkpt>
      <trkpt lat="48.70724" lon="2.03335">
        <ele>95</ele>
        <time>2017-08-20T14:35:31Z</time>
      </trkpt>
      <trkpt lat="48.70727" lon="2.03342">
        <ele>95</ele>
        <time>2017-08-20T14:35:51Z</time>
      </trkpt>
      <trkpt lat="48.70729" lon="2.03349">
        <ele>95</ele>
        <time>2017-08-20T14:35:51Z</time>
      </trkpt>
      <trkpt lat="48.70729" lon="2.0335">
        <ele>95</ele>
        <time>2017-08-20T14:35:51Z</time>
      </trkpt>
      <trkpt lat="48.7073" lon="2.03353">
        <ele>95</ele>
        <time>2017-08-20T14:35:51Z</time>
      </trkpt>
      <trkpt lat="48.70732" lon="2.03356">
        <ele>95</ele>
        <time>2017-08-20T14:35:51Z</time>
      </trkpt>
      <trkpt lat="48.70735" lon="2.03363">
        <ele>95</ele>
        <time>2017-08-20T14:36:07Z</time>
      </trkpt>
      <trkpt lat="48.70737" lon="2.0337">
        <ele>95</ele>
        <time>2017-08-20T14:36:07Z</time>
      </trkpt>
      <trkpt lat="48.70739" lon="2.03375">
        <ele>90</ele>
        <time>2017-08-20T14:36:07Z</time>
      </trkpt>
      <trkpt lat="48.70743" lon="2.03383">
        <ele>90</ele>
        <time>2017-08-20T14:36:07Z</time>
      </trkpt>
      <trkpt lat="48.70745" lon="2.0339">
        <ele>90</ele>
        <time>2017-08-20T14:36:23Z</time>
      </trkpt>
      <trkpt lat="48.70747" lon="2.03399">
        <ele>90</ele>
        <time>2017-08-20T14:36:23Z</time>
      </trkpt>
      <trkpt lat="48.70749" lon="2.03403">
        <ele>90</ele>
        <time>2017-08-20T14:36:23Z</time>
      </trkpt>
      <trkpt lat="48.70752" lon="2.0341">
        <ele>90</ele>
        <time>2017-08-20T14:36:23Z</time>
      </trkpt>
      <trkpt lat="48.70754" lon="2.03415">
        <ele>90</ele>
        <time>2017-08-20T14:36:39Z</time>
      </trkpt>
      <trkpt lat="48.70755" lon="2.03419">
        <ele>90</ele>
        <time>2017-08-20T14:36:39Z</time>
      </trkpt>
      <trkpt lat="48.70757" lon="2.03429">
        <ele>90</ele>
        <time>2017-08-20T14:36:39Z</time>
      </trkpt>
      <trkpt lat="48.70758" lon="2.03435">
        <ele>90</ele>
        <time>2017-08-20T14:36:39Z</time>
      </trkpt>
      <trkpt lat="48.7076" lon="2.03438">
        <ele>90</ele>
        <time>2017-08-20T14:36:55Z</time>
      </trkpt>
      <trkpt lat="48.70764" lon="2.03443">
        <ele>90</ele>
        <time>2017-08-20T14:36:55Z</time>
      </trkpt>
      <trkpt lat="48.70767" lon="2.03448">
        <ele>90</ele>
        <time>2017-08-20T14:36:55Z</time>
      </trkpt>
      <trkpt lat="48.7077" lon="2.03456">
        <ele>90</ele>
        <time>2017-08-20T14:36:55Z</time>
      </trkpt>
      <trkpt lat="48.70774" lon="2.03463">
        <ele>88</ele>
        <time>2017-08-20T14:37:11Z</time>
      </trkpt>
      <trkpt lat="48.70777" lon="2.0347">
        <ele>88</ele>
        <time>2017-08-20T14:37:11Z</time>
      </trkpt>
      <trkpt lat="48.7078" lon="2.03478">
        <ele>88</ele>
        <time>2017-08-20T14:37:11Z</time>
      </trkpt>
      <trkpt lat="48.7078" lon="2.03482">
        <ele>88</ele>
        <time>2017-08-20T14:37:11Z</time>
      </trkpt>
      <trkpt lat="48.70782" lon="2.03487">
        <ele>88</ele>
        <time>2017-08-20T14:37:27Z</time>
      </trkpt>
      <trkpt lat="48.70784" lon="2.03495">
        <ele>88</ele>
        <time>2017-08-20T14:37:27Z</time>
      </trkpt>
      <trkpt lat="48.70788" lon="2.03502">
        <ele>88</ele>
        <time>2017-08-20T14:37:27Z</time>
      </trkpt>
      <trkpt lat="48.70792" lon="2.03509">
        <ele>89</ele>
        <time>2017-08-20T14:37:27Z</time>
      </trkpt>
      <trkpt lat="48.70796" lon="2.03516">
        <ele>89</ele>
        <time>2017-08-20T14:37:43Z</time>
      </trkpt>
      <trkpt lat="48.70797" lon="2.03522">
        <ele>89</ele>
        <time>2017-08-20T14:37:43Z</time>
      </trkpt>
      <trkpt lat="48.70799" lon="2.03528">
        <ele>89</ele>
        <time>2017-08-20T14:37:43Z</time>
      </trkpt>
      <trkpt lat="48.70802" lon="2.03535">
        <ele>89</ele>
        <time>2017-08-20T14:37:43Z</time>
      </trkpt>
      <trkpt lat="48.70803" lon="2.0354">
        <ele>89</ele>
        <time>2017-08-20T14:37:59Z</time>
      </trkpt>
      <trkpt lat="48.70804" lon="2.03548">
        <ele>87</ele>
        <time>2017-08-20T14:37:59Z</time>
      </trkpt>
      <trkpt lat="48.70807" lon="2.03556">
        <ele>87</ele>
        <time>2017-08-20T14:37:59Z</time>
      </trkpt>
      <trkpt lat="48.7081" lon="2.03565">
        <ele>87</ele>
        <time>2017-08-20T14:37:59Z</time>
      </trkpt>
      <trkpt lat="48.70813" lon="2.03574">
        <ele>87</ele>
        <time>2017-08-20T14:38:15Z</time>
      </trkpt>
      <trkpt lat="48.70814" lon="2.03585">
        <ele>87</ele>
        <time>2017-08-20T14:38:15Z</time>
      </trkpt>
      <trkpt lat="48.70815" lon="2.03593">
        <ele>87</ele>
        <time>2017-08-20T14:38:15Z</time>
      </trkpt>
      <trkpt lat="48.70815" lon="2.03599">
        <ele>87</ele>
        <time>2017-08-20T14:38:15Z</time>
      </trkpt>
      <trkpt lat="48.70817" lon="2.03607">
        <ele>87</ele>
        <time>2017-08-20T14:38:31Z</time>
      </trkpt>
      <trkpt lat="48.70819" lon="2.03614">
        <ele>87</ele>
        <time>2017-08-20T14:38:31Z</time>
      </trkpt>
      <trkpt lat="48.70819" lon="2.03621">
        <ele>87</ele>
        <time>2017-08-20T14:38:31Z</time>
      </trkpt>
      <trkpt lat="48.7082" lon="2.03626">
        <ele>84</ele>
        <time>2017-08-20T14:38:31Z</time>
      </trkpt>
      <trkpt lat="48.7082" lon="2.0363">
        <ele>84</ele>
        <time>2017-08-20T14:38:47Z</time>
      </trkpt>
      <trkpt lat="48.70822" lon="2.03638">
        <ele>84</ele>
        <time>2017-08-20T14:38:47Z</time>
      </trkpt>
      <trkpt lat="48.70825" lon="2.03642">
        <ele>84</ele>
        <time>2017-08-20T14:38:47Z</time>
      </trkpt>
      <trkpt lat="48.7083" lon="2.03648">
        <ele>84</ele>
        <time>2017-08-20T14:38:47Z</time>
      </trkpt>
      <trkpt lat="48.70835" lon="2.03656">
        <ele>84</ele>
        <time>2017-08-20T14:39:03Z</time>
      </trkpt>
      <trkpt lat="48.70839" lon="2.03661">
        <ele>84</ele>
        <time>2017-08-20T14:39:03Z</time>
      </trkpt>
      <trkpt lat="48.70842" lon="2.03667">
        <ele>84</ele>
        <time>2017-08-20T14:39:03Z</time>
      </trkpt>
      <trkpt lat="48.70844" lon="2.03673">
        <ele>84</ele>
        <time>2017-08-20T14:39:03Z</time>
      </trkpt>
      <trkpt lat="48.70844" lon="2.03678">
        <ele>84</ele>
        <time>2017-08-20T14:39:23Z</time>
      </trkpt>
      <trkpt lat="48.70844" lon="2.03679">
        <ele>84</ele>
        <time>2017-08-20T14:39:23Z</time>
      </trkpt>
      <trkpt lat="48.70844" lon="2.03682">
        <ele>84</ele>
        <time>2017-08-20T14:39:23Z</time>
      </trkpt>
      <trkpt lat="48.70847" lon="2.03684">
        <ele>84</ele>
        <time>2017-08-20T14:39:23Z</time>
      </trkpt>
      <trkpt lat="48.70851" lon="2.03687">
        <ele>84</ele>
        <time>2017-08-20T14:39:23Z</time>
      </trkpt>
      <trkpt lat="48.70856" lon="2.03692">
        <ele>84</ele>
        <time>2017-08-20T14:39:59Z</time>
      </trkpt>
      <trkpt lat="48.70856" lon="2.03692">
        <ele>84</ele>
        <time>2017-08-20T14:39:59Z</time>
      </trkpt>
      <trkpt lat="48.70861" lon="2.03686">
        <ele>84</ele>
        <time>2017-08-20T14:39:59Z</time>
      </trkpt>
      <trkpt lat="48.70868" lon="2.03681">
        <ele>84</ele>
        <time>2017-08-20T14:39:59Z</time>
      </trkpt>
      <trkpt lat="48.7087" lon="2.03678">
        <ele>84</ele>
        <time>2017-08-20T14:39:59Z</time>
      </trkpt>
      <trkpt lat="48.70872" lon="2.03677">
        <ele>84</ele>
        <time>2017-08-20T14:40:15Z</time>
      </trkpt>
      <trkpt lat="48.70873" lon="2.03675">
        <ele>84</ele>
        <time>2017-08-20T14:40:15Z</time>
      </trkpt>
      <trkpt lat="48.70877" lon="2.03678">
        <ele>88</ele>
        <time>2017-08-20T14:40:15Z</time>
      </trkpt>
      <trkpt lat="48.70881" lon="2.03681">
        <ele>88</ele>
        <time>2017-08-20T14:40:15Z</time>
      </trkpt>
      <trkpt lat="48.70885" lon="2.03683">
        <ele>88</ele>
        <time>2017-08-20T14:40:31Z</time>
      </trkpt>
      <trkpt lat="48.7089" lon="2.03686">
        <ele>88</ele>
        <time>2017-08-20T14:40:31Z</time>
      </trkpt>
      <trkpt lat="48.70892" lon="2.03688">
        <ele>88</ele>
        <time>2017-08-20T14:40:31Z</time>
      </trkpt>
      <trkpt lat="48.70894" lon="2.0369">
        <ele>88</ele>
        <time>2017-08-20T14:40:31Z</time>
      </trkpt>
      <trkpt lat="48.70896" lon="2.03693">
        <ele>88</ele>
        <time>2017-08-20T14:40:47Z</time>
      </trkpt>
      <trkpt lat="48.70898" lon="2.03696">
        <ele>88</ele>
        <time>2017-08-20T14:40:47Z</time>
      </trkpt>
      <trkpt lat="48.709" lon="2.03701">
        <ele>88</ele>
        <time>2017-08-20T14:40:47Z</time>
      </trkpt>
      <trkpt lat="48.70903" lon="2.03708">
        <ele>88</ele>
        <time>2017-08-20T14:40:47Z</time>
      </trkpt>
      <trkpt lat="48.70905" lon="2.03715">
        <ele>88</ele>
        <time>2017-08-20T14:41:03Z</time>
      </trkpt>
      <trkpt lat="48.70909" lon="2.0372">
        <ele>88</ele>
        <time>2017-08-20T14:41:03Z</time>
      </trkpt>
      <trkpt lat="48.70912" lon="2.03727">
        <ele>88</ele>
        <time>2017-08-20T14:41:03Z</time>
      </trkpt>
      <trkpt lat="48.70914" lon="2.03733">
        <ele>88</ele>
        <time>2017-08-20T14:41:03Z</time>
      </trkpt>
      <trkpt lat="48.70916" lon="2.03737">
        <ele>88</ele>
        <time>2017-08-20T14:41:19Z</time>
      </trkpt>
      <trkpt lat="48.70917" lon="2.03744">
        <ele>88</ele>
        <time>2017-08-20T14:41:19Z</time>
      </trkpt>
      <trkpt lat="48.70919" lon="2.03752">
        <ele>88</ele>
        <time>2017-08-20T14:41:19Z</time>
      </trkpt>
      <trkpt lat="48.70921" lon="2.03759">
        <ele>88</ele>
        <time>2017-08-20T14:41:19Z</time>
      </trkpt>
      <trkpt lat="48.70924" lon="2.03766">
        <ele>88</ele>
        <time>2017-08-20T14:41:35Z</time>
      </trkpt>
      <trkpt lat="48.70927" lon="2.03771">
        <ele>88</ele>
        <time>2017-08-20T14:41:35Z</time>
      </trkpt>
      <trkpt lat="48.70929" lon="2.03779">
        <ele>88</ele>
        <time>2017-08-20T14:41:35Z</time>
      </trkpt>
      <trkpt lat="48.70932" lon="2.03782">
        <ele>88</ele>
        <time>2017-08-20T14:41:35Z</time>
      </trkpt>
      <trkpt lat="48.70942" lon="2.03787">
        <ele>88</ele>
        <time>2017-08-20T14:42:19Z</time>
      </trkpt>
      <trkpt lat="48.70944" lon="2.03781">
        <ele>88</ele>
        <time>2017-08-20T14:42:19Z</time>
      </trkpt>
      <trkpt lat="48.70947" lon="2.03772">
        <ele>88</ele>
        <time>2017-08-20T14:42:19Z</time>
      </trkpt>
      <trkpt lat="48.70951" lon="2.03764">
        <ele>88</ele>
        <time>2017-08-20T14:42:19Z</time>
      </trkpt>
      <trkpt lat="48.70953" lon="2.03756">
        <ele>88</ele>
        <time>2017-08-20T14:42:19Z</time>
      </trkpt>
      <trkpt lat="48.70956" lon="2.03751">
        <ele>88</ele>
        <time>2017-08-20T14:42:35Z</time>
      </trkpt>
      <trkpt lat="48.70959" lon="2.03746">
        <ele>101</ele>
        <time>2017-08-20T14:42:35Z</time>
      </trkpt>
      <trkpt lat="48.70962" lon="2.03739">
        <ele>101</ele>
        <time>2017-08-20T14:42:35Z</time>
      </trkpt>
      <trkpt lat="48.70965" lon="2.03732">
        <ele>101</ele>
        <time>2017-08-20T14:42:35Z</time>
      </trkpt>
      <trkpt lat="48.70966" lon="2.03726">
        <ele>101</ele>
        <time>2017-08-20T14:42:51Z</time>
      </trkpt>
      <trkpt lat="48.70966" lon="2.03723">
        <ele>101</ele>
        <time>2017-08-20T14:42:51Z</time>
      </trkpt>
      <trkpt lat="48.70969" lon="2.0372">
        <ele>101</ele>
        <time>2017-08-20T14:42:51Z</time>
      </trkpt>
      <trkpt lat="48.70971" lon="2.03714">
        <ele>101</ele>
        <time>2017-08-20T14:42:51Z</time>
      </trkpt>
      <trkpt lat="48.70975" lon="2.03708">
        <ele>96</ele>
        <time>2017-08-20T14:43:07Z</time>
      </trkpt>
      <trkpt lat="48.70979" lon="2.03704">
        <ele>96</ele>
        <time>2017-08-20T14:43:07Z</time>
      </trkpt>
      <trkpt lat="48.70982" lon="2.03699">
        <ele>96</ele>
        <time>2017-08-20T14:43:07Z</time>
      </trkpt>
      <trkpt lat="48.70985" lon="2.03693">
        <ele>96</ele>
        <time>2017-08-20T14:43:07Z</time>
      </trkpt>
      <trkpt lat="48.70988" lon="2.03688">
        <ele>96</ele>
        <time>2017-08-20T14:43:23Z</time>
      </trkpt>
      <trkpt lat="48.70991" lon="2.03683">
        <ele>96</ele>
        <time>2017-08-20T14:43:23Z</time>
      </trkpt>
      <trkpt lat="48.70993" lon="2.03676">
        <ele>96</ele>
        <time>2017-08-20T14:43:23Z</time>
      </trkpt>
      <trkpt lat="48.70995" lon="2.03669">
        <ele>96</ele>
        <time>2017-08-20T14:43:23Z</time>
      </trkpt>
      <trkpt lat="48.70996" lon="2.03663">
        <ele>96</ele>
        <time>2017-08-20T14:43:39Z</time>
      </trkpt>
      <trkpt lat="48.70997" lon="2.03657">
        <ele>96</ele>
        <time>2017-08-20T14:43:39Z</time>
      </trkpt>
      <trkpt lat="48.71001" lon="2.03652">
        <ele>96</ele>
        <time>2017-08-20T14:43:39Z</time>
      </trkpt>
      <trkpt lat="48.71006" lon="2.03647">
        <ele>96</ele>
        <time>2017-08-20T14:43:39Z</time>
      </trkpt>
      <trkpt lat="48.7101" lon="2.0364">
        <ele>96</ele>
        <time>2017-08-20T14:43:55Z</time>
      </trkpt>
      <trkpt lat="48.71013" lon="2.03634">
        <ele>96</ele>
        <time>2017-08-20T14:43:55Z</time>
      </trkpt>
      <trkpt lat="48.71014" lon="2.03627">
        <ele>96</ele>
        <time>2017-08-20T14:43:55Z</time>
      </trkpt>
      <trkpt lat="48.71015" lon="2.0362">
        <ele>93</ele>
        <time>2017-08-20T14:43:55Z</time>
      </trkpt>
      <trkpt lat="48.71017" lon="2.03614">
        <ele>93</ele>
        <time>2017-08-20T14:44:11Z</time>
      </trkpt>
      <trkpt lat="48.71019" lon="2.03606">
        <ele>93</ele>
        <time>2017-08-20T14:44:11Z</time>
      </trkpt>
      <trkpt lat="48.7102" lon="2.036">
        <ele>93</ele>
        <time>2017-08-20T14:44:11Z</time>
      </trkpt>
      <trkpt lat="48.71022" lon="2.03595">
        <ele>93</ele>
        <time>2017-08-20T14:44:11Z</time>
      </trkpt>
      <trkpt lat="48.71022" lon="2.03588">
        <ele>93</ele>
        <time>2017-08-20T14:44:27Z</time>
      </trkpt>
      <trkpt lat="48.71024" lon="2.0358">
        <ele>93</ele>
        <time>2017-08-20T14:44:27Z</time>
      </trkpt>
      <trkpt lat="48.71024" lon="2.03574">
        <ele>93</ele>
        <time>2017-08-20T14:44:27Z</time>
      </trkpt>
      <trkpt lat="48.71024" lon="2.03565">
        <ele>93</ele>
        <time>2017-08-20T14:44:27Z</time>
      </trkpt>
      <trkpt lat="48.71025" lon="2.03556">
        <ele>93</ele>
        <time>2017-08-20T14:44:43Z</time>
      </trkpt>
      <trkpt lat="48.71026" lon="2.03549">
        <ele>93</ele>
        <time>2017-08-20T14:44:43Z</time>
      </trkpt>
      <trkpt lat="48.71028" lon="2.0354">
        <ele>92</ele>
        <time>2017-08-20T14:44:43Z</time>
      </trkpt>
      <trkpt lat="48.7103" lon="2.03535">
        <ele>92</ele>
        <time>2017-08-20T14:44:43Z</time>
      </trkpt>
      <trkpt lat="48.71032" lon="2.03525">
        <ele>92</ele>
        <time>2017-08-20T14:44:59Z</time>
      </trkpt>
      <trkpt lat="48.71034" lon="2.03519">
        <ele>92</ele>
        <time>2017-08-20T14:44:59Z</time>
      </trkpt>
      <trkpt lat="48.71038" lon="2.03513">
        <ele>92</ele>
        <time>2017-08-20T14:44:59Z</time>
      </trkpt>
      <trkpt lat="48.71042" lon="2.03509">
        <ele>92</ele>
        <time>2017-08-20T14:44:59Z</time>
      </trkpt>
      <trkpt lat="48.71046" lon="2.03504">
        <ele>106</ele>
        <time>2017-08-20T14:45:15Z</time>
      </trkpt>
      <trkpt lat="48.7105" lon="2.03498">
        <ele>106</ele>
        <time>2017-08-20T14:45:15Z</time>
      </trkpt>
      <trkpt lat="48.71054" lon="2.03493">
        <ele>106</ele>
        <time>2017-08-20T14:45:15Z</time>
      </trkpt>
      <trkpt lat="48.71057" lon="2.03486">
        <ele>106</ele>
        <time>2017-08-20T14:45:15Z</time>
      </trkpt>
      <trkpt lat="48.71063" lon="2.03481">
        <ele>106</ele>
        <time>2017-08-20T14:45:31Z</time>
      </trkpt>
      <trkpt lat="48.71065" lon="2.03475">
        <ele>106</ele>
        <time>2017-08-20T14:45:31Z</time>
      </trkpt>
      <trkpt lat="48.71069" lon="2.03469">
        <ele>106</ele>
        <time>2017-08-20T14:45:31Z</time>
      </trkpt>
      <trkpt lat="48.71072" lon="2.03462">
        <ele>106</ele>
        <time>2017-08-20T14:45:31Z</time>
      </trkpt>
      <trkpt lat="48.71076" lon="2.03456">
        <ele>95</ele>
        <time>2017-08-20T14:45:47Z</time>
      </trkpt>
      <trkpt lat="48.71082" lon="2.03455">
        <ele>95</ele>
        <time>2017-08-20T14:45:47Z</time>
      </trkpt>
      <trkpt lat="48.71088" lon="2.03454">
        <ele>95</ele>
        <time>2017-08-20T14:45:47Z</time>
      </trkpt>
      <trkpt lat="48.71091" lon="2.0345">
        <ele>95</ele>
        <time>2017-08-20T14:45:47Z</time>
      </trkpt>
      <trkpt lat="48.71095" lon="2.03449">
        <ele>95</ele>
        <time>2017-08-20T14:46:03Z</time>
      </trkpt>
      <trkpt lat="48.71098" lon="2.03443">
        <ele>95</ele>
        <time>2017-08-20T14:46:03Z</time>
      </trkpt>
      <trkpt lat="48.71102" lon="2.03434">
        <ele>95</ele>
        <time>2017-08-20T14:46:03Z</time>
      </trkpt>
      <trkpt lat="48.71105" lon="2.03432">
        <ele>95</ele>
        <time>2017-08-20T14:46:03Z</time>
      </trkpt>
      <trkpt lat="48.71108" lon="2.03429">
        <ele>95</ele>
        <time>2017-08-20T14:46:19Z</time>
      </trkpt>
      <trkpt lat="48.71109" lon="2.03422">
        <ele>95</ele>
        <time>2017-08-20T14:46:19Z</time>
      </trkpt>
      <trkpt lat="48.71112" lon="2.03413">
        <ele>95</ele>
        <time>2017-08-20T14:46:19Z</time>
      </trkpt>
      <trkpt lat="48.71116" lon="2.0341">
        <ele>95</ele>
        <time>2017-08-20T14:46:19Z</time>
      </trkpt>
      <trkpt lat="48.71121" lon="2.03408">
        <ele>95</ele>
        <time>2017-08-20T14:46:35Z</time>
      </trkpt>
      <trkpt lat="48.71125" lon="2.03406">
        <ele>106</ele>
        <time>2017-08-20T14:46:35Z</time>
      </trkpt>
      <trkpt lat="48.71128" lon="2.03405">
        <ele>106</ele>
        <time>2017-08-20T14:46:35Z</time>
      </trkpt>
      <trkpt lat="48.71136" lon="2.03399">
        <ele>106</ele>
        <time>2017-08-20T14:46:35Z</time>
      </trkpt>
      <trkpt lat="48.7114" lon="2.03394">
        <ele>106</ele>
        <time>2017-08-20T14:46:51Z</time>
      </trkpt>
      <trkpt lat="48.71146" lon="2.0339">
        <ele>106</ele>
        <time>2017-08-20T14:46:51Z</time>
      </trkpt>
      <trkpt lat="48.71152" lon="2.03386">
        <ele>106</ele>
        <time>2017-08-20T14:46:51Z</time>
      </trkpt>
      <trkpt lat="48.71154" lon="2.03385">
        <ele>106</ele>
        <time>2017-08-20T14:46:51Z</time>
      </trkpt>
      <trkpt lat="48.71155" lon="2.03386">
        <ele>106</ele>
        <time>2017-08-20T14:47:11Z</time>
      </trkpt>
      <trkpt lat="48.71155" lon="2.03386">
        <ele>106</ele>
        <time>2017-08-20T14:47:11Z</time>
      </trkpt>
      <trkpt lat="48.71157" lon="2.03389">
        <ele>106</ele>
        <time>2017-08-20T14:47:11Z</time>
      </trkpt>
      <trkpt lat="48.71161" lon="2.03392">
        <ele>106</ele>
        <time>2017-08-20T14:47:11Z</time>
      </trkpt>
      <trkpt lat="48.71168" lon="2.03388">
        <ele>106</ele>
        <time>2017-08-20T14:47:11Z</time>
      </trkpt>
      <trkpt lat="48.71171" lon="2.03388">
        <ele>106</ele>
        <time>2017-08-20T14:47:27Z</time>
      </trkpt>
      <trkpt lat="48.71173" lon="2.03386">
        <ele>106</ele>
        <time>2017-08-20T14:47:27Z</time>
      </trkpt>
      <trkpt lat="48.71177" lon="2.03385">
        <ele>106</ele>
        <time>2017-08-20T14:47:27Z</time>
      </trkpt>
      <trkpt lat="48.71183" lon="2.03385">
        <ele>106</ele>
        <time>2017-08-20T14:47:27Z</time>
      </trkpt>
      <trkpt lat="48.71187" lon="2.03385">
        <ele>106</ele>
        <time>2017-08-20T14:47:43Z</time>
      </trkpt>
      <trkpt lat="48.71193" lon="2.03385">
        <ele>106</ele>
        <time>2017-08-20T14:47:43Z</time>
      </trkpt>
      <trkpt lat="48.71198" lon="2.03385">
        <ele>106</ele>
        <time>2017-08-20T14:47:43Z</time>
      </trkpt>
      <trkpt lat="48.71204" lon="2.03386">
        <ele>106</ele>
        <time>2017-08-20T14:47:43Z</time>
      </trkpt>
      <trkpt lat="48.7121" lon="2.03384">
        <ele>115</ele>
        <time>2017-08-20T14:47:59Z</time>
      </trkpt>
      <trkpt lat="48.71215" lon="2.03384">
        <ele>115</ele>
        <time>2017-08-20T14:47:59Z</time>
      </trkpt>
      <trkpt lat="48.71219" lon="2.03381">
        <ele>115</ele>
        <time>2017-08-20T14:47:59Z</time>
      </trkpt>
      <trkpt lat="48.71225" lon="2.03381">
        <ele>115</ele>
        <time>2017-08-20T14:47:59Z</time>
      </trkpt>
      <trkpt lat="48.71231" lon="2.03381">
        <ele>115</ele>
        <time>2017-08-20T14:48:15Z</time>
      </trkpt>
      <trkpt lat="48.71236" lon="2.03379">
        <ele>115</ele>
        <time>2017-08-20T14:48:15Z</time>
      </trkpt>
      <trkpt lat="48.7124" lon="2.03378">
        <ele>115</ele>
        <time>2017-08-20T14:48:15Z</time>
      </trkpt>
      <trkpt lat="48.71246" lon="2.03376">
        <ele>115</ele>
        <time>2017-08-20T14:48:15Z</time>
      </trkpt>
      <trkpt lat="48.7125" lon="2.03373">
        <ele>108</ele>
        <time>2017-08-20T14:48:31Z</time>
      </trkpt>
      <trkpt lat="48.71255" lon="2.0337">
        <ele>108</ele>
        <time>2017-08-20T14:48:31Z</time>
      </trkpt>
      <trkpt lat="48.71259" lon="2.03366">
        <ele>108</ele>
        <time>2017-08-20T14:48:31Z</time>
      </trkpt>
      <trkpt lat="48.7126" lon="2.03364">
        <ele>108</ele>
        <time>2017-08-20T14:48:31Z</time>
      </trkpt>
      <trkpt lat="48.71263" lon="2.03357">
        <ele>108</ele>
        <time>2017-08-20T14:48:47Z</time>
      </trkpt>
      <trkpt lat="48.71267" lon="2.03351">
        <ele>108</ele>
        <time>2017-08-20T14:48:47Z</time>
      </trkpt>
      <trkpt lat="48.7127" lon="2.03347">
        <ele>108</ele>
        <time>2017-08-20T14:48:47Z</time>
      </trkpt>
      <trkpt lat="48.71272" lon="2.03342">
        <ele>108</ele>
        <time>2017-08-20T14:48:47Z</time>
      </trkpt>
      <trkpt lat="48.71275" lon="2.03336">
        <ele>108</ele>
        <time>2017-08-20T14:49:03Z</time>
      </trkpt>
      <trkpt lat="48.71278" lon="2.03332">
        <ele>108</ele>
        <time>2017-08-20T14:49:03Z</time>
      </trkpt>
      <trkpt lat="48.71279" lon="2.03325">
        <ele>108</ele>
        <time>2017-08-20T14:49:03Z</time>
      </trkpt>
      <trkpt lat="48.71281" lon="2.03318">
        <ele>108</ele>
        <time>2017-08-20T14:49:03Z</time>
      </trkpt>
      <trkpt lat="48.71286" lon="2.03303">
        <ele>108</ele>
        <time>2017-08-20T14:49:35Z</time>
      </trkpt>
      <trkpt lat="48.71285" lon="2.03301">
        <ele>108</ele>
        <time>2017-08-20T14:49:35Z</time>
      </trkpt>
      <trkpt lat="48.71284" lon="2.03298">
        <ele>108</ele>
        <time>2017-08-20T14:49:35Z</time>
      </trkpt>
      <trkpt lat="48.71286" lon="2.03296">
        <ele>108</ele>
        <time>2017-08-20T14:49:35Z</time>
      </trkpt>
      <trkpt lat="48.71285" lon="2.03293">
        <ele>108</ele>
        <time>2017-08-20T14:49:35Z</time>
      </trkpt>
      <trkpt lat="48.71286" lon="2.03292">
        <ele>108</ele>
        <time>2017-08-20T14:49:51Z</time>
      </trkpt>
      <trkpt lat="48.71286" lon="2.03287">
        <ele>106</ele>
        <time>2017-08-20T14:49:51Z</time>
      </trkpt>
      <trkpt lat="48.71288" lon="2.03282">
        <ele>106</ele>
        <time>2017-08-20T14:49:51Z</time>
      </trkpt>
      <trkpt lat="48.71293" lon="2.03281">
        <ele>133</ele>
        <time>2017-08-20T14:49:51Z</time>
      </trkpt>
      <trkpt lat="48.71298" lon="2.03275">
        <ele>133</ele>
        <time>2017-08-20T14:50:07Z</time>
      </trkpt>
      <trkpt lat="48.71302" lon="2.03271">
        <ele>133</ele>
        <time>2017-08-20T14:50:07Z</time>
      </trkpt>
      <trkpt lat="48.71304" lon="2.03267">
        <ele>133</ele>
        <time>2017-08-20T14:50:07Z</time>
      </trkpt>
      <trkpt lat="48.71306" lon="2.03265">
        <ele>133</ele>
        <time>2017-08-20T14:50:07Z</time>
      </trkpt>
      <trkpt lat="48.71309" lon="2.03261">
        <ele>133</ele>
        <time>2017-08-20T14:50:23Z</time>
      </trkpt>
      <trkpt lat="48.71314" lon="2.03253">
        <ele>133</ele>
        <time>2017-08-20T14:50:23Z</time>
      </trkpt>
      <trkpt lat="48.71317" lon="2.03249">
        <ele>133</ele>
        <time>2017-08-20T14:50:23Z</time>
      </trkpt>
      <trkpt lat="48.7132" lon="2.03246">
        <ele>133</ele>
        <time>2017-08-20T14:50:23Z</time>
      </trkpt>
      <trkpt lat="48.71323" lon="2.03241">
        <ele>133</ele>
        <time>2017-08-20T14:50:39Z</time>
      </trkpt>
      <trkpt lat="48.71325" lon="2.03237">
        <ele>133</ele>
        <time>2017-08-20T14:50:39Z</time>
      </trkpt>
      <trkpt lat="48.71329" lon="2.03226">
        <ele>133</ele>
        <time>2017-08-20T14:50:39Z</time>
      </trkpt>
      <trkpt lat="48.71333" lon="2.03219">
        <ele>133</ele>
        <time>2017-08-20T14:50:39Z</time>
      </trkpt>
      <trkpt lat="48.71335" lon="2.03213">
        <ele>133</ele>
        <time>2017-08-20T14:50:55Z</time>
      </trkpt>
      <trkpt lat="48.71334" lon="2.03204">
        <ele>132</ele>
        <time>2017-08-20T14:50:55Z</time>
      </trkpt>
      <trkpt lat="48.71335" lon="2.03199">
        <ele>132</ele>
        <time>2017-08-20T14:50:55Z</time>
      </trkpt>
      <trkpt lat="48.71338" lon="2.03194">
        <ele>132</ele>
        <time>2017-08-20T14:50:55Z</time>
      </trkpt>
      <trkpt lat="48.71342" lon="2.0319">
        <ele>132</ele>
        <time>2017-08-20T14:51:11Z</time>
      </trkpt>
      <trkpt lat="48.71345" lon="2.03186">
        <ele>132</ele>
        <time>2017-08-20T14:51:11Z</time>
      </trkpt>
      <trkpt lat="48.71346" lon="2.03181">
        <ele>132</ele>
        <time>2017-08-20T14:51:11Z</time>
      </trkpt>
      <trkpt lat="48.71352" lon="2.03178">
        <ele>132</ele>
        <time>2017-08-20T14:51:11Z</time>
      </trkpt>
      <trkpt lat="48.71354" lon="2.03174">
        <ele>132</ele>
        <time>2017-08-20T14:51:27Z</time>
      </trkpt>
      <trkpt lat="48.71358" lon="2.03168">
        <ele>132</ele>
        <time>2017-08-20T14:51:27Z</time>
      </trkpt>
      <trkpt lat="48.71361" lon="2.03166">
        <ele>132</ele>
        <time>2017-08-20T14:51:27Z</time>
      </trkpt>
      <trkpt lat="48.71365" lon="2.03167">
        <ele>132</ele>
        <time>2017-08-20T14:51:27Z</time>
      </trkpt>
      <trkpt lat="48.71368" lon="2.03165">
        <ele>132</ele>
        <time>2017-08-20T14:51:43Z</time>
      </trkpt>
      <trkpt lat="48.71371" lon="2.03163">
        <ele>132</ele>
        <time>2017-08-20T14:51:43Z</time>
      </trkpt>
      <trkpt lat="48.71375" lon="2.03161">
        <ele>132</ele>
        <time>2017-08-20T14:51:43Z</time>
      </trkpt>
      <trkpt lat="48.71379" lon="2.0316">
        <ele>156</ele>
        <time>2017-08-20T14:51:43Z</time>
      </trkpt>
      <trkpt lat="48.71379" lon="2.0316">
        <ele>156</ele>
        <time>2017-08-20T14:51:59Z</time>
      </trkpt>
      <trkpt lat="48.71382" lon="2.03157">
        <ele>156</ele>
        <time>2017-08-20T14:51:59Z</time>
      </trkpt>
      <trkpt lat="48.71385" lon="2.03157">
        <ele>156</ele>
        <time>2017-08-20T14:51:59Z</time>
      </trkpt>
      <trkpt lat="48.71389" lon="2.03156">
        <ele>156</ele>
        <time>2017-08-20T14:51:59Z</time>
      </trkpt>
      <trkpt lat="48.71392" lon="2.03154">
        <ele>156</ele>
        <time>2017-08-20T14:52:15Z</time>
      </trkpt>
      <trkpt lat="48.71397" lon="2.03152">
        <ele>156</ele>
        <time>2017-08-20T14:52:15Z</time>
      </trkpt>
      <trkpt lat="48.71401" lon="2.0315">
        <ele>156</ele>
        <time>2017-08-20T14:52:15Z</time>
      </trkpt>
      <trkpt lat="48.71403" lon="2.03147">
        <ele>156</ele>
        <time>2017-08-20T14:52:15Z</time>
      </trkpt>
      <trkpt lat="48.71406" lon="2.03142">
        <ele>156</ele>
        <time>2017-08-20T14:52:39Z</time>
      </trkpt>
      <trkpt lat="48.71409" lon="2.03138">
        <ele>156</ele>
        <time>2017-08-20T14:52:39Z</time>
      </trkpt>
      <trkpt lat="48.71408" lon="2.03136">
        <ele>156</ele>
        <time>2017-08-20T14:52:39Z</time>
      </trkpt>
      <trkpt lat="48.71407" lon="2.03133">
        <ele>156</ele>
        <time>2017-08-20T14:52:39Z</time>
      </trkpt>
      <trkpt lat="48.71407" lon="2.03131">
        <ele>156</ele>
        <time>2017-08-20T14:52:39Z</time>
      </trkpt>
      <trkpt lat="48.71404" lon="2.03123">
        <ele>157</ele>
        <time>2017-08-20T14:52:55Z</time>
      </trkpt>
      <trkpt lat="48.71404" lon="2.03116">
        <ele>157</ele>
        <time>2017-08-20T14:52:55Z</time>
      </trkpt>
      <trkpt lat="48.71406" lon="2.03105">
        <ele>157</ele>
        <time>2017-08-20T14:52:55Z</time>
      </trkpt>
      <trkpt lat="48.71406" lon="2.03104">
        <ele>157</ele>
        <time>2017-08-20T14:52:55Z</time>
      </trkpt>
      <trkpt lat="48.71408" lon="2.03099">
        <ele>157</ele>
        <time>2017-08-20T14:53:15Z</time>
      </trkpt>
      <trkpt lat="48.71412" lon="2.03094">
        <ele>157</ele>
        <time>2017-08-20T14:53:15Z</time>
      </trkpt>
      <trkpt lat="48.71414" lon="2.03092">
        <ele>157</ele>
        <time>2017-08-20T14:53:15Z</time>
      </trkpt>
      <trkpt lat="48.71415" lon="2.03091">
        <ele>157</ele>
        <time>2017-08-20T14:53:15Z</time>
      </trkpt>
      <trkpt lat="48.71418" lon="2.03089">
        <ele>157</ele>
        <time>2017-08-20T14:53:15Z</time>
      </trkpt>
      <trkpt lat="48.71419" lon="2.03089">
        <ele>157</ele>
        <time>2017-08-20T14:53:31Z</time>
      </trkpt>
      <trkpt lat="48.71423" lon="2.03087">
        <ele>157</ele>
        <time>2017-08-20T14:53:31Z</time>
      </trkpt>
      <trkpt lat="48.71425" lon="2.03084">
        <ele>157</ele>
        <time>2017-08-20T14:53:31Z</time>
      </trkpt>
      <trkpt lat="48.71428" lon="2.03083">
        <ele>157</ele>
        <time>2017-08-20T14:53:31Z</time>
      </trkpt>
      <trkpt lat="48.7143" lon="2.03081">
        <ele>157</ele>
        <time>2017-08-20T14:53:47Z</time>
      </trkpt>
      <trkpt lat="48.71435" lon="2.0308">
        <ele>157</ele>
        <time>2017-08-20T14:53:47Z</time>
      </trkpt>
      <trkpt lat="48.71436" lon="2.0308">
        <ele>157</ele>
        <time>2017-08-20T14:53:47Z</time>
      </trkpt>
      <trkpt lat="48.71439" lon="2.03081">
        <ele>157</ele>
        <time>2017-08-20T14:53:47Z</time>
      </trkpt>
      <trkpt lat="48.71442" lon="2.03082">
        <ele>157</ele>
        <time>2017-08-20T14:54:03Z</time>
      </trkpt>
      <trkpt lat="48.71444" lon="2.0308">
        <ele>157</ele>
        <time>2017-08-20T14:54:03Z</time>
      </trkpt>
      <trkpt lat="48.71446" lon="2.03077">
        <ele>157</ele>
        <time>2017-08-20T14:54:03Z</time>
      </trkpt>
      <trkpt lat="48.7145" lon="2.03073">
        <ele>157</ele>
        <time>2017-08-20T14:54:03Z</time>
      </trkpt>
      <trkpt lat="48.71453" lon="2.0307">
        <ele>157</ele>
        <time>2017-08-20T14:54:23Z</time>
      </trkpt>
      <trkpt lat="48.71454" lon="2.03065">
        <ele>157</ele>
        <time>2017-08-20T14:54:23Z</time>
      </trkpt>
      <trkpt lat="48.71455" lon="2.03063">
        <ele>157</ele>
        <time>2017-08-20T14:54:23Z</time>
      </trkpt>
      <trkpt lat="48.71457" lon="2.0306">
        <ele>157</ele>
        <time>2017-08-20T14:54:23Z</time>
      </trkpt>
      <trkpt lat="48.71461" lon="2.03056">
        <ele>168</ele>
        <time>2017-08-20T14:54:23Z</time>
      </trkpt>
      <trkpt lat="48.71465" lon="2.03055">
        <ele>168</ele>
        <time>2017-08-20T14:54:39Z</time>
      </trkpt>
      <trkpt lat="48.71465" lon="2.03056">
        <ele>168</ele>
        <time>2017-08-20T14:54:39Z</time>
      </trkpt>
      <trkpt lat="48.71467" lon="2.03056">
        <ele>168</ele>
        <time>2017-08-20T14:54:39Z</time>
      </trkpt>
      <trkpt lat="48.71474" lon="2.03052">
        <ele>168</ele>
        <time>2017-08-20T14:54:39Z</time>
      </trkpt>
      <trkpt lat="48.71476" lon="2.03049">
        <ele>168</ele>
        <time>2017-08-20T14:54:55Z</time>
      </trkpt>
      <trkpt lat="48.71479" lon="2.03047">
        <ele>168</ele>
        <time>2017-08-20T14:54:55Z</time>
      </trkpt>
      <trkpt lat="48.71485" lon="2.03057">
        <ele>168</ele>
        <time>2017-08-20T14:54:55Z</time>
      </trkpt>
      <trkpt lat="48.71488" lon="2.03062">
        <ele>168</ele>
        <time>2017-08-20T14:54:55Z</time>
      </trkpt>
      <trkpt lat="48.71487" lon="2.0306">
        <ele>168</ele>
        <time>2017-08-20T14:55:11Z</time>
      </trkpt>
      <trkpt lat="48.71487" lon="2.03059">
        <ele>168</ele>
        <time>2017-08-20T14:55:11Z</time>
      </trkpt>
      <trkpt lat="48.71494" lon="2.03062">
        <ele>168</ele>
        <time>2017-08-20T14:55:11Z</time>
      </trkpt>
      <trkpt lat="48.71497" lon="2.03064">
        <ele>168</ele>
        <time>2017-08-20T14:55:11Z</time>
      </trkpt>
      <trkpt lat="48.71503" lon="2.03053">
        <ele>168</ele>
        <time>2017-08-20T14:56:23Z</time>
      </trkpt>
      <trkpt lat="48.71503" lon="2.03052">
        <ele>168</ele>
        <time>2017-08-20T14:56:23Z</time>
      </trkpt>
      <trkpt lat="48.71503" lon="2.03048">
        <ele>168</ele>
        <time>2017-08-20T14:56:23Z</time>
      </trkpt>
      <trkpt lat="48.71501" lon="2.03041">
        <ele>170</ele>
        <time>2017-08-20T14:56:23Z</time>
      </trkpt>
      <trkpt lat="48.71501" lon="2.03041">
        <ele>170</ele>
        <time>2017-08-20T14:56:23Z</time>
      </trkpt>
      <trkpt lat="48.71505" lon="2.03041">
        <ele>170</ele>
        <time>2017-08-20T15:00:27Z</time>
      </trkpt>
      <trkpt lat="48.7151" lon="2.0304">
        <ele>170</ele>
        <time>2017-08-20T15:00:27Z</time>
      </trkpt>
      <trkpt lat="48.71513" lon="2.03037">
        <ele>170</ele>
        <time>2017-08-20T15:00:27Z</time>
      </trkpt>
      <trkpt lat="48.71514" lon="2.03036">
        <ele>170</ele>
        <time>2017-08-20T15:00:27Z</time>
      </trkpt>
      <trkpt lat="48.71519" lon="2.03034">
        <ele>170</ele>
        <time>2017-08-20T15:00:27Z</time>
      </trkpt>
      <trkpt lat="48.71523" lon="2.03032">
        <ele>170</ele>
        <time>2017-08-20T15:00:43Z</time>
      </trkpt>
      <trkpt lat="48.7153" lon="2.0303">
        <ele>170</ele>
        <time>2017-08-20T15:00:43Z</time>
      </trkpt>
      <trkpt lat="48.71536" lon="2.03029">
        <ele>170</ele>
        <time>2017-08-20T15:00:43Z</time>
      </trkpt>
      <trkpt lat="48.7154" lon="2.03026">
        <ele>170</ele>
        <time>2017-08-20T15:00:43Z</time>
      </trkpt>
      <trkpt lat="48.71542" lon="2.03024">
        <ele>174</ele>
        <time>2017-08-20T15:01:03Z</time>
      </trkpt>
      <trkpt lat="48.71546" lon="2.03022">
        <ele>174</ele>
        <time>2017-08-20T15:01:03Z</time>
      </trkpt>
      <trkpt lat="48.71545" lon="2.03018">
        <ele>174</ele>
        <time>2017-08-20T15:01:03Z</time>
      </trkpt>
      <trkpt lat="48.7155" lon="2.03017">
        <ele>174</ele>
        <time>2017-08-20T15:01:03Z</time>
      </trkpt>
      <trkpt lat="48.71552" lon="2.03016">
        <ele>174</ele>
        <time>2017-08-20T15:01:03Z</time>
      </trkpt>
      <trkpt lat="48.71555" lon="2.03016">
        <ele>174</ele>
        <time>2017-08-20T15:01:19Z</time>
      </trkpt>
      <trkpt lat="48.71562" lon="2.03016">
        <ele>174</ele>
        <time>2017-08-20T15:01:19Z</time>
      </trkpt>
      <trkpt lat="48.71566" lon="2.03014">
        <ele>174</ele>
        <time>2017-08-20T15:01:19Z</time>
      </trkpt>
      <trkpt lat="48.71571" lon="2.03013">
        <ele>174</ele>
        <time>2017-08-20T15:01:19Z</time>
      </trkpt>
      <trkpt lat="48.7158" lon="2.03014">
        <ele>174</ele>
        <time>2017-08-20T15:01:35Z</time>
      </trkpt>
      <trkpt lat="48.71589" lon="2.03011">
        <ele>174</ele>
        <time>2017-08-20T15:01:35Z</time>
      </trkpt>
      <trkpt lat="48.71592" lon="2.03005">
        <ele>174</ele>
        <time>2017-08-20T15:01:35Z</time>
      </trkpt>
      <trkpt lat="48.71594" lon="2.03002">
        <ele>174</ele>
        <time>2017-08-20T15:01:35Z</time>
      </trkpt>
      <trkpt lat="48.71598" lon="2.03005">
        <ele>174</ele>
        <time>2017-08-20T15:01:55Z</time>
      </trkpt>
      <trkpt lat="48.71601" lon="2.03007">
        <ele>174</ele>
        <time>2017-08-20T15:01:55Z</time>
      </trkpt>
      <trkpt lat="48.71602" lon="2.03003">
        <ele>174</ele>
        <time>2017-08-20T15:01:55Z</time>
      </trkpt>
      <trkpt lat="48.71605" lon="2.03001">
        <ele>174</ele>
        <time>2017-08-20T15:01:55Z</time>
      </trkpt>
      <trkpt lat="48.7161" lon="2.02998">
        <ele>174</ele>
        <time>2017-08-20T15:01:55Z</time>
      </trkpt>
      <trkpt lat="48.71615" lon="2.02999">
        <ele>174</ele>
        <time>2017-08-20T15:02:11Z</time>
      </trkpt>
      <trkpt lat="48.7162" lon="2.02998">
        <ele>174</ele>
        <time>2017-08-20T15:02:11Z</time>
      </trkpt>
      <trkpt lat="48.71624" lon="2.02998">
        <ele>174</ele>
        <time>2017-08-20T15:02:11Z</time>
      </trkpt>
      <trkpt lat="48.71629" lon="2.02999">
        <ele>175</ele>
        <time>2017-08-20T15:02:11Z</time>
      </trkpt>
      <trkpt lat="48.71635" lon="2.03001">
        <ele>175</ele>
        <time>2017-08-20T15:02:27Z</time>
      </trkpt>
      <trkpt lat="48.71639" lon="2.02999">
        <ele>175</ele>
        <time>2017-08-20T15:02:27Z</time>
      </trkpt>
      <trkpt lat="48.71649" lon="2.02998">
        <ele>175</ele>
        <time>2017-08-20T15:02:27Z</time>
      </trkpt>
      <trkpt lat="48.71654" lon="2.02997">
        <ele>175</ele>
        <time>2017-08-20T15:02:27Z</time>
      </trkpt>
      <trkpt lat="48.71654" lon="2.02998">
        <ele>175</ele>
        <time>2017-08-20T15:02:43Z</time>
      </trkpt>
      <trkpt lat="48.71658" lon="2.02997">
        <ele>175</ele>
        <time>2017-08-20T15:02:43Z</time>
      </trkpt>
      <trkpt lat="48.71666" lon="2.02996">
        <ele>175</ele>
        <time>2017-08-20T15:02:43Z</time>
      </trkpt>
      <trkpt lat="48.71676" lon="2.02999">
        <ele>175</ele>
        <time>2017-08-20T15:02:43Z</time>
      </trkpt>
      <trkpt lat="48.71683" lon="2.02997">
        <ele>175</ele>
        <time>2017-08-20T15:02:59Z</time>
      </trkpt>
      <trkpt lat="48.71689" lon="2.03">
        <ele>175</ele>
        <time>2017-08-20T15:02:59Z</time>
      </trkpt>
      <trkpt lat="48.71693" lon="2.02997">
        <ele>175</ele>
        <time>2017-08-20T15:02:59Z</time>
      </trkpt>
      <trkpt lat="48.71696" lon="2.02997">
        <ele>175</ele>
        <time>2017-08-20T15:02:59Z</time>
      </trkpt>
      <trkpt lat="48.71697" lon="2.03003">
        <ele>175</ele>
        <time>2017-08-20T15:03:15Z</time>
      </trkpt>
      <trkpt lat="48.71701" lon="2.03002">
        <ele>175</ele>
        <time>2017-08-20T15:03:15Z</time>
      </trkpt>
      <trkpt lat="48.71707" lon="2.02999">
        <ele>175</ele>
        <time>2017-08-20T15:03:15Z</time>
      </trkpt>
      <trkpt lat="48.71713" lon="2.02998">
        <ele>175</ele>
        <time>2017-08-20T15:03:15Z</time>
      </trkpt>
      <trkpt lat="48.71722" lon="2.03003">
        <ele>175</ele>
        <time>2017-08-20T15:03:31Z</time>
      </trkpt>
      <trkpt lat="48.71724" lon="2.02999">
        <ele>175</ele>
        <time>2017-08-20T15:03:31Z</time>
      </trkpt>
      <trkpt lat="48.71732" lon="2.02999">
        <ele>175</ele>
        <time>2017-08-20T15:03:31Z</time>
      </trkpt>
      <trkpt lat="48.71734" lon="2.02995">
        <ele>175</ele>
        <time>2017-08-20T15:03:31Z</time>
      </trkpt>
      <trkpt lat="48.7174" lon="2.02991">
        <ele>175</ele>
        <time>2017-08-20T15:03:47Z</time>
      </trkpt>
      <trkpt lat="48.71747" lon="2.02991">
        <ele>175</ele>
        <time>2017-08-20T15:03:47Z</time>
      </trkpt>
      <trkpt lat="48.71753" lon="2.02995">
        <ele>175</ele>
        <time>2017-08-20T15:03:47Z</time>
      </trkpt>
      <trkpt lat="48.71759" lon="2.02993">
        <ele>175</ele>
        <time>2017-08-20T15:03:47Z</time>
      </trkpt>
      <trkpt lat="48.71766" lon="2.02993">
        <ele>175</ele>
        <time>2017-08-20T15:04:03Z</time>
      </trkpt>
      <trkpt lat="48.71774" lon="2.02995">
        <ele>175</ele>
        <time>2017-08-20T15:04:03Z</time>
      </trkpt>
      <trkpt lat="48.7178" lon="2.02997">
        <ele>175</ele>
        <time>2017-08-20T15:04:03Z</time>
      </trkpt>
      <trkpt lat="48.71783" lon="2.02996">
        <ele>175</ele>
        <time>2017-08-20T15:04:03Z</time>
      </trkpt>
      <trkpt lat="48.71785" lon="2.02997">
        <ele>175</ele>
        <time>2017-08-20T15:04:19Z</time>
      </trkpt>
      <trkpt lat="48.71789" lon="2.02996">
        <ele>175</ele>
        <time>2017-08-20T15:04:19Z</time>
      </trkpt>
      <trkpt lat="48.71792" lon="2.02994">
        <ele>177</ele>
        <time>2017-08-20T15:04:19Z</time>
      </trkpt>
      <trkpt lat="48.71795" lon="2.02994">
        <ele>177</ele>
        <time>2017-08-20T15:04:19Z</time>
      </trkpt>
      <trkpt lat="48.71797" lon="2.02992">
        <ele>177</ele>
        <time>2017-08-20T15:04:35Z</time>
      </trkpt>
      <trkpt lat="48.718" lon="2.02993">
        <ele>177</ele>
        <time>2017-08-20T15:04:35Z</time>
      </trkpt>
      <trkpt lat="48.71803" lon="2.02993">
        <ele>177</ele>
        <time>2017-08-20T15:04:35Z</time>
      </trkpt>
      <trkpt lat="48.71806" lon="2.02995">
        <ele>177</ele>
        <time>2017-08-20T15:04:35Z</time>
      </trkpt>
      <trkpt lat="48.71808" lon="2.02997">
        <ele>177</ele>
        <time>2017-08-20T15:04:51Z</time>
      </trkpt>
      <trkpt lat="48.71811" lon="2.02998">
        <ele>177</ele>
        <time>2017-08-20T15:04:51Z</time>
      </trkpt>
      <trkpt lat="48.71817" lon="2.02994">
        <ele>177</ele>
        <time>2017-08-20T15:04:51Z</time>
      </trkpt>
      <trkpt lat="48.7182" lon="2.02991">
        <ele>177</ele>
        <time>2017-08-20T15:04:51Z</time>
      </trkpt>
      <trkpt lat="48.71826" lon="2.02989">
        <ele>177</ele>
        <time>2017-08-20T15:05:07Z</time>
      </trkpt>
      <trkpt lat="48.71832" lon="2.02988">
        <ele>177</ele>
        <time>2017-08-20T15:05:07Z</time>
      </trkpt>
      <trkpt lat="48.71838" lon="2.02988">
        <ele>177</ele>
        <time>2017-08-20T15:05:07Z</time>
      </trkpt>
      <trkpt lat="48.71841" lon="2.02988">
        <ele>177</ele>
        <time>2017-08-20T15:05:07Z</time>
      </trkpt>
      <trkpt lat="48.71846" lon="2.02987">
        <ele>177</ele>
        <time>2017-08-20T15:05:27Z</time>
      </trkpt>
      <trkpt lat="48.71847" lon="2.02987">
        <ele>177</ele>
        <time>2017-08-20T15:05:27Z</time>
      </trkpt>
      <trkpt lat="48.71851" lon="2.02988">
        <ele>177</ele>
        <time>2017-08-20T15:05:27Z</time>
      </trkpt>
      <trkpt lat="48.71852" lon="2.02989">
        <ele>177</ele>
        <time>2017-08-20T15:05:27Z</time>
      </trkpt>
      <trkpt lat="48.71855" lon="2.02988">
        <ele>177</ele>
        <time>2017-08-20T15:05:27Z</time>
      </trkpt>
      <trkpt lat="48.7186" lon="2.02986">
        <ele>177</ele>
        <time>2017-08-20T15:05:43Z</time>
      </trkpt>
      <trkpt lat="48.71862" lon="2.02985">
        <ele>177</ele>
        <time>2017-08-20T15:05:43Z</time>
      </trkpt>
      <trkpt lat="48.71865" lon="2.02984">
        <ele>177</ele>
        <time>2017-08-20T15:05:43Z</time>
      </trkpt>
      <trkpt lat="48.7187" lon="2.02987">
        <ele>177</ele>
        <time>2017-08-20T15:05:43Z</time>
      </trkpt>
      <trkpt lat="48.71872" lon="2.02988">
        <ele>177</ele>
        <time>2017-08-20T15:05:59Z</time>
      </trkpt>
      <trkpt lat="48.71874" lon="2.02988">
        <ele>177</ele>
        <time>2017-08-20T15:05:59Z</time>
      </trkpt>
      <trkpt lat="48.71877" lon="2.02987">
        <ele>177</ele>
        <time>2017-08-20T15:05:59Z</time>
      </trkpt>
      <trkpt lat="48.71882" lon="2.02989">
        <ele>177</ele>
        <time>2017-08-20T15:05:59Z</time>
      </trkpt>
      <trkpt lat="48.71887" lon="2.02991">
        <ele>177</ele>
        <time>2017-08-20T15:06:35Z</time>
      </trkpt>
      <trkpt lat="48.71887" lon="2.0299">
        <ele>177</ele>
        <time>2017-08-20T15:06:35Z</time>
      </trkpt>
      <trkpt lat="48.71887" lon="2.02983">
        <ele>177</ele>
        <time>2017-08-20T15:06:35Z</time>
      </trkpt>
      <trkpt lat="48.71892" lon="2.02988">
        <ele>177</ele>
        <time>2017-08-20T15:06:35Z</time>
      </trkpt>
      <trkpt lat="48.71894" lon="2.02989">
        <ele>177</ele>
        <time>2017-08-20T15:06:35Z</time>
      </trkpt>
      <trkpt lat="48.719" lon="2.02989">
        <ele>177</ele>
        <time>2017-08-20T15:06:51Z</time>
      </trkpt>
      <trkpt lat="48.71905" lon="2.02989">
        <ele>177</ele>
        <time>2017-08-20T15:06:51Z</time>
      </trkpt>
      <trkpt lat="48.71911" lon="2.02987">
        <ele>177</ele>
        <time>2017-08-20T15:06:51Z</time>
      </trkpt>
      <trkpt lat="48.71914" lon="2.02987">
        <ele>177</ele>
        <time>2017-08-20T15:06:51Z</time>
      </trkpt>
      <trkpt lat="48.7192" lon="2.02986">
        <ele>177</ele>
        <time>2017-08-20T15:07:07Z</time>
      </trkpt>
      <trkpt lat="48.71923" lon="2.02984">
        <ele>177</ele>
        <time>2017-08-20T15:07:07Z</time>
      </trkpt>
      <trkpt lat="48.71927" lon="2.02983">
        <ele>177</ele>
        <time>2017-08-20T15:07:07Z</time>
      </trkpt>
      <trkpt lat="48.71931" lon="2.02981">
        <ele>177</ele>
        <time>2017-08-20T15:07:07Z</time>
      </trkpt>
      <trkpt lat="48.71934" lon="2.02983">
        <ele>177</ele>
        <time>2017-08-20T15:07:23Z</time>
      </trkpt>
      <trkpt lat="48.71938" lon="2.02986">
        <ele>177</ele>
        <time>2017-08-20T15:07:23Z</time>
      </trkpt>
      <trkpt lat="48.71943" lon="2.02986">
        <ele>177</ele>
        <time>2017-08-20T15:07:23Z</time>
      </trkpt>
      <trkpt lat="48.71945" lon="2.02986">
        <ele>177</ele>
        <time>2017-08-20T15:07:23Z</time>
      </trkpt>
      <trkpt lat="48.71948" lon="2.02987">
        <ele>177</ele>
        <time>2017-08-20T15:07:39Z</time>
      </trkpt>
      <trkpt lat="48.71955" lon="2.02985">
        <ele>177</ele>
        <time>2017-08-20T15:07:39Z</time>
      </trkpt>
      <trkpt lat="48.71961" lon="2.02985">
        <ele>176</ele>
        <time>2017-08-20T15:07:39Z</time>
      </trkpt>
      <trkpt lat="48.71965" lon="2.02983">
        <ele>176</ele>
        <time>2017-08-20T15:07:39Z</time>
      </trkpt>
      <trkpt lat="48.71972" lon="2.02979">
        <ele>176</ele>
        <time>2017-08-20T15:07:55Z</time>
      </trkpt>
      <trkpt lat="48.7198" lon="2.02983">
        <ele>176</ele>
        <time>2017-08-20T15:07:55Z</time>
      </trkpt>
      <trkpt lat="48.71985" lon="2.02983">
        <ele>176</ele>
        <time>2017-08-20T15:07:55Z</time>
      </trkpt>
      <trkpt lat="48.71988" lon="2.02981">
        <ele>176</ele>
        <time>2017-08-20T15:07:55Z</time>
      </trkpt>
      <trkpt lat="48.71992" lon="2.02983">
        <ele>176</ele>
        <time>2017-08-20T15:08:11Z</time>
      </trkpt>
      <trkpt lat="48.71998" lon="2.02981">
        <ele>176</ele>
        <time>2017-08-20T15:08:11Z</time>
      </trkpt>
      <trkpt lat="48.72003" lon="2.02978">
        <ele>176</ele>
        <time>2017-08-20T15:08:11Z</time>
      </trkpt>
      <trkpt lat="48.72008" lon="2.02975">
        <ele>176</ele>
        <time>2017-08-20T15:08:11Z</time>
      </trkpt>
      <trkpt lat="48.72011" lon="2.02974">
        <ele>176</ele>
        <time>2017-08-20T15:08:27Z</time>
      </trkpt>
      <trkpt lat="48.72016" lon="2.02971">
        <ele>176</ele>
        <time>2017-08-20T15:08:27Z</time>
      </trkpt>
      <trkpt lat="48.72022" lon="2.02967">
        <ele>176</ele>
        <time>2017-08-20T15:08:27Z</time>
      </trkpt>
      <trkpt lat="48.72027" lon="2.02965">
        <ele>176</ele>
        <time>2017-08-20T15:08:27Z</time>
      </trkpt>
      <trkpt lat="48.72036" lon="2.02963">
        <ele>176</ele>
        <time>2017-08-20T15:08:43Z</time>
      </trkpt>
      <trkpt lat="48.72042" lon="2.02964">
        <ele>171</ele>
        <time>2017-08-20T15:08:43Z</time>
      </trkpt>
      <trkpt lat="48.72045" lon="2.02964">
        <ele>171</ele>
        <time>2017-08-20T15:08:43Z</time>
      </trkpt>
      <trkpt lat="48.72049" lon="2.02964">
        <ele>171</ele>
        <time>2017-08-20T15:08:43Z</time>
      </trkpt>
      <trkpt lat="48.72055" lon="2.02964">
        <ele>171</ele>
        <time>2017-08-20T15:08:59Z</time>
      </trkpt>
      <trkpt lat="48.7206" lon="2.02963">
        <ele>171</ele>
        <time>2017-08-20T15:08:59Z</time>
      </trkpt>
      <trkpt lat="48.72064" lon="2.02963">
        <ele>171</ele>
        <time>2017-08-20T15:08:59Z</time>
      </trkpt>
      <trkpt lat="48.72065" lon="2.02961">
        <ele>171</ele>
        <time>2017-08-20T15:08:59Z</time>
      </trkpt>
      <trkpt lat="48.7207" lon="2.02958">
        <ele>171</ele>
        <time>2017-08-20T15:09:15Z</time>
      </trkpt>
      <trkpt lat="48.72077" lon="2.02957">
        <ele>171</ele>
        <time>2017-08-20T15:09:15Z</time>
      </trkpt>
      <trkpt lat="48.72084" lon="2.02954">
        <ele>171</ele>
        <time>2017-08-20T15:09:15Z</time>
      </trkpt>
      <trkpt lat="48.72089" lon="2.02952">
        <ele>171</ele>
        <time>2017-08-20T15:09:15Z</time>
      </trkpt>
      <trkpt lat="48.72095" lon="2.02952">
        <ele>171</ele>
        <time>2017-08-20T15:09:31Z</time>
      </trkpt>
      <trkpt lat="48.72101" lon="2.0295">
        <ele>171</ele>
        <time>2017-08-20T15:09:31Z</time>
      </trkpt>
      <trkpt lat="48.72106" lon="2.02949">
        <ele>171</ele>
        <time>2017-08-20T15:09:31Z</time>
      </trkpt>
      <trkpt lat="48.7211" lon="2.02947">
        <ele>171</ele>
        <time>2017-08-20T15:09:31Z</time>
      </trkpt>
      <trkpt lat="48.72115" lon="2.02945">
        <ele>171</ele>
        <time>2017-08-20T15:09:47Z</time>
      </trkpt>
      <trkpt lat="48.7212" lon="2.02945">
        <ele>171</ele>
        <time>2017-08-20T15:09:47Z</time>
      </trkpt>
      <trkpt lat="48.72127" lon="2.02941">
        <ele>169</ele>
        <time>2017-08-20T15:09:47Z</time>
      </trkpt>
      <trkpt lat="48.7213" lon="2.0294">
        <ele>169</ele>
        <time>2017-08-20T15:09:47Z</time>
      </trkpt>
      <trkpt lat="48.72139" lon="2.02937">
        <ele>169</ele>
        <time>2017-08-20T15:10:11Z</time>
      </trkpt>
      <trkpt lat="48.7214" lon="2.02936">
        <ele>169</ele>
        <time>2017-08-20T15:10:11Z</time>
      </trkpt>
      <trkpt lat="48.72141" lon="2.02936">
        <ele>169</ele>
        <time>2017-08-20T15:10:11Z</time>
      </trkpt>
      <trkpt lat="48.72141" lon="2.02936">
        <ele>169</ele>
        <time>2017-08-20T15:10:11Z</time>
      </trkpt>
      <trkpt lat="48.72145" lon="2.02933">
        <ele>169</ele>
        <time>2017-08-20T15:10:11Z</time>
      </trkpt>
      <trkpt lat="48.72149" lon="2.0293">
        <ele>169</ele>
        <time>2017-08-20T15:10:27Z</time>
      </trkpt>
      <trkpt lat="48.72153" lon="2.02927">
        <ele>169</ele>
        <time>2017-08-20T15:10:27Z</time>
      </trkpt>
      <trkpt lat="48.72159" lon="2.02923">
        <ele>169</ele>
        <time>2017-08-20T15:10:27Z</time>
      </trkpt>
      <trkpt lat="48.72163" lon="2.02921">
        <ele>169</ele>
        <time>2017-08-20T15:10:27Z</time>
      </trkpt>
      <trkpt lat="48.72167" lon="2.02921">
        <ele>169</ele>
        <time>2017-08-20T15:10:47Z</time>
      </trkpt>
      <trkpt lat="48.72168" lon="2.02921">
        <ele>169</ele>
        <time>2017-08-20T15:10:47Z</time>
      </trkpt>
      <trkpt lat="48.72172" lon="2.02919">
        <ele>169</ele>
        <time>2017-08-20T15:10:47Z</time>
      </trkpt>
      <trkpt lat="48.72175" lon="2.02918">
        <ele>169</ele>
        <time>2017-08-20T15:10:47Z</time>
      </trkpt>
      <trkpt lat="48.72184" lon="2.02915">
        <ele>169</ele>
        <time>2017-08-20T15:10:47Z</time>
      </trkpt>
      <trkpt lat="48.7219" lon="2.02917">
        <ele>169</ele>
        <time>2017-08-20T15:11:03Z</time>
      </trkpt>
      <trkpt lat="48.72194" lon="2.0292">
        <ele>169</ele>
        <time>2017-08-20T15:11:03Z</time>
      </trkpt>
      <trkpt lat="48.72202" lon="2.02922">
        <ele>169</ele>
        <time>2017-08-20T15:11:03Z</time>
      </trkpt>
      <trkpt lat="48.72204" lon="2.02923">
        <ele>169</ele>
        <time>2017-08-20T15:11:03Z</time>
      </trkpt>
      <trkpt lat="48.7221" lon="2.02926">
        <ele>164</ele>
        <time>2017-08-20T15:11:19Z</time>
      </trkpt>
      <trkpt lat="48.72214" lon="2.02924">
        <ele>164</ele>
        <time>2017-08-20T15:11:19Z</time>
      </trkpt>
      <trkpt lat="48.72218" lon="2.02923">
        <ele>164</ele>
        <time>2017-08-20T15:11:19Z</time>
      </trkpt>
      <trkpt lat="48.72222" lon="2.02919">
        <ele>164</ele>
        <time>2017-08-20T15:11:19Z</time>
      </trkpt>
      <trkpt lat="48.72224" lon="2.02918">
        <ele>164</ele>
        <time>2017-08-20T15:11:39Z</time>
      </trkpt>
      <trkpt lat="48.72227" lon="2.02917">
        <ele>164</ele>
        <time>2017-08-20T15:11:39Z</time>
      </trkpt>
      <trkpt lat="48.72228" lon="2.02918">
        <ele>164</ele>
        <time>2017-08-20T15:11:39Z</time>
      </trkpt>
      <trkpt lat="48.7223" lon="2.02917">
        <ele>164</ele>
        <time>2017-08-20T15:11:39Z</time>
      </trkpt>
      <trkpt lat="48.72234" lon="2.02916">
        <ele>164</ele>
        <time>2017-08-20T15:11:39Z</time>
      </trkpt>
      <trkpt lat="48.72235" lon="2.02917">
        <ele>164</ele>
        <time>2017-08-20T15:11:59Z</time>
      </trkpt>
      <trkpt lat="48.72236" lon="2.02916">
        <ele>164</ele>
        <time>2017-08-20T15:11:59Z</time>
      </trkpt>
      <trkpt lat="48.72238" lon="2.02915">
        <ele>164</ele>
        <time>2017-08-20T15:11:59Z</time>
      </trkpt>
      <trkpt lat="48.72241" lon="2.02914">
        <ele>164</ele>
        <time>2017-08-20T15:11:59Z</time>
      </trkpt>
      <trkpt lat="48.72244" lon="2.02913">
        <ele>164</ele>
        <time>2017-08-20T15:11:59Z</time>
      </trkpt>
      <trkpt lat="48.72248" lon="2.02912">
        <ele>164</ele>
        <time>2017-08-20T15:12:23Z</time>
      </trkpt>
      <trkpt lat="48.72249" lon="2.02911">
        <ele>164</ele>
        <time>2017-08-20T15:12:23Z</time>
      </trkpt>
      <trkpt lat="48.72251" lon="2.02911">
        <ele>164</ele>
        <time>2017-08-20T15:12:23Z</time>
      </trkpt>
      <trkpt lat="48.72253" lon="2.02912">
        <ele>164</ele>
        <time>2017-08-20T15:12:23Z</time>
      </trkpt>
      <trkpt lat="48.72256" lon="2.02911">
        <ele>164</ele>
        <time>2017-08-20T15:12:23Z</time>
      </trkpt>
      <trkpt lat="48.72261" lon="2.02908">
        <ele>164</ele>
        <time>2017-08-20T15:12:47Z</time>
      </trkpt>
      <trkpt lat="48.72261" lon="2.02909">
        <ele>164</ele>
        <time>2017-08-20T15:12:47Z</time>
      </trkpt>
      <trkpt lat="48.72263" lon="2.02907">
        <ele>164</ele>
        <time>2017-08-20T15:12:47Z</time>
      </trkpt>
      <trkpt lat="48.72261" lon="2.02902">
        <ele>164</ele>
        <time>2017-08-20T15:12:47Z</time>
      </trkpt>
      <trkpt lat="48.72259" lon="2.02891">
        <ele>164</ele>
        <time>2017-08-20T15:12:47Z</time>
      </trkpt>
      <trkpt lat="48.72262" lon="2.02879">
        <ele>164</ele>
        <time>2017-08-20T15:13:03Z</time>
      </trkpt>
      <trkpt lat="48.72267" lon="2.0287">
        <ele>166</ele>
        <time>2017-08-20T15:13:03Z</time>
      </trkpt>
      <trkpt lat="48.72271" lon="2.02864">
        <ele>166</ele>
        <time>2017-08-20T15:13:03Z</time>
      </trkpt>
      <trkpt lat="48.72275" lon="2.02858">
        <ele>166</ele>
        <time>2017-08-20T15:13:03Z</time>
      </trkpt>
      <trkpt lat="48.72276" lon="2.02857">
        <ele>166</ele>
        <time>2017-08-20T15:13:19Z</time>
      </trkpt>
      <trkpt lat="48.72278" lon="2.02852">
        <ele>166</ele>
        <time>2017-08-20T15:13:19Z</time>
      </trkpt>
      <trkpt lat="48.7228" lon="2.02848">
        <ele>166</ele>
        <time>2017-08-20T15:13:19Z</time>
      </trkpt>
      <trkpt lat="48.72282" lon="2.02845">
        <ele>166</ele>
        <time>2017-08-20T15:13:19Z</time>
      </trkpt>
      <trkpt lat="48.72286" lon="2.0284">
        <ele>166</ele>
        <time>2017-08-20T15:13:35Z</time>
      </trkpt>
      <trkpt lat="48.72291" lon="2.02835">
        <ele>166</ele>
        <time>2017-08-20T15:13:35Z</time>
      </trkpt>
      <trkpt lat="48.72295" lon="2.02828">
        <ele>148</ele>
        <time>2017-08-20T15:13:35Z</time>
      </trkpt>
      <trkpt lat="48.72298" lon="2.02823">
        <ele>148</ele>
        <time>2017-08-20T15:13:35Z</time>
      </trkpt>
      <trkpt lat="48.723" lon="2.02821">
        <ele>148</ele>
        <time>2017-08-20T15:13:51Z</time>
      </trkpt>
      <trkpt lat="48.72303" lon="2.02821">
        <ele>148</ele>
        <time>2017-08-20T15:13:51Z</time>
      </trkpt>
      <trkpt lat="48.72309" lon="2.02819">
        <ele>148</ele>
        <time>2017-08-20T15:13:51Z</time>
      </trkpt>
      <trkpt lat="48.72314" lon="2.02819">
        <ele>148</ele>
        <time>2017-08-20T15:13:51Z</time>
      </trkpt>
      <trkpt lat="48.72317" lon="2.02815">
        <ele>148</ele>
        <time>2017-08-20T15:14:07Z</time>
      </trkpt>
      <trkpt lat="48.72319" lon="2.02811">
        <ele>148</ele>
        <time>2017-08-20T15:14:07Z</time>
      </trkpt>
      <trkpt lat="48.72324" lon="2.02811">
        <ele>148</ele>
        <time>2017-08-20T15:14:07Z</time>
      </trkpt>
      <trkpt lat="48.72329" lon="2.0281">
        <ele>148</ele>
        <time>2017-08-20T15:14:07Z</time>
      </trkpt>
      <trkpt lat="48.72333" lon="2.02808">
        <ele>148</ele>
        <time>2017-08-20T15:14:23Z</time>
      </trkpt>
      <trkpt lat="48.72338" lon="2.02808">
        <ele>148</ele>
        <time>2017-08-20T15:14:23Z</time>
      </trkpt>
      <trkpt lat="48.72341" lon="2.02807">
        <ele>148</ele>
        <time>2017-08-20T15:14:23Z</time>
      </trkpt>
      <trkpt lat="48.72346" lon="2.02804">
        <ele>148</ele>
        <time>2017-08-20T15:14:23Z</time>
      </trkpt>
      <trkpt lat="48.7235" lon="2.028">
        <ele>148</ele>
        <time>2017-08-20T15:14:39Z</time>
      </trkpt>
      <trkpt lat="48.72352" lon="2.02797">
        <ele>148</ele>
        <time>2017-08-20T15:14:39Z</time>
      </trkpt>
      <trkpt lat="48.72357" lon="2.02796">
        <ele>148</ele>
        <time>2017-08-20T15:14:39Z</time>
      </trkpt>
      <trkpt lat="48.72361" lon="2.02798">
        <ele>148</ele>
        <time>2017-08-20T15:14:39Z</time>
      </trkpt>
      <trkpt lat="48.72362" lon="2.028">
        <ele>148</ele>
        <time>2017-08-20T15:14:55Z</time>
      </trkpt>
      <trkpt lat="48.72362" lon="2.02801">
        <ele>148</ele>
        <time>2017-08-20T15:14:55Z</time>
      </trkpt>
      <trkpt lat="48.72366" lon="2.02798">
        <ele>148</ele>
        <time>2017-08-20T15:14:55Z</time>
      </trkpt>
      <trkpt lat="48.72375" lon="2.02807">
        <ele>134</ele>
        <time>2017-08-20T15:14:55Z</time>
      </trkpt>
      <trkpt lat="48.72379" lon="2.02801">
        <ele>134</ele>
        <time>2017-08-20T15:16:51Z</time>
      </trkpt>
      <trkpt lat="48.72379" lon="2.02799">
        <ele>134</ele>
        <time>2017-08-20T15:16:51Z</time>
      </trkpt>
      <trkpt lat="48.72384" lon="2.02801">
        <ele>134</ele>
        <time>2017-08-20T15:16:51Z</time>
      </trkpt>
      <trkpt lat="48.72383" lon="2.02798">
        <ele>134</ele>
        <time>2017-08-20T15:16:51Z</time>
      </trkpt>
      <trkpt lat="48.72382" lon="2.0279">
        <ele>135</ele>
        <time>2017-08-20T15:16:51Z</time>
      </trkpt>
      <trkpt lat="48.72381" lon="2.02787">
        <ele>135</ele>
        <time>2017-08-20T15:17:11Z</time>
      </trkpt>
      <trkpt lat="48.72383" lon="2.0278">
        <ele>135</ele>
        <time>2017-08-20T15:17:11Z</time>
      </trkpt>
      <trkpt lat="48.72384" lon="2.02777">
        <ele>135</ele>
        <time>2017-08-20T15:17:11Z</time>
      </trkpt>
      <trkpt lat="48.72384" lon="2.02774">
        <ele>135</ele>
        <time>2017-08-20T15:17:11Z</time>
      </trkpt>
      <trkpt lat="48.72388" lon="2.02767">
        <ele>135</ele>
        <time>2017-08-20T15:17:11Z</time>
      </trkpt>
      <trkpt lat="48.72389" lon="2.02765">
        <ele>135</ele>
        <time>2017-08-20T15:17:31Z</time>
      </trkpt>
      <trkpt lat="48.72391" lon="2.02761">
        <ele>135</ele>
        <time>2017-08-20T15:17:31Z</time>
      </trkpt>
      <trkpt lat="48.72395" lon="2.02759">
        <ele>135</ele>
        <time>2017-08-20T15:17:31Z</time>
      </trkpt>
      <trkpt lat="48.72396" lon="2.02757">
        <ele>135</ele>
        <time>2017-08-20T15:17:31Z</time>
      </trkpt>
      <trkpt lat="48.72398" lon="2.02753">
        <ele>135</ele>
        <time>2017-08-20T15:17:31Z</time>
      </trkpt>
      <trkpt lat="48.72401" lon="2.02749">
        <ele>135</ele>
        <time>2017-08-20T15:17:47Z</time>
      </trkpt>
      <trkpt lat="48.72403" lon="2.02746">
        <ele>135</ele>
        <time>2017-08-20T15:17:47Z</time>
      </trkpt>
      <trkpt lat="48.72406" lon="2.02741">
        <ele>135</ele>
        <time>2017-08-20T15:17:47Z</time>
      </trkpt>
      <trkpt lat="48.72411" lon="2.02738">
        <ele>135</ele>
        <time>2017-08-20T15:17:47Z</time>
      </trkpt>
      <trkpt lat="48.72413" lon="2.02734">
        <ele>135</ele>
        <time>2017-08-20T15:18:03Z</time>
      </trkpt>
      <trkpt lat="48.72417" lon="2.02734">
        <ele>135</ele>
        <time>2017-08-20T15:18:03Z</time>
      </trkpt>
      <trkpt lat="48.7242" lon="2.02733">
        <ele>135</ele>
        <time>2017-08-20T15:18:03Z</time>
      </trkpt>
      <trkpt lat="48.72424" lon="2.02731">
        <ele>135</ele>
        <time>2017-08-20T15:18:03Z</time>
      </trkpt>
      <trkpt lat="48.72427" lon="2.02731">
        <ele>135</ele>
        <time>2017-08-20T15:18:19Z</time>
      </trkpt>
      <trkpt lat="48.72432" lon="2.02721">
        <ele>135</ele>
        <time>2017-08-20T15:18:19Z</time>
      </trkpt>
      <trkpt lat="48.7244" lon="2.02719">
        <ele>135</ele>
        <time>2017-08-20T15:18:19Z</time>
      </trkpt>
      <trkpt lat="48.72443" lon="2.02716">
        <ele>135</ele>
        <time>2017-08-20T15:18:19Z</time>
      </trkpt>
      <trkpt lat="48.72446" lon="2.02715">
        <ele>135</ele>
        <time>2017-08-20T15:18:39Z</time>
      </trkpt>
      <trkpt lat="48.72447" lon="2.02715">
        <ele>135</ele>
        <time>2017-08-20T15:18:39Z</time>
      </trkpt>
      <trkpt lat="48.72448" lon="2.02715">
        <ele>135</ele>
        <time>2017-08-20T15:18:39Z</time>
      </trkpt>
      <trkpt lat="48.72453" lon="2.02712">
        <ele>135</ele>
        <time>2017-08-20T15:18:39Z</time>
      </trkpt>
      <trkpt lat="48.72462" lon="2.02708">
        <ele>131</ele>
        <time>2017-08-20T15:18:39Z</time>
      </trkpt>
      <trkpt lat="48.72469" lon="2.02708">
        <ele>131</ele>
        <time>2017-08-20T15:18:55Z</time>
      </trkpt>
      <trkpt lat="48.72473" lon="2.02707">
        <ele>131</ele>
        <time>2017-08-20T15:18:55Z</time>
      </trkpt>
      <trkpt lat="48.72475" lon="2.02705">
        <ele>131</ele>
        <time>2017-08-20T15:18:55Z</time>
      </trkpt>
      <trkpt lat="48.72477" lon="2.02701">
        <ele>131</ele>
        <time>2017-08-20T15:18:55Z</time>
      </trkpt>
      <trkpt lat="48.72487" lon="2.02695">
        <ele>131</ele>
        <time>2017-08-20T15:19:27Z</time>
      </trkpt>
      <trkpt lat="48.72488" lon="2.02693">
        <ele>131</ele>
        <time>2017-08-20T15:19:27Z</time>
      </trkpt>
      <trkpt lat="48.72493" lon="2.0269">
        <ele>131</ele>
        <time>2017-08-20T15:19:27Z</time>
      </trkpt>
      <trkpt lat="48.72498" lon="2.02686">
        <ele>131</ele>
        <time>2017-08-20T15:19:27Z</time>
      </trkpt>
      <trkpt lat="48.72506" lon="2.02681">
        <ele>131</ele>
        <time>2017-08-20T15:19:27Z</time>
      </trkpt>
      <trkpt lat="48.72506" lon="2.02681">
        <ele>131</ele>
        <time>2017-08-20T15:19:43Z</time>
      </trkpt>
      <trkpt lat="48.72507" lon="2.02681">
        <ele>131</ele>
        <time>2017-08-20T15:19:43Z</time>
      </trkpt>
      <trkpt lat="48.72511" lon="2.02679">
        <ele>131</ele>
        <time>2017-08-20T15:19:43Z</time>
      </trkpt>
      <trkpt lat="48.72517" lon="2.02678">
        <ele>131</ele>
        <time>2017-08-20T15:19:43Z</time>
      </trkpt>
      <trkpt lat="48.72522" lon="2.02677">
        <ele>131</ele>
        <time>2017-08-20T15:19:59Z</time>
      </trkpt>
      <trkpt lat="48.72532" lon="2.02672">
        <ele>131</ele>
        <time>2017-08-20T15:19:59Z</time>
      </trkpt>
      <trkpt lat="48.7254" lon="2.02665">
        <ele>131</ele>
        <time>2017-08-20T15:19:59Z</time>
      </trkpt>
      <trkpt lat="48.72545" lon="2.02663">
        <ele>120</ele>
        <time>2017-08-20T15:19:59Z</time>
      </trkpt>
      <trkpt lat="48.7255" lon="2.02662">
        <ele>120</ele>
        <time>2017-08-20T15:20:15Z</time>
      </trkpt>
      <trkpt lat="48.72553" lon="2.02659">
        <ele>120</ele>
        <time>2017-08-20T15:20:15Z</time>
      </trkpt>
      <trkpt lat="48.72558" lon="2.02654">
        <ele>120</ele>
        <time>2017-08-20T15:20:15Z</time>
      </trkpt>
      <trkpt lat="48.72562" lon="2.02651">
        <ele>120</ele>
        <time>2017-08-20T15:20:15Z</time>
      </trkpt>
      <trkpt lat="48.72566" lon="2.02647">
        <ele>120</ele>
        <time>2017-08-20T15:20:31Z</time>
      </trkpt>
      <trkpt lat="48.7257" lon="2.02644">
        <ele>120</ele>
        <time>2017-08-20T15:20:31Z</time>
      </trkpt>
      <trkpt lat="48.72575" lon="2.02642">
        <ele>120</ele>
        <time>2017-08-20T15:20:31Z</time>
      </trkpt>
      <trkpt lat="48.72581" lon="2.02641">
        <ele>120</ele>
        <time>2017-08-20T15:20:31Z</time>
      </trkpt>
      <trkpt lat="48.72594" lon="2.02636">
        <ele>120</ele>
        <time>2017-08-20T15:20:47Z</time>
      </trkpt>
      <trkpt lat="48.72602" lon="2.02632">
        <ele>120</ele>
        <time>2017-08-20T15:20:47Z</time>
      </trkpt>
      <trkpt lat="48.7261" lon="2.02629">
        <ele>120</ele>
        <time>2017-08-20T15:20:47Z</time>
      </trkpt>
      <trkpt lat="48.72613" lon="2.02628">
        <ele>120</ele>
        <time>2017-08-20T15:20:47Z</time>
      </trkpt>
      <trkpt lat="48.72616" lon="2.02627">
        <ele>120</ele>
        <time>2017-08-20T15:21:03Z</time>
      </trkpt>
      <trkpt lat="48.72619" lon="2.02624">
        <ele>129</ele>
        <time>2017-08-20T15:21:03Z</time>
      </trkpt>
      <trkpt lat="48.72623" lon="2.02622">
        <ele>129</ele>
        <time>2017-08-20T15:21:03Z</time>
      </trkpt>
      <trkpt lat="48.72627" lon="2.02618">
        <ele>116</ele>
        <time>2017-08-20T15:21:03Z</time>
      </trkpt>
      <trkpt lat="48.72632" lon="2.02613">
        <ele>116</ele>
        <time>2017-08-20T15:21:19Z</time>
      </trkpt>
      <trkpt lat="48.72636" lon="2.02611">
        <ele>116</ele>
        <time>2017-08-20T15:21:19Z</time>
      </trkpt>
      <trkpt lat="48.7264" lon="2.02607">
        <ele>116</ele>
        <time>2017-08-20T15:21:19Z</time>
      </trkpt>
      <trkpt lat="48.72645" lon="2.02603">
        <ele>116</ele>
        <time>2017-08-20T15:21:19Z</time>
      </trkpt>
      <trkpt lat="48.72648" lon="2.026">
        <ele>116</ele>
        <time>2017-08-20T15:21:35Z</time>
      </trkpt>
      <trkpt lat="48.72652" lon="2.02597">
        <ele>116</ele>
        <time>2017-08-20T15:21:35Z</time>
      </trkpt>
      <trkpt lat="48.72656" lon="2.02592">
        <ele>116</ele>
        <time>2017-08-20T15:21:35Z</time>
      </trkpt>
      <trkpt lat="48.72661" lon="2.02589">
        <ele>116</ele>
        <time>2017-08-20T15:21:35Z</time>
      </trkpt>
      <trkpt lat="48.72665" lon="2.02587">
        <ele>116</ele>
        <time>2017-08-20T15:21:51Z</time>
      </trkpt>
      <trkpt lat="48.72671" lon="2.02581">
        <ele>116</ele>
        <time>2017-08-20T15:21:51Z</time>
      </trkpt>
      <trkpt lat="48.72675" lon="2.02577">
        <ele>116</ele>
        <time>2017-08-20T15:21:51Z</time>
      </trkpt>
      <trkpt lat="48.7268" lon="2.02574">
        <ele>116</ele>
        <time>2017-08-20T15:21:51Z</time>
      </trkpt>
      <trkpt lat="48.72683" lon="2.02569">
        <ele>116</ele>
        <time>2017-08-20T15:22:07Z</time>
      </trkpt>
      <trkpt lat="48.72685" lon="2.02565">
        <ele>116</ele>
        <time>2017-08-20T15:22:07Z</time>
      </trkpt>
      <trkpt lat="48.72689" lon="2.0256">
        <ele>116</ele>
        <time>2017-08-20T15:22:07Z</time>
      </trkpt>
      <trkpt lat="48.72692" lon="2.02556">
        <ele>116</ele>
        <time>2017-08-20T15:22:07Z</time>
      </trkpt>
      <trkpt lat="48.72698" lon="2.02548">
        <ele>116</ele>
        <time>2017-08-20T15:22:27Z</time>
      </trkpt>
      <trkpt lat="48.727" lon="2.02545">
        <ele>116</ele>
        <time>2017-08-20T15:22:27Z</time>
      </trkpt>
      <trkpt lat="48.727" lon="2.02544">
        <ele>116</ele>
        <time>2017-08-20T15:22:27Z</time>
      </trkpt>
      <trkpt lat="48.72701" lon="2.02543">
        <ele>116</ele>
        <time>2017-08-20T15:22:27Z</time>
      </trkpt>
      <trkpt lat="48.72704" lon="2.02537">
        <ele>119</ele>
        <time>2017-08-20T15:22:27Z</time>
      </trkpt>
      <trkpt lat="48.72712" lon="2.02529">
        <ele>105</ele>
        <time>2017-08-20T15:24:35Z</time>
      </trkpt>
      <trkpt lat="48.72713" lon="2.02531">
        <ele>105</ele>
        <time>2017-08-20T15:24:35Z</time>
      </trkpt>
      <trkpt lat="48.72714" lon="2.02528">
        <ele>105</ele>
        <time>2017-08-20T15:24:35Z</time>
      </trkpt>
      <trkpt lat="48.72715" lon="2.02528">
        <ele>105</ele>
        <time>2017-08-20T15:24:35Z</time>
      </trkpt>
      <trkpt lat="48.72717" lon="2.02527">
        <ele>105</ele>
        <time>2017-08-20T15:24:35Z</time>
      </trkpt>
      <trkpt lat="48.72722" lon="2.02535">
        <ele>105</ele>
        <time>2017-08-20T15:26:03Z</time>
      </trkpt>
      <trkpt lat="48.72723" lon="2.02541">
        <ele>105</ele>
        <time>2017-08-20T15:26:03Z</time>
      </trkpt>
      <trkpt lat="48.72724" lon="2.02543">
        <ele>105</ele>
        <time>2017-08-20T15:26:03Z</time>
      </trkpt>
      <trkpt lat="48.72724" lon="2.02545">
        <ele>105</ele>
        <time>2017-08-20T15:26:03Z</time>
      </trkpt>
      <trkpt lat="48.72725" lon="2.02545">
        <ele>105</ele>
        <time>2017-08-20T15:26:03Z</time>
      </trkpt>
      <trkpt lat="48.72726" lon="2.02545">
        <ele>105</ele>
        <time>2017-08-20T15:26:31Z</time>
      </trkpt>
      <trkpt lat="48.72728" lon="2.02546">
        <ele>105</ele>
        <time>2017-08-20T15:26:31Z</time>
      </trkpt>
      <trkpt lat="48.72731" lon="2.0255">
        <ele>105</ele>
        <time>2017-08-20T15:26:31Z</time>
      </trkpt>
      <trkpt lat="48.72733" lon="2.02554">
        <ele>105</ele>
        <time>2017-08-20T15:26:31Z</time>
      </trkpt>
      <trkpt lat="48.72735" lon="2.02559">
        <ele>105</ele>
        <time>2017-08-20T15:26:31Z</time>
      </trkpt>
      <trkpt lat="48.72738" lon="2.02562">
        <ele>105</ele>
        <time>2017-08-20T15:26:47Z</time>
      </trkpt>
      <trkpt lat="48.72742" lon="2.02564">
        <ele>105</ele>
        <time>2017-08-20T15:26:47Z</time>
      </trkpt>
      <trkpt lat="48.72746" lon="2.02566">
        <ele>105</ele>
        <time>2017-08-20T15:26:47Z</time>
      </trkpt>
      <trkpt lat="48.72749" lon="2.0257">
        <ele>105</ele>
        <time>2017-08-20T15:26:47Z</time>
      </trkpt>
      <trkpt lat="48.72753" lon="2.02573">
        <ele>105</ele>
        <time>2017-08-20T15:27:03Z</time>
      </trkpt>
      <trkpt lat="48.72755" lon="2.02578">
        <ele>105</ele>
        <time>2017-08-20T15:27:03Z</time>
      </trkpt>
      <trkpt lat="48.72757" lon="2.0258">
        <ele>105</ele>
        <time>2017-08-20T15:27:03Z</time>
      </trkpt>
      <trkpt lat="48.72761" lon="2.02584">
        <ele>105</ele>
        <time>2017-08-20T15:27:03Z</time>
      </trkpt>
      <trkpt lat="48.72765" lon="2.02587">
        <ele>105</ele>
        <time>2017-08-20T15:27:19Z</time>
      </trkpt>
      <trkpt lat="48.72768" lon="2.0259">
        <ele>105</ele>
        <time>2017-08-20T15:27:19Z</time>
      </trkpt>
      <trkpt lat="48.72771" lon="2.02594">
        <ele>105</ele>
        <time>2017-08-20T15:27:19Z</time>
      </trkpt>
      <trkpt lat="48.72775" lon="2.02599">
        <ele>105</ele>
        <time>2017-08-20T15:27:19Z</time>
      </trkpt>
      <trkpt lat="48.72779" lon="2.02603">
        <ele>105</ele>
        <time>2017-08-20T15:27:35Z</time>
      </trkpt>
      <trkpt lat="48.72783" lon="2.02608">
        <ele>105</ele>
        <time>2017-08-20T15:27:35Z</time>
      </trkpt>
      <trkpt lat="48.72787" lon="2.02612">
        <ele>105</ele>
        <time>2017-08-20T15:27:35Z</time>
      </trkpt>
      <trkpt lat="48.72792" lon="2.02616">
        <ele>105</ele>
        <time>2017-08-20T15:27:35Z</time>
      </trkpt>
      <trkpt lat="48.72795" lon="2.02619">
        <ele>101</ele>
        <time>2017-08-20T15:27:51Z</time>
      </trkpt>
      <trkpt lat="48.72797" lon="2.02621">
        <ele>101</ele>
        <time>2017-08-20T15:27:51Z</time>
      </trkpt>
      <trkpt lat="48.72802" lon="2.02625">
        <ele>99</ele>
        <time>2017-08-20T15:27:51Z</time>
      </trkpt>
      <trkpt lat="48.72807" lon="2.02629">
        <ele>99</ele>
        <time>2017-08-20T15:27:51Z</time>
      </trkpt>
      <trkpt lat="48.7281" lon="2.02633">
        <ele>99</ele>
        <time>2017-08-20T15:28:07Z</time>
      </trkpt>
      <trkpt lat="48.72813" lon="2.02636">
        <ele>99</ele>
        <time>2017-08-20T15:28:07Z</time>
      </trkpt>
      <trkpt lat="48.72816" lon="2.02641">
        <ele>99</ele>
        <time>2017-08-20T15:28:07Z</time>
      </trkpt>
      <trkpt lat="48.72821" lon="2.02645">
        <ele>99</ele>
        <time>2017-08-20T15:28:07Z</time>
      </trkpt>
      <trkpt lat="48.72825" lon="2.0265">
        <ele>99</ele>
        <time>2017-08-20T15:28:23Z</time>
      </trkpt>
      <trkpt lat="48.72829" lon="2.02655">
        <ele>99</ele>
        <time>2017-08-20T15:28:23Z</time>
      </trkpt>
      <trkpt lat="48.72833" lon="2.02659">
        <ele>99</ele>
        <time>2017-08-20T15:28:23Z</time>
      </trkpt>
      <trkpt lat="48.72838" lon="2.02662">
        <ele>99</ele>
        <time>2017-08-20T15:28:23Z</time>
      </trkpt>
      <trkpt lat="48.72842" lon="2.02666">
        <ele>99</ele>
        <time>2017-08-20T15:28:39Z</time>
      </trkpt>
      <trkpt lat="48.72845" lon="2.02668">
        <ele>99</ele>
        <time>2017-08-20T15:28:39Z</time>
      </trkpt>
      <trkpt lat="48.72848" lon="2.02672">
        <ele>99</ele>
        <time>2017-08-20T15:28:39Z</time>
      </trkpt>
      <trkpt lat="48.72851" lon="2.02675">
        <ele>99</ele>
        <time>2017-08-20T15:28:39Z</time>
      </trkpt>
      <trkpt lat="48.72855" lon="2.02678">
        <ele>99</ele>
        <time>2017-08-20T15:28:55Z</time>
      </trkpt>
      <trkpt lat="48.72859" lon="2.02681">
        <ele>99</ele>
        <time>2017-08-20T15:28:55Z</time>
      </trkpt>
      <trkpt lat="48.72863" lon="2.02684">
        <ele>99</ele>
        <time>2017-08-20T15:28:55Z</time>
      </trkpt>
      <trkpt lat="48.72866" lon="2.02689">
        <ele>99</ele>
        <time>2017-08-20T15:28:55Z</time>
      </trkpt>
      <trkpt lat="48.72871" lon="2.02693">
        <ele>99</ele>
        <time>2017-08-20T15:29:11Z</time>
      </trkpt>
      <trkpt lat="48.72875" lon="2.02697">
        <ele>99</ele>
        <time>2017-08-20T15:29:11Z</time>
      </trkpt>
      <trkpt lat="48.72878" lon="2.027">
        <ele>100</ele>
        <time>2017-08-20T15:29:11Z</time>
      </trkpt>
      <trkpt lat="48.72883" lon="2.02704">
        <ele>100</ele>
        <time>2017-08-20T15:29:11Z</time>
      </trkpt>
      <trkpt lat="48.72887" lon="2.0271">
        <ele>100</ele>
        <time>2017-08-20T15:29:27Z</time>
      </trkpt>
      <trkpt lat="48.7289" lon="2.02717">
        <ele>100</ele>
        <time>2017-08-20T15:29:27Z</time>
      </trkpt>
      <trkpt lat="48.72893" lon="2.0272">
        <ele>100</ele>
        <time>2017-08-20T15:29:27Z</time>
      </trkpt>
      <trkpt lat="48.72897" lon="2.02723">
        <ele>100</ele>
        <time>2017-08-20T15:29:27Z</time>
      </trkpt>
      <trkpt lat="48.72899" lon="2.02726">
        <ele>100</ele>
        <time>2017-08-20T15:29:43Z</time>
      </trkpt>
      <trkpt lat="48.72903" lon="2.02729">
        <ele>100</ele>
        <time>2017-08-20T15:29:43Z</time>
      </trkpt>
      <trkpt lat="48.72907" lon="2.02734">
        <ele>100</ele>
        <time>2017-08-20T15:29:43Z</time>
      </trkpt>
      <trkpt lat="48.7291" lon="2.02738">
        <ele>100</ele>
        <time>2017-08-20T15:29:43Z</time>
      </trkpt>
      <trkpt lat="48.72914" lon="2.0274">
        <ele>100</ele>
        <time>2017-08-20T15:29:59Z</time>
      </trkpt>
      <trkpt lat="48.72917" lon="2.02742">
        <ele>100</ele>
        <time>2017-08-20T15:29:59Z</time>
      </trkpt>
      <trkpt lat="48.72921" lon="2.02744">
        <ele>100</ele>
        <time>2017-08-20T15:29:59Z</time>
      </trkpt>
      <trkpt lat="48.72926" lon="2.02746">
        <ele>100</ele>
        <time>2017-08-20T15:29:59Z</time>
      </trkpt>
      <trkpt lat="48.72929" lon="2.0275">
        <ele>100</ele>
        <time>2017-08-20T15:30:15Z</time>
      </trkpt>
      <trkpt lat="48.72933" lon="2.02755">
        <ele>100</ele>
        <time>2017-08-20T15:30:15Z</time>
      </trkpt>
      <trkpt lat="48.72936" lon="2.02758">
        <ele>100</ele>
        <time>2017-08-20T15:30:15Z</time>
      </trkpt>
      <trkpt lat="48.72939" lon="2.02761">
        <ele>100</ele>
        <time>2017-08-20T15:30:15Z</time>
      </trkpt>
      <trkpt lat="48.72943" lon="2.02767">
        <ele>100</ele>
        <time>2017-08-20T15:30:31Z</time>
      </trkpt>
      <trkpt lat="48.72945" lon="2.02772">
        <ele>100</ele>
        <time>2017-08-20T15:30:31Z</time>
      </trkpt>
      <trkpt lat="48.72948" lon="2.02776">
        <ele>100</ele>
        <time>2017-08-20T15:30:31Z</time>
      </trkpt>
      <trkpt lat="48.72952" lon="2.02781">
        <ele>100</ele>
        <time>2017-08-20T15:30:31Z</time>
      </trkpt>
      <trkpt lat="48.72953" lon="2.02787">
        <ele>100</ele>
        <time>2017-08-20T15:30:47Z</time>
      </trkpt>
      <trkpt lat="48.72953" lon="2.02794">
        <ele>101</ele>
        <time>2017-08-20T15:30:47Z</time>
      </trkpt>
      <trkpt lat="48.72953" lon="2.02799">
        <ele>101</ele>
        <time>2017-08-20T15:30:47Z</time>
      </trkpt>
      <trkpt lat="48.72954" lon="2.02805">
        <ele>101</ele>
        <time>2017-08-20T15:30:47Z</time>
      </trkpt>
      <trkpt lat="48.72955" lon="2.02809">
        <ele>101</ele>
        <time>2017-08-20T15:31:07Z</time>
      </trkpt>
      <trkpt lat="48.72958" lon="2.02813">
        <ele>101</ele>
        <time>2017-08-20T15:31:07Z</time>
      </trkpt>
      <trkpt lat="48.72959" lon="2.02815">
        <ele>112</ele>
        <time>2017-08-20T15:31:07Z</time>
      </trkpt>
      <trkpt lat="48.72962" lon="2.02814">
        <ele>112</ele>
        <time>2017-08-20T15:31:07Z</time>
      </trkpt>
      <trkpt lat="48.72963" lon="2.02815">
        <ele>112</ele>
        <time>2017-08-20T15:31:07Z</time>
      </trkpt>
      <trkpt lat="48.72968" lon="2.02813">
        <ele>112</ele>
        <time>2017-08-20T15:31:23Z</time>
      </trkpt>
      <trkpt lat="48.72972" lon="2.02811">
        <ele>112</ele>
        <time>2017-08-20T15:31:23Z</time>
      </trkpt>
      <trkpt lat="48.72975" lon="2.02809">
        <ele>112</ele>
        <time>2017-08-20T15:31:23Z</time>
      </trkpt>
      <trkpt lat="48.72977" lon="2.02805">
        <ele>112</ele>
        <time>2017-08-20T15:31:23Z</time>
      </trkpt>
      <trkpt lat="48.7298" lon="2.028">
        <ele>112</ele>
        <time>2017-08-20T15:31:39Z</time>
      </trkpt>
      <trkpt lat="48.72984" lon="2.02798">
        <ele>112</ele>
        <time>2017-08-20T15:31:39Z</time>
      </trkpt>
      <trkpt lat="48.72989" lon="2.02795">
        <ele>112</ele>
        <time>2017-08-20T15:31:39Z</time>
      </trkpt>
      <trkpt lat="48.72993" lon="2.0279">
        <ele>103</ele>
        <time>2017-08-20T15:31:39Z</time>
      </trkpt>
      <trkpt lat="48.72998" lon="2.02785">
        <ele>103</ele>
        <time>2017-08-20T15:31:55Z</time>
      </trkpt>
      <trkpt lat="48.73" lon="2.02782">
        <ele>103</ele>
        <time>2017-08-20T15:31:55Z</time>
      </trkpt>
      <trkpt lat="48.73005" lon="2.02782">
        <ele>103</ele>
        <time>2017-08-20T15:31:55Z</time>
      </trkpt>
      <trkpt lat="48.7301" lon="2.0278">
        <ele>103</ele>
        <time>2017-08-20T15:31:55Z</time>
      </trkpt>
      <trkpt lat="48.73016" lon="2.02776">
        <ele>103</ele>
        <time>2017-08-20T15:32:11Z</time>
      </trkpt>
      <trkpt lat="48.73022" lon="2.02774">
        <ele>103</ele>
        <time>2017-08-20T15:32:11Z</time>
      </trkpt>
      <trkpt lat="48.73027" lon="2.02772">
        <ele>103</ele>
        <time>2017-08-20T15:32:11Z</time>
      </trkpt>
      <trkpt lat="48.73031" lon="2.02767">
        <ele>103</ele>
        <time>2017-08-20T15:32:11Z</time>
      </trkpt>
      <trkpt lat="48.73034" lon="2.02762">
        <ele>103</ele>
        <time>2017-08-20T15:32:27Z</time>
      </trkpt>
      <trkpt lat="48.73037" lon="2.02754">
        <ele>103</ele>
        <time>2017-08-20T15:32:27Z</time>
      </trkpt>
      <trkpt lat="48.73041" lon="2.02748">
        <ele>103</ele>
        <time>2017-08-20T15:32:27Z</time>
      </trkpt>
      <trkpt lat="48.73042" lon="2.02743">
        <ele>119</ele>
        <time>2017-08-20T15:32:27Z</time>
      </trkpt>
      <trkpt lat="48.73045" lon="2.02734">
        <ele>119</ele>
        <time>2017-08-20T15:32:43Z</time>
      </trkpt>
      <trkpt lat="48.73046" lon="2.02726">
        <ele>119</ele>
        <time>2017-08-20T15:32:43Z</time>
      </trkpt>
      <trkpt lat="48.7305" lon="2.02723">
        <ele>119</ele>
        <time>2017-08-20T15:32:43Z</time>
      </trkpt>
      <trkpt lat="48.73052" lon="2.02721">
        <ele>119</ele>
        <time>2017-08-20T15:32:43Z</time>
      </trkpt>
      <trkpt lat="48.73055" lon="2.02718">
        <ele>119</ele>
        <time>2017-08-20T15:32:59Z</time>
      </trkpt>
      <trkpt lat="48.73058" lon="2.02715">
        <ele>119</ele>
        <time>2017-08-20T15:32:59Z</time>
      </trkpt>
      <trkpt lat="48.73061" lon="2.02711">
        <ele>119</ele>
        <time>2017-08-20T15:32:59Z</time>
      </trkpt>
      <trkpt lat="48.73065" lon="2.02704">
        <ele>105</ele>
        <time>2017-08-20T15:32:59Z</time>
      </trkpt>
      <trkpt lat="48.7307" lon="2.02699">
        <ele>105</ele>
        <time>2017-08-20T15:33:15Z</time>
      </trkpt>
      <trkpt lat="48.73073" lon="2.02695">
        <ele>105</ele>
        <time>2017-08-20T15:33:15Z</time>
      </trkpt>
      <trkpt lat="48.73077" lon="2.02693">
        <ele>105</ele>
        <time>2017-08-20T15:33:15Z</time>
      </trkpt>
      <trkpt lat="48.73081" lon="2.02687">
        <ele>105</ele>
        <time>2017-08-20T15:33:15Z</time>
      </trkpt>
      <trkpt lat="48.73084" lon="2.02683">
        <ele>105</ele>
        <time>2017-08-20T15:33:31Z</time>
      </trkpt>
      <trkpt lat="48.73087" lon="2.0268">
        <ele>105</ele>
        <time>2017-08-20T15:33:31Z</time>
      </trkpt>
      <trkpt lat="48.7309" lon="2.02675">
        <ele>105</ele>
        <time>2017-08-20T15:33:31Z</time>
      </trkpt>
      <trkpt lat="48.73093" lon="2.0267">
        <ele>105</ele>
        <time>2017-08-20T15:33:31Z</time>
      </trkpt>
      <trkpt lat="48.73097" lon="2.02665">
        <ele>105</ele>
        <time>2017-08-20T15:33:47Z</time>
      </trkpt>
      <trkpt lat="48.73103" lon="2.02661">
        <ele>105</ele>
        <time>2017-08-20T15:33:47Z</time>
      </trkpt>
      <trkpt lat="48.73106" lon="2.02656">
        <ele>105</ele>
        <time>2017-08-20T15:33:47Z</time>
      </trkpt>
      <trkpt lat="48.73107" lon="2.02651">
        <ele>105</ele>
        <time>2017-08-20T15:33:47Z</time>
      </trkpt>
      <trkpt lat="48.73111" lon="2.02649">
        <ele>105</ele>
        <time>2017-08-20T15:34:03Z</time>
      </trkpt>
      <trkpt lat="48.73115" lon="2.02646">
        <ele>105</ele>
        <time>2017-08-20T15:34:03Z</time>
      </trkpt>
      <trkpt lat="48.73119" lon="2.02644">
        <ele>105</ele>
        <time>2017-08-20T15:34:03Z</time>
      </trkpt>
      <trkpt lat="48.73125" lon="2.02641">
        <ele>115</ele>
        <time>2017-08-20T15:34:03Z</time>
      </trkpt>
      <trkpt lat="48.73129" lon="2.02637">
        <ele>115</ele>
        <time>2017-08-20T15:34:19Z</time>
      </trkpt>
      <trkpt lat="48.73133" lon="2.02633">
        <ele>115</ele>
        <time>2017-08-20T15:34:19Z</time>
      </trkpt>
      <trkpt lat="48.73139" lon="2.0263">
        <ele>115</ele>
        <time>2017-08-20T15:34:19Z</time>
      </trkpt>
      <trkpt lat="48.73144" lon="2.02622">
        <ele>106</ele>
        <time>2017-08-20T15:34:19Z</time>
      </trkpt>
      <trkpt lat="48.73146" lon="2.02617">
        <ele>106</ele>
        <time>2017-08-20T15:34:35Z</time>
      </trkpt>
      <trkpt lat="48.73148" lon="2.02614">
        <ele>106</ele>
        <time>2017-08-20T15:34:35Z</time>
      </trkpt>
      <trkpt lat="48.73151" lon="2.02608">
        <ele>106</ele>
        <time>2017-08-20T15:34:35Z</time>
      </trkpt>
      <trkpt lat="48.73155" lon="2.02604">
        <ele>106</ele>
        <time>2017-08-20T15:34:35Z</time>
      </trkpt>
      <trkpt lat="48.7316" lon="2.02602">
        <ele>106</ele>
        <time>2017-08-20T15:34:51Z</time>
      </trkpt>
      <trkpt lat="48.73164" lon="2.02596">
        <ele>106</ele>
        <time>2017-08-20T15:34:51Z</time>
      </trkpt>
      <trkpt lat="48.73168" lon="2.0259">
        <ele>106</ele>
        <time>2017-08-20T15:34:51Z</time>
      </trkpt>
      <trkpt lat="48.73173" lon="2.0258">
        <ele>106</ele>
        <time>2017-08-20T15:34:51Z</time>
      </trkpt>
      <trkpt lat="48.73176" lon="2.02575">
        <ele>106</ele>
        <time>2017-08-20T15:35:07Z</time>
      </trkpt>
      <trkpt lat="48.7318" lon="2.02574">
        <ele>106</ele>
        <time>2017-08-20T15:35:07Z</time>
      </trkpt>
      <trkpt lat="48.73184" lon="2.0257">
        <ele>106</ele>
        <time>2017-08-20T15:35:07Z</time>
      </trkpt>
      <trkpt lat="48.73189" lon="2.02563">
        <ele>106</ele>
        <time>2017-08-20T15:35:07Z</time>
      </trkpt>
      <trkpt lat="48.73192" lon="2.02559">
        <ele>106</ele>
        <time>2017-08-20T15:35:23Z</time>
      </trkpt>
      <trkpt lat="48.73196" lon="2.02557">
        <ele>106</ele>
        <time>2017-08-20T15:35:23Z</time>
      </trkpt>
      <trkpt lat="48.732" lon="2.02553">
        <ele>106</ele>
        <time>2017-08-20T15:35:23Z</time>
      </trkpt>
      <trkpt lat="48.73205" lon="2.02547">
        <ele>106</ele>
        <time>2017-08-20T15:35:23Z</time>
      </trkpt>
      <trkpt lat="48.73209" lon="2.02543">
        <ele>124</ele>
        <time>2017-08-20T15:35:39Z</time>
      </trkpt>
      <trkpt lat="48.73212" lon="2.02537">
        <ele>110</ele>
        <time>2017-08-20T15:35:39Z</time>
      </trkpt>
      <trkpt lat="48.73215" lon="2.02533">
        <ele>110</ele>
        <time>2017-08-20T15:35:39Z</time>
      </trkpt>
      <trkpt lat="48.73222" lon="2.02527">
        <ele>110</ele>
        <time>2017-08-20T15:35:39Z</time>
      </trkpt>
      <trkpt lat="48.73222" lon="2.02525">
        <ele>110</ele>
        <time>2017-08-20T15:35:55Z</time>
      </trkpt>
      <trkpt lat="48.73226" lon="2.02522">
        <ele>110</ele>
        <time>2017-08-20T15:35:55Z</time>
      </trkpt>
      <trkpt lat="48.73231" lon="2.0252">
        <ele>110</ele>
        <time>2017-08-20T15:35:55Z</time>
      </trkpt>
      <trkpt lat="48.73235" lon="2.02515">
        <ele>110</ele>
        <time>2017-08-20T15:35:55Z</time>
      </trkpt>
      <trkpt lat="48.73238" lon="2.02511">
        <ele>110</ele>
        <time>2017-08-20T15:36:11Z</time>
      </trkpt>
      <trkpt lat="48.73243" lon="2.02509">
        <ele>110</ele>
        <time>2017-08-20T15:36:11Z</time>
      </trkpt>
      <trkpt lat="48.73248" lon="2.02504">
        <ele>110</ele>
        <time>2017-08-20T15:36:11Z</time>
      </trkpt>
      <trkpt lat="48.73253" lon="2.02498">
        <ele>110</ele>
        <time>2017-08-20T15:36:11Z</time>
      </trkpt>
      <trkpt lat="48.73257" lon="2.02496">
        <ele>110</ele>
        <time>2017-08-20T15:36:27Z</time>
      </trkpt>
      <trkpt lat="48.73262" lon="2.02491">
        <ele>110</ele>
        <time>2017-08-20T15:36:27Z</time>
      </trkpt>
      <trkpt lat="48.73265" lon="2.02488">
        <ele>110</ele>
        <time>2017-08-20T15:36:27Z</time>
      </trkpt>
      <trkpt lat="48.73267" lon="2.02486">
        <ele>110</ele>
        <time>2017-08-20T15:36:27Z</time>
      </trkpt>
      <trkpt lat="48.73272" lon="2.02483">
        <ele>110</ele>
        <time>2017-08-20T15:36:43Z</time>
      </trkpt>
      <trkpt lat="48.73276" lon="2.0248">
        <ele>110</ele>
        <time>2017-08-20T15:36:43Z</time>
      </trkpt>
      <trkpt lat="48.73279" lon="2.02478">
        <ele>110</ele>
        <time>2017-08-20T15:36:43Z</time>
      </trkpt>
      <trkpt lat="48.73282" lon="2.02478">
        <ele>110</ele>
        <time>2017-08-20T15:36:43Z</time>
      </trkpt>
      <trkpt lat="48.73287" lon="2.02478">
        <ele>110</ele>
        <time>2017-08-20T15:36:59Z</time>
      </trkpt>
      <trkpt lat="48.73292" lon="2.02475">
        <ele>124</ele>
        <time>2017-08-20T15:36:59Z</time>
      </trkpt>
      <trkpt lat="48.73298" lon="2.02468">
        <ele>124</ele>
        <time>2017-08-20T15:36:59Z</time>
      </trkpt>
      <trkpt lat="48.73302" lon="2.02465">
        <ele>124</ele>
        <time>2017-08-20T15:36:59Z</time>
      </trkpt>
      <trkpt lat="48.73305" lon="2.02459">
        <ele>124</ele>
        <time>2017-08-20T15:37:15Z</time>
      </trkpt>
      <trkpt lat="48.73309" lon="2.02454">
        <ele>110</ele>
        <time>2017-08-20T15:37:15Z</time>
      </trkpt>
      <trkpt lat="48.73314" lon="2.02448">
        <ele>110</ele>
        <time>2017-08-20T15:37:15Z</time>
      </trkpt>
      <trkpt lat="48.73317" lon="2.02444">
        <ele>110</ele>
        <time>2017-08-20T15:37:15Z</time>
      </trkpt>
      <trkpt lat="48.73321" lon="2.0244">
        <ele>110</ele>
        <time>2017-08-20T15:37:31Z</time>
      </trkpt>
      <trkpt lat="48.73324" lon="2.02437">
        <ele>110</ele>
        <time>2017-08-20T15:37:31Z</time>
      </trkpt>
      <trkpt lat="48.7333" lon="2.0243">
        <ele>110</ele>
        <time>2017-08-20T15:37:31Z</time>
      </trkpt>
      <trkpt lat="48.73335" lon="2.02426">
        <ele>110</ele>
        <time>2017-08-20T15:37:31Z</time>
      </trkpt>
      <trkpt lat="48.73339" lon="2.02421">
        <ele>110</ele>
        <time>2017-08-20T15:37:47Z</time>
      </trkpt>
      <trkpt lat="48.73343" lon="2.02418">
        <ele>110</ele>
        <time>2017-08-20T15:37:47Z</time>
      </trkpt>
      <trkpt lat="48.73349" lon="2.02415">
        <ele>110</ele>
        <time>2017-08-20T15:37:47Z</time>
      </trkpt>
      <trkpt lat="48.73353" lon="2.02411">
        <ele>110</ele>
        <time>2017-08-20T15:37:47Z</time>
      </trkpt>
      <trkpt lat="48.73358" lon="2.02409">
        <ele>110</ele>
        <time>2017-08-20T15:38:03Z</time>
      </trkpt>
      <trkpt lat="48.73362" lon="2.02407">
        <ele>110</ele>
        <time>2017-08-20T15:38:03Z</time>
      </trkpt>
      <trkpt lat="48.73366" lon="2.02403">
        <ele>110</ele>
        <time>2017-08-20T15:38:03Z</time>
      </trkpt>
      <trkpt lat="48.73371" lon="2.02401">
        <ele>110</ele>
        <time>2017-08-20T15:38:03Z</time>
      </trkpt>
      <trkpt lat="48.73378" lon="2.02398">
        <ele>121</ele>
        <time>2017-08-20T15:38:19Z</time>
      </trkpt>
      <trkpt lat="48.73383" lon="2.02396">
        <ele>121</ele>
        <time>2017-08-20T15:38:19Z</time>
      </trkpt>
      <trkpt lat="48.73387" lon="2.02394">
        <ele>121</ele>
        <time>2017-08-20T15:38:19Z</time>
      </trkpt>
      <trkpt lat="48.73393" lon="2.0239">
        <ele>121</ele>
        <time>2017-08-20T15:38:19Z</time>
      </trkpt>
      <trkpt lat="48.73398" lon="2.02387">
        <ele>121</ele>
        <time>2017-08-20T15:38:35Z</time>
      </trkpt>
      <trkpt lat="48.73403" lon="2.02385">
        <ele>121</ele>
        <time>2017-08-20T15:38:35Z</time>
      </trkpt>
      <trkpt lat="48.73405" lon="2.02381">
        <ele>121</ele>
        <time>2017-08-20T15:38:35Z</time>
      </trkpt>
      <trkpt lat="48.73408" lon="2.02376">
        <ele>121</ele>
        <time>2017-08-20T15:38:35Z</time>
      </trkpt>
      <trkpt lat="48.73411" lon="2.02371">
        <ele>107</ele>
        <time>2017-08-20T15:38:51Z</time>
      </trkpt>
      <trkpt lat="48.73414" lon="2.02365">
        <ele>107</ele>
        <time>2017-08-20T15:38:51Z</time>
      </trkpt>
      <trkpt lat="48.73418" lon="2.0236">
        <ele>107</ele>
        <time>2017-08-20T15:38:51Z</time>
      </trkpt>
      <trkpt lat="48.73421" lon="2.02352">
        <ele>107</ele>
        <time>2017-08-20T15:38:51Z</time>
      </trkpt>
      <trkpt lat="48.73423" lon="2.02343">
        <ele>107</ele>
        <time>2017-08-20T15:39:07Z</time>
      </trkpt>
      <trkpt lat="48.73425" lon="2.02336">
        <ele>107</ele>
        <time>2017-08-20T15:39:07Z</time>
      </trkpt>
      <trkpt lat="48.73425" lon="2.02329">
        <ele>107</ele>
        <time>2017-08-20T15:39:07Z</time>
      </trkpt>
      <trkpt lat="48.73429" lon="2.02322">
        <ele>107</ele>
        <time>2017-08-20T15:39:07Z</time>
      </trkpt>
      <trkpt lat="48.73432" lon="2.02316">
        <ele>107</ele>
        <time>2017-08-20T15:39:23Z</time>
      </trkpt>
      <trkpt lat="48.73436" lon="2.0231">
        <ele>107</ele>
        <time>2017-08-20T15:39:23Z</time>
      </trkpt>
      <trkpt lat="48.7344" lon="2.02303">
        <ele>107</ele>
        <time>2017-08-20T15:39:23Z</time>
      </trkpt>
      <trkpt lat="48.73445" lon="2.02298">
        <ele>107</ele>
        <time>2017-08-20T15:39:23Z</time>
      </trkpt>
      <trkpt lat="48.73454" lon="2.02288">
        <ele>102</ele>
        <time>2017-08-20T15:40:35Z</time>
      </trkpt>
      <trkpt lat="48.73454" lon="2.02288">
        <ele>102</ele>
        <time>2017-08-20T15:40:35Z</time>
      </trkpt>
      <trkpt lat="48.73454" lon="2.02289">
        <ele>102</ele>
        <time>2017-08-20T15:40:35Z</time>
      </trkpt>
      <trkpt lat="48.73455" lon="2.0229">
        <ele>102</ele>
        <time>2017-08-20T15:40:35Z</time>
      </trkpt>
      <trkpt lat="48.73458" lon="2.0229">
        <ele>102</ele>
        <time>2017-08-20T15:40:35Z</time>
      </trkpt>
      <trkpt lat="48.7346" lon="2.02289">
        <ele>105</ele>
        <time>2017-08-20T15:40:51Z</time>
      </trkpt>
      <trkpt lat="48.73464" lon="2.02289">
        <ele>105</ele>
        <time>2017-08-20T15:40:51Z</time>
      </trkpt>
      <trkpt lat="48.73469" lon="2.02291">
        <ele>105</ele>
        <time>2017-08-20T15:40:51Z</time>
      </trkpt>
      <trkpt lat="48.73473" lon="2.02293">
        <ele>111</ele>
        <time>2017-08-20T15:40:51Z</time>
      </trkpt>
      <trkpt lat="48.73477" lon="2.02294">
        <ele>111</ele>
        <time>2017-08-20T15:41:07Z</time>
      </trkpt>
      <trkpt lat="48.73482" lon="2.02294">
        <ele>111</ele>
        <time>2017-08-20T15:41:07Z</time>
      </trkpt>
      <trkpt lat="48.73487" lon="2.02293">
        <ele>111</ele>
        <time>2017-08-20T15:41:07Z</time>
      </trkpt>
      <trkpt lat="48.73491" lon="2.02292">
        <ele>111</ele>
        <time>2017-08-20T15:41:07Z</time>
      </trkpt>
      <trkpt lat="48.73497" lon="2.02289">
        <ele>105</ele>
        <time>2017-08-20T15:41:23Z</time>
      </trkpt>
      <trkpt lat="48.73502" lon="2.02287">
        <ele>105</ele>
        <time>2017-08-20T15:41:23Z</time>
      </trkpt>
      <trkpt lat="48.73506" lon="2.02288">
        <ele>105</ele>
        <time>2017-08-20T15:41:23Z</time>
      </trkpt>
      <trkpt lat="48.73509" lon="2.02289">
        <ele>105</ele>
        <time>2017-08-20T15:41:23Z</time>
      </trkpt>
      <trkpt lat="48.73514" lon="2.02288">
        <ele>105</ele>
        <time>2017-08-20T15:41:39Z</time>
      </trkpt>
      <trkpt lat="48.7352" lon="2.02287">
        <ele>105</ele>
        <time>2017-08-20T15:41:39Z</time>
      </trkpt>
      <trkpt lat="48.73527" lon="2.02288">
        <ele>105</ele>
        <time>2017-08-20T15:41:39Z</time>
      </trkpt>
      <trkpt lat="48.73532" lon="2.0229">
        <ele>105</ele>
        <time>2017-08-20T15:41:39Z</time>
      </trkpt>
      <trkpt lat="48.73537" lon="2.02292">
        <ele>111</ele>
        <time>2017-08-20T15:41:55Z</time>
      </trkpt>
      <trkpt lat="48.73542" lon="2.02292">
        <ele>119</ele>
        <time>2017-08-20T15:41:55Z</time>
      </trkpt>
      <trkpt lat="48.73547" lon="2.02293">
        <ele>119</ele>
        <time>2017-08-20T15:41:55Z</time>
      </trkpt>
      <trkpt lat="48.73553" lon="2.02292">
        <ele>119</ele>
        <time>2017-08-20T15:41:55Z</time>
      </trkpt>
      <trkpt lat="48.73558" lon="2.0229">
        <ele>109</ele>
        <time>2017-08-20T15:42:11Z</time>
      </trkpt>
      <trkpt lat="48.73563" lon="2.02288">
        <ele>109</ele>
        <time>2017-08-20T15:42:11Z</time>
      </trkpt>
      <trkpt lat="48.73568" lon="2.02289">
        <ele>109</ele>
        <time>2017-08-20T15:42:11Z</time>
      </trkpt>
      <trkpt lat="48.73574" lon="2.02288">
        <ele>109</ele>
        <time>2017-08-20T15:42:11Z</time>
      </trkpt>
      <trkpt lat="48.73577" lon="2.02287">
        <ele>109</ele>
        <time>2017-08-20T15:42:27Z</time>
      </trkpt>
      <trkpt lat="48.73581" lon="2.02285">
        <ele>109</ele>
        <time>2017-08-20T15:42:27Z</time>
      </trkpt>
      <trkpt lat="48.73587" lon="2.02287">
        <ele>109</ele>
        <time>2017-08-20T15:42:27Z</time>
      </trkpt>
      <trkpt lat="48.73593" lon="2.02288">
        <ele>109</ele>
        <time>2017-08-20T15:42:27Z</time>
      </trkpt>
      <trkpt lat="48.73597" lon="2.02288">
        <ele>109</ele>
        <time>2017-08-20T15:42:43Z</time>
      </trkpt>
      <trkpt lat="48.73603" lon="2.02289">
        <ele>109</ele>
        <time>2017-08-20T15:42:43Z</time>
      </trkpt>
      <trkpt lat="48.73609" lon="2.02289">
        <ele>109</ele>
        <time>2017-08-20T15:42:43Z</time>
      </trkpt>
      <trkpt lat="48.73613" lon="2.02288">
        <ele>109</ele>
        <time>2017-08-20T15:42:43Z</time>
      </trkpt>
      <trkpt lat="48.73619" lon="2.02286">
        <ele>109</ele>
        <time>2017-08-20T15:42:59Z</time>
      </trkpt>
      <trkpt lat="48.73624" lon="2.02286">
        <ele>109</ele>
        <time>2017-08-20T15:42:59Z</time>
      </trkpt>
      <trkpt lat="48.73628" lon="2.02285">
        <ele>112</ele>
        <time>2017-08-20T15:42:59Z</time>
      </trkpt>
      <trkpt lat="48.73633" lon="2.02288">
        <ele>112</ele>
        <time>2017-08-20T15:42:59Z</time>
      </trkpt>
      <trkpt lat="48.73637" lon="2.02288">
        <ele>112</ele>
        <time>2017-08-20T15:43:19Z</time>
      </trkpt>
      <trkpt lat="48.73638" lon="2.02288">
        <ele>112</ele>
        <time>2017-08-20T15:43:19Z</time>
      </trkpt>
      <trkpt lat="48.73642" lon="2.02288">
        <ele>112</ele>
        <time>2017-08-20T15:43:19Z</time>
      </trkpt>
      <trkpt lat="48.73645" lon="2.0229">
        <ele>112</ele>
        <time>2017-08-20T15:43:19Z</time>
      </trkpt>
      <trkpt lat="48.73648" lon="2.02292">
        <ele>127</ele>
        <time>2017-08-20T15:43:19Z</time>
      </trkpt>
      <trkpt lat="48.7365" lon="2.02291">
        <ele>112</ele>
        <time>2017-08-20T15:43:35Z</time>
      </trkpt>
      <trkpt lat="48.73654" lon="2.02289">
        <ele>112</ele>
        <time>2017-08-20T15:43:35Z</time>
      </trkpt>
      <trkpt lat="48.73664" lon="2.02282">
        <ele>112</ele>
        <time>2017-08-20T15:43:35Z</time>
      </trkpt>
      <trkpt lat="48.73672" lon="2.02281">
        <ele>112</ele>
        <time>2017-08-20T15:43:35Z</time>
      </trkpt>
      <trkpt lat="48.73679" lon="2.02279">
        <ele>112</ele>
        <time>2017-08-20T15:43:51Z</time>
      </trkpt>
      <trkpt lat="48.73685" lon="2.02277">
        <ele>112</ele>
        <time>2017-08-20T15:43:51Z</time>
      </trkpt>
      <trkpt lat="48.73689" lon="2.02275">
        <ele>112</ele>
        <time>2017-08-20T15:43:51Z</time>
      </trkpt>
      <trkpt lat="48.73693" lon="2.02274">
        <ele>112</ele>
        <time>2017-08-20T15:43:51Z</time>
      </trkpt>
      <trkpt lat="48.73697" lon="2.02271">
        <ele>112</ele>
        <time>2017-08-20T15:44:07Z</time>
      </trkpt>
      <trkpt lat="48.73701" lon="2.02269">
        <ele>112</ele>
        <time>2017-08-20T15:44:07Z</time>
      </trkpt>
      <trkpt lat="48.73705" lon="2.02268">
        <ele>112</ele>
        <time>2017-08-20T15:44:07Z</time>
      </trkpt>
      <trkpt lat="48.73711" lon="2.02268">
        <ele>117</ele>
        <time>2017-08-20T15:44:07Z</time>
      </trkpt>
      <trkpt lat="48.73712" lon="2.02266">
        <ele>117</ele>
        <time>2017-08-20T15:44:23Z</time>
      </trkpt>
      <trkpt lat="48.73717" lon="2.02269">
        <ele>117</ele>
        <time>2017-08-20T15:44:23Z</time>
      </trkpt>
      <trkpt lat="48.73723" lon="2.0227">
        <ele>117</ele>
        <time>2017-08-20T15:44:23Z</time>
      </trkpt>
      <trkpt lat="48.73728" lon="2.02271">
        <ele>117</ele>
        <time>2017-08-20T15:44:23Z</time>
      </trkpt>
      <trkpt lat="48.7373" lon="2.0227">
        <ele>117</ele>
        <time>2017-08-20T15:44:39Z</time>
      </trkpt>
      <trkpt lat="48.73742" lon="2.0227">
        <ele>117</ele>
        <time>2017-08-20T15:44:39Z</time>
      </trkpt>
      <trkpt lat="48.73746" lon="2.02266">
        <ele>117</ele>
        <time>2017-08-20T15:44:39Z</time>
      </trkpt>
      <trkpt lat="48.73749" lon="2.02266">
        <ele>117</ele>
        <time>2017-08-20T15:44:39Z</time>
      </trkpt>
      <trkpt lat="48.73752" lon="2.02266">
        <ele>117</ele>
        <time>2017-08-20T15:44:55Z</time>
      </trkpt>
      <trkpt lat="48.73754" lon="2.02266">
        <ele>117</ele>
        <time>2017-08-20T15:44:55Z</time>
      </trkpt>
      <trkpt lat="48.73758" lon="2.02264">
        <ele>117</ele>
        <time>2017-08-20T15:44:55Z</time>
      </trkpt>
      <trkpt lat="48.73765" lon="2.02264">
        <ele>117</ele>
        <time>2017-08-20T15:44:55Z</time>
      </trkpt>
      <trkpt lat="48.73771" lon="2.0226">
        <ele>117</ele>
        <time>2017-08-20T15:45:11Z</time>
      </trkpt>
      <trkpt lat="48.73779" lon="2.02257">
        <ele>117</ele>
        <time>2017-08-20T15:45:11Z</time>
      </trkpt>
      <trkpt lat="48.73782" lon="2.02255">
        <ele>117</ele>
        <time>2017-08-20T15:45:11Z</time>
      </trkpt>
      <trkpt lat="48.73787" lon="2.02252">
        <ele>117</ele>
        <time>2017-08-20T15:45:11Z</time>
      </trkpt>
      <trkpt lat="48.73791" lon="2.02249">
        <ele>117</ele>
        <time>2017-08-20T15:45:27Z</time>
      </trkpt>
      <trkpt lat="48.73794" lon="2.02246">
        <ele>117</ele>
        <time>2017-08-20T15:45:27Z</time>
      </trkpt>
      <trkpt lat="48.73799" lon="2.02247">
        <ele>117</ele>
        <time>2017-08-20T15:45:27Z</time>
      </trkpt>
      <trkpt lat="48.73805" lon="2.02248">
        <ele>117</ele>
        <time>2017-08-20T15:45:27Z</time>
      </trkpt>
      <trkpt lat="48.73812" lon="2.02242">
        <ele>117</ele>
        <time>2017-08-20T15:49:31Z</time>
      </trkpt>
      <trkpt lat="48.73813" lon="2.0224">
        <ele>117</ele>
        <time>2017-08-20T15:49:31Z</time>
      </trkpt>
      <trkpt lat="48.73816" lon="2.02239">
        <ele>117</ele>
        <time>2017-08-20T15:49:31Z</time>
      </trkpt>
      <trkpt lat="48.7382" lon="2.02241">
        <ele>117</ele>
        <time>2017-08-20T15:49:31Z</time>
      </trkpt>
      <trkpt lat="48.73825" lon="2.02245">
        <ele>117</ele>
        <time>2017-08-20T15:49:31Z</time>
      </trkpt>
      <trkpt lat="48.73833" lon="2.02246">
        <ele>117</ele>
        <time>2017-08-20T15:49:59Z</time>
      </trkpt>
      <trkpt lat="48.73833" lon="2.02247">
        <ele>117</ele>
        <time>2017-08-20T15:49:59Z</time>
      </trkpt>
      <trkpt lat="48.73835" lon="2.02251">
        <ele>117</ele>
        <time>2017-08-20T15:49:59Z</time>
      </trkpt>
      <trkpt lat="48.73836" lon="2.02251">
        <ele>117</ele>
        <time>2017-08-20T15:49:59Z</time>
      </trkpt>
      <trkpt lat="48.73838" lon="2.02251">
        <ele>117</ele>
        <time>2017-08-20T15:49:59Z</time>
      </trkpt>
      <trkpt lat="48.7384" lon="2.02249">
        <ele>117</ele>
        <time>2017-08-20T15:50:19Z</time>
      </trkpt>
      <trkpt lat="48.73841" lon="2.0225">
        <ele>117</ele>
        <time>2017-08-20T15:50:19Z</time>
      </trkpt>
      <trkpt lat="48.73844" lon="2.02251">
        <ele>117</ele>
        <time>2017-08-20T15:50:19Z</time>
      </trkpt>
      <trkpt lat="48.73845" lon="2.02253">
        <ele>117</ele>
        <time>2017-08-20T15:50:19Z</time>
      </trkpt>
      <trkpt lat="48.73859" lon="2.02253">
        <ele>117</ele>
        <time>2017-08-20T15:50:19Z</time>
      </trkpt>
      <trkpt lat="48.7386" lon="2.02254">
        <ele>117</ele>
        <time>2017-08-20T15:50:35Z</time>
      </trkpt>
      <trkpt lat="48.7387" lon="2.02255">
        <ele>117</ele>
        <time>2017-08-20T15:50:35Z</time>
      </trkpt>
      <trkpt lat="48.73882" lon="2.02256">
        <ele>114</ele>
        <time>2017-08-20T15:50:35Z</time>
      </trkpt>
      <trkpt lat="48.73889" lon="2.02266">
        <ele>114</ele>
        <time>2017-08-20T15:50:35Z</time>
      </trkpt>
      <trkpt lat="48.73895" lon="2.02264">
        <ele>114</ele>
        <time>2017-08-20T15:50:51Z</time>
      </trkpt>
      <trkpt lat="48.739" lon="2.02265">
        <ele>114</ele>
        <time>2017-08-20T15:50:51Z</time>
      </trkpt>
      <trkpt lat="48.73904" lon="2.02266">
        <ele>114</ele>
        <time>2017-08-20T15:50:51Z</time>
      </trkpt>
      <trkpt lat="48.73911" lon="2.02267">
        <ele>114</ele>
        <time>2017-08-20T15:50:51Z</time>
      </trkpt>
      <trkpt lat="48.73918" lon="2.02267">
        <ele>114</ele>
        <time>2017-08-20T15:51:07Z</time>
      </trkpt>
      <trkpt lat="48.73924" lon="2.02265">
        <ele>114</ele>
        <time>2017-08-20T15:51:07Z</time>
      </trkpt>
      <trkpt lat="48.73928" lon="2.02267">
        <ele>114</ele>
        <time>2017-08-20T15:51:07Z</time>
      </trkpt>
      <trkpt lat="48.73929" lon="2.02267">
        <ele>114</ele>
        <time>2017-08-20T15:51:07Z</time>
      </trkpt>
      <trkpt lat="48.7393" lon="2.02269">
        <ele>114</ele>
        <time>2017-08-20T15:51:23Z</time>
      </trkpt>
      <trkpt lat="48.73935" lon="2.02271">
        <ele>114</ele>
        <time>2017-08-20T15:51:23Z</time>
      </trkpt>
      <trkpt lat="48.73943" lon="2.02276">
        <ele>114</ele>
        <time>2017-08-20T15:51:23Z</time>
      </trkpt>
      <trkpt lat="48.73947" lon="2.02278">
        <ele>114</ele>
        <time>2017-08-20T15:51:23Z</time>
      </trkpt>
      <trkpt lat="48.73953" lon="2.02284">
        <ele>114</ele>
        <time>2017-08-20T15:51:39Z</time>
      </trkpt>
      <trkpt lat="48.73957" lon="2.02286">
        <ele>114</ele>
        <time>2017-08-20T15:51:39Z</time>
      </trkpt>
      <trkpt lat="48.73961" lon="2.02286">
        <ele>113</ele>
        <time>2017-08-20T15:51:39Z</time>
      </trkpt>
      <trkpt lat="48.73964" lon="2.02287">
        <ele>113</ele>
        <time>2017-08-20T15:51:39Z</time>
      </trkpt>
      <trkpt lat="48.73973" lon="2.02294">
        <ele>121</ele>
        <time>2017-08-20T15:52:11Z</time>
      </trkpt>
      <trkpt lat="48.73973" lon="2.02294">
        <ele>121</ele>
        <time>2017-08-20T15:52:11Z</time>
      </trkpt>
      <trkpt lat="48.73974" lon="2.02294">
        <ele>121</ele>
        <time>2017-08-20T15:52:11Z</time>
      </trkpt>
      <trkpt lat="48.7398" lon="2.02293">
        <ele>121</ele>
        <time>2017-08-20T15:52:11Z</time>
      </trkpt>
      <trkpt lat="48.73995" lon="2.02286">
        <ele>113</ele>
        <time>2017-08-20T15:52:11Z</time>
      </trkpt>
      <trkpt lat="48.74002" lon="2.02289">
        <ele>113</ele>
        <time>2017-08-20T15:52:59Z</time>
      </trkpt>
      <trkpt lat="48.74003" lon="2.02289">
        <ele>113</ele>
        <time>2017-08-20T15:52:59Z</time>
      </trkpt>
      <trkpt lat="48.74007" lon="2.02288">
        <ele>113</ele>
        <time>2017-08-20T15:52:59Z</time>
      </trkpt>
      <trkpt lat="48.7401" lon="2.02288">
        <ele>113</ele>
        <time>2017-08-20T15:52:59Z</time>
      </trkpt>
      <trkpt lat="48.74012" lon="2.02288">
        <ele>113</ele>
        <time>2017-08-20T15:52:59Z</time>
      </trkpt>
      <trkpt lat="48.74016" lon="2.02288">
        <ele>113</ele>
        <time>2017-08-20T15:53:19Z</time>
      </trkpt>
      <trkpt lat="48.7402" lon="2.02286">
        <ele>113</ele>
        <time>2017-08-20T15:53:19Z</time>
      </trkpt>
      <trkpt lat="48.74022" lon="2.02283">
        <ele>113</ele>
        <time>2017-08-20T15:53:19Z</time>
      </trkpt>
      <trkpt lat="48.74024" lon="2.02282">
        <ele>113</ele>
        <time>2017-08-20T15:53:19Z</time>
      </trkpt>
      <trkpt lat="48.74027" lon="2.02278">
        <ele>113</ele>
        <time>2017-08-20T15:53:19Z</time>
      </trkpt>
      <trkpt lat="48.74032" lon="2.02274">
        <ele>113</ele>
        <time>2017-08-20T15:53:35Z</time>
      </trkpt>
      <trkpt lat="48.74036" lon="2.02271">
        <ele>113</ele>
        <time>2017-08-20T15:53:35Z</time>
      </trkpt>
      <trkpt lat="48.7404" lon="2.02269">
        <ele>113</ele>
        <time>2017-08-20T15:53:35Z</time>
      </trkpt>
      <trkpt lat="48.74044" lon="2.02269">
        <ele>126</ele>
        <time>2017-08-20T15:53:35Z</time>
      </trkpt>
      <trkpt lat="48.74046" lon="2.02267">
        <ele>126</ele>
        <time>2017-08-20T15:53:51Z</time>
      </trkpt>
      <trkpt lat="48.7405" lon="2.02264">
        <ele>126</ele>
        <time>2017-08-20T15:53:51Z</time>
      </trkpt>
      <trkpt lat="48.74055" lon="2.0226">
        <ele>126</ele>
        <time>2017-08-20T15:53:51Z</time>
      </trkpt>
      <trkpt lat="48.74061" lon="2.0225">
        <ele>126</ele>
        <time>2017-08-20T15:53:51Z</time>
      </trkpt>
      <trkpt lat="48.74065" lon="2.02244">
        <ele>126</ele>
        <time>2017-08-20T15:54:07Z</time>
      </trkpt>
      <trkpt lat="48.74066" lon="2.02238">
        <ele>126</ele>
        <time>2017-08-20T15:54:07Z</time>
      </trkpt>
      <trkpt lat="48.74069" lon="2.0223">
        <ele>126</ele>
        <time>2017-08-20T15:54:07Z</time>
      </trkpt>
      <trkpt lat="48.74072" lon="2.02225">
        <ele>126</ele>
        <time>2017-08-20T15:54:07Z</time>
      </trkpt>
      <trkpt lat="48.74072" lon="2.02222">
        <ele>126</ele>
        <time>2017-08-20T15:54:31Z</time>
      </trkpt>
      <trkpt lat="48.74073" lon="2.02222">
        <ele>126</ele>
        <time>2017-08-20T15:54:31Z</time>
      </trkpt>
      <trkpt lat="48.74074" lon="2.02218">
        <ele>126</ele>
        <time>2017-08-20T15:54:31Z</time>
      </trkpt>
      <trkpt lat="48.74076" lon="2.02215">
        <ele>126</ele>
        <time>2017-08-20T15:54:31Z</time>
      </trkpt>
      <trkpt lat="48.74078" lon="2.02208">
        <ele>119</ele>
        <time>2017-08-20T15:54:31Z</time>
      </trkpt>
      <trkpt lat="48.74078" lon="2.02202">
        <ele>119</ele>
        <time>2017-08-20T15:54:47Z</time>
      </trkpt>
      <trkpt lat="48.7408" lon="2.02195">
        <ele>119</ele>
        <time>2017-08-20T15:54:47Z</time>
      </trkpt>
      <trkpt lat="48.74081" lon="2.0219">
        <ele>119</ele>
        <time>2017-08-20T15:54:47Z</time>
      </trkpt>
      <trkpt lat="48.74082" lon="2.02185">
        <ele>119</ele>
        <time>2017-08-20T15:54:47Z</time>
      </trkpt>
      <trkpt lat="48.74081" lon="2.02181">
        <ele>119</ele>
        <time>2017-08-20T15:55:07Z</time>
      </trkpt>
      <trkpt lat="48.74081" lon="2.02179">
        <ele>119</ele>
        <time>2017-08-20T15:55:07Z</time>
      </trkpt>
      <trkpt lat="48.7408" lon="2.02175">
        <ele>119</ele>
        <time>2017-08-20T15:55:07Z</time>
      </trkpt>
      <trkpt lat="48.74082" lon="2.0217">
        <ele>119</ele>
        <time>2017-08-20T15:55:07Z</time>
      </trkpt>
      <trkpt lat="48.74083" lon="2.02166">
        <ele>119</ele>
        <time>2017-08-20T15:55:07Z</time>
      </trkpt>
      <trkpt lat="48.74086" lon="2.02162">
        <ele>119</ele>
        <time>2017-08-20T15:55:23Z</time>
      </trkpt>
      <trkpt lat="48.74088" lon="2.02157">
        <ele>119</ele>
        <time>2017-08-20T15:55:23Z</time>
      </trkpt>
      <trkpt lat="48.74092" lon="2.02152">
        <ele>119</ele>
        <time>2017-08-20T15:55:23Z</time>
      </trkpt>
      <trkpt lat="48.74095" lon="2.02144">
        <ele>119</ele>
        <time>2017-08-20T15:55:23Z</time>
      </trkpt>
      <trkpt lat="48.741" lon="2.02139">
        <ele>119</ele>
        <time>2017-08-20T15:55:43Z</time>
      </trkpt>
      <trkpt lat="48.74102" lon="2.02136">
        <ele>119</ele>
        <time>2017-08-20T15:55:43Z</time>
      </trkpt>
      <trkpt lat="48.74104" lon="2.02133">
        <ele>119</ele>
        <time>2017-08-20T15:55:43Z</time>
      </trkpt>
      <trkpt lat="48.74106" lon="2.02131">
        <ele>119</ele>
        <time>2017-08-20T15:55:43Z</time>
      </trkpt>
      <trkpt lat="48.74109" lon="2.02127">
        <ele>119</ele>
        <time>2017-08-20T15:55:43Z</time>
      </trkpt>
      <trkpt lat="48.74111" lon="2.02122">
        <ele>112</ele>
        <time>2017-08-20T15:55:59Z</time>
      </trkpt>
      <trkpt lat="48.74114" lon="2.02115">
        <ele>112</ele>
        <time>2017-08-20T15:55:59Z</time>
      </trkpt>
      <trkpt lat="48.74118" lon="2.02106">
        <ele>112</ele>
        <time>2017-08-20T15:55:59Z</time>
      </trkpt>
      <trkpt lat="48.74122" lon="2.02098">
        <ele>112</ele>
        <time>2017-08-20T15:55:59Z</time>
      </trkpt>
      <trkpt lat="48.74124" lon="2.02091">
        <ele>112</ele>
        <time>2017-08-20T15:56:15Z</time>
      </trkpt>
      <trkpt lat="48.74126" lon="2.02084">
        <ele>128</ele>
        <time>2017-08-20T15:56:15Z</time>
      </trkpt>
      <trkpt lat="48.7413" lon="2.02078">
        <ele>128</ele>
        <time>2017-08-20T15:56:15Z</time>
      </trkpt>
      <trkpt lat="48.74133" lon="2.02074">
        <ele>128</ele>
        <time>2017-08-20T15:56:15Z</time>
      </trkpt>
      <trkpt lat="48.74134" lon="2.02069">
        <ele>128</ele>
        <time>2017-08-20T15:56:31Z</time>
      </trkpt>
      <trkpt lat="48.74136" lon="2.02059">
        <ele>128</ele>
        <time>2017-08-20T15:56:31Z</time>
      </trkpt>
      <trkpt lat="48.74138" lon="2.02053">
        <ele>128</ele>
        <time>2017-08-20T15:56:31Z</time>
      </trkpt>
      <trkpt lat="48.7414" lon="2.02049">
        <ele>128</ele>
        <time>2017-08-20T15:56:31Z</time>
      </trkpt>
      <trkpt lat="48.74142" lon="2.02046">
        <ele>128</ele>
        <time>2017-08-20T15:56:47Z</time>
      </trkpt>
      <trkpt lat="48.74144" lon="2.02047">
        <ele>128</ele>
        <time>2017-08-20T15:56:47Z</time>
      </trkpt>
      <trkpt lat="48.74148" lon="2.02045">
        <ele>128</ele>
        <time>2017-08-20T15:56:47Z</time>
      </trkpt>
      <trkpt lat="48.74159" lon="2.02039">
        <ele>121</ele>
        <time>2017-08-20T15:56:47Z</time>
      </trkpt>
      <trkpt lat="48.74163" lon="2.02035">
        <ele>121</ele>
        <time>2017-08-20T15:57:03Z</time>
      </trkpt>
      <trkpt lat="48.74169" lon="2.02029">
        <ele>121</ele>
        <time>2017-08-20T15:57:03Z</time>
      </trkpt>
      <trkpt lat="48.74171" lon="2.02024">
        <ele>121</ele>
        <time>2017-08-20T15:57:03Z</time>
      </trkpt>
      <trkpt lat="48.74173" lon="2.02021">
        <ele>121</ele>
        <time>2017-08-20T15:57:03Z</time>
      </trkpt>
      <trkpt lat="48.74176" lon="2.02018">
        <ele>121</ele>
        <time>2017-08-20T15:57:19Z</time>
      </trkpt>
      <trkpt lat="48.74181" lon="2.02013">
        <ele>121</ele>
        <time>2017-08-20T15:57:19Z</time>
      </trkpt>
      <trkpt lat="48.74186" lon="2.02009">
        <ele>121</ele>
        <time>2017-08-20T15:57:19Z</time>
      </trkpt>
      <trkpt lat="48.7419" lon="2.02004">
        <ele>121</ele>
        <time>2017-08-20T15:57:19Z</time>
      </trkpt>
      <trkpt lat="48.74194" lon="2.02003">
        <ele>121</ele>
        <time>2017-08-20T15:57:35Z</time>
      </trkpt>
      <trkpt lat="48.74196" lon="2.01997">
        <ele>121</ele>
        <time>2017-08-20T15:57:35Z</time>
      </trkpt>
      <trkpt lat="48.742" lon="2.01991">
        <ele>121</ele>
        <time>2017-08-20T15:57:35Z</time>
      </trkpt>
      <trkpt lat="48.74203" lon="2.01984">
        <ele>121</ele>
        <time>2017-08-20T15:57:35Z</time>
      </trkpt>
      <trkpt lat="48.74203" lon="2.01974">
        <ele>121</ele>
        <time>2017-08-20T15:57:51Z</time>
      </trkpt>
      <trkpt lat="48.74204" lon="2.01966">
        <ele>121</ele>
        <time>2017-08-20T15:57:51Z</time>
      </trkpt>
      <trkpt lat="48.74209" lon="2.01963">
        <ele>135</ele>
        <time>2017-08-20T15:57:51Z</time>
      </trkpt>
      <trkpt lat="48.74215" lon="2.01961">
        <ele>135</ele>
        <time>2017-08-20T15:57:51Z</time>
      </trkpt>
      <trkpt lat="48.74221" lon="2.01957">
        <ele>122</ele>
        <time>2017-08-20T15:58:07Z</time>
      </trkpt>
      <trkpt lat="48.74224" lon="2.01953">
        <ele>122</ele>
        <time>2017-08-20T15:58:07Z</time>
      </trkpt>
      <trkpt lat="48.74227" lon="2.01948">
        <ele>122</ele>
        <time>2017-08-20T15:58:07Z</time>
      </trkpt>
      <trkpt lat="48.7423" lon="2.01946">
        <ele>122</ele>
        <time>2017-08-20T15:58:07Z</time>
      </trkpt>
      <trkpt lat="48.74235" lon="2.01943">
        <ele>122</ele>
        <time>2017-08-20T15:58:23Z</time>
      </trkpt>
      <trkpt lat="48.74237" lon="2.01941">
        <ele>122</ele>
        <time>2017-08-20T15:58:23Z</time>
      </trkpt>
      <trkpt lat="48.74241" lon="2.0194">
        <ele>122</ele>
        <time>2017-08-20T15:58:23Z</time>
      </trkpt>
      <trkpt lat="48.74245" lon="2.01937">
        <ele>122</ele>
        <time>2017-08-20T15:58:23Z</time>
      </trkpt>
      <trkpt lat="48.74249" lon="2.01931">
        <ele>122</ele>
        <time>2017-08-20T15:58:39Z</time>
      </trkpt>
      <trkpt lat="48.74254" lon="2.01928">
        <ele>122</ele>
        <time>2017-08-20T15:58:39Z</time>
      </trkpt>
      <trkpt lat="48.74258" lon="2.01924">
        <ele>122</ele>
        <time>2017-08-20T15:58:39Z</time>
      </trkpt>
      <trkpt lat="48.74264" lon="2.0192">
        <ele>122</ele>
        <time>2017-08-20T15:58:39Z</time>
      </trkpt>
      <trkpt lat="48.74267" lon="2.01918">
        <ele>122</ele>
        <time>2017-08-20T15:58:55Z</time>
      </trkpt>
      <trkpt lat="48.7427" lon="2.01917">
        <ele>122</ele>
        <time>2017-08-20T15:58:55Z</time>
      </trkpt>
      <trkpt lat="48.74274" lon="2.01915">
        <ele>122</ele>
        <time>2017-08-20T15:58:55Z</time>
      </trkpt>
      <trkpt lat="48.74278" lon="2.01912">
        <ele>122</ele>
        <time>2017-08-20T15:58:55Z</time>
      </trkpt>
      <trkpt lat="48.74282" lon="2.01911">
        <ele>122</ele>
        <time>2017-08-20T15:59:11Z</time>
      </trkpt>
      <trkpt lat="48.74288" lon="2.01906">
        <ele>122</ele>
        <time>2017-08-20T15:59:11Z</time>
      </trkpt>
      <trkpt lat="48.74292" lon="2.01905">
        <ele>138</ele>
        <time>2017-08-20T15:59:11Z</time>
      </trkpt>
      <trkpt lat="48.74296" lon="2.01905">
        <ele>138</ele>
        <time>2017-08-20T15:59:11Z</time>
      </trkpt>
      <trkpt lat="48.74302" lon="2.01905">
        <ele>138</ele>
        <time>2017-08-20T15:59:27Z</time>
      </trkpt>
      <trkpt lat="48.74306" lon="2.01906">
        <ele>138</ele>
        <time>2017-08-20T15:59:27Z</time>
      </trkpt>
      <trkpt lat="48.74309" lon="2.01903">
        <ele>138</ele>
        <time>2017-08-20T15:59:27Z</time>
      </trkpt>
      <trkpt lat="48.74314" lon="2.01898">
        <ele>138</ele>
        <time>2017-08-20T15:59:27Z</time>
      </trkpt>
      <trkpt lat="48.74318" lon="2.01898">
        <ele>138</ele>
        <time>2017-08-20T15:59:43Z</time>
      </trkpt>
      <trkpt lat="48.74321" lon="2.01897">
        <ele>138</ele>
        <time>2017-08-20T15:59:43Z</time>
      </trkpt>
      <trkpt lat="48.74325" lon="2.01896">
        <ele>138</ele>
        <time>2017-08-20T15:59:43Z</time>
      </trkpt>
      <trkpt lat="48.7433" lon="2.01893">
        <ele>138</ele>
        <time>2017-08-20T15:59:43Z</time>
      </trkpt>
      <trkpt lat="48.74336" lon="2.01887">
        <ele>138</ele>
        <time>2017-08-20T15:59:59Z</time>
      </trkpt>
      <trkpt lat="48.74341" lon="2.01884">
        <ele>138</ele>
        <time>2017-08-20T15:59:59Z</time>
      </trkpt>
      <trkpt lat="48.74346" lon="2.01882">
        <ele>138</ele>
        <time>2017-08-20T15:59:59Z</time>
      </trkpt>
      <trkpt lat="48.74348" lon="2.01879">
        <ele>138</ele>
        <time>2017-08-20T15:59:59Z</time>
      </trkpt>
      <trkpt lat="48.74352" lon="2.01873">
        <ele>124</ele>
        <time>2017-08-20T16:00:15Z</time>
      </trkpt>
      <trkpt lat="48.74356" lon="2.01867">
        <ele>124</ele>
        <time>2017-08-20T16:00:15Z</time>
      </trkpt>
      <trkpt lat="48.74359" lon="2.01864">
        <ele>124</ele>
        <time>2017-08-20T16:00:15Z</time>
      </trkpt>
      <trkpt lat="48.7436" lon="2.01861">
        <ele>124</ele>
        <time>2017-08-20T16:00:15Z</time>
      </trkpt>
      <trkpt lat="48.74366" lon="2.0186">
        <ele>124</ele>
        <time>2017-08-20T16:00:31Z</time>
      </trkpt>
      <trkpt lat="48.7437" lon="2.01858">
        <ele>124</ele>
        <time>2017-08-20T16:00:31Z</time>
      </trkpt>
      <trkpt lat="48.74373" lon="2.01853">
        <ele>124</ele>
        <time>2017-08-20T16:00:31Z</time>
      </trkpt>
      <trkpt lat="48.74378" lon="2.01851">
        <ele>137</ele>
        <time>2017-08-20T16:00:31Z</time>
      </trkpt>
      <trkpt lat="48.74383" lon="2.0185">
        <ele>137</ele>
        <time>2017-08-20T16:00:47Z</time>
      </trkpt>
      <trkpt lat="48.74388" lon="2.0185">
        <ele>137</ele>
        <time>2017-08-20T16:00:47Z</time>
      </trkpt>
      <trkpt lat="48.74394" lon="2.01851">
        <ele>137</ele>
        <time>2017-08-20T16:00:47Z</time>
      </trkpt>
      <trkpt lat="48.74398" lon="2.01848">
        <ele>137</ele>
        <time>2017-08-20T16:00:47Z</time>
      </trkpt>
      <trkpt lat="48.74403" lon="2.01846">
        <ele>137</ele>
        <time>2017-08-20T16:01:03Z</time>
      </trkpt>
      <trkpt lat="48.74407" lon="2.01842">
        <ele>137</ele>
        <time>2017-08-20T16:01:03Z</time>
      </trkpt>
      <trkpt lat="48.74411" lon="2.0184">
        <ele>137</ele>
        <time>2017-08-20T16:01:03Z</time>
      </trkpt>
      <trkpt lat="48.74413" lon="2.01842">
        <ele>137</ele>
        <time>2017-08-20T16:01:03Z</time>
      </trkpt>
      <trkpt lat="48.74418" lon="2.01841">
        <ele>137</ele>
        <time>2017-08-20T16:01:19Z</time>
      </trkpt>
      <trkpt lat="48.74421" lon="2.01838">
        <ele>137</ele>
        <time>2017-08-20T16:01:19Z</time>
      </trkpt>
      <trkpt lat="48.74426" lon="2.01836">
        <ele>137</ele>
        <time>2017-08-20T16:01:19Z</time>
      </trkpt>
      <trkpt lat="48.74429" lon="2.01831">
        <ele>137</ele>
        <time>2017-08-20T16:01:19Z</time>
      </trkpt>
      <trkpt lat="48.74435" lon="2.01832">
        <ele>137</ele>
        <time>2017-08-20T16:01:35Z</time>
      </trkpt>
      <trkpt lat="48.7444" lon="2.01831">
        <ele>137</ele>
        <time>2017-08-20T16:01:35Z</time>
      </trkpt>
      <trkpt lat="48.74449" lon="2.01827">
        <ele>137</ele>
        <time>2017-08-20T16:01:35Z</time>
      </trkpt>
      <trkpt lat="48.74452" lon="2.01824">
        <ele>137</ele>
        <time>2017-08-20T16:01:35Z</time>
      </trkpt>
      <trkpt lat="48.74455" lon="2.01821">
        <ele>137</ele>
        <time>2017-08-20T16:02:03Z</time>
      </trkpt>
      <trkpt lat="48.74455" lon="2.01821">
        <ele>137</ele>
        <time>2017-08-20T16:02:03Z</time>
      </trkpt>
      <trkpt lat="48.74458" lon="2.01819">
        <ele>137</ele>
        <time>2017-08-20T16:02:03Z</time>
      </trkpt>
      <trkpt lat="48.74457" lon="2.01817">
        <ele>137</ele>
        <time>2017-08-20T16:02:03Z</time>
      </trkpt>
      <trkpt lat="48.74458" lon="2.01815">
        <ele>137</ele>
        <time>2017-08-20T16:02:03Z</time>
      </trkpt>
      <trkpt lat="48.74459" lon="2.0181">
        <ele>139</ele>
        <time>2017-08-20T16:02:31Z</time>
      </trkpt>
      <trkpt lat="48.7446" lon="2.0181">
        <ele>139</ele>
        <time>2017-08-20T16:02:31Z</time>
      </trkpt>
      <trkpt lat="48.74462" lon="2.01807">
        <ele>139</ele>
        <time>2017-08-20T16:02:31Z</time>
      </trkpt>
      <trkpt lat="48.74462" lon="2.01807">
        <ele>139</ele>
        <time>2017-08-20T16:02:31Z</time>
      </trkpt>
      <trkpt lat="48.74467" lon="2.01805">
        <ele>139</ele>
        <time>2017-08-20T16:02:31Z</time>
      </trkpt>
      <trkpt lat="48.74465" lon="2.01804">
        <ele>139</ele>
        <time>2017-08-20T16:03:19Z</time>
      </trkpt>
      <trkpt lat="48.74465" lon="2.01803">
        <ele>139</ele>
        <time>2017-08-20T16:03:19Z</time>
      </trkpt>
      <trkpt lat="48.74468" lon="2.018">
        <ele>139</ele>
        <time>2017-08-20T16:03:19Z</time>
      </trkpt>
      <trkpt lat="48.74471" lon="2.01797">
        <ele>139</ele>
        <time>2017-08-20T16:03:19Z</time>
      </trkpt>
      <trkpt lat="48.74475" lon="2.01799">
        <ele>139</ele>
        <time>2017-08-20T16:03:19Z</time>
      </trkpt>
      <trkpt lat="48.74479" lon="2.01797">
        <ele>139</ele>
        <time>2017-08-20T16:03:35Z</time>
      </trkpt>
      <trkpt lat="48.74483" lon="2.01794">
        <ele>139</ele>
        <time>2017-08-20T16:03:35Z</time>
      </trkpt>
      <trkpt lat="48.74488" lon="2.01792">
        <ele>129</ele>
        <time>2017-08-20T16:03:35Z</time>
      </trkpt>
      <trkpt lat="48.74492" lon="2.01788">
        <ele>129</ele>
        <time>2017-08-20T16:03:35Z</time>
      </trkpt>
      <trkpt lat="48.74493" lon="2.01777">
        <ele>129</ele>
        <time>2017-08-20T16:04:07Z</time>
      </trkpt>
      <trkpt lat="48.745" lon="2.01774">
        <ele>129</ele>
        <time>2017-08-20T16:04:07Z</time>
      </trkpt>
      <trkpt lat="48.74507" lon="2.01769">
        <ele>129</ele>
        <time>2017-08-20T16:04:07Z</time>
      </trkpt>
      <trkpt lat="48.74512" lon="2.01766">
        <ele>129</ele>
        <time>2017-08-20T16:04:07Z</time>
      </trkpt>
      <trkpt lat="48.74515" lon="2.01764">
        <ele>129</ele>
        <time>2017-08-20T16:04:07Z</time>
      </trkpt>
      <trkpt lat="48.74517" lon="2.01764">
        <ele>129</ele>
        <time>2017-08-20T16:04:23Z</time>
      </trkpt>
      <trkpt lat="48.74522" lon="2.0176">
        <ele>129</ele>
        <time>2017-08-20T16:04:23Z</time>
      </trkpt>
      <trkpt lat="48.74525" lon="2.01755">
        <ele>129</ele>
        <time>2017-08-20T16:04:23Z</time>
      </trkpt>
      <trkpt lat="48.74528" lon="2.0175">
        <ele>129</ele>
        <time>2017-08-20T16:04:23Z</time>
      </trkpt>
      <trkpt lat="48.74534" lon="2.01741">
        <ele>129</ele>
        <time>2017-08-20T16:05:11Z</time>
      </trkpt>
      <trkpt lat="48.74535" lon="2.0174">
        <ele>129</ele>
        <time>2017-08-20T16:05:11Z</time>
      </trkpt>
      <trkpt lat="48.74538" lon="2.01738">
        <ele>129</ele>
        <time>2017-08-20T16:05:11Z</time>
      </trkpt>
      <trkpt lat="48.74541" lon="2.0174">
        <ele>129</ele>
        <time>2017-08-20T16:05:11Z</time>
      </trkpt>
      <trkpt lat="48.74545" lon="2.01736">
        <ele>135</ele>
        <time>2017-08-20T16:05:11Z</time>
      </trkpt>
      <trkpt lat="48.74546" lon="2.01729">
        <ele>135</ele>
        <time>2017-08-20T16:05:27Z</time>
      </trkpt>
      <trkpt lat="48.74546" lon="2.01721">
        <ele>135</ele>
        <time>2017-08-20T16:05:27Z</time>
      </trkpt>
      <trkpt lat="48.74546" lon="2.01712">
        <ele>135</ele>
        <time>2017-08-20T16:05:27Z</time>
      </trkpt>
      <trkpt lat="48.74546" lon="2.01705">
        <ele>135</ele>
        <time>2017-08-20T16:05:27Z</time>
      </trkpt>
      <trkpt lat="48.74548" lon="2.01694">
        <ele>135</ele>
        <time>2017-08-20T16:05:43Z</time>
      </trkpt>
      <trkpt lat="48.74547" lon="2.01688">
        <ele>135</ele>
        <time>2017-08-20T16:05:43Z</time>
      </trkpt>
      <trkpt lat="48.74545" lon="2.01682">
        <ele>135</ele>
        <time>2017-08-20T16:05:43Z</time>
      </trkpt>
      <trkpt lat="48.74544" lon="2.01675">
        <ele>135</ele>
        <time>2017-08-20T16:05:43Z</time>
      </trkpt>
      <trkpt lat="48.74546" lon="2.01661">
        <ele>135</ele>
        <time>2017-08-20T16:06:15Z</time>
      </trkpt>
      <trkpt lat="48.74546" lon="2.01661">
        <ele>135</ele>
        <time>2017-08-20T16:06:15Z</time>
      </trkpt>
      <trkpt lat="48.74546" lon="2.01657">
        <ele>135</ele>
        <time>2017-08-20T16:06:15Z</time>
      </trkpt>
      <trkpt lat="48.74546" lon="2.01653">
        <ele>135</ele>
        <time>2017-08-20T16:06:15Z</time>
      </trkpt>
      <trkpt lat="48.74544" lon="2.01648">
        <ele>135</ele>
        <time>2017-08-20T16:06:15Z</time>
      </trkpt>
      <trkpt lat="48.74542" lon="2.01638">
        <ele>135</ele>
        <time>2017-08-20T16:06:43Z</time>
      </trkpt>
      <trkpt lat="48.74543" lon="2.01638">
        <ele>135</ele>
        <time>2017-08-20T16:06:43Z</time>
      </trkpt>
      <trkpt lat="48.74542" lon="2.01637">
        <ele>135</ele>
        <time>2017-08-20T16:06:43Z</time>
      </trkpt>
      <trkpt lat="48.74542" lon="2.01635">
        <ele>135</ele>
        <time>2017-08-20T16:06:43Z</time>
      </trkpt>
      <trkpt lat="48.74543" lon="2.01629">
        <ele>135</ele>
        <time>2017-08-20T16:06:43Z</time>
      </trkpt>
      <trkpt lat="48.74541" lon="2.01626">
        <ele>123</ele>
        <time>2017-08-20T16:07:07Z</time>
      </trkpt>
      <trkpt lat="48.74538" lon="2.01624">
        <ele>122</ele>
        <time>2017-08-20T16:07:07Z</time>
      </trkpt>
      <trkpt lat="48.74536" lon="2.01625">
        <ele>122</ele>
        <time>2017-08-20T16:07:07Z</time>
      </trkpt>
      <trkpt lat="48.74533" lon="2.01626">
        <ele>123</ele>
        <time>2017-08-20T16:07:07Z</time>
      </trkpt>
      <trkpt lat="48.74531" lon="2.01623">
        <ele>122</ele>
        <time>2017-08-20T16:07:07Z</time>
      </trkpt>
      <trkpt lat="48.74527" lon="2.01618">
        <ele>122</ele>
        <time>2017-08-20T16:07:23Z</time>
      </trkpt>
      <trkpt lat="48.74524" lon="2.01612">
        <ele>122</ele>
        <time>2017-08-20T16:07:23Z</time>
      </trkpt>
      <trkpt lat="48.74523" lon="2.01609">
        <ele>122</ele>
        <time>2017-08-20T16:07:23Z</time>
      </trkpt>
      <trkpt lat="48.74522" lon="2.01606">
        <ele>122</ele>
        <time>2017-08-20T16:07:23Z</time>
      </trkpt>
      <trkpt lat="48.74525" lon="2.01604">
        <ele>122</ele>
        <time>2017-08-20T16:13:03Z</time>
      </trkpt>
      <trkpt lat="48.74526" lon="2.01604">
        <ele>122</ele>
        <time>2017-08-20T16:13:03Z</time>
      </trkpt>
      <trkpt lat="48.74527" lon="2.01607">
        <ele>122</ele>
        <time>2017-08-20T16:13:03Z</time>
      </trkpt>
      <trkpt lat="48.74528" lon="2.0161">
        <ele>122</ele>
        <time>2017-08-20T16:13:03Z</time>
      </trkpt>
      <trkpt lat="48.7453" lon="2.01613">
        <ele>122</ele>
        <time>2017-08-20T16:13:03Z</time>
      </trkpt>
      <trkpt lat="48.74535" lon="2.0162">
        <ele>122</ele>
        <time>2017-08-20T16:13:35Z</time>
      </trkpt>
      <trkpt lat="48.74535" lon="2.01625">
        <ele>122</ele>
        <time>2017-08-20T16:13:35Z</time>
      </trkpt>
      <trkpt lat="48.74537" lon="2.01624">
        <ele>122</ele>
        <time>2017-08-20T16:13:35Z</time>
      </trkpt>
      <trkpt lat="48.74537" lon="2.01624">
        <ele>122</ele>
        <time>2017-08-20T16:13:35Z</time>
      </trkpt>
      <trkpt lat="48.74536" lon="2.01626">
        <ele>123</ele>
        <time>2017-08-20T16:13:35Z</time>
      </trkpt>
      <trkpt lat="48.74542" lon="2.01629">
        <ele>135</ele>
        <time>2017-08-20T16:14:39Z</time>
      </trkpt>
      <trkpt lat="48.74542" lon="2.01634">
        <ele>135</ele>
        <time>2017-08-20T16:14:39Z</time>
      </trkpt>
      <trkpt lat="48.74545" lon="2.01637">
        <ele>135</ele>
        <time>2017-08-20T16:14:39Z</time>
      </trkpt>
      <trkpt lat="48.74546" lon="2.01642">
        <ele>135</ele>
        <time>2017-08-20T16:14:39Z</time>
      </trkpt>
      <trkpt lat="48.74549" lon="2.01648">
        <ele>135</ele>
        <time>2017-08-20T16:14:39Z</time>
      </trkpt>
      <trkpt lat="48.7455" lon="2.01649">
        <ele>135</ele>
        <time>2017-08-20T16:15:31Z</time>
      </trkpt>
      <trkpt lat="48.7455" lon="2.01653">
        <ele>135</ele>
        <time>2017-08-20T16:15:31Z</time>
      </trkpt>
      <trkpt lat="48.7455" lon="2.01655">
        <ele>135</ele>
        <time>2017-08-20T16:15:31Z</time>
      </trkpt>
      <trkpt lat="48.74548" lon="2.01658">
        <ele>135</ele>
        <time>2017-08-20T16:15:31Z</time>
      </trkpt>
      <trkpt lat="48.74547" lon="2.01662">
        <ele>135</ele>
        <time>2017-08-20T16:15:31Z</time>
      </trkpt>
      <trkpt lat="48.74547" lon="2.01667">
        <ele>135</ele>
        <time>2017-08-20T16:15:47Z</time>
      </trkpt>
      <trkpt lat="48.74547" lon="2.01673">
        <ele>135</ele>
        <time>2017-08-20T16:15:47Z</time>
      </trkpt>
      <trkpt lat="48.74546" lon="2.01678">
        <ele>135</ele>
        <time>2017-08-20T16:15:47Z</time>
      </trkpt>
      <trkpt lat="48.74546" lon="2.01685">
        <ele>135</ele>
        <time>2017-08-20T16:15:47Z</time>
      </trkpt>
      <trkpt lat="48.74546" lon="2.01691">
        <ele>135</ele>
        <time>2017-08-20T16:16:03Z</time>
      </trkpt>
      <trkpt lat="48.74547" lon="2.01695">
        <ele>135</ele>
        <time>2017-08-20T16:16:03Z</time>
      </trkpt>
      <trkpt lat="48.74547" lon="2.01703">
        <ele>135</ele>
        <time>2017-08-20T16:16:03Z</time>
      </trkpt>
      <trkpt lat="48.74547" lon="2.0171">
        <ele>135</ele>
        <time>2017-08-20T16:16:03Z</time>
      </trkpt>
      <trkpt lat="48.74546" lon="2.01717">
        <ele>135</ele>
        <time>2017-08-20T16:16:19Z</time>
      </trkpt>
      <trkpt lat="48.74546" lon="2.01723">
        <ele>135</ele>
        <time>2017-08-20T16:16:19Z</time>
      </trkpt>
      <trkpt lat="48.74546" lon="2.01728">
        <ele>135</ele>
        <time>2017-08-20T16:16:19Z</time>
      </trkpt>
      <trkpt lat="48.74544" lon="2.01734">
        <ele>135</ele>
        <time>2017-08-20T16:16:19Z</time>
      </trkpt>
      <trkpt lat="48.74542" lon="2.01736">
        <ele>135</ele>
        <time>2017-08-20T16:16:39Z</time>
      </trkpt>
      <trkpt lat="48.74539" lon="2.01739">
        <ele>129</ele>
        <time>2017-08-20T16:16:39Z</time>
      </trkpt>
      <trkpt lat="48.74538" lon="2.01741">
        <ele>129</ele>
        <time>2017-08-20T16:16:39Z</time>
      </trkpt>
      <trkpt lat="48.74537" lon="2.01742">
        <ele>129</ele>
        <time>2017-08-20T16:16:39Z</time>
      </trkpt>
      <trkpt lat="48.74535" lon="2.01746">
        <ele>129</ele>
        <time>2017-08-20T16:16:39Z</time>
      </trkpt>
      <trkpt lat="48.74531" lon="2.01753">
        <ele>129</ele>
        <time>2017-08-20T16:17:07Z</time>
      </trkpt>
      <trkpt lat="48.74531" lon="2.01752">
        <ele>129</ele>
        <time>2017-08-20T16:17:07Z</time>
      </trkpt>
      <trkpt lat="48.7453" lon="2.01754">
        <ele>129</ele>
        <time>2017-08-20T16:17:07Z</time>
      </trkpt>
      <trkpt lat="48.74528" lon="2.01757">
        <ele>129</ele>
        <time>2017-08-20T16:17:07Z</time>
      </trkpt>
      <trkpt lat="48.74525" lon="2.01761">
        <ele>129</ele>
        <time>2017-08-20T16:17:07Z</time>
      </trkpt>
      <trkpt lat="48.74522" lon="2.01763">
        <ele>129</ele>
        <time>2017-08-20T16:17:23Z</time>
      </trkpt>
      <trkpt lat="48.74518" lon="2.01769">
        <ele>129</ele>
        <time>2017-08-20T16:17:23Z</time>
      </trkpt>
      <trkpt lat="48.74517" lon="2.0177">
        <ele>129</ele>
        <time>2017-08-20T16:17:23Z</time>
      </trkpt>
      <trkpt lat="48.74513" lon="2.01773">
        <ele>129</ele>
        <time>2017-08-20T16:17:23Z</time>
      </trkpt>
      <trkpt lat="48.74509" lon="2.01773">
        <ele>129</ele>
        <time>2017-08-20T16:17:39Z</time>
      </trkpt>
      <trkpt lat="48.74503" lon="2.01774">
        <ele>129</ele>
        <time>2017-08-20T16:17:39Z</time>
      </trkpt>
      <trkpt lat="48.74499" lon="2.01778">
        <ele>129</ele>
        <time>2017-08-20T16:17:39Z</time>
      </trkpt>
      <trkpt lat="48.74489" lon="2.01776">
        <ele>129</ele>
        <time>2017-08-20T16:17:39Z</time>
      </trkpt>
      <trkpt lat="48.74487" lon="2.01775">
        <ele>129</ele>
        <time>2017-08-20T16:17:55Z</time>
      </trkpt>
      <trkpt lat="48.74477" lon="2.01775">
        <ele>129</ele>
        <time>2017-08-20T16:17:55Z</time>
      </trkpt>
      <trkpt lat="48.74474" lon="2.01773">
        <ele>129</ele>
        <time>2017-08-20T16:17:55Z</time>
      </trkpt>
      <trkpt lat="48.74471" lon="2.01779">
        <ele>129</ele>
        <time>2017-08-20T16:17:55Z</time>
      </trkpt>
      <trkpt lat="48.74471" lon="2.01789">
        <ele>129</ele>
        <time>2017-08-20T16:18:11Z</time>
      </trkpt>
      <trkpt lat="48.74473" lon="2.01805">
        <ele>139</ele>
        <time>2017-08-20T16:18:11Z</time>
      </trkpt>
      <trkpt lat="48.74476" lon="2.01808">
        <ele>139</ele>
        <time>2017-08-20T16:18:11Z</time>
      </trkpt>
      <trkpt lat="48.7448" lon="2.01812">
        <ele>139</ele>
        <time>2017-08-20T16:18:11Z</time>
      </trkpt>
      <trkpt lat="48.74484" lon="2.01818">
        <ele>139</ele>
        <time>2017-08-20T16:18:27Z</time>
      </trkpt>
      <trkpt lat="48.74487" lon="2.01822">
        <ele>139</ele>
        <time>2017-08-20T16:18:27Z</time>
      </trkpt>
      <trkpt lat="48.74491" lon="2.01826">
        <ele>139</ele>
        <time>2017-08-20T16:18:27Z</time>
      </trkpt>
      <trkpt lat="48.74495" lon="2.01831">
        <ele>139</ele>
        <time>2017-08-20T16:18:27Z</time>
      </trkpt>
      <trkpt lat="48.74496" lon="2.01833">
        <ele>139</ele>
        <time>2017-08-20T16:18:43Z</time>
      </trkpt>
      <trkpt lat="48.74501" lon="2.01837">
        <ele>139</ele>
        <time>2017-08-20T16:18:43Z</time>
      </trkpt>
      <trkpt lat="48.74505" lon="2.0184">
        <ele>139</ele>
        <time>2017-08-20T16:18:43Z</time>
      </trkpt>
      <trkpt lat="48.74507" lon="2.01846">
        <ele>139</ele>
        <time>2017-08-20T16:18:43Z</time>
      </trkpt>
      <trkpt lat="48.74509" lon="2.01852">
        <ele>139</ele>
        <time>2017-08-20T16:18:59Z</time>
      </trkpt>
      <trkpt lat="48.74514" lon="2.01855">
        <ele>139</ele>
        <time>2017-08-20T16:18:59Z</time>
      </trkpt>
      <trkpt lat="48.74516" lon="2.01859">
        <ele>139</ele>
        <time>2017-08-20T16:18:59Z</time>
      </trkpt>
      <trkpt lat="48.74519" lon="2.01864">
        <ele>139</ele>
        <time>2017-08-20T16:18:59Z</time>
      </trkpt>
      <trkpt lat="48.74523" lon="2.01869">
        <ele>139</ele>
        <time>2017-08-20T16:19:15Z</time>
      </trkpt>
      <trkpt lat="48.74524" lon="2.01874">
        <ele>139</ele>
        <time>2017-08-20T16:19:15Z</time>
      </trkpt>
      <trkpt lat="48.74525" lon="2.01876">
        <ele>154</ele>
        <time>2017-08-20T16:19:15Z</time>
      </trkpt>
      <trkpt lat="48.74529" lon="2.01885">
        <ele>154</ele>
        <time>2017-08-20T16:19:15Z</time>
      </trkpt>
      <trkpt lat="48.74532" lon="2.01889">
        <ele>154</ele>
        <time>2017-08-20T16:19:31Z</time>
      </trkpt>
      <trkpt lat="48.74536" lon="2.01894">
        <ele>154</ele>
        <time>2017-08-20T16:19:31Z</time>
      </trkpt>
      <trkpt lat="48.74539" lon="2.01899">
        <ele>154</ele>
        <time>2017-08-20T16:19:31Z</time>
      </trkpt>
      <trkpt lat="48.74541" lon="2.01903">
        <ele>154</ele>
        <time>2017-08-20T16:19:31Z</time>
      </trkpt>
      <trkpt lat="48.74546" lon="2.01904">
        <ele>145</ele>
        <time>2017-08-20T16:19:47Z</time>
      </trkpt>
      <trkpt lat="48.74549" lon="2.01909">
        <ele>145</ele>
        <time>2017-08-20T16:19:47Z</time>
      </trkpt>
      <trkpt lat="48.74552" lon="2.01916">
        <ele>145</ele>
        <time>2017-08-20T16:19:47Z</time>
      </trkpt>
      <trkpt lat="48.74554" lon="2.01921">
        <ele>145</ele>
        <time>2017-08-20T16:19:47Z</time>
      </trkpt>
      <trkpt lat="48.74555" lon="2.01927">
        <ele>145</ele>
        <time>2017-08-20T16:20:03Z</time>
      </trkpt>
      <trkpt lat="48.74556" lon="2.01932">
        <ele>145</ele>
        <time>2017-08-20T16:20:03Z</time>
      </trkpt>
      <trkpt lat="48.74559" lon="2.01938">
        <ele>145</ele>
        <time>2017-08-20T16:20:03Z</time>
      </trkpt>
      <trkpt lat="48.7456" lon="2.01942">
        <ele>145</ele>
        <time>2017-08-20T16:20:03Z</time>
      </trkpt>
      <trkpt lat="48.74561" lon="2.0195">
        <ele>145</ele>
        <time>2017-08-20T16:20:19Z</time>
      </trkpt>
      <trkpt lat="48.74561" lon="2.01955">
        <ele>145</ele>
        <time>2017-08-20T16:20:19Z</time>
      </trkpt>
      <trkpt lat="48.74562" lon="2.0196">
        <ele>153</ele>
        <time>2017-08-20T16:20:19Z</time>
      </trkpt>
      <trkpt lat="48.74563" lon="2.01965">
        <ele>153</ele>
        <time>2017-08-20T16:20:19Z</time>
      </trkpt>
      <trkpt lat="48.74565" lon="2.01972">
        <ele>153</ele>
        <time>2017-08-20T16:20:35Z</time>
      </trkpt>
      <trkpt lat="48.74567" lon="2.01974">
        <ele>153</ele>
        <time>2017-08-20T16:20:35Z</time>
      </trkpt>
      <trkpt lat="48.74568" lon="2.01978">
        <ele>153</ele>
        <time>2017-08-20T16:20:35Z</time>
      </trkpt>
      <trkpt lat="48.74569" lon="2.01985">
        <ele>153</ele>
        <time>2017-08-20T16:20:35Z</time>
      </trkpt>
      <trkpt lat="48.74569" lon="2.01992">
        <ele>153</ele>
        <time>2017-08-20T16:20:51Z</time>
      </trkpt>
      <trkpt lat="48.74568" lon="2.01997">
        <ele>153</ele>
        <time>2017-08-20T16:20:51Z</time>
      </trkpt>
      <trkpt lat="48.74569" lon="2.02002">
        <ele>153</ele>
        <time>2017-08-20T16:20:51Z</time>
      </trkpt>
      <trkpt lat="48.74569" lon="2.02008">
        <ele>153</ele>
        <time>2017-08-20T16:20:51Z</time>
      </trkpt>
      <trkpt lat="48.74571" lon="2.02016">
        <ele>153</ele>
        <time>2017-08-20T16:21:07Z</time>
      </trkpt>
      <trkpt lat="48.74572" lon="2.02021">
        <ele>153</ele>
        <time>2017-08-20T16:21:07Z</time>
      </trkpt>
      <trkpt lat="48.74573" lon="2.02027">
        <ele>153</ele>
        <time>2017-08-20T16:21:07Z</time>
      </trkpt>
      <trkpt lat="48.74575" lon="2.02032">
        <ele>153</ele>
        <time>2017-08-20T16:21:07Z</time>
      </trkpt>
      <trkpt lat="48.74575" lon="2.02039">
        <ele>153</ele>
        <time>2017-08-20T16:21:27Z</time>
      </trkpt>
      <trkpt lat="48.74575" lon="2.02044">
        <ele>162</ele>
        <time>2017-08-20T16:21:27Z</time>
      </trkpt>
      <trkpt lat="48.74576" lon="2.02048">
        <ele>162</ele>
        <time>2017-08-20T16:21:27Z</time>
      </trkpt>
      <trkpt lat="48.74577" lon="2.02053">
        <ele>162</ele>
        <time>2017-08-20T16:21:27Z</time>
      </trkpt>
      <trkpt lat="48.74579" lon="2.02058">
        <ele>162</ele>
        <time>2017-08-20T16:21:27Z</time>
      </trkpt>
      <trkpt lat="48.7458" lon="2.02064">
        <ele>162</ele>
        <time>2017-08-20T16:21:43Z</time>
      </trkpt>
      <trkpt lat="48.74581" lon="2.02069">
        <ele>162</ele>
        <time>2017-08-20T16:21:43Z</time>
      </trkpt>
      <trkpt lat="48.74582" lon="2.02074">
        <ele>162</ele>
        <time>2017-08-20T16:21:43Z</time>
      </trkpt>
      <trkpt lat="48.74584" lon="2.02079">
        <ele>162</ele>
        <time>2017-08-20T16:21:43Z</time>
      </trkpt>
      <trkpt lat="48.74586" lon="2.02085">
        <ele>162</ele>
        <time>2017-08-20T16:21:59Z</time>
      </trkpt>
      <trkpt lat="48.74587" lon="2.0209">
        <ele>162</ele>
        <time>2017-08-20T16:21:59Z</time>
      </trkpt>
      <trkpt lat="48.7459" lon="2.02095">
        <ele>162</ele>
        <time>2017-08-20T16:21:59Z</time>
      </trkpt>
      <trkpt lat="48.74592" lon="2.02099">
        <ele>162</ele>
        <time>2017-08-20T16:21:59Z</time>
      </trkpt>
      <trkpt lat="48.74595" lon="2.02102">
        <ele>162</ele>
        <time>2017-08-20T16:22:15Z</time>
      </trkpt>
      <trkpt lat="48.74598" lon="2.02107">
        <ele>162</ele>
        <time>2017-08-20T16:22:15Z</time>
      </trkpt>
      <trkpt lat="48.74601" lon="2.0211">
        <ele>162</ele>
        <time>2017-08-20T16:22:15Z</time>
      </trkpt>
      <trkpt lat="48.74605" lon="2.0212">
        <ele>162</ele>
        <time>2017-08-20T16:22:15Z</time>
      </trkpt>
      <trkpt lat="48.74608" lon="2.02125">
        <ele>162</ele>
        <time>2017-08-20T16:22:31Z</time>
      </trkpt>
      <trkpt lat="48.7461" lon="2.0213">
        <ele>165</ele>
        <time>2017-08-20T16:22:31Z</time>
      </trkpt>
      <trkpt lat="48.74612" lon="2.02136">
        <ele>165</ele>
        <time>2017-08-20T16:22:31Z</time>
      </trkpt>
      <trkpt lat="48.74614" lon="2.02141">
        <ele>165</ele>
        <time>2017-08-20T16:22:31Z</time>
      </trkpt>
      <trkpt lat="48.74616" lon="2.02148">
        <ele>165</ele>
        <time>2017-08-20T16:22:47Z</time>
      </trkpt>
      <trkpt lat="48.74616" lon="2.02151">
        <ele>165</ele>
        <time>2017-08-20T16:22:47Z</time>
      </trkpt>
      <trkpt lat="48.74619" lon="2.02159">
        <ele>165</ele>
        <time>2017-08-20T16:22:47Z</time>
      </trkpt>
      <trkpt lat="48.74621" lon="2.02163">
        <ele>165</ele>
        <time>2017-08-20T16:22:47Z</time>
      </trkpt>
      <trkpt lat="48.74622" lon="2.02165">
        <ele>165</ele>
        <time>2017-08-20T16:23:03Z</time>
      </trkpt>
      <trkpt lat="48.74624" lon="2.02168">
        <ele>165</ele>
        <time>2017-08-20T16:23:03Z</time>
      </trkpt>
      <trkpt lat="48.74626" lon="2.02173">
        <ele>165</ele>
        <time>2017-08-20T16:23:03Z</time>
      </trkpt>
      <trkpt lat="48.74628" lon="2.02176">
        <ele>165</ele>
        <time>2017-08-20T16:23:03Z</time>
      </trkpt>
      <trkpt lat="48.7463" lon="2.02181">
        <ele>165</ele>
        <time>2017-08-20T16:23:19Z</time>
      </trkpt>
      <trkpt lat="48.74634" lon="2.02187">
        <ele>165</ele>
        <time>2017-08-20T16:23:19Z</time>
      </trkpt>
      <trkpt lat="48.74638" lon="2.02187">
        <ele>165</ele>
        <time>2017-08-20T16:23:19Z</time>
      </trkpt>
      <trkpt lat="48.74641" lon="2.02187">
        <ele>165</ele>
        <time>2017-08-20T16:23:19Z</time>
      </trkpt>
      <trkpt lat="48.74647" lon="2.02187">
        <ele>165</ele>
        <time>2017-08-20T16:23:35Z</time>
      </trkpt>
      <trkpt lat="48.7465" lon="2.02185">
        <ele>165</ele>
        <time>2017-08-20T16:23:35Z</time>
      </trkpt>
      <trkpt lat="48.74654" lon="2.02182">
        <ele>165</ele>
        <time>2017-08-20T16:23:35Z</time>
      </trkpt>
      <trkpt lat="48.74657" lon="2.0218">
        <ele>165</ele>
        <time>2017-08-20T16:23:35Z</time>
      </trkpt>
      <trkpt lat="48.74665" lon="2.02174">
        <ele>165</ele>
        <time>2017-08-20T16:23:59Z</time>
      </trkpt>
      <trkpt lat="48.74667" lon="2.02171">
        <ele>165</ele>
        <time>2017-08-20T16:23:59Z</time>
      </trkpt>
      <trkpt lat="48.74668" lon="2.0217">
        <ele>165</ele>
        <time>2017-08-20T16:23:59Z</time>
      </trkpt>
      <trkpt lat="48.74669" lon="2.02168">
        <ele>165</ele>
        <time>2017-08-20T16:23:59Z</time>
      </trkpt>
      <trkpt lat="48.74672" lon="2.02162">
        <ele>165</ele>
        <time>2017-08-20T16:23:59Z</time>
      </trkpt>
      <trkpt lat="48.74677" lon="2.02156">
        <ele>165</ele>
        <time>2017-08-20T16:24:15Z</time>
      </trkpt>
      <trkpt lat="48.7468" lon="2.0215">
        <ele>165</ele>
        <time>2017-08-20T16:24:15Z</time>
      </trkpt>
      <trkpt lat="48.74684" lon="2.02142">
        <ele>165</ele>
        <time>2017-08-20T16:24:15Z</time>
      </trkpt>
      <trkpt lat="48.74683" lon="2.02136">
        <ele>165</ele>
        <time>2017-08-20T16:24:15Z</time>
      </trkpt>
      <trkpt lat="48.74685" lon="2.02127">
        <ele>165</ele>
        <time>2017-08-20T16:24:31Z</time>
      </trkpt>
      <trkpt lat="48.74691" lon="2.02116">
        <ele>165</ele>
        <time>2017-08-20T16:24:31Z</time>
      </trkpt>
      <trkpt lat="48.74691" lon="2.02107">
        <ele>165</ele>
        <time>2017-08-20T16:24:31Z</time>
      </trkpt>
      <trkpt lat="48.74692" lon="2.02102">
        <ele>165</ele>
        <time>2017-08-20T16:24:31Z</time>
      </trkpt>
      <trkpt lat="48.74694" lon="2.02094">
        <ele>165</ele>
        <time>2017-08-20T16:24:47Z</time>
      </trkpt>
      <trkpt lat="48.74697" lon="2.02087">
        <ele>165</ele>
        <time>2017-08-20T16:24:47Z</time>
      </trkpt>
      <trkpt lat="48.74701" lon="2.02083">
        <ele>165</ele>
        <time>2017-08-20T16:24:47Z</time>
      </trkpt>
      <trkpt lat="48.74702" lon="2.02079">
        <ele>165</ele>
        <time>2017-08-20T16:24:47Z</time>
      </trkpt>
      <trkpt lat="48.74702" lon="2.0207">
        <ele>165</ele>
        <time>2017-08-20T16:25:03Z</time>
      </trkpt>
      <trkpt lat="48.74704" lon="2.02057">
        <ele>165</ele>
        <time>2017-08-20T16:25:03Z</time>
      </trkpt>
      <trkpt lat="48.74704" lon="2.02052">
        <ele>165</ele>
        <time>2017-08-20T16:25:03Z</time>
      </trkpt>
      <trkpt lat="48.74707" lon="2.02048">
        <ele>165</ele>
        <time>2017-08-20T16:25:03Z</time>
      </trkpt>
      <trkpt lat="48.74709" lon="2.02044">
        <ele>164</ele>
        <time>2017-08-20T16:25:19Z</time>
      </trkpt>
      <trkpt lat="48.74709" lon="2.0204">
        <ele>164</ele>
        <time>2017-08-20T16:25:19Z</time>
      </trkpt>
      <trkpt lat="48.74713" lon="2.02033">
        <ele>164</ele>
        <time>2017-08-20T16:25:19Z</time>
      </trkpt>
      <trkpt lat="48.74717" lon="2.02027">
        <ele>164</ele>
        <time>2017-08-20T16:25:19Z</time>
      </trkpt>
      <trkpt lat="48.74721" lon="2.0202">
        <ele>164</ele>
        <time>2017-08-20T16:25:35Z</time>
      </trkpt>
      <trkpt lat="48.74722" lon="2.02017">
        <ele>164</ele>
        <time>2017-08-20T16:25:35Z</time>
      </trkpt>
      <trkpt lat="48.74724" lon="2.02013">
        <ele>164</ele>
        <time>2017-08-20T16:25:35Z</time>
      </trkpt>
      <trkpt lat="48.74725" lon="2.02005">
        <ele>164</ele>
        <time>2017-08-20T16:25:35Z</time>
      </trkpt>
      <trkpt lat="48.74727" lon="2.01997">
        <ele>164</ele>
        <time>2017-08-20T16:25:51Z</time>
      </trkpt>
      <trkpt lat="48.74731" lon="2.01987">
        <ele>164</ele>
        <time>2017-08-20T16:25:51Z</time>
      </trkpt>
      <trkpt lat="48.74735" lon="2.01981">
        <ele>164</ele>
        <time>2017-08-20T16:25:51Z</time>
      </trkpt>
      <trkpt lat="48.74739" lon="2.01977">
        <ele>164</ele>
        <time>2017-08-20T16:25:51Z</time>
      </trkpt>
      <trkpt lat="48.74741" lon="2.01974">
        <ele>164</ele>
        <time>2017-08-20T16:26:07Z</time>
      </trkpt>
      <trkpt lat="48.74743" lon="2.0197">
        <ele>164</ele>
        <time>2017-08-20T16:26:07Z</time>
      </trkpt>
      <trkpt lat="48.74746" lon="2.01963">
        <ele>164</ele>
        <time>2017-08-20T16:26:07Z</time>
      </trkpt>
      <trkpt lat="48.74748" lon="2.0196">
        <ele>164</ele>
        <time>2017-08-20T16:26:07Z</time>
      </trkpt>
      <trkpt lat="48.74751" lon="2.01954">
        <ele>165</ele>
        <time>2017-08-20T16:26:23Z</time>
      </trkpt>
      <trkpt lat="48.74757" lon="2.01946">
        <ele>165</ele>
        <time>2017-08-20T16:26:23Z</time>
      </trkpt>
      <trkpt lat="48.74759" lon="2.01938">
        <ele>165</ele>
        <time>2017-08-20T16:26:23Z</time>
      </trkpt>
      <trkpt lat="48.74762" lon="2.01933">
        <ele>165</ele>
        <time>2017-08-20T16:26:23Z</time>
      </trkpt>
      <trkpt lat="48.74764" lon="2.01929">
        <ele>165</ele>
        <time>2017-08-20T16:26:39Z</time>
      </trkpt>
      <trkpt lat="48.74766" lon="2.01924">
        <ele>165</ele>
        <time>2017-08-20T16:26:39Z</time>
      </trkpt>
      <trkpt lat="48.74769" lon="2.01916">
        <ele>165</ele>
        <time>2017-08-20T16:26:39Z</time>
      </trkpt>
      <trkpt lat="48.74769" lon="2.01914">
        <ele>165</ele>
        <time>2017-08-20T16:26:39Z</time>
      </trkpt>
      <trkpt lat="48.74768" lon="2.01913">
        <ele>165</ele>
        <time>2017-08-20T16:26:59Z</time>
      </trkpt>
      <trkpt lat="48.74768" lon="2.01913">
        <ele>165</ele>
        <time>2017-08-20T16:26:59Z</time>
      </trkpt>
      <trkpt lat="48.74767" lon="2.01911">
        <ele>165</ele>
        <time>2017-08-20T16:26:59Z</time>
      </trkpt>
      <trkpt lat="48.74766" lon="2.01905">
        <ele>165</ele>
        <time>2017-08-20T16:26:59Z</time>
      </trkpt>
      <trkpt lat="48.74766" lon="2.01898">
        <ele>165</ele>
        <time>2017-08-20T16:26:59Z</time>
      </trkpt>
      <trkpt lat="48.74769" lon="2.0189">
        <ele>165</ele>
        <time>2017-08-20T16:27:15Z</time>
      </trkpt>
      <trkpt lat="48.7477" lon="2.01882">
        <ele>165</ele>
        <time>2017-08-20T16:27:15Z</time>
      </trkpt>
      <trkpt lat="48.74771" lon="2.01877">
        <ele>165</ele>
        <time>2017-08-20T16:27:15Z</time>
      </trkpt>
      <trkpt lat="48.74772" lon="2.0187">
        <ele>166</ele>
        <time>2017-08-20T16:27:15Z</time>
      </trkpt>
      <trkpt lat="48.74773" lon="2.0186">
        <ele>166</ele>
        <time>2017-08-20T16:27:31Z</time>
      </trkpt>
      <trkpt lat="48.74772" lon="2.01851">
        <ele>166</ele>
        <time>2017-08-20T16:27:31Z</time>
      </trkpt>
      <trkpt lat="48.74779" lon="2.01837">
        <ele>166</ele>
        <time>2017-08-20T16:27:31Z</time>
      </trkpt>
      <trkpt lat="48.7478" lon="2.01833">
        <ele>166</ele>
        <time>2017-08-20T16:27:31Z</time>
      </trkpt>
      <trkpt lat="48.74783" lon="2.01825">
        <ele>166</ele>
        <time>2017-08-20T16:27:47Z</time>
      </trkpt>
      <trkpt lat="48.74788" lon="2.01817">
        <ele>166</ele>
        <time>2017-08-20T16:27:47Z</time>
      </trkpt>
      <trkpt lat="48.74791" lon="2.01807">
        <ele>166</ele>
        <time>2017-08-20T16:27:47Z</time>
      </trkpt>
      <trkpt lat="48.74793" lon="2.01799">
        <ele>164</ele>
        <time>2017-08-20T16:27:47Z</time>
      </trkpt>
      <trkpt lat="48.74793" lon="2.01792">
        <ele>164</ele>
        <time>2017-08-20T16:28:03Z</time>
      </trkpt>
      <trkpt lat="48.74794" lon="2.01784">
        <ele>164</ele>
        <time>2017-08-20T16:28:03Z</time>
      </trkpt>
      <trkpt lat="48.74796" lon="2.01777">
        <ele>164</ele>
        <time>2017-08-20T16:28:03Z</time>
      </trkpt>
      <trkpt lat="48.74798" lon="2.01769">
        <ele>164</ele>
        <time>2017-08-20T16:28:03Z</time>
      </trkpt>
      <trkpt lat="48.74798" lon="2.01761">
        <ele>164</ele>
        <time>2017-08-20T16:28:19Z</time>
      </trkpt>
      <trkpt lat="48.74799" lon="2.01756">
        <ele>164</ele>
        <time>2017-08-20T16:28:19Z</time>
      </trkpt>
      <trkpt lat="48.74801" lon="2.01749">
        <ele>164</ele>
        <time>2017-08-20T16:28:19Z</time>
      </trkpt>
      <trkpt lat="48.74802" lon="2.01741">
        <ele>164</ele>
        <time>2017-08-20T16:28:19Z</time>
      </trkpt>
      <trkpt lat="48.74803" lon="2.01735">
        <ele>164</ele>
        <time>2017-08-20T16:28:35Z</time>
      </trkpt>
      <trkpt lat="48.74806" lon="2.01728">
        <ele>164</ele>
        <time>2017-08-20T16:28:35Z</time>
      </trkpt>
      <trkpt lat="48.74808" lon="2.01722">
        <ele>164</ele>
        <time>2017-08-20T16:28:35Z</time>
      </trkpt>
      <trkpt lat="48.74809" lon="2.01715">
        <ele>164</ele>
        <time>2017-08-20T16:28:35Z</time>
      </trkpt>
      <trkpt lat="48.7481" lon="2.01712">
        <ele>164</ele>
        <time>2017-08-20T16:28:51Z</time>
      </trkpt>
      <trkpt lat="48.74811" lon="2.01705">
        <ele>165</ele>
        <time>2017-08-20T16:28:51Z</time>
      </trkpt>
      <trkpt lat="48.74812" lon="2.01695">
        <ele>165</ele>
        <time>2017-08-20T16:28:51Z</time>
      </trkpt>
      <trkpt lat="48.74815" lon="2.01687">
        <ele>165</ele>
        <time>2017-08-20T16:28:51Z</time>
      </trkpt>
      <trkpt lat="48.74817" lon="2.01681">
        <ele>165</ele>
        <time>2017-08-20T16:29:07Z</time>
      </trkpt>
      <trkpt lat="48.74818" lon="2.01672">
        <ele>165</ele>
        <time>2017-08-20T16:29:07Z</time>
      </trkpt>
      <trkpt lat="48.74819" lon="2.01667">
        <ele>165</ele>
        <time>2017-08-20T16:29:07Z</time>
      </trkpt>
      <trkpt lat="48.7482" lon="2.01661">
        <ele>165</ele>
        <time>2017-08-20T16:29:07Z</time>
      </trkpt>
      <trkpt lat="48.74822" lon="2.01655">
        <ele>165</ele>
        <time>2017-08-20T16:29:23Z</time>
      </trkpt>
      <trkpt lat="48.74825" lon="2.01652">
        <ele>165</ele>
        <time>2017-08-20T16:29:23Z</time>
      </trkpt>
      <trkpt lat="48.74829" lon="2.0165">
        <ele>165</ele>
        <time>2017-08-20T16:29:23Z</time>
      </trkpt>
      <trkpt lat="48.74831" lon="2.01649">
        <ele>165</ele>
        <time>2017-08-20T16:29:23Z</time>
      </trkpt>
      <trkpt lat="48.74833" lon="2.01646">
        <ele>165</ele>
        <time>2017-08-20T16:29:43Z</time>
      </trkpt>
      <trkpt lat="48.74834" lon="2.01645">
        <ele>165</ele>
        <time>2017-08-20T16:29:43Z</time>
      </trkpt>
      <trkpt lat="48.74834" lon="2.01644">
        <ele>165</ele>
        <time>2017-08-20T16:29:43Z</time>
      </trkpt>
      <trkpt lat="48.74837" lon="2.01644">
        <ele>165</ele>
        <time>2017-08-20T16:29:43Z</time>
      </trkpt>
      <trkpt lat="48.74843" lon="2.01643">
        <ele>165</ele>
        <time>2017-08-20T16:29:43Z</time>
      </trkpt>
    </trkseg>
  </trk>
</gpx>